# Wetter Temperatur Luftdruck Luftfeuchtigkeit Sichtweite Windgeschwindigkeit Windrichtung Zeit
1 Clouds 21 1012 47 10000 3.58 105 16:36 01.02.2023
2 Clouds 23 1011 38 10000 4.16 249 13:44 01.02.2023
3 Clouds 23 1011 37 10000 3.73 264 13:19 01.02.2023
4 Clouds 22 1012 41 10000 1.71 265 12:26 01.02.2023
5 Clouds 19 1012 46 10000 1.2 293 10:35 01.02.2023
6 Clouds 14 1015 64 10000 3.72 346 06:54 01.02.2023
7 Clouds 21 1010 27 10000 5.06 181 22:26 31.01.2023
8 Clouds 21 1010 28 10000 6.07 173 20:46 31.01.2023
9 Clear 20 1011 30 10000 5.48 165 19:24 31.01.2023
10 Clear 20 1011 30 10000 5.48 165 19:24 31.01.2023
11 Clear 24 1011 27 10000 4.63 185 16:42 31.01.2023
12 Clear 25 1011 26 10000 4.59 212 15:36 31.01.2023
13 Clear 25 1010 23 10000 5.68 223 15:18 31.01.2023
14 Clear 26 1010 20 10000 6.51 221 12:56 31.01.2023
15 Clear 25 1011 21 10000 5.23 203 11:26 31.01.2023
16 Clear 22 1012 22 10000 5.24 195 09:55 31.01.2023
17 Clear 22 1012 22 10000 5.24 195 09:55 31.01.2023
18 Clear 22 1014 23 10000 4.85 197 09:25 31.01.2023
19 Clear 20 1014 23 10000 4.87 197 08:35 31.01.2023
20 Clouds 14 1015 36 10000 2.76 178 06:20 31.01.2023
21 Clear 15 1014 37 10000 4.07 171 00:25 31.01.2023
22 Clear 15 1015 37 10000 4.71 171 23:23 30.01.2023
23 Clear 16 1015 37 10000 4.71 171 22:43 30.01.2023
24 Clear 17 1015 37 10000 5.32 164 21:26 30.01.2023
25 Clear 18 1015 37 10000 5.32 164 20:42 30.01.2023
26 Clear 19 1015 34 10000 4.05 165 18:26 30.01.2023
27 Clear 22 1015 33 10000 3.49 199 16:56 30.01.2023
28 Clear 24 1013 23 10000 5.54 223 14:28 30.01.2023
29 Clear 23 1013 23 10000 5.54 223 13:33 30.01.2023
30 Clear 22 1014 26 10000 4.7 205 11:28 30.01.2023
31 Clear 21 1015 29 10000 4.59 201 09:55 30.01.2023
32 Clear 19 1017 32 10000 4.39 199 08:59 30.01.2023
33 Clear 15 1018 35 10000 3.74 192 07:36 30.01.2023
34 Clouds 12 1016 42 10000 2.37 188 01:42 30.01.2023
35 Clouds 15 1016 43 10000 2.76 179 23:35 29.01.2023
36 Clouds 16 1017 43 10000 2.97 172 22:37 29.01.2023
37 Clouds 16 1017 43 10000 3.33 169 21:41 29.01.2023
38 Clouds 16 1018 43 10000 3.24 171 20:41 29.01.2023
39 Clouds 17 1017 42 10000 3.23 172 19:50 29.01.2023
40 Clear 17 1017 42 10000 3.3 172 19:27 29.01.2023
41 Clear 19 1017 40 10000 2.63 179 17:50 29.01.2023
42 Clear 20 1016 35 10000 2.29 223 16:21 29.01.2023
43 Clear 21 1015 31 10000 2.5 229 15:29 29.01.2023
44 Clear 21 1015 24 10000 3.12 234 13:30 29.01.2023
45 Clear 21 1015 25 10000 3.4 236 12:45 29.01.2023
46 Clear 21 1016 27 10000 3.54 240 12:23 29.01.2023
47 Clear 20 1016 27 10000 3.54 240 11:54 29.01.2023
48 Clear 20 1016 30 10000 3.94 240 11:27 29.01.2023
49 Clear 18 1018 34 10000 4.41 239 09:59 29.01.2023
50 Clear 14 1020 43 10000 2.39 210 07:20 29.01.2023
51 Clear 9 1020 45 10000 2.3 190 03:40 29.01.2023
52 Clear 11 1020 40 10000 2.9 161 23:27 28.01.2023
53 Clear 12 1021 39 10000 2.61 158 20:38 28.01.2023
54 Clear 13 1022 37 10000 2.57 141 19:52 28.01.2023
55 Clear 13 1022 35 10000 2.52 118 18:33 28.01.2023
56 Clear 14 1021 31 10000 2.19 92 17:20 28.01.2023
57 Clear 16 1020 31 10000 1.75 79 16:25 28.01.2023
58 Clear 17 1020 31 10000 1.75 79 15:49 28.01.2023
59 Clear 18 1020 25 10000 0.82 55 14:35 28.01.2023
60 Clear 18 1019 27 10000 0.18 74 12:57 28.01.2023
61 Clear 17 1020 29 10000 0.77 193 11:55 28.01.2023
62 Clear 16 1021 31 10000 1 181 10:34 28.01.2023
63 Clear 13 1025 43 10000 2.47 53 08:22 28.01.2023
64 Clear 9 1023 56 10000 1.98 51 01:42 28.01.2023
65 Clear 9 1023 53 10000 2.27 52 00:25 28.01.2023
66 Clear 10 1023 51 10000 2.89 57 21:27 27.01.2023
67 Clear 13 1023 48 10000 3.17 57 18:45 27.01.2023
68 Clear 14 1022 47 10000 3.7 54 17:57 27.01.2023
69 Clear 14 1022 45 10000 3.82 50 17:19 27.01.2023
70 Clear 14 1022 45 10000 3.82 50 16:35 27.01.2023
71 Clear 16 1020 37 10000 4.17 44 14:57 27.01.2023
72 Clear 16 1020 36 10000 4.39 42 14:25 27.01.2023
73 Clear 17 1020 40 10000 3.65 46 12:57 27.01.2023
74 Clear 13 1022 59 10000 3.28 59 08:47 27.01.2023
75 Clouds 11 1023 87 10000 3.9 38 06:20 27.01.2023
76 Clouds 11 1019 76 10000 3.56 29 22:59 26.01.2023
77 Clouds 12 1019 75 10000 3.61 33 21:42 26.01.2023
78 Clouds 12 1019 75 10000 4.1 37 20:39 26.01.2023
79 Clouds 13 1019 72 10000 5.19 39 19:26 26.01.2023
80 Clouds 14 1019 72 10000 5.9 40 17:42 26.01.2023
81 Rain 15 1017 68 10000 3.58 6 16:27 26.01.2023
82 Clouds 15 1017 68 10000 3.58 6 15:56 26.01.2023
83 Clouds 15 1017 68 10000 3.58 6 15:32 26.01.2023
84 Clouds 16 1017 68 10000 2.9 344 14:58 26.01.2023
85 Clouds 17 1016 69 10000 1.68 315 13:32 26.01.2023
86 Clouds 17 1016 73 10000 0.95 230 11:53 26.01.2023
87 Clouds 17 1018 74 10000 1.83 146 10:33 26.01.2023
88 Clouds 16 1018 74 10000 1.83 147 09:44 26.01.2023
89 Clouds 16 1019 79 10000 2.24 131 08:26 26.01.2023
90 Clouds 13 1019 86 10000 2.87 112 06:27 26.01.2023
91 Clouds 13 1016 87 10000 2.84 93 23:40 25.01.2023
92 Clouds 13 1016 86 10000 2.48 115 22:26 25.01.2023
93 Rain 14 1016 85 10000 4.58 145 21:25 25.01.2023
94 Clouds 14 1016 85 10000 4.02 136 19:50 25.01.2023
95 Rain 14 1016 81 10000 4.06 120 18:24 25.01.2023
96 Rain 14 1016 81 10000 4.06 120 18:24 25.01.2023
97 Clouds 15 1016 74 10000 3.42 141 15:57 25.01.2023
98 Rain 16 1015 63 10000 4.44 142 13:58 25.01.2023
99 Clouds 15 1015 68 10000 5.19 147 11:37 25.01.2023
100 Rain 14 1017 69 10000 4.78 143 09:52 25.01.2023
101 Clouds 16 1018 71 10000 4.59 134 08:59 25.01.2023
102 Clouds 13 1019 88 10000 4.19 101 06:18 25.01.2023
103 Rain 13 1017 85 10000 2.82 119 00:27 25.01.2023
104 Clouds 13 1017 75 10000 4.67 108 21:55 24.01.2023
105 Clouds 13 1018 69 10000 4.44 117 21:26 24.01.2023
106 Clouds 13 1018 65 10000 4.33 117 19:28 24.01.2023
107 Clouds 14 1018 61 10000 4.27 115 18:29 24.01.2023
108 Clouds 15 1018 58 10000 3.31 132 17:18 24.01.2023
109 Clouds 16 1018 58 10000 3.31 132 16:47 24.01.2023
110 Clouds 18 1016 50 10000 5.76 150 13:57 24.01.2023
111 Rain 18 1016 48 10000 5.11 150 12:21 24.01.2023
112 Clouds 16 1018 55 10000 6.22 142 09:36 24.01.2023
113 Clouds 16 1020 64 10000 7.09 134 08:20 24.01.2023
114 Clouds 15 1020 64 10000 7.09 134 07:49 24.01.2023
115 Clouds 12 1019 62 10000 3.02 97 02:54 24.01.2023
116 Clouds 13 1018 58 10000 3.43 108 00:41 24.01.2023
117 Clouds 14 1018 57 10000 3.54 126 23:29 23.01.2023
118 Clouds 15 1019 54 10000 3.07 137 20:54 23.01.2023
119 Clouds 16 1019 53 10000 3.55 119 19:29 23.01.2023
120 Clouds 17 1019 51 10000 3.13 113 17:32 23.01.2023
121 Clouds 19 1017 42 10000 3.38 118 15:33 23.01.2023
122 Clouds 19 1017 40 10000 3.85 137 13:57 23.01.2023
123 Clouds 19 1016 42 10000 5.38 136 13:21 23.01.2023
124 Clouds 19 1016 42 10000 5.38 136 12:44 23.01.2023
125 Clouds 19 1018 40 10000 3.47 144 11:29 23.01.2023
126 Clouds 15 1020 48 10000 6.38 157 08:25 23.01.2023
127 Clouds 15 1020 48 10000 6.37 156 08:25 23.01.2023
128 Rain 13 1018 59 10000 3.77 123 02:23 23.01.2023
129 Clouds 15 1018 53 10000 3.67 130 22:55 22.01.2023
130 Clouds 15 1019 49 10000 3.48 149 21:19 22.01.2023
131 Clear 16 1019 47 10000 4.73 138 20:24 22.01.2023
132 Clouds 17 1019 43 10000 4.42 134 19:45 22.01.2023
133 Clouds 17 1019 41 10000 3.84 128 18:53 22.01.2023
134 Clouds 17 1019 39 10000 3.77 127 17:57 22.01.2023
135 Clouds 17 1018 36 10000 3.89 126 17:26 22.01.2023
136 Clouds 18 1017 34 10000 4.07 126 16:21 22.01.2023
137 Clouds 20 1017 31 10000 4.13 131 14:54 22.01.2023
138 Clouds 20 1016 30 10000 4.77 140 13:40 22.01.2023
139 Clouds 21 1016 29 10000 4.63 147 12:47 22.01.2023
140 Clouds 20 1016 30 10000 4.55 152 11:35 22.01.2023
141 Clouds 18 1019 35 10000 5.63 158 09:36 22.01.2023
142 Clouds 14 1020 38 10000 5.52 157 07:39 22.01.2023
143 Clouds 12 1019 52 10000 3.54 154 02:37 22.01.2023
144 Clouds 13 1019 51 10000 3.56 148 23:33 21.01.2023
145 Clouds 13 1019 51 10000 3.56 148 22:34 21.01.2023
146 Clouds 14 1020 49 10000 3.88 139 19:48 21.01.2023
147 Clouds 16 1020 44 10000 3.75 123 17:51 21.01.2023
148 Clear 20 1018 37 10000 4.18 135 14:42 21.01.2023
149 Clouds 20 1018 34 10000 3.87 145 12:58 21.01.2023
150 Clouds 20 1018 34 10000 3.87 145 12:36 21.01.2023
151 Clear 19 1019 35 10000 4.18 151 11:27 21.01.2023
152 Clear 17 1020 37 10000 4.26 147 09:35 21.01.2023
153 Clear 9 1022 53 10000 3.18 147 04:41 21.01.2023
154 Clear 10 1021 46 10000 2.49 123 22:29 20.01.2023
155 Clear 12 1021 46 10000 2.48 123 21:57 20.01.2023
156 Clear 12 1021 46 10000 2.49 123 21:33 20.01.2023
157 Clear 13 1021 43 10000 2.81 117 19:55 20.01.2023
158 Clear 15 1021 37 10000 2.47 113 17:20 20.01.2023
159 Clear 18 1020 32 10000 1.92 94 14:47 20.01.2023
160 Clear 17 1020 30 10000 1.42 81 13:51 20.01.2023
161 Clear 15 1020 32 10000 1.42 139 10:36 20.01.2023
162 Clear 15 1023 40 10000 1.33 120 08:58 20.01.2023
163 Clear 8 1024 55 10000 1.19 52 06:39 20.01.2023
164 Clear 7 1023 61 10000 1.51 19 02:31 20.01.2023
165 Clear 10 1023 55 10000 2.28 3 22:37 19.01.2023
166 Clear 10 1023 53 10000 2.33 11 21:37 19.01.2023
167 Clear 12 1023 47 10000 3.24 33 19:29 19.01.2023
168 Clear 14 1023 45 10000 3.44 33 17:39 19.01.2023
169 Clear 17 1022 29 10000 3.86 358 14:25 19.01.2023
170 Clouds 16 1024 37 10000 4.13 350 10:22 19.01.2023
171 Clouds 13 1025 41 10000 4 350 08:55 19.01.2023
172 Clouds 9 1024 56 10000 4.27 332 22:41 18.01.2023
173 Clouds 11 1024 50 10000 3.65 342 20:21 18.01.2023
174 Clouds 11 1024 50 10000 3.65 342 19:45 18.01.2023
175 Clear 11 1024 46 10000 4.13 351 19:27 18.01.2023
176 Clear 14 1022 44 10000 3.93 344 16:22 18.01.2023
177 Clear 17 1021 38 10000 5.27 347 14:20 18.01.2023
178 Clouds 17 1021 42 10000 5.36 347 12:25 18.01.2023
179 Clouds 13 1023 49 10000 5.28 353 09:37 18.01.2023
180 Clouds 9 1025 64 10000 6.28 353 06:44 18.01.2023
181 Clear 9 1021 79 10000 6.02 342 00:59 18.01.2023
182 Clear 11 1021 77 10000 5.96 352 21:38 17.01.2023
183 Clear 12 1021 75 10000 6.44 359 19:42 17.01.2023
184 Clear 14 1020 55 10000 6.3 347 18:51 17.01.2023
185 Clear 15 1020 47 10000 5.82 333 17:40 17.01.2023
186 Clear 18 1017 29 10000 7.7 314 15:27 17.01.2023
187 Clear 21 1017 29 10000 7.7 314 14:45 17.01.2023
188 Clouds 20 1016 25 10000 8.8 303 13:33 17.01.2023
189 Clouds 18 1015 33 10000 8.25 295 11:47 17.01.2023
190 Clouds 20 1017 67 10000 6.91 275 09:36 17.01.2023
191 Clouds 20 1017 67 10000 6.91 275 08:45 17.01.2023
192 Clouds 18 1017 61 10000 5.28 257 07:28 17.01.2023
193 Clouds 15 1014 72 10000 4.73 168 01:32 17.01.2023
194 Clouds 15 1014 73 10000 5.69 149 01:32 17.01.2023
195 Clouds 15 1014 73 10000 5.7 149 00:48 17.01.2023
196 Clouds 16 1015 72 10000 5.17 147 22:38 16.01.2023
197 Clouds 16 1015 71 10000 5.38 148 21:39 16.01.2023
198 Clear 18 1016 64 10000 5.51 137 19:50 16.01.2023
199 Clouds 18 1016 63 10000 5.91 133 18:57 16.01.2023
200 Clouds 18 1016 62 10000 5.44 132 18:29 16.01.2023
201 Clouds 18 1016 62 10000 5.44 132 17:59 16.01.2023
202 Clouds 18 1016 60 10000 4.85 133 17:20 16.01.2023
203 Clouds 20 1014 48 10000 6.04 157 13:47 16.01.2023
204 Clouds 20 1015 48 10000 6.69 161 13:29 16.01.2023
205 Clouds 16 1017 53 10000 7.37 148 10:22 16.01.2023
206 Clouds 13 1019 60 10000 5.71 136 07:36 16.01.2023
207 Clear 13 1018 67 10000 3.33 139 22:43 15.01.2023
208 Clouds 14 1018 60 10000 3.51 127 20:50 15.01.2023
209 Clouds 14 1018 59 10000 2.44 126 20:26 15.01.2023
210 Clouds 16 1018 57 10000 1.82 124 18:57 15.01.2023
211 Clouds 18 1018 57 10000 2.09 125 17:23 15.01.2023
212 Clouds 20 1015 46 10000 2.5 172 13:44 15.01.2023
213 Clouds 19 1016 46 10000 3.24 208 12:19 15.01.2023
214 Clouds 19 1017 49 10000 5.09 206 11:28 15.01.2023
215 Clouds 17 1018 53 10000 6 194 10:21 15.01.2023
216 Clouds 15 1020 59 10000 6.36 176 07:38 15.01.2023
217 Clouds 13 1018 79 10000 4.82 148 23:30 14.01.2023
218 Clouds 14 1018 78 10000 5.69 149 22:43 14.01.2023
219 Clouds 14 1018 80 10000 5.27 150 21:36 14.01.2023
220 Clear 14 1019 80 10000 5.02 148 21:18 14.01.2023
221 Clear 14 1019 80 10000 5.03 148 21:18 14.01.2023
222 Clear 14 1019 80 10000 5.03 148 20:40 14.01.2023
223 Clear 14 1019 79 10000 5.14 149 20:21 14.01.2023
224 Clear 16 1019 70 10000 4.99 150 17:49 14.01.2023
225 Clear 16 1017 59 10000 6.49 161 15:31 14.01.2023
226 Clear 15 1017 59 10000 6.49 161 14:56 14.01.2023
227 Clear 15 1016 54 10000 7.45 165 13:44 14.01.2023
228 Rain 15 1017 55 10000 7.77 169 12:26 14.01.2023
229 Clouds 13 1017 56 10000 8 167 10:48 14.01.2023
230 Clouds 14 1020 62 10000 7.18 157 08:20 14.01.2023
231 Rain 12 1019 76 10000 4.76 146 00:50 14.01.2023
232 Clouds 12 1020 78 10000 4.09 149 22:59 13.01.2023
233 Clouds 12 1020 78 10000 4.09 149 22:40 13.01.2023
234 Clouds 13 1021 78 10000 3.67 149 21:56 13.01.2023
235 Rain 13 1021 70 10000 4.4 149 20:24 13.01.2023
236 Clouds 14 1021 67 10000 4.55 148 19:25 13.01.2023
237 Clouds 16 1020 55 10000 4.82 131 16:58 13.01.2023
238 Clouds 17 1019 50 10000 5.38 135 14:45 13.01.2023
239 Clouds 18 1020 49 10000 5.47 154 12:21 13.01.2023
240 Clouds 17 1020 50 10000 5.91 154 10:37 13.01.2023
241 Clouds 17 1021 49 10000 6.23 154 10:18 13.01.2023
242 Clouds 15 1021 49 10000 6.23 154 09:39 13.01.2023
243 Clouds 13 1023 50 10000 5.72 149 08:49 13.01.2023
244 Clouds 13 1023 50 10000 5.72 149 08:49 13.01.2023
245 Clouds 10 1023 58 10000 5.34 145 06:56 13.01.2023
246 Clear 9 1023 64 10000 4.23 142 05:45 13.01.2023
247 Clouds 10 1021 69 10000 3.93 147 00:48 13.01.2023
248 Clouds 10 1021 67 10000 4.15 143 22:46 12.01.2023
249 Clouds 11 1022 65 10000 4.2 131 21:19 12.01.2023
250 Clouds 11 1022 65 10000 4.2 131 20:46 12.01.2023
251 Clouds 13 1022 57 10000 3.91 122 18:26 12.01.2023
252 Clouds 13 1022 55 10000 3.76 124 16:48 12.01.2023
253 Clouds 14 1021 52 10000 3.76 136 14:54 12.01.2023
254 Clouds 14 1021 51 10000 4.02 136 14:25 12.01.2023
255 Clouds 14 1021 51 10000 3.82 139 13:33 12.01.2023
256 Clouds 13 1021 50 10000 3.69 141 11:22 12.01.2023
257 Clouds 11 1022 51 10000 3.38 131 09:40 12.01.2023
258 Clouds 9 1025 57 10000 2.23 71 06:45 12.01.2023
259 Clouds 10 1023 63 10000 2.55 27 00:31 12.01.2023
260 Clouds 10 1024 61 10000 2.27 25 23:48 11.01.2023
261 Clouds 10 1024 61 10000 2.27 25 23:30 11.01.2023
262 Clouds 11 1023 58 10000 3.03 55 22:50 11.01.2023
263 Clouds 11 1025 56 10000 2.73 37 20:59 11.01.2023
264 Clouds 12 1025 54 10000 2.98 39 18:50 11.01.2023
265 Clouds 12 1025 58 10000 2.7 40 17:30 11.01.2023
266 Clouds 12 1023 53 10000 2.99 24 15:38 11.01.2023
267 Clouds 12 1023 51 10000 3.75 11 13:54 11.01.2023
268 Clouds 13 1023 51 10000 3.69 8 12:25 11.01.2023
269 Clouds 11 1023 53 10000 4.09 3 10:53 11.01.2023
270 Clouds 10 1027 66 10000 5.43 9 08:31 11.01.2023
271 Clouds 10 1027 70 10000 5.32 7 07:27 11.01.2023
272 Clouds 8 1025 74 10000 4.99 5 04:37 11.01.2023
273 Clouds 9 1025 73 10000 5.12 14 22:46 10.01.2023
274 Clouds 9 1025 72 10000 5.41 20 22:18 10.01.2023
275 Clouds 10 1025 68 10000 4.77 11 20:43 10.01.2023
276 Clouds 12 1025 67 10000 4.93 4 19:51 10.01.2023
277 Clear 12 1024 65 10000 6.05 16 18:48 10.01.2023
278 Clear 12 1024 65 10000 6.05 16 18:48 10.01.2023
279 Clear 13 1024 59 10000 6.16 14 17:59 10.01.2023
280 Clear 13 1022 51 10000 5.58 1 16:54 10.01.2023
281 Clear 15 1021 47 10000 5.59 355 15:33 10.01.2023
282 Clear 16 1019 37 10000 6.42 346 14:35 10.01.2023
283 Clouds 17 1018 35 10000 6 341 12:31 10.01.2023
284 Clouds 17 1020 44 10000 5.84 330 09:42 10.01.2023
285 Clouds 16 1021 50 10000 6.25 327 08:37 10.01.2023
286 Clouds 14 1021 50 10000 6.25 327 07:34 10.01.2023
287 Clouds 14 1019 70 10000 3.14 319 04:58 10.01.2023
288 Rain 15 1016 80 10000 5.54 263 23:57 09.01.2023
289 Clouds 15 1015 72 10000 5.53 184 21:55 09.01.2023
290 Clear 15 1015 73 10000 6.46 173 20:46 09.01.2023
291 Clear 15 1015 70 10000 8.37 163 19:41 09.01.2023
292 Clouds 15 1015 66 10000 7.3 160 18:21 09.01.2023
293 Clouds 16 1015 66 10000 7.29 160 17:49 09.01.2023
294 Clouds 16 1016 65 10000 6.12 170 16:33 09.01.2023
295 Clouds 17 1016 65 10000 6.12 170 15:31 09.01.2023
296 Clouds 18 1015 60 10000 6.83 182 14:53 09.01.2023
297 Clouds 18 1015 59 10000 7.83 176 14:20 09.01.2023
298 Clouds 17 1015 56 10000 8.53 174 12:49 09.01.2023
299 Clouds 18 1015 58 10000 8.84 170 11:45 09.01.2023
300 Clouds 18 1016 61 10000 8.58 168 11:18 09.01.2023
301 Clouds 13 1021 66 10000 6.95 150 06:53 09.01.2023
302 Clouds 14 1019 69 10000 4.94 126 02:55 09.01.2023
303 Clouds 14 1020 69 10000 4.74 126 00:50 09.01.2023
304 Clouds 14 1020 68 10000 5.1 132 21:43 08.01.2023
305 Clouds 14 1021 68 10000 4.79 137 21:20 08.01.2023
306 Clouds 14 1021 68 10000 4.79 137 20:33 08.01.2023
307 Clouds 15 1021 64 10000 4.36 118 17:59 08.01.2023
308 Clouds 15 1020 64 10000 3.98 118 17:21 08.01.2023
309 Clouds 17 1019 65 10000 3.75 119 15:49 08.01.2023
310 Clouds 17 1020 64 10000 3.61 118 15:49 08.01.2023
311 Clear 17 1019 62 10000 3.51 127 15:30 08.01.2023
312 Clear 17 1018 59 10000 3.39 138 13:58 08.01.2023
313 Clouds 17 1018 58 10000 3.17 144 13:29 08.01.2023
314 Clouds 17 1019 58 10000 2.88 146 12:24 08.01.2023
315 Clouds 15 1021 60 10000 1.72 126 09:55 08.01.2023
316 Clouds 15 1021 60 10000 1.72 126 09:35 08.01.2023
317 Clouds 13 1023 64 10000 2.14 107 07:45 08.01.2023
318 Clouds 12 1021 73 10000 2.15 57 23:59 07.01.2023
319 Clouds 12 1021 73 10000 2.72 59 22:47 07.01.2023
320 Clouds 12 1021 73 10000 2.34 52 22:23 07.01.2023
321 Clouds 13 1021 73 10000 2.34 52 21:46 07.01.2023
322 Clouds 13 1022 71 10000 1.76 46 20:31 07.01.2023
323 Clouds 14 1021 67 10000 3.43 73 19:29 07.01.2023
324 Clouds 14 1021 67 10000 2.5 45 18:26 07.01.2023
325 Clouds 14 1021 67 10000 2.5 45 17:44 07.01.2023
326 Clouds 14 1021 67 10000 2.44 18 17:20 07.01.2023
327 Clouds 14 1020 68 10000 2.41 15 16:29 07.01.2023
328 Clouds 15 1020 68 10000 2.41 15 15:46 07.01.2023
329 Clouds 15 1020 68 10000 2.32 14 15:22 07.01.2023
330 Clouds 15 1020 68 10000 2.32 14 15:22 07.01.2023
331 Clouds 15 1020 68 10000 1.81 2 14:26 07.01.2023
332 Clouds 15 1020 68 10000 1.81 2 13:43 07.01.2023
333 Clouds 15 1019 68 10000 0.87 83 13:22 07.01.2023
334 Clouds 15 1020 70 10000 0.99 65 12:21 07.01.2023
335 Clouds 14 1021 70 10000 1.1 45 10:41 07.01.2023
336 Clouds 14 1022 73 10000 1.37 26 10:18 07.01.2023
337 Clouds 11 1024 79 10000 0.63 54 08:18 07.01.2023
338 Clouds 10 1024 79 10000 0.63 54 07:43 07.01.2023
339 Clouds 10 1024 82 10000 0.58 156 06:49 07.01.2023
340 Clouds 9 1022 86 10000 1.98 331 23:54 06.01.2023
341 Clouds 9 1023 83 10000 2.38 24 22:22 06.01.2023
342 Clouds 9 1023 83 10000 2.38 24 21:58 06.01.2023
343 Clouds 9 1024 83 10000 1.85 34 20:38 06.01.2023
344 Clouds 10 1024 82 10000 3.17 41 19:56 06.01.2023
345 Clouds 10 1024 82 10000 3.17 41 19:38 06.01.2023
346 Clouds 10 1024 80 10000 3.44 39 19:20 06.01.2023
347 Clouds 10 1024 79 10000 3.57 10 17:56 06.01.2023
348 Clouds 10 1024 79 10000 3.51 24 16:54 06.01.2023
349 Rain 10 1023 81 10000 3.76 16 16:23 06.01.2023
350 Rain 10 1023 81 10000 3.76 16 15:53 06.01.2023
351 Rain 10 1023 81 10000 3.76 16 15:31 06.01.2023
352 Rain 10 1023 81 10000 3.76 16 15:31 06.01.2023
353 Rain 11 1021 79 10000 3.77 15 13:46 06.01.2023
354 Clouds 11 1022 81 10000 3.48 22 12:21 06.01.2023
355 Clouds 10 1022 83 10000 3.24 39 10:57 06.01.2023
356 Clouds 10 1025 84 10000 3.78 1 08:51 06.01.2023
357 Rain 10 1024 81 10000 4.12 18 05:26 06.01.2023
358 Clouds 11 1021 73 10000 3.65 32 23:39 05.01.2023
359 Rain 12 1022 73 10000 3.13 11 22:45 05.01.2023
360 Clouds 11 1021 72 10000 5.15 30 21:19 05.01.2023
361 Clouds 13 1021 74 10000 3.31 3 17:39 05.01.2023
362 Clouds 13 1021 71 10000 3.63 1 17:21 05.01.2023
363 Clouds 13 1020 69 10000 3.7 14 15:58 05.01.2023
364 Clouds 13 1020 69 10000 3.69 14 15:34 05.01.2023
365 Clouds 13 1020 67 10000 5.12 9 14:33 05.01.2023
366 Clouds 13 1018 69 10000 5.71 353 12:41 05.01.2023
367 Clouds 13 1018 72 10000 4.64 349 11:36 05.01.2023
368 Clouds 14 1019 73 10000 3.78 351 09:43 05.01.2023
369 Clouds 14 1021 76 10000 3.33 337 08:22 05.01.2023
370 Clouds 14 1021 73 10000 4.25 334 06:50 05.01.2023
371 Clouds 14 1017 76 10000 3.27 282 02:56 05.01.2023
372 Clouds 15 1015 76 10000 7.55 167 22:27 04.01.2023
373 Clouds 15 1015 76 10000 7.55 167 21:32 04.01.2023
374 Rain 16 1017 74 10000 6.36 157 20:23 04.01.2023
375 Rain 17 1017 74 10000 6.36 157 19:47 04.01.2023
376 Rain 17 1017 69 10000 6.98 149 19:29 04.01.2023
377 Clouds 17 1017 68 10000 5.34 147 18:18 04.01.2023
378 Clouds 16 1017 67 10000 5.01 150 16:31 04.01.2023
379 Rain 17 1016 61 10000 6.12 156 14:52 04.01.2023
380 Clouds 16 1016 60 10000 8.13 165 13:30 04.01.2023
381 Clouds 15 1018 69 10000 8.54 172 11:24 04.01.2023
382 Clouds 15 1018 69 10000 8.54 172 10:44 04.01.2023
383 Clouds 15 1019 73 10000 8.9 166 10:25 04.01.2023
384 Clouds 14 1019 73 10000 8.9 166 09:52 04.01.2023
385 Clouds 12 1022 93 10000 5.86 151 05:39 04.01.2023
386 Rain 13 1022 95 10000 3.88 133 01:41 04.01.2023
387 Clouds 13 1022 93 10000 4.2 160 23:42 03.01.2023
388 Clouds 13 1022 94 10000 4.25 132 22:56 03.01.2023
389 Clouds 14 1023 93 10000 4.59 124 21:39 03.01.2023
390 Rain 14 1024 90 10000 5.23 141 20:50 03.01.2023
391 Clouds 15 1025 92 10000 5.82 138 18:40 03.01.2023
392 Clouds 16 1025 87 10000 3.54 149 16:40 03.01.2023
393 Clouds 16 1024 81 10000 3.95 136 15:28 03.01.2023
394 Clouds 17 1024 77 10000 3.65 131 13:33 03.01.2023
395 Clouds 17 1024 79 10000 3.57 123 12:59 03.01.2023
396 Clouds 17 1024 82 10000 3.38 120 12:31 03.01.2023
397 Clouds 16 1024 82 10000 3.38 120 11:56 03.01.2023
398 Clouds 13 1028 90 10000 0.19 333 09:26 03.01.2023
399 Rain 12 1026 93 10000 2.81 168 04:26 03.01.2023
400 Rain 12 1026 93 10000 2.81 168 03:47 03.01.2023
401 Rain 12 1026 92 10000 3.28 143 03:28 03.01.2023
402 Clouds 12 1026 91 10000 4.03 147 23:19 02.01.2023
403 Clouds 12 1026 91 10000 4.03 147 22:39 02.01.2023
404 Rain 12 1028 87 10000 2.84 126 20:51 02.01.2023
405 Rain 12 1028 86 10000 2.61 94 20:31 02.01.2023
406 Rain 12 1028 81 10000 3.8 82 18:45 02.01.2023
407 Rain 12 1026 81 10000 4.23 89 15:43 02.01.2023
408 Rain 13 1026 73 10000 1.29 65 13:51 02.01.2023
409 Rain 13 1024 54 10000 2.26 107 12:19 02.01.2023
410 Rain 13 1024 54 10000 3.7 105 10:57 02.01.2023
411 Clouds 11 1027 59 10000 3.32 106 08:38 02.01.2023
412 Rain 11 1026 65 10000 2.13 99 04:38 02.01.2023
413 Clouds 11 1025 68 10000 2.9 96 23:18 01.01.2023
414 Clouds 12 1025 66 10000 3.26 83 21:46 01.01.2023
415 Clouds 12 1025 66 10000 3.68 91 20:49 01.01.2023
416 Clouds 12 1026 66 10000 4 83 20:18 01.01.2023
417 Clouds 12 1026 66 10000 4.4 80 18:47 01.01.2023
418 Clouds 13 1025 60 10000 4.21 76 17:23 01.01.2023
419 Clouds 13 1024 56 10000 3.94 84 16:34 01.01.2023
420 Clouds 14 1024 53 10000 3.95 95 15:28 01.01.2023
421 Clouds 15 1023 51 10000 3.99 104 13:48 01.01.2023
422 Clouds 15 1023 53 10000 3.44 111 12:45 01.01.2023
423 Clouds 14 1024 60 10000 2.91 131 11:40 01.01.2023
424 Clouds 14 1024 60 10000 2.91 131 10:53 01.01.2023
425 Clouds 13 1026 69 10000 4 135 09:23 01.01.2023
426 Rain 12 1027 70 10000 3.96 131 08:24 01.01.2023
427 Rain 12 1028 74 10000 3.68 128 07:29 01.01.2023
428 Clouds 10 1027 80 10000 3.03 112 05:58 01.01.2023
429 Clouds 11 1026 82 10000 2.46 132 23:44 31.12.2022
430 Clouds 11 1026 81 10000 2.56 132 23:20 31.12.2022
431 Clouds 11 1026 81 10000 2.46 130 21:45 31.12.2022
432 Clouds 11 1026 80 10000 3.03 128 21:22 31.12.2022
433 Clouds 11 1026 77 10000 3.33 127 20:20 31.12.2022
434 Clouds 12 1026 75 10000 3.58 112 18:45 31.12.2022
435 Clouds 12 1026 75 10000 2.85 105 18:20 31.12.2022
436 Clouds 13 1026 75 10000 2.85 105 17:55 31.12.2022
437 Clouds 13 1025 77 10000 3.08 100 17:00 31.12.2022
438 Clouds 13 1025 77 10000 3.08 100 16:30 31.12.2022
439 Clouds 14 1024 73 10000 3.11 98 15:19 31.12.2022
440 Clouds 14 1024 71 10000 2.95 95 13:53 31.12.2022
441 Clouds 13 1024 70 10000 2.42 92 12:47 31.12.2022
442 Clouds 13 1024 73 10000 1.78 85 12:21 31.12.2022
443 Clouds 12 1024 73 10000 1.77 85 11:51 31.12.2022
444 Clouds 13 1025 76 10000 1.23 70 10:49 31.12.2022
445 Clouds 12 1026 77 10000 1.62 81 09:56 31.12.2022
446 Clouds 12 1026 77 10000 1.62 81 09:36 31.12.2022
447 Clouds 11 1028 81 10000 0.97 50 07:51 31.12.2022
448 Rain 10 1026 88 10000 2.69 147 00:59 31.12.2022
449 Rain 10 1027 88 10000 2.39 156 23:50 30.12.2022
450 Rain 10 1027 87 10000 2.73 144 22:50 30.12.2022
451 Rain 10 1027 87 10000 2.78 148 21:50 30.12.2022
452 Rain 10 1027 87 10000 2.79 148 21:30 30.12.2022
453 Rain 10 1029 83 10000 2.19 180 19:24 30.12.2022
454 Rain 10 1028 84 10000 2.06 80 17:52 30.12.2022
455 Rain 10 1028 84 10000 2.06 80 17:33 30.12.2022
456 Rain 10 1028 84 10000 4.42 116 15:58 30.12.2022
457 Rain 10 1028 83 10000 3.42 120 14:54 30.12.2022
458 Rain 10 1027 79 10000 4.21 141 12:50 30.12.2022
459 Rain 12 1029 46 10000 3.54 147 08:22 30.12.2022
460 Clouds 11 1027 42 10000 2.58 127 03:40 30.12.2022
461 Clouds 11 1026 43 10000 1.89 117 01:53 30.12.2022
462 Clouds 11 1027 43 10000 2.86 83 22:58 29.12.2022
463 Clouds 11 1027 44 10000 2.26 72 21:32 29.12.2022
464 Clear 11 1027 44 10000 2.85 77 20:54 29.12.2022
465 Clear 11 1027 43 10000 2.96 74 20:25 29.12.2022
466 Clear 12 1027 40 10000 3.57 72 18:30 29.12.2022
467 Clear 13 1026 37 10000 3.77 76 17:33 29.12.2022
468 Clear 14 1026 37 10000 3.77 76 16:55 29.12.2022
469 Clear 14 1025 36 10000 3.94 70 16:21 29.12.2022
470 Clear 16 1025 36 10000 3.94 70 15:33 29.12.2022
471 Clear 16 1024 31 10000 3.22 70 13:34 29.12.2022
472 Clear 14 1024 33 10000 2.75 57 11:33 29.12.2022
473 Clear 11 1029 49 10000 2.6 40 08:22 29.12.2022
474 Clear 7 1026 62 10000 2.45 28 00:22 29.12.2022
475 Clear 8 1026 60 10000 2.75 32 23:27 28.12.2022
476 Clear 10 1026 57 10000 3.25 28 21:21 28.12.2022
477 Clear 11 1026 57 10000 3.25 28 20:50 28.12.2022
478 Clear 11 1026 55 10000 3.2 26 19:25 28.12.2022
479 Clear 14 1025 50 10000 3.71 24 16:56 28.12.2022
480 Clear 15 1024 43 10000 5.48 16 14:43 28.12.2022
481 Clear 16 1022 38 10000 6.72 1 12:55 28.12.2022
482 Clear 16 1022 39 10000 6.62 354 11:55 28.12.2022
483 Clear 15 1023 40 10000 6.66 347 10:43 28.12.2022
484 Clear 13 1025 43 10000 7.48 339 08:43 28.12.2022
485 Clear 11 1026 53 10000 6.99 334 07:25 28.12.2022
486 Clear 9 1026 53 10000 6.99 334 06:42 28.12.2022
487 Clear 12 1021 46 10000 6.38 334 23:36 27.12.2022
488 Clear 14 1020 33 10000 6.21 315 20:23 27.12.2022
489 Clear 14 1019 32 10000 5.45 318 19:31 27.12.2022
490 Clear 17 1018 33 10000 9.27 310 17:26 27.12.2022
491 Clear 18 1018 33 10000 9.27 310 16:42 27.12.2022
492 Clear 20 1016 29 10000 6.47 282 15:28 27.12.2022
493 Clear 21 1015 27 10000 7.96 267 12:34 27.12.2022
494 Clear 20 1015 27 10000 7.26 252 11:28 27.12.2022
495 Clear 20 1016 29 10000 6.66 257 09:46 27.12.2022
496 Clear 20 1017 30 10000 6.54 260 09:23 27.12.2022
497 Clouds 12 1018 45 10000 3.13 217 06:49 27.12.2022
498 Clouds 11 1018 84 10000 2.37 169 04:29 27.12.2022
499 Clear 13 1017 69 10000 5.55 129 22:21 26.12.2022
500 Clear 14 1018 67 10000 5.99 127 20:51 26.12.2022
501 Clear 14 1018 64 10000 6.47 126 20:29 26.12.2022
502 Clouds 16 1017 59 10000 6.37 134 18:43 26.12.2022
503 Clouds 17 1017 55 10000 6.46 135 17:32 26.12.2022
504 Clouds 18 1016 45 10000 6.71 150 16:20 26.12.2022
505 Clouds 20 1015 45 10000 7.07 138 13:46 26.12.2022
506 Clouds 20 1015 43 10000 6.5 159 11:56 26.12.2022
507 Clouds 14 1019 58 10000 4.63 107 07:28 26.12.2022
508 Clouds 13 1017 51 10000 4.4 55 23:48 25.12.2022
509 Clouds 13 1017 51 10000 4.09 62 23:22 25.12.2022
510 Clouds 14 1017 46 10000 5.04 77 22:26 25.12.2022
511 Clouds 15 1017 46 10000 5.04 77 21:35 25.12.2022
512 Clouds 17 1018 43 10000 4.65 70 18:32 25.12.2022
513 Clouds 18 1018 40 10000 3.99 74 17:51 25.12.2022
514 Clouds 18 1018 40 10000 3.99 74 17:33 25.12.2022
515 Clouds 20 1016 34 10000 2.38 90 14:47 25.12.2022
516 Clouds 20 1016 35 10000 1.54 75 11:50 25.12.2022
517 Clear 12 1020 54 10000 2.34 79 06:21 25.12.2022
518 Clear 13 1018 50 10000 3.24 33 23:25 24.12.2022
519 Clear 15 1017 46 10000 2.69 34 21:18 24.12.2022
520 Clear 18 1018 42 10000 2.74 42 17:56 24.12.2022
521 Clear 18 1016 39 10000 3.55 22 16:27 24.12.2022
522 Clear 21 1015 36 10000 3.23 3 14:48 24.12.2022
523 Clear 21 1014 27 10000 3.7 337 12:42 24.12.2022
524 Clear 21 1014 27 10000 4.23 324 10:31 24.12.2022
525 Clear 19 1015 28 10000 5.26 320 09:55 24.12.2022
526 Clear 19 1015 28 10000 5.26 320 09:36 24.12.2022
527 Clear 16 1014 60 10000 4.03 296 04:28 24.12.2022
528 Clouds 17 1012 63 10000 5.31 306 00:52 24.12.2022
529 Clouds 18 1012 61 10000 4.64 302 23:35 23.12.2022
530 Rain 20 1011 51 10000 5.23 230 21:55 23.12.2022
531 Clouds 22 1011 38 10000 10.44 212 20:22 23.12.2022
532 Clouds 22 1011 38 10000 10.45 212 19:39 23.12.2022
533 Clouds 22 1011 26 10000 7.12 186 19:21 23.12.2022
534 Rain 21 1010 26 10000 7.64 172 18:38 23.12.2022
535 Rain 21 1010 26 10000 7.63 172 18:18 23.12.2022
536 Clouds 22 1010 26 10000 8.18 166 16:32 23.12.2022
537 Clouds 22 1009 24 10000 8.81 165 14:44 23.12.2022
538 Clouds 21 1010 24 10000 10.58 169 10:57 23.12.2022
539 Rain 20 1011 26 10000 10.26 168 09:36 23.12.2022
540 Clouds 18 1014 36 10000 9.81 164 07:45 23.12.2022
541 Clouds 17 1014 37 10000 9.64 162 06:50 23.12.2022
542 Clouds 16 1014 43 10000 6.59 158 05:20 23.12.2022
543 Clouds 17 1014 29 10000 5.74 156 23:21 22.12.2022
544 Clouds 18 1014 27 10000 5.44 157 21:57 22.12.2022
545 Clouds 18 1015 25 10000 4.63 156 20:25 22.12.2022
546 Clouds 19 1015 24 10000 4.23 158 19:22 22.12.2022
547 Clouds 20 1014 23 10000 4.54 155 18:37 22.12.2022
548 Clouds 22 1014 23 10000 3.68 145 16:58 22.12.2022
549 Clouds 22 1014 23 10000 3.69 145 16:37 22.12.2022
550 Clouds 23 1014 23 10000 2.98 146 15:30 22.12.2022
551 Clouds 24 1014 23 10000 2.39 167 14:45 22.12.2022
552 Clouds 24 1013 22 10000 2.42 193 13:31 22.12.2022
553 Clouds 25 1013 26 10000 2.73 175 12:32 22.12.2022
554 Clouds 23 1015 25 10000 3.82 178 10:32 22.12.2022
555 Clouds 22 1015 25 10000 3.82 178 09:59 22.12.2022
556 Clouds 22 1016 26 10000 4.35 182 09:19 22.12.2022
557 Clouds 22 1016 26 10000 4.35 182 09:19 22.12.2022
558 Clouds 17 1017 27 10000 4.45 176 07:54 22.12.2022
559 Clouds 12 1016 38 10000 3.61 164 04:19 22.12.2022
560 Clouds 13 1015 39 10000 3.83 155 00:48 22.12.2022
561 Clouds 14 1016 38 10000 4.61 151 22:41 21.12.2022
562 Clouds 15 1016 38 10000 4.03 150 21:51 21.12.2022
563 Clouds 15 1017 38 10000 4.08 143 21:20 21.12.2022
564 Clouds 15 1017 38 10000 4.08 143 20:40 21.12.2022
565 Clear 15 1017 37 10000 4.05 138 19:56 21.12.2022
566 Clear 15 1017 37 10000 4.05 138 19:38 21.12.2022
567 Clouds 15 1017 35 10000 3.93 137 19:19 21.12.2022
568 Clouds 16 1017 35 10000 3.93 137 18:42 21.12.2022
569 Clouds 19 1016 33 10000 3.84 135 16:19 21.12.2022
570 Clear 22 1015 29 10000 3.71 145 14:24 21.12.2022
571 Clouds 23 1015 29 10000 3.68 149 12:30 21.12.2022
572 Clear 22 1015 30 10000 3.97 157 11:21 21.12.2022
573 Clear 21 1015 30 10000 3.97 157 10:50 21.12.2022
574 Clear 18 1018 32 10000 3.83 161 08:50 21.12.2022
575 Clear 12 1019 36 10000 3.22 155 06:35 21.12.2022
576 Clouds 12 1018 39 10000 2.57 140 00:28 21.12.2022
577 Clouds 14 1018 39 10000 2.91 122 21:58 20.12.2022
578 Clouds 14 1018 39 10000 2.94 120 20:58 20.12.2022
579 Clouds 15 1018 38 10000 2.75 117 19:59 20.12.2022
580 Clouds 16 1018 35 10000 2.8 102 18:48 20.12.2022
581 Clouds 16 1018 34 10000 2.87 98 18:23 20.12.2022
582 Clouds 17 1018 34 10000 2.87 98 17:50 20.12.2022
583 Clouds 17 1018 34 10000 2.64 85 17:25 20.12.2022
584 Clouds 18 1017 33 10000 2.34 83 16:19 20.12.2022
585 Clear 21 1016 33 10000 1.73 73 14:56 20.12.2022
586 Clear 21 1016 33 10000 1.73 73 14:36 20.12.2022
587 Clear 23 1016 29 10000 1.2 66 13:30 20.12.2022
588 Clear 21 1016 26 10000 0.82 58 12:37 20.12.2022
589 Clear 21 1016 26 10000 0.4 85 11:55 20.12.2022
590 Clear 20 1018 27 10000 0.73 164 10:29 20.12.2022
591 Clear 16 1021 33 10000 1.11 138 07:28 20.12.2022
592 Clear 11 1019 36 10000 1.99 42 00:20 20.12.2022
593 Clear 11 1019 35 10000 2.2 37 22:29 19.12.2022
594 Clear 12 1019 34 10000 2.52 39 21:24 19.12.2022
595 Clear 14 1020 33 10000 2.55 30 19:41 19.12.2022
596 Clear 16 1020 32 10000 2.78 23 18:59 19.12.2022
597 Clear 17 1020 31 10000 2.63 1 17:58 19.12.2022
598 Clear 17 1019 30 10000 2.92 1 16:20 19.12.2022
599 Clear 22 1018 27 10000 3.72 347 13:20 19.12.2022
600 Clear 19 1019 29 10000 3.04 348 11:37 19.12.2022
601 Clear 17 1022 41 10000 1.91 0 08:23 19.12.2022
602 Clear 12 1022 45 10000 2.02 360 06:58 19.12.2022
603 Clear 12 1021 51 10000 2.64 1 00:54 19.12.2022
604 Clear 13 1021 49 10000 2.78 18 21:50 18.12.2022
605 Clear 13 1021 49 10000 2.78 18 21:31 18.12.2022
606 Clear 14 1021 45 10000 2.85 27 20:56 18.12.2022
607 Clear 15 1021 45 10000 3 34 19:44 18.12.2022
608 Clear 15 1021 44 10000 3.19 34 19:23 18.12.2022
609 Clear 17 1021 43 10000 3.26 24 17:52 18.12.2022
610 Clear 19 1020 40 10000 3.13 359 15:43 18.12.2022
611 Clear 19 1020 38 10000 3.63 359 15:25 18.12.2022
612 Clear 21 1020 38 10000 3.63 359 14:59 18.12.2022
613 Clear 21 1020 41 10000 3.67 351 13:29 18.12.2022
614 Clear 21 1020 41 10000 3.67 351 12:50 18.12.2022
615 Clear 21 1020 42 10000 3.2 347 11:51 18.12.2022
616 Clear 19 1022 48 10000 2.18 355 09:47 18.12.2022
617 Clear 17 1023 52 10000 1.87 12 08:46 18.12.2022
618 Clear 13 1023 59 10000 2.37 21 06:52 18.12.2022
619 Clear 13 1023 63 10000 2.18 19 06:18 18.12.2022
620 Clear 13 1021 63 10000 2.59 27 01:53 18.12.2022
621 Clear 15 1021 61 10000 2.28 24 22:58 17.12.2022
622 Clear 15 1021 60 10000 2.68 34 21:18 17.12.2022
623 Clear 18 1021 53 10000 3.32 33 17:55 17.12.2022
624 Clear 20 1020 49 10000 3.86 28 15:48 17.12.2022
625 Clear 21 1019 45 10000 3.86 12 13:20 17.12.2022
626 Clear 21 1019 50 10000 3.68 11 11:23 17.12.2022
627 Clear 19 1019 50 10000 3.68 11 10:41 17.12.2022
628 Clear 18 1020 54 10000 3.71 13 09:40 17.12.2022
629 Clear 16 1022 72 10000 3.8 23 07:23 17.12.2022
630 Clear 15 1022 72 10000 3.8 23 06:44 17.12.2022
631 Clear 15 1018 63 10000 4.26 13 23:20 16.12.2022
632 Clear 17 1018 54 10000 4.13 6 20:30 16.12.2022
633 Clear 18 1018 49 10000 4.17 7 18:41 16.12.2022
634 Clear 22 1016 42 10000 4.02 351 15:36 16.12.2022
635 Clear 24 1015 41 10000 4.26 349 14:46 16.12.2022
636 Clouds 23 1015 30 10000 3.97 325 13:21 16.12.2022
637 Clouds 24 1015 30 10000 3.61 306 11:57 16.12.2022
638 Clouds 21 1016 36 10000 2.83 302 09:40 16.12.2022
639 Clouds 20 1017 38 10000 4.8 308 08:50 16.12.2022
640 Clouds 18 1018 35 10000 3.38 299 07:55 16.12.2022
641 Clouds 15 1018 40 10000 2.38 301 06:46 16.12.2022
642 Clouds 18 1015 40 10000 4.06 155 22:50 15.12.2022
643 Clear 18 1015 39 10000 4.37 153 21:41 15.12.2022
644 Clear 19 1016 36 10000 4.01 157 19:57 15.12.2022
645 Clouds 20 1016 35 10000 3.89 160 18:54 15.12.2022
646 Clouds 21 1016 33 10000 3.68 144 17:28 15.12.2022
647 Clouds 23 1016 33 10000 3.68 144 16:31 15.12.2022
648 Clouds 26 1014 32 10000 1.22 191 14:57 15.12.2022
649 Clouds 25 1014 27 10000 4.33 236 12:59 15.12.2022
650 Clouds 25 1014 27 10000 4.93 234 12:25 15.12.2022
651 Clear 22 1017 28 10000 3.78 234 09:19 15.12.2022
652 Clear 21 1017 28 10000 3.79 234 08:41 15.12.2022
653 Clouds 15 1017 38 10000 3.05 170 05:45 15.12.2022
654 Clouds 16 1016 39 10000 4.07 159 02:25 15.12.2022
655 Clouds 18 1017 36 10000 4.52 158 21:24 14.12.2022
656 Clouds 18 1017 36 10000 4.52 158 20:51 14.12.2022
657 Clear 19 1017 36 10000 4.65 162 19:59 14.12.2022
658 Clouds 20 1016 34 10000 4.7 162 17:52 14.12.2022
659 Clouds 21 1016 33 10000 4.37 157 16:56 14.12.2022
660 Clouds 24 1015 29 10000 2.06 163 14:59 14.12.2022
661 Clouds 24 1015 32 10000 2.47 189 13:31 14.12.2022
662 Clear 23 1015 29 10000 3.6 203 11:20 14.12.2022
663 Clear 23 1017 29 10000 3.54 199 10:25 14.12.2022
664 Clear 20 1018 30 10000 3.69 202 08:46 14.12.2022
665 Clear 16 1017 45 10000 5.25 158 22:46 13.12.2022
666 Clear 17 1017 44 10000 5 158 21:46 13.12.2022
667 Clear 17 1017 44 10000 4.88 160 20:48 13.12.2022
668 Clear 18 1017 43 10000 4.73 167 19:51 13.12.2022
669 Clear 20 1016 41 10000 4.46 147 16:42 13.12.2022
670 Clouds 23 1016 37 10000 4.28 148 14:59 13.12.2022
671 Clouds 24 1015 33 10000 4.66 158 13:54 13.12.2022
672 Clouds 22 1016 32 10000 5.25 168 10:55 13.12.2022
673 Clouds 22 1016 32 10000 5.25 168 10:35 13.12.2022
674 Clear 21 1018 33 10000 5.53 168 09:21 13.12.2022
675 Clouds 14 1017 52 10000 3.96 155 22:50 12.12.2022
676 Clouds 14 1018 53 10000 4.11 153 22:21 12.12.2022
677 Clear 15 1018 52 10000 3.89 155 20:43 12.12.2022
678 Clear 15 1018 49 10000 3.85 154 18:32 12.12.2022
679 Clouds 19 1016 33 10000 4.53 133 15:46 12.12.2022
680 Clouds 20 1016 29 10000 4.67 142 14:26 12.12.2022
681 Clear 20 1018 30 10000 4.59 156 10:19 12.12.2022
682 Clear 19 1020 32 10000 4.85 154 09:18 12.12.2022
683 Clear 12 1020 46 10000 3.21 146 04:53 12.12.2022
684 Clouds 12 1020 45 10000 3.02 140 01:52 12.12.2022
685 Clear 13 1020 41 10000 3.21 132 22:19 11.12.2022
686 Clear 14 1020 40 10000 3.01 121 20:41 11.12.2022
687 Clear 15 1020 38 10000 3.22 110 19:40 11.12.2022
688 Clear 16 1021 37 10000 3.18 105 18:55 11.12.2022
689 Clear 16 1020 35 10000 2.99 100 17:57 11.12.2022
690 Clear 16 1020 33 10000 2.79 87 17:28 11.12.2022
691 Clear 17 1020 33 10000 2.79 87 16:49 11.12.2022
692 Clear 18 1019 31 10000 2.35 81 15:45 11.12.2022
693 Clear 19 1019 27 10000 1.5 72 13:43 11.12.2022
694 Clear 20 1019 27 10000 1.35 83 12:43 11.12.2022
695 Clear 18 1020 29 10000 1.35 90 10:44 11.12.2022
696 Clear 10 1021 48 10000 1.86 41 03:39 11.12.2022
697 Clear 11 1020 52 10000 2.73 63 00:28 11.12.2022
698 Clear 12 1020 55 10000 2.63 64 22:51 10.12.2022
699 Clear 12 1020 59 10000 2.8 62 22:32 10.12.2022
700 Clear 12 1020 60 10000 2.19 74 21:18 10.12.2022
701 Clear 14 1021 65 10000 0.71 87 20:24 10.12.2022
702 Clear 15 1020 64 10000 1.37 197 18:22 10.12.2022
703 Clear 16 1020 63 10000 1.15 174 16:47 10.12.2022
704 Clear 16 1019 62 10000 0.81 109 15:53 10.12.2022
705 Clear 16 1019 62 10000 0.81 109 15:34 10.12.2022
706 Clouds 17 1019 61 10000 1.48 39 13:56 10.12.2022
707 Clouds 16 1019 68 10000 0.23 354 12:34 10.12.2022
708 Clouds 14 1019 71 10000 0.93 67 11:26 10.12.2022
709 Rain 13 1020 72 10000 1.74 39 10:26 10.12.2022
710 Rain 12 1022 75 10000 2.78 39 07:29 10.12.2022
711 Rain 12 1022 75 10000 2.78 39 06:56 10.12.2022
712 Clouds 12 1019 69 10000 3.16 42 23:52 09.12.2022
713 Clouds 16 1019 72 9548 1.93 34 22:43 09.12.2022
714 Clouds 16 1019 72 10000 2.09 63 21:43 09.12.2022
715 Clouds 16 1019 71 10000 3.25 85 21:20 09.12.2022
716 Clouds 17 1019 70 10000 2.6 83 19:49 09.12.2022
717 Clouds 17 1020 67 10000 2.81 64 18:32 09.12.2022
718 Clouds 17 1019 61 10000 3.73 78 17:38 09.12.2022
719 Clouds 18 1019 58 10000 3.87 86 16:29 09.12.2022
720 Clouds 19 1019 58 10000 3.52 90 15:31 09.12.2022
721 Clouds 19 1018 59 10000 3.23 93 14:23 09.12.2022
722 Clouds 18 1019 65 10000 3.09 72 10:51 09.12.2022
723 Clouds 18 1020 68 10000 2.82 75 10:24 09.12.2022
724 Clouds 16 1022 76 10000 3.63 72 07:29 09.12.2022
725 Clouds 17 1020 78 10000 5.3 44 03:18 09.12.2022
726 Clouds 18 1020 79 10000 3.37 45 23:36 08.12.2022
727 Clear 19 1019 73 10000 4.65 75 20:56 08.12.2022
728 Clouds 20 1019 60 10000 5.61 70 18:59 08.12.2022
729 Clouds 22 1018 51 10000 3.33 104 16:50 08.12.2022
730 Clouds 23 1017 45 10000 2.47 130 14:35 08.12.2022
731 Clouds 23 1017 45 10000 2.47 130 13:40 08.12.2022
732 Clouds 22 1018 47 10000 3.11 142 10:37 08.12.2022
733 Clouds 20 1020 59 10000 3.31 113 09:32 08.12.2022
734 Clouds 18 1021 70 10000 3.32 95 07:58 08.12.2022
735 Clear 17 1018 87 10000 3.66 31 22:44 07.12.2022
736 Clear 17 1017 81 10000 4.01 20 22:18 07.12.2022
737 Clear 17 1017 81 10000 4.01 20 21:47 07.12.2022
738 Clear 17 1017 58 10000 4.31 49 20:35 07.12.2022
739 Clouds 19 1017 58 10000 5.33 56 18:33 07.12.2022
740 Clouds 22 1015 34 10000 4.88 38 15:44 07.12.2022
741 Clouds 23 1013 23 10000 1.75 8 13:36 07.12.2022
742 Clouds 21 1013 24 10000 0.64 224 10:54 07.12.2022
743 Rain 20 1015 26 10000 1.4 194 09:59 07.12.2022
744 Rain 20 1016 28 10000 1.7 194 09:30 07.12.2022
745 Clear 18 1017 33 10000 0.67 163 07:22 07.12.2022
746 Clear 19 1016 41 10000 0.09 310 05:25 07.12.2022
747 Clear 19 1014 38 10000 3.41 153 01:22 07.12.2022
748 Clear 23 1014 36 10000 4.7 167 21:50 06.12.2022
749 Clear 25 1015 32 10000 4.18 165 19:33 06.12.2022
750 Clear 25 1014 30 10000 4.14 156 17:19 06.12.2022
751 Clear 26 1013 29 10000 4.57 147 16:29 06.12.2022
752 Clear 27 1013 29 10000 4.57 147 15:35 06.12.2022
753 Clear 28 1013 27 10000 5.15 147 14:35 06.12.2022
754 Clear 28 1012 23 10000 5.7 161 13:49 06.12.2022
755 Clear 28 1012 22 10000 6.31 163 12:41 06.12.2022
756 Clear 28 1012 22 10000 6.52 167 11:48 06.12.2022
757 Clear 24 1016 31 10000 7.75 172 07:50 06.12.2022
758 Clear 18 1015 43 10000 4.12 161 03:20 06.12.2022
759 Clouds 20 1015 40 10000 4.99 168 23:43 05.12.2022
760 Clouds 22 1015 38 10000 5.36 165 21:40 05.12.2022
761 Clouds 23 1016 37 10000 5.35 163 20:52 05.12.2022
762 Clouds 24 1016 36 10000 5.24 161 19:54 05.12.2022
763 Clouds 24 1016 36 10000 5.24 161 19:35 05.12.2022
764 Clouds 25 1015 30 10000 4.52 154 16:53 05.12.2022
765 Clouds 26 1014 26 10000 5.49 139 15:29 05.12.2022
766 Clouds 28 1014 26 10000 5.49 139 14:49 05.12.2022
767 Clouds 28 1013 21 10000 4.35 163 12:58 05.12.2022
768 Clouds 28 1013 21 10000 4.35 163 12:38 05.12.2022
769 Clouds 28 1013 22 10000 4.39 172 11:42 05.12.2022
770 Clouds 25 1016 25 10000 6.21 192 08:37 05.12.2022
771 Clouds 17 1016 36 10000 3.66 165 00:18 05.12.2022
772 Clouds 22 1016 34 10000 3.85 168 22:44 04.12.2022
773 Clouds 22 1016 33 10000 3.93 166 22:19 04.12.2022
774 Clouds 21 1016 32 10000 3.92 171 21:32 04.12.2022
775 Clouds 22 1016 30 10000 4.3 183 20:20 04.12.2022
776 Clouds 23 1017 29 10000 4.09 192 19:23 04.12.2022
777 Clouds 23 1017 29 10000 4.09 192 18:35 04.12.2022
778 Clouds 25 1016 27 10000 3.95 180 17:22 04.12.2022
779 Clouds 26 1016 27 10000 3.95 180 16:37 04.12.2022
780 Clouds 26 1015 26 10000 4.03 166 16:18 04.12.2022
781 Clouds 27 1014 22 10000 4.8 149 15:27 04.12.2022
782 Clouds 28 1014 22 10000 4.8 149 14:32 04.12.2022
783 Clouds 29 1013 17 10000 5.43 168 12:51 04.12.2022
784 Clouds 29 1013 17 10000 5.51 171 12:33 04.12.2022
785 Clouds 28 1013 17 10000 5.51 171 11:35 04.12.2022
786 Clear 22 1018 24 10000 5.26 185 07:59 04.12.2022
787 Clear 17 1017 36 10000 3.25 170 02:51 04.12.2022
788 Clear 19 1017 37 10000 3.16 164 23:44 03.12.2022
789 Clear 19 1017 36 10000 3.27 161 22:35 03.12.2022
790 Clear 19 1017 36 10000 3.27 161 21:50 03.12.2022
791 Clear 20 1017 35 10000 3.3 154 20:46 03.12.2022
792 Clear 21 1017 31 10000 4.5 139 18:41 03.12.2022
793 Clear 22 1016 28 10000 4.35 137 17:56 03.12.2022
794 Clear 26 1015 27 10000 4.55 136 15:52 03.12.2022
795 Clear 28 1014 22 10000 5.32 136 13:43 03.12.2022
796 Clear 28 1014 20 10000 5.24 138 12:51 03.12.2022
797 Clear 28 1014 20 10000 4.8 142 12:18 03.12.2022
798 Clear 24 1016 24 10000 5.1 161 09:28 03.12.2022
799 Clear 15 1017 43 10000 3.28 152 04:18 03.12.2022
800 Clear 17 1017 47 10000 2.23 121 00:23 03.12.2022
801 Clear 18 1017 45 10000 2.45 118 22:19 02.12.2022
802 Clear 19 1018 42 10000 3.52 83 20:21 02.12.2022
803 Clear 23 1017 30 10000 3.85 70 17:30 02.12.2022
804 Clear 26 1016 25 10000 2.43 113 15:57 02.12.2022
805 Clear 27 1015 24 10000 2.55 134 14:37 02.12.2022
806 Clear 27 1015 21 10000 2.89 137 14:18 02.12.2022
807 Clear 28 1014 20 10000 2.83 131 11:59 02.12.2022
808 Clear 26 1015 21 10000 2.71 127 10:43 02.12.2022
809 Clear 19 1018 26 10000 1.38 83 07:52 02.12.2022
810 Clear 19 1019 28 10000 2.04 34 07:22 02.12.2022
811 Clear 19 1016 31 10000 2.42 174 22:53 01.12.2022
812 Clouds 19 1016 30 10000 2.69 169 21:43 01.12.2022
813 Clouds 21 1017 29 10000 2.78 167 20:50 01.12.2022
814 Clouds 22 1017 27 10000 2.48 149 18:59 01.12.2022
815 Clouds 23 1017 26 10000 2.28 149 17:23 01.12.2022
816 Clouds 29 1016 24 10000 2.51 132 14:46 01.12.2022
817 Clouds 27 1015 20 10000 2.64 153 11:21 01.12.2022
818 Clouds 25 1016 22 10000 3.02 155 09:55 01.12.2022
819 Clouds 25 1016 22 10000 3.02 155 09:36 01.12.2022
820 Clouds 19 1018 29 10000 2.79 162 06:59 01.12.2022
821 Clouds 18 1016 32 10000 3.59 163 23:46 30.11.2022
822 Clouds 19 1017 31 10000 3.85 155 21:54 30.11.2022
823 Clouds 19 1017 30 10000 3.53 151 21:19 30.11.2022
824 Clear 20 1017 29 10000 3.26 155 20:23 30.11.2022
825 Clouds 21 1017 27 10000 3.37 153 19:28 30.11.2022
826 Clouds 22 1017 27 10000 3.37 153 18:32 30.11.2022
827 Clouds 24 1016 26 10000 3.81 137 16:53 30.11.2022
828 Clouds 28 1015 23 10000 4.66 123 14:46 30.11.2022
829 Clouds 28 1014 20 10000 4.7 128 14:26 30.11.2022
830 Clouds 28 1014 19 10000 4.27 150 12:21 30.11.2022
831 Clouds 26 1015 21 10000 5.04 161 09:44 30.11.2022
832 Clouds 25 1017 25 10000 5.19 165 08:30 30.11.2022
833 Clear 19 1017 28 10000 4.78 154 06:43 30.11.2022
834 Clouds 17 1015 32 10000 3.67 137 23:30 29.11.2022
835 Clouds 18 1015 29 10000 3.28 152 22:19 29.11.2022
836 Clouds 20 1016 29 10000 3.33 159 20:52 29.11.2022
837 Clouds 20 1016 28 10000 3.62 151 20:28 29.11.2022
838 Clouds 23 1015 27 10000 4.17 128 18:44 29.11.2022
839 Clouds 24 1015 26 10000 2.25 108 16:51 29.11.2022
840 Clouds 26 1015 26 10000 1.59 126 15:38 29.11.2022
841 Clouds 27 1014 24 10000 2.79 139 14:49 29.11.2022
842 Clouds 27 1014 22 10000 4.58 138 12:43 29.11.2022
843 Clouds 27 1015 22 10000 4.55 146 11:31 29.11.2022
844 Clouds 26 1015 22 10000 4.55 146 10:31 29.11.2022
845 Clouds 26 1017 27 10000 4.09 156 09:28 29.11.2022
846 Clouds 22 1018 29 10000 3.62 162 07:46 29.11.2022
847 Clouds 19 1017 40 10000 2.63 121 00:33 29.11.2022
848 Clouds 19 1017 36 10000 3.59 118 23:27 28.11.2022
849 Clouds 20 1017 32 10000 3.3 129 22:22 28.11.2022
850 Clouds 19 1017 32 10000 3.3 129 21:43 28.11.2022
851 Clouds 19 1016 29 10000 3.02 124 20:30 28.11.2022
852 Clouds 22 1016 26 10000 2.89 127 19:37 28.11.2022
853 Clouds 24 1016 25 10000 2.99 122 18:29 28.11.2022
854 Clouds 24 1016 25 10000 2.99 122 17:35 28.11.2022
855 Clouds 27 1014 21 10000 2.25 148 15:19 28.11.2022
856 Clouds 28 1014 19 10000 3.15 137 13:57 28.11.2022
857 Clouds 28 1014 19 10000 3.15 137 13:32 28.11.2022
858 Clear 28 1014 19 10000 3.32 136 11:49 28.11.2022
859 Clear 25 1016 23 10000 3.1 147 08:49 28.11.2022
860 Clear 14 1017 36 10000 1.83 157 04:58 28.11.2022
861 Clear 14 1017 33 10000 1.55 162 04:39 28.11.2022
862 Clear 15 1016 38 10000 1.39 138 03:22 28.11.2022
863 Clear 19 1015 38 10000 1.78 135 00:35 28.11.2022
864 Clear 19 1015 32 10000 3.14 77 22:24 27.11.2022
865 Clear 22 1015 29 10000 2.73 94 20:49 27.11.2022
866 Clear 25 1015 26 10000 3.05 171 18:52 27.11.2022
867 Clear 26 1014 24 10000 2.72 147 16:39 27.11.2022
868 Clear 29 1013 20 10000 2.8 132 13:55 27.11.2022
869 Clear 30 1013 20 10000 3.69 121 12:25 27.11.2022
870 Clear 29 1015 21 10000 2.56 148 10:23 27.11.2022
871 Clear 23 1017 26 10000 3.51 175 07:30 27.11.2022
872 Clear 23 1017 26 10000 3.51 175 07:30 27.11.2022
873 Clear 22 1015 37 10000 3.66 154 23:37 26.11.2022
874 Clear 22 1016 35 10000 3.84 160 21:43 26.11.2022
875 Clear 23 1016 32 10000 3.25 154 19:57 26.11.2022
876 Clear 24 1016 29 10000 2.72 150 18:41 26.11.2022
877 Clear 26 1016 27 10000 3.33 127 16:40 26.11.2022
878 Clear 28 1015 25 10000 3.64 117 15:37 26.11.2022
879 Clear 31 1013 21 10000 3.24 145 12:51 26.11.2022
880 Clear 29 1014 22 10000 3.44 178 10:54 26.11.2022
881 Clear 28 1016 23 10000 3.93 185 09:43 26.11.2022
882 Clear 27 1018 28 10000 4.99 183 08:21 26.11.2022
883 Clear 20 1016 35 10000 4.05 160 22:43 25.11.2022
884 Clear 21 1016 34 10000 4.31 151 21:35 25.11.2022
885 Clear 22 1016 32 10000 4.43 158 20:21 25.11.2022
886 Clear 26 1015 28 10000 4.72 160 16:59 25.11.2022
887 Clear 28 1015 27 10000 4.44 159 15:40 25.11.2022
888 Clouds 27 1015 22 10000 7.23 169 10:29 25.11.2022
889 Clouds 24 1016 22 10000 7.4 171 08:44 25.11.2022
890 Clouds 22 1017 22 10000 6.22 167 07:27 25.11.2022
891 Clouds 21 1017 21 10000 6.23 167 06:42 25.11.2022
892 Clouds 18 1015 24 10000 4.19 166 01:25 25.11.2022
893 Clouds 18 1015 25 10000 4.64 162 23:22 24.11.2022
894 Clouds 20 1015 25 10000 4.55 168 22:29 24.11.2022
895 Clouds 21 1015 25 10000 4.55 168 21:35 24.11.2022
896 Clouds 23 1015 23 10000 5.28 165 19:40 24.11.2022
897 Clouds 24 1015 20 10000 4.19 170 17:47 24.11.2022
898 Clouds 24 1015 20 10000 4.31 157 17:23 24.11.2022
899 Clouds 24 1015 20 10000 4.56 146 16:27 24.11.2022
900 Clouds 27 1013 16 10000 5.27 159 14:23 24.11.2022
901 Clouds 27 1013 16 10000 4.71 161 12:39 24.11.2022
902 Clouds 27 1014 18 10000 4.84 170 10:52 24.11.2022
903 Clouds 24 1017 23 10000 5.27 176 08:45 24.11.2022
904 Clouds 15 1018 32 10000 2.59 174 04:42 24.11.2022
905 Clouds 17 1017 22 10000 2.32 142 23:49 23.11.2022
906 Clouds 17 1017 22 10000 2.32 142 23:31 23.11.2022
907 Clouds 19 1018 21 10000 3.86 107 21:44 23.11.2022
908 Clouds 20 1018 22 10000 4.02 96 20:49 23.11.2022
909 Clouds 21 1018 23 10000 4.02 88 19:34 23.11.2022
910 Clouds 21 1018 27 10000 3.56 85 18:54 23.11.2022
911 Clear 22 1017 25 10000 3.45 138 17:29 23.11.2022
912 Clear 22 1017 25 10000 3.45 138 17:29 23.11.2022
913 Clear 29 1015 19 10000 0.78 291 13:42 23.11.2022
914 Clear 29 1015 19 10000 0.93 272 13:21 23.11.2022
915 Clear 27 1015 20 10000 0.97 239 12:22 23.11.2022
916 Clear 26 1015 20 10000 0.96 239 11:45 23.11.2022
917 Clear 25 1016 20 10000 1.57 215 10:46 23.11.2022
918 Clear 25 1017 20 10000 2.14 200 09:45 23.11.2022
919 Clear 25 1018 19 10000 2.18 198 09:26 23.11.2022
920 Clear 22 1018 19 10000 2.18 198 08:57 23.11.2022
921 Clear 22 1018 19 10000 2.18 198 08:30 23.11.2022
922 Clear 11 1019 25 10000 0.26 293 05:19 23.11.2022
923 Clear 15 1018 26 10000 1.49 168 23:58 22.11.2022
924 Clear 14 1019 26 10000 1.28 153 22:37 22.11.2022
925 Clear 15 1019 25 10000 1.92 85 21:34 22.11.2022
926 Clear 16 1020 24 10000 1.65 60 20:51 22.11.2022
927 Clear 16 1020 24 10000 1.65 60 20:30 22.11.2022
928 Clear 18 1020 22 10000 2.11 49 19:44 22.11.2022
929 Clear 20 1020 19 10000 3.7 41 17:48 22.11.2022
930 Clear 22 1019 17 10000 4.11 23 16:32 22.11.2022
931 Clear 26 1017 20 10000 4.42 2 14:20 22.11.2022
932 Clear 25 1016 22 10000 4.13 350 12:30 22.11.2022
933 Clear 22 1020 25 10000 2.23 332 09:28 22.11.2022
934 Clear 19 1021 26 10000 2.15 338 07:59 22.11.2022
935 Clear 16 1022 31 10000 2.17 347 06:38 22.11.2022
936 Clear 15 1020 32 10000 2.25 350 23:42 21.11.2022
937 Clear 16 1020 31 10000 1.99 5 22:52 21.11.2022
938 Clear 16 1021 30 10000 2.14 23 22:22 21.11.2022
939 Clear 17 1021 30 10000 2.14 23 21:31 21.11.2022
940 Clear 19 1021 28 10000 2.58 29 19:51 21.11.2022
941 Clear 19 1021 28 10000 2.58 29 19:31 21.11.2022
942 Clear 19 1021 28 10000 2.58 29 19:31 21.11.2022
943 Clear 20 1021 28 10000 3.04 14 18:50 21.11.2022
944 Clear 21 1020 27 10000 4.33 25 17:26 21.11.2022
945 Clear 22 1020 27 10000 4.33 25 16:41 21.11.2022
946 Clear 23 1019 27 10000 4.09 10 15:58 21.11.2022
947 Clear 23 1018 25 10000 3.91 1 15:23 21.11.2022
948 Clear 25 1018 23 10000 4.64 353 13:53 21.11.2022
949 Clear 25 1018 22 10000 4.45 351 12:50 21.11.2022
950 Clear 22 1021 25 10000 3.99 348 09:34 21.11.2022
951 Clear 18 1022 29 10000 3.6 353 07:52 21.11.2022
952 Clouds 16 1021 37 10000 3.49 355 23:47 20.11.2022
953 Clear 16 1021 36 10000 3.78 1 21:36 20.11.2022
954 Clouds 18 1021 35 10000 3.87 7 20:47 20.11.2022
955 Clouds 20 1021 34 10000 4.61 26 18:59 20.11.2022
956 Clouds 20 1020 32 10000 4.84 32 17:18 20.11.2022
957 Clouds 23 1020 31 10000 4.85 29 15:43 20.11.2022
958 Clouds 24 1019 29 10000 4.98 28 14:55 20.11.2022
959 Clouds 24 1018 28 10000 4.76 24 13:58 20.11.2022
960 Clouds 24 1018 28 10000 4.37 31 13:25 20.11.2022
961 Clouds 25 1018 29 10000 4.42 23 11:41 20.11.2022
962 Clear 23 1019 30 10000 5.12 10 10:57 20.11.2022
963 Clear 22 1020 32 10000 5.23 5 09:43 20.11.2022
964 Clear 21 1021 35 10000 4.92 10 08:52 20.11.2022
965 Clear 21 1021 35 10000 4.92 10 08:52 20.11.2022
966 Clear 18 1022 40 10000 5.11 14 07:31 20.11.2022
967 Clear 17 1023 45 10000 5.67 9 06:43 20.11.2022
968 Clear 17 1021 50 10000 1.99 23 01:26 20.11.2022
969 Clear 17 1021 50 10000 1.99 23 00:45 20.11.2022
970 Clear 17 1020 49 10000 2.64 37 00:26 20.11.2022
971 Clear 18 1020 49 10000 2.64 37 23:56 19.11.2022
972 Clear 18 1021 48 10000 3.58 46 23:26 19.11.2022
973 Clear 18 1021 48 10000 3.58 46 23:26 19.11.2022
974 Clear 18 1021 48 10000 3.58 46 22:43 19.11.2022
975 Clear 18 1021 47 10000 4.79 50 21:39 19.11.2022
976 Clear 18 1021 48 10000 5.71 50 21:20 19.11.2022
977 Clear 20 1021 48 10000 5.71 50 20:40 19.11.2022
978 Clear 21 1021 45 10000 6.34 53 19:35 19.11.2022
979 Clouds 22 1020 51 10000 7.02 53 17:47 19.11.2022
980 Clouds 22 1019 51 10000 6.01 56 17:26 19.11.2022
981 Clouds 22 1019 51 10000 6.01 56 16:51 19.11.2022
982 Clouds 24 1018 45 10000 5.26 70 14:43 19.11.2022
983 Clouds 24 1017 37 10000 3.08 103 12:54 19.11.2022
984 Clouds 23 1018 41 10000 2.77 120 11:20 19.11.2022
985 Clouds 21 1018 47 10000 2.85 114 09:44 19.11.2022
986 Clouds 19 1020 67 10000 3.14 100 07:52 19.11.2022
987 Clouds 19 1020 92 10000 3.19 62 04:43 19.11.2022
988 Clouds 19 1018 86 10000 3.11 65 00:43 19.11.2022
989 Clouds 19 1018 84 10000 3.46 58 23:26 18.11.2022
990 Clouds 20 1018 79 10000 3.92 66 22:18 18.11.2022
991 Clouds 21 1018 79 10000 3.92 66 21:35 18.11.2022
992 Clouds 22 1018 72 10000 4.43 63 20:56 18.11.2022
993 Clouds 22 1017 59 10000 4.57 65 20:20 18.11.2022
994 Clouds 24 1017 50 10000 5.12 55 19:34 18.11.2022
995 Clouds 25 1016 39 10000 5.86 59 17:45 18.11.2022
996 Clouds 28 1014 19 10000 3.95 74 14:44 18.11.2022
997 Clouds 28 1013 15 10000 0.61 185 11:49 18.11.2022
998 Clouds 25 1014 17 10000 1.53 253 10:22 18.11.2022
999 Clouds 21 1017 19 10000 3.12 325 07:52 18.11.2022
1000 Clouds 18 1015 27 10000 2.11 192 05:27 18.11.2022
1001 Clear 20 1014 26 10000 3.63 177 01:57 18.11.2022
1002 Clouds 24 1014 25 10000 4.84 194 22:51 17.11.2022
1003 Clouds 26 1015 23 10000 5.1 185 20:47 17.11.2022
1004 Clouds 26 1015 20 10000 4.68 183 19:51 17.11.2022
1005 Clouds 26 1015 20 10000 4.44 185 19:18 17.11.2022
1006 Clouds 25 1014 20 10000 4.14 178 18:27 17.11.2022
1007 Clouds 27 1014 19 10000 4.22 166 16:56 17.11.2022
1008 Clouds 30 1013 16 10000 3.53 167 15:21 17.11.2022
1009 Clouds 31 1012 14 10000 5.65 198 11:44 17.11.2022
1010 Clouds 30 1013 15 10000 7.03 192 10:23 17.11.2022
1011 Clouds 18 1016 26 10000 5.24 179 05:58 17.11.2022
1012 Clouds 23 1014 28 10000 4.67 178 00:48 17.11.2022
1013 Clear 23 1015 28 10000 4.79 183 22:38 16.11.2022
1014 Clear 25 1015 28 10000 4.79 184 21:41 16.11.2022
1015 Clear 26 1016 29 10000 4.56 176 20:19 16.11.2022
1016 Clouds 27 1015 27 10000 5.03 164 18:48 16.11.2022
1017 Clouds 28 1014 25 10000 5.15 166 17:57 16.11.2022
1018 Clouds 31 1012 18 10000 7.46 165 14:23 16.11.2022
1019 Clear 30 1014 17 10000 7.51 179 10:24 16.11.2022
1020 Clear 23 1017 25 10000 6.04 178 06:39 16.11.2022
1021 Clear 19 1015 32 10000 3.82 180 01:34 16.11.2022
1022 Clear 21 1015 29 10000 4.32 175 22:43 15.11.2022
1023 Clear 23 1016 28 10000 4.37 168 20:56 15.11.2022
1024 Clear 25 1016 26 10000 4.36 161 19:42 15.11.2022
1025 Clear 25 1016 24 10000 3.96 175 18:50 15.11.2022
1026 Clear 27 1016 23 10000 4.24 173 17:32 15.11.2022
1027 Clear 28 1015 20 10000 5.02 146 16:20 15.11.2022
1028 Clear 30 1014 17 10000 5.73 140 15:21 15.11.2022
1029 Clear 32 1013 15 10000 5.97 147 13:39 15.11.2022
1030 Clear 31 1013 14 10000 5.44 163 11:48 15.11.2022
1031 Clear 31 1014 15 10000 5.74 166 11:19 15.11.2022
1032 Clear 29 1016 18 10000 6.27 174 09:18 15.11.2022
1033 Clear 21 1017 35 10000 3.49 156 00:40 15.11.2022
1034 Clear 21 1016 34 10000 3.72 149 00:18 15.11.2022
1035 Clear 23 1017 31 10000 3.72 154 21:48 14.11.2022
1036 Clear 24 1017 30 10000 3.76 169 20:42 14.11.2022
1037 Clear 25 1017 25 10000 4.03 149 18:57 14.11.2022
1038 Clear 26 1016 23 10000 4.31 141 17:28 14.11.2022
1039 Clear 31 1014 18 10000 4.95 146 12:55 14.11.2022
1040 Clear 30 1014 19 10000 4.89 150 11:42 14.11.2022
1041 Clear 28 1016 22 10000 5.36 162 09:54 14.11.2022
1042 Clear 26 1019 30 10000 5.18 158 08:29 14.11.2022
1043 Clear 24 1019 30 10000 5.17 158 07:50 14.11.2022
1044 Clear 21 1017 48 10000 2.83 129 00:19 14.11.2022
1045 Clear 23 1017 44 10000 2.57 115 22:39 13.11.2022
1046 Clear 23 1017 40 10000 3.07 100 21:40 13.11.2022
1047 Clear 24 1017 33 10000 4.63 90 20:22 13.11.2022
1048 Clear 26 1017 28 10000 4.43 88 18:35 13.11.2022
1049 Clear 27 1017 25 10000 2.77 122 17:49 13.11.2022
1050 Clear 29 1015 23 10000 1.65 116 15:20 13.11.2022
1051 Clear 31 1015 23 10000 1.64 116 14:30 13.11.2022
1052 Clear 32 1015 20 10000 2.34 90 12:52 13.11.2022
1053 Clear 32 1015 20 10000 2.45 103 11:34 13.11.2022
1054 Clear 30 1017 22 10000 3.05 149 09:41 13.11.2022
1055 Clear 19 1019 32 10000 3.08 158 05:51 13.11.2022
1056 Clouds 24 1018 34 10000 3.5 173 23:35 12.11.2022
1057 Clouds 24 1018 32 10000 3.15 176 21:24 12.11.2022
1058 Clouds 24 1019 31 10000 3.49 160 20:23 12.11.2022
1059 Clear 26 1019 28 10000 3.72 143 18:45 12.11.2022
1060 Clear 28 1017 24 10000 4.43 131 16:28 12.11.2022
1061 Clear 30 1017 22 10000 5.12 130 15:24 12.11.2022
1062 Clouds 31 1015 18 10000 6.34 153 12:38 12.11.2022
1063 Clouds 31 1017 19 10000 6.34 172 09:30 12.11.2022
1064 Clouds 28 1019 23 10000 5.97 177 07:47 12.11.2022
1065 Clouds 25 1018 27 10000 3.56 168 22:51 11.11.2022
1066 Clouds 26 1017 27 10000 4 165 20:52 11.11.2022
1067 Clouds 26 1017 26 10000 4.33 160 20:23 11.11.2022
1068 Clouds 27 1017 25 10000 4.88 150 19:25 11.11.2022
1069 Clouds 29 1017 23 10000 4.75 141 17:58 11.11.2022
1070 Clouds 30 1016 21 10000 4.49 146 16:55 11.11.2022
1071 Clouds 31 1015 16 10000 6.31 161 14:29 11.11.2022
1072 Clouds 32 1015 15 10000 7.08 165 13:31 11.11.2022
1073 Clouds 32 1015 13 10000 8.03 169 10:32 11.11.2022
1074 Clouds 30 1018 15 10000 8.64 177 08:28 11.11.2022
1075 Clouds 29 1018 15 10000 8.64 177 07:38 11.11.2022
1076 Clouds 25 1016 22 10000 3.89 154 23:58 10.11.2022
1077 Clouds 25 1016 21 10000 3.7 158 22:49 10.11.2022
1078 Clouds 27 1016 21 10000 3.92 158 21:38 10.11.2022
1079 Clouds 27 1016 20 10000 4.27 153 21:19 10.11.2022
1080 Clouds 27 1016 20 10000 4.33 157 20:23 10.11.2022
1081 Clouds 26 1016 20 10000 4.33 157 19:46 10.11.2022
1082 Clear 27 1016 18 10000 4.5 151 18:44 10.11.2022
1083 Clear 30 1014 14 10000 4.32 150 16:26 10.11.2022
1084 Clear 33 1013 11 10000 5.78 156 14:21 10.11.2022
1085 Clouds 34 1013 11 10000 6.29 158 12:51 10.11.2022
1086 Clouds 31 1015 12 10000 7.49 160 09:19 10.11.2022
1087 Clouds 22 1016 14 10000 6.26 167 06:40 10.11.2022
1088 Clouds 21 1013 22 10000 4.36 153 00:56 10.11.2022
1089 Clouds 23 1013 23 10000 4.01 155 22:46 09.11.2022
1090 Clouds 24 1013 22 10000 4.67 152 20:50 09.11.2022
1091 Clouds 24 1013 21 10000 5.09 155 20:31 09.11.2022
1092 Clouds 25 1013 21 10000 5.09 155 19:48 09.11.2022
1093 Clouds 25 1013 20 10000 4.95 150 19:24 09.11.2022
1094 Clouds 29 1012 17 10000 4.7 166 16:57 09.11.2022
1095 Clear 32 1010 15 10000 3.33 172 14:51 09.11.2022
1096 Clear 32 1010 13 10000 4.61 194 14:26 09.11.2022
1097 Clear 32 1010 13 10000 4.61 194 14:26 09.11.2022
1098 Clear 32 1010 13 10000 5.19 206 13:33 09.11.2022
1099 Clear 31 1010 13 10000 5.19 206 12:49 09.11.2022
1100 Clear 25 1013 17 10000 3.4 190 08:53 09.11.2022
1101 Clear 25 1014 19 10000 1.62 176 07:47 09.11.2022
1102 Clear 21 1012 28 10000 3.24 336 01:45 09.11.2022
1103 Clear 26 1012 21 10000 2.15 308 21:56 08.11.2022
1104 Clear 26 1011 19 10000 2.54 207 21:35 08.11.2022
1105 Clear 26 1011 19 10000 2.54 207 20:41 08.11.2022
1106 Clear 28 1011 17 10000 5.04 190 19:47 08.11.2022
1107 Clear 29 1011 17 10000 3.83 198 18:59 08.11.2022
1108 Clear 28 1011 17 10000 4.62 195 17:32 08.11.2022
1109 Clear 33 1009 14 10000 5.31 205 14:57 08.11.2022
1110 Clear 33 1009 13 10000 5.81 221 14:23 08.11.2022
1111 Clear 33 1009 12 10000 6.02 242 13:26 08.11.2022
1112 Clear 33 1010 13 10000 9.9 243 10:26 08.11.2022
1113 Clear 25 1013 16 10000 8.08 216 07:30 08.11.2022
1114 Clear 19 1012 61 10000 1.57 96 01:41 08.11.2022
1115 Clear 19 1012 61 10000 1.57 96 01:41 08.11.2022
1116 Clear 23 1013 65 10000 2.09 83 22:51 07.11.2022
1117 Clear 23 1014 62 10000 2.67 59 21:38 07.11.2022
1118 Clear 24 1014 58 10000 3.33 49 20:44 07.11.2022
1119 Clear 25 1014 52 10000 4.28 58 19:33 07.11.2022
1120 Clear 28 1013 36 10000 5.21 50 17:39 07.11.2022
1121 Clear 31 1011 19 10000 0.85 352 15:36 07.11.2022
1122 Clear 33 1010 16 10000 2.46 195 14:54 07.11.2022
1123 Clear 33 1010 14 10000 4.5 238 12:59 07.11.2022
1124 Clear 33 1010 14 10000 5.94 252 11:49 07.11.2022
1125 Clear 32 1012 15 10000 6.93 249 09:49 07.11.2022
1126 Clear 30 1015 18 10000 6.69 233 08:18 07.11.2022
1127 Clear 23 1015 25 10000 4.01 212 06:27 07.11.2022
1128 Clouds 21 1014 32 10000 2 234 01:42 07.11.2022
1129 Clouds 26 1014 31 10000 1.16 273 22:39 06.11.2022
1130 Clouds 27 1014 28 10000 4.11 176 21:21 06.11.2022
1131 Clear 28 1014 26 10000 3.63 190 20:34 06.11.2022
1132 Clear 28 1014 26 10000 4.54 175 19:56 06.11.2022
1133 Clouds 29 1013 25 10000 4.49 168 18:47 06.11.2022
1134 Clouds 29 1013 24 10000 4.58 164 18:20 06.11.2022
1135 Clouds 29 1013 23 10000 3.92 168 17:22 06.11.2022
1136 Clouds 30 1013 23 10000 3.92 168 16:46 06.11.2022
1137 Clouds 32 1012 21 10000 3.66 191 15:54 06.11.2022
1138 Clear 32 1012 20 10000 3.71 225 14:36 06.11.2022
1139 Clouds 33 1012 18 10000 6.33 241 12:42 06.11.2022
1140 Clear 30 1012 20 10000 6.57 228 10:48 06.11.2022
1141 Clear 28 1013 22 10000 5.76 220 09:51 06.11.2022
1142 Clouds 23 1017 44 10000 6.92 183 06:39 06.11.2022
1143 Clouds 23 1015 52 10000 6.1 149 23:22 05.11.2022
1144 Clouds 24 1015 48 10000 7.16 137 19:57 05.11.2022
1145 Clouds 25 1015 42 10000 6.73 131 18:20 05.11.2022
1146 Clouds 26 1015 39 10000 4.03 123 16:21 05.11.2022
1147 Clouds 28 1014 37 10000 4.3 141 14:34 05.11.2022
1148 Clouds 28 1013 35 10000 5.51 156 13:18 05.11.2022
1149 Clouds 27 1015 39 10000 5.7 157 10:38 05.11.2022
1150 Clouds 24 1017 46 10000 5.9 141 08:48 05.11.2022
1151 Clouds 23 1019 52 10000 5.51 120 07:22 05.11.2022
1152 Clouds 21 1019 52 10000 5.51 120 06:54 05.11.2022
1153 Clouds 22 1016 47 10000 3.25 87 23:35 04.11.2022
1154 Clouds 22 1016 47 10000 3.29 79 22:33 04.11.2022
1155 Clouds 23 1016 43 10000 5.28 82 20:29 04.11.2022
1156 Clouds 23 1016 43 10000 5.28 82 20:28 04.11.2022
1157 Clouds 25 1016 34 10000 5.53 67 17:46 04.11.2022
1158 Clouds 25 1016 33 10000 5.05 62 17:19 04.11.2022
1159 Clouds 28 1014 28 10000 3.96 75 13:47 04.11.2022
1160 Clouds 28 1013 29 10000 3.79 80 12:26 04.11.2022
1161 Clouds 26 1014 30 10000 3.93 75 10:39 04.11.2022
1162 Clouds 24 1016 35 10000 4.49 61 08:45 04.11.2022
1163 Clouds 22 1017 38 10000 4.97 48 07:42 04.11.2022
1164 Clouds 20 1015 74 10000 3.99 18 02:29 04.11.2022
1165 Clouds 22 1014 75 10000 6.33 14 22:50 03.11.2022
1166 Clouds 24 1014 65 10000 7.96 16 20:50 03.11.2022
1167 Clouds 24 1013 49 10000 7.09 16 19:53 03.11.2022
1168 Clouds 25 1013 43 10000 7.04 11 19:27 03.11.2022
1169 Clouds 28 1012 35 10000 7.08 11 17:43 03.11.2022
1170 Clouds 30 1011 27 10000 5.75 352 16:51 03.11.2022
1171 Clouds 33 1008 17 10000 4.2 234 14:18 03.11.2022
1172 Clear 33 1008 17 10000 5.42 231 12:38 03.11.2022
1173 Clear 32 1008 17 10000 5.95 233 11:44 03.11.2022
1174 Clouds 31 1012 19 10000 7.48 226 09:19 03.11.2022
1175 Clear 29 1013 24 10000 5.06 227 07:34 03.11.2022
1176 Clouds 27 1012 26 10000 5.55 181 21:29 02.11.2022
1177 Clouds 28 1012 26 10000 5.56 181 20:37 02.11.2022
1178 Clear 28 1012 25 10000 5.28 176 19:47 02.11.2022
1179 Clear 31 1011 21 10000 3.63 170 16:36 02.11.2022
1180 Clouds 32 1011 19 10000 3.15 175 15:35 02.11.2022
1181 Clear 34 1009 14 10000 4.43 198 14:29 02.11.2022
1182 Clouds 33 1009 15 10000 4.71 208 12:38 02.11.2022
1183 Clouds 32 1011 16 10000 5.41 200 10:45 02.11.2022
1184 Clouds 30 1013 19 10000 6.37 195 08:49 02.11.2022
1185 Clouds 20 1015 35 10000 3.94 178 04:48 02.11.2022
1186 Clouds 24 1014 31 10000 3.53 183 23:52 01.11.2022
1187 Clouds 27 1014 27 10000 3.86 185 22:19 01.11.2022
1188 Clouds 27 1014 25 10000 4.05 187 21:26 01.11.2022
1189 Clouds 28 1014 25 10000 3.99 181 20:25 01.11.2022
1190 Clouds 28 1014 25 10000 3.99 181 19:42 01.11.2022
1191 Clouds 29 1014 21 10000 3.95 164 18:33 01.11.2022
1192 Clouds 28 1014 20 10000 3.3 155 17:21 01.11.2022
1193 Clouds 33 1013 18 10000 2.06 164 15:53 01.11.2022
1194 Clouds 34 1011 12 10000 2.73 198 13:24 01.11.2022
1195 Clouds 34 1012 12 10000 3.1 188 12:27 01.11.2022
1196 Clouds 34 1012 12 10000 3.38 191 11:21 01.11.2022
1197 Clouds 32 1013 13 10000 3.97 191 09:49 01.11.2022
1198 Clouds 30 1014 15 10000 4.61 195 08:38 01.11.2022
1199 Clouds 29 1016 20 10000 4.86 193 07:29 01.11.2022
1200 Clouds 23 1016 20 10000 4.88 189 06:46 01.11.2022
1201 Clouds 20 1016 23 10000 3.77 181 05:52 01.11.2022
1202 Clouds 21 1014 21 10000 3.14 175 23:47 31.10.2022
1203 Clouds 25 1015 18 10000 3.67 162 21:34 31.10.2022
1204 Clouds 25 1015 16 10000 3.09 166 20:18 31.10.2022
1205 Clouds 25 1015 15 10000 2.97 174 18:45 31.10.2022
1206 Clear 30 1014 13 10000 3.47 133 16:45 31.10.2022
1207 Clear 30 1014 13 10000 3.47 133 16:45 31.10.2022
1208 Clear 32 1014 12 10000 3.96 119 15:52 31.10.2022
1209 Clouds 34 1012 8 10000 4.01 131 13:22 31.10.2022
1210 Clouds 32 1014 10 10000 4.5 158 09:53 31.10.2022
1211 Clouds 31 1016 12 10000 4.03 167 08:20 31.10.2022
1212 Clouds 20 1015 19 10000 2.84 175 02:50 31.10.2022
1213 Clouds 20 1014 19 10000 2.96 166 01:49 31.10.2022
1214 Clouds 24 1015 15 10000 3.28 167 22:25 30.10.2022
1215 Clouds 26 1015 14 10000 3.49 155 20:44 30.10.2022
1216 Clouds 26 1015 13 10000 2.78 146 19:54 30.10.2022
1217 Clouds 30 1014 11 10000 2.9 115 16:48 30.10.2022
1218 Clouds 35 1013 10 10000 3.25 104 14:57 30.10.2022
1219 Clouds 36 1013 8 10000 2.55 112 13:51 30.10.2022
1220 Clear 34 1013 8 10000 1.63 144 12:30 30.10.2022
1221 Clear 34 1013 9 10000 1.68 157 10:49 30.10.2022
1222 Clear 34 1013 9 10000 1.68 158 10:49 30.10.2022
1223 Clear 33 1015 10 10000 1.66 199 09:36 30.10.2022
1224 Clear 30 1016 11 10000 1.31 200 08:18 30.10.2022
1225 Clouds 21 1014 15 10000 2.52 185 00:30 30.10.2022
1226 Clouds 22 1014 15 10000 2.68 184 23:48 29.10.2022
1227 Clouds 23 1014 15 10000 2.83 182 22:52 29.10.2022
1228 Clouds 29 1014 14 10000 2.54 181 20:52 29.10.2022
1229 Clear 28 1012 11 10000 3.13 149 17:24 29.10.2022
1230 Clear 34 1012 10 10000 2.73 136 15:51 29.10.2022
1231 Clear 34 1011 9 10000 2.34 115 15:23 29.10.2022
1232 Clear 34 1011 9 10000 1.54 112 14:41 29.10.2022
1233 Clear 35 1012 10 10000 0.98 211 12:34 29.10.2022
1234 Clear 31 1014 11 10000 3.84 243 09:57 29.10.2022
1235 Clear 21 1015 15 10000 3.41 243 07:31 29.10.2022
1236 Clear 18 1015 17 10000 3.25 252 05:55 29.10.2022
1237 Clouds 22 1014 16 10000 2.86 165 00:27 29.10.2022
1238 Clouds 23 1014 16 10000 2.71 178 22:30 28.10.2022
1239 Clouds 25 1014 15 10000 3.15 177 20:46 28.10.2022
1240 Clouds 28 1014 12 10000 2.55 150 18:51 28.10.2022
1241 Clouds 28 1014 12 10000 2.55 150 18:30 28.10.2022
1242 Clouds 35 1012 8 10000 0.45 253 15:29 28.10.2022
1243 Clouds 33 1012 8 10000 1.21 248 13:44 28.10.2022
1244 Clouds 33 1013 9 10000 2.12 230 12:23 28.10.2022
1245 Clouds 32 1013 9 10000 2.12 230 11:34 28.10.2022
1246 Clouds 32 1014 10 10000 2.71 224 10:45 28.10.2022
1247 Clouds 29 1015 11 10000 3.33 224 09:44 28.10.2022
1248 Clouds 22 1016 14 10000 2.24 216 07:56 28.10.2022
1249 Clouds 18 1015 21 10000 2.4 171 03:41 28.10.2022
1250 Clouds 21 1015 19 10000 2.82 164 23:48 27.10.2022
1251 Clouds 22 1015 19 10000 2.65 157 22:39 27.10.2022
1252 Clouds 24 1016 19 10000 2.54 155 21:33 27.10.2022
1253 Clouds 28 1015 15 10000 2.68 125 18:34 27.10.2022
1254 Clouds 29 1015 15 10000 2.87 131 17:28 27.10.2022
1255 Clouds 32 1014 12 10000 3.5 126 13:34 27.10.2022
1256 Clear 29 1017 17 10000 4.04 166 08:58 27.10.2022
1257 Clouds 22 1016 25 10000 2.17 158 03:00 27.10.2022
1258 Clouds 23 1016 22 10000 3.01 129 23:54 26.10.2022
1259 Clouds 23 1017 21 10000 3.34 119 22:46 26.10.2022
1260 Clouds 24 1017 19 10000 3.9 109 21:56 26.10.2022
1261 Clear 28 1016 15 10000 2.46 128 18:43 26.10.2022
1262 Clear 32 1015 14 10000 2.19 150 16:35 26.10.2022
1263 Clear 33 1014 11 10000 2.77 136 14:33 26.10.2022
1264 Clear 33 1014 11 10000 3.1 129 12:36 26.10.2022
1265 Clear 31 1017 15 10000 3.98 150 09:31 26.10.2022
1266 Clear 28 1017 15 10000 3.98 150 08:53 26.10.2022
1267 Clear 28 1017 15 10000 3.98 150 08:53 26.10.2022
1268 Clear 28 1017 15 10000 3.84 150 08:22 26.10.2022
1269 Clear 23 1015 18 10000 2.72 150 00:45 26.10.2022
1270 Clear 23 1015 18 10000 3.09 151 00:20 26.10.2022
1271 Clear 25 1015 16 10000 3.74 124 21:47 25.10.2022
1272 Clear 23 1015 15 10000 4.27 108 20:53 25.10.2022
1273 Clear 27 1014 14 10000 2.84 114 19:19 25.10.2022
1274 Clear 30 1013 13 10000 2.47 119 17:51 25.10.2022
1275 Clear 30 1013 13 10000 2.47 119 17:51 25.10.2022
1276 Clear 34 1011 10 10000 3.07 109 13:57 25.10.2022
1277 Clear 34 1012 10 10000 2.6 113 11:38 25.10.2022
1278 Clear 33 1013 11 10000 2.4 144 10:37 25.10.2022
1279 Clear 32 1014 11 10000 2.84 164 09:44 25.10.2022
1280 Clear 29 1015 14 10000 2.65 173 08:18 25.10.2022
1281 Clear 24 1015 14 10000 2.65 173 07:54 25.10.2022
1282 Clear 20 1015 15 10000 2.34 164 06:56 25.10.2022
1283 Clear 19 1014 18 10000 2.36 135 03:43 25.10.2022
1284 Clear 21 1013 17 10000 2.86 121 00:35 25.10.2022
1285 Clear 23 1014 17 10000 2.63 112 23:47 24.10.2022
1286 Clear 23 1014 16 10000 1.95 169 22:24 24.10.2022
1287 Clear 24 1014 16 10000 1.95 169 21:33 24.10.2022
1288 Clear 26 1014 15 10000 2.26 164 20:41 24.10.2022
1289 Clear 27 1013 14 10000 2.33 139 18:52 24.10.2022
1290 Clear 30 1013 13 10000 2.4 126 17:45 24.10.2022
1291 Clear 33 1013 13 10000 2.58 110 16:33 24.10.2022
1292 Clear 35 1012 10 10000 1.63 87 14:22 24.10.2022
1293 Clear 36 1012 10 10000 1.15 100 13:27 24.10.2022
1294 Clear 34 1013 11 10000 0.96 124 11:32 24.10.2022
1295 Clear 24 1017 15 10000 1.29 208 07:57 24.10.2022
1296 Clear 21 1015 18 10000 2.71 198 00:50 24.10.2022
1297 Clear 26 1017 15 10000 2.72 142 20:43 23.10.2022
1298 Clear 27 1017 15 10000 2.82 110 19:42 23.10.2022
1299 Clear 30 1016 13 10000 2.4 108 17:42 23.10.2022
1300 Clear 30 1016 13 10000 2.4 108 17:42 23.10.2022
1301 Clear 30 1015 13 10000 2.62 110 17:21 23.10.2022
1302 Clear 34 1015 10 10000 3.45 120 15:19 23.10.2022
1303 Clear 34 1015 11 10000 3.85 140 12:58 23.10.2022
1304 Clear 32 1017 13 10000 4.09 152 10:58 23.10.2022
1305 Clear 24 1020 15 10000 2.7 155 07:53 23.10.2022
1306 Clear 23 1018 17 10000 2.45 164 23:37 22.10.2022
1307 Clear 25 1018 16 10000 2.54 172 22:31 22.10.2022
1308 Clear 25 1018 16 10000 2.74 177 21:41 22.10.2022
1309 Clear 26 1018 15 10000 3.31 158 20:30 22.10.2022
1310 Clear 27 1018 14 10000 4.04 145 19:32 22.10.2022
1311 Clear 28 1017 13 10000 3.44 150 18:46 22.10.2022
1312 Clear 30 1016 13 10000 2.73 162 17:31 22.10.2022
1313 Clear 33 1015 11 10000 4.6 142 15:26 22.10.2022
1314 Clear 34 1015 11 10000 4.6 142 14:36 22.10.2022
1315 Clear 34 1015 11 10000 4.6 142 14:36 22.10.2022
1316 Clear 34 1015 10 10000 5.07 138 12:42 22.10.2022
1317 Clear 33 1017 12 10000 5.14 165 09:50 22.10.2022
1318 Clear 28 1018 13 10000 4.98 168 08:51 22.10.2022
1319 Clear 21 1018 16 10000 2.4 167 06:30 22.10.2022
1320 Clear 22 1016 17 10000 2.34 187 01:53 22.10.2022
1321 Clear 24 1016 15 10000 3.86 145 23:33 21.10.2022
1322 Clear 24 1016 14 10000 4.27 137 21:34 21.10.2022
1323 Clear 27 1016 13 10000 3.69 160 20:49 21.10.2022
1324 Clear 29 1015 12 10000 4.03 143 18:32 21.10.2022
1325 Clear 35 1012 9 10000 4.05 141 14:47 21.10.2022
1326 Clear 35 1012 9 10000 4.82 133 13:43 21.10.2022
1327 Clear 34 1013 9 10000 4.33 143 11:55 21.10.2022
1328 Clear 33 1014 10 10000 4.11 177 10:26 21.10.2022
1329 Clear 32 1014 10 10000 4.11 177 09:37 21.10.2022
1330 Clear 29 1016 11 10000 2.74 189 08:26 21.10.2022
1331 Clear 19 1015 15 10000 2.13 197 05:56 21.10.2022
1332 Clear 23 1013 14 10000 2.92 169 23:59 20.10.2022
1333 Clear 23 1013 14 10000 2.92 169 23:59 20.10.2022
1334 Clear 27 1014 13 10000 2.58 206 21:23 20.10.2022
1335 Clear 29 1013 12 10000 2.77 202 19:45 20.10.2022
1336 Clear 29 1013 12 10000 2.77 202 19:45 20.10.2022
1337 Clear 29 1013 12 10000 2.61 174 18:51 20.10.2022
1338 Clear 30 1013 11 10000 2.23 140 17:48 20.10.2022
1339 Clear 35 1012 10 10000 1.63 83 15:37 20.10.2022
1340 Clear 35 1011 8 10000 0.58 240 12:33 20.10.2022
1341 Clear 34 1012 8 10000 1.21 234 11:53 20.10.2022
1342 Clear 34 1012 9 10000 2.28 236 10:56 20.10.2022
1343 Clear 32 1013 9 10000 3.12 235 09:35 20.10.2022
1344 Clear 25 1015 12 10000 1.67 234 07:44 20.10.2022
1345 Clear 21 1014 19 10000 1.1 158 03:30 20.10.2022
1346 Clear 24 1013 15 10000 0.93 73 23:46 19.10.2022
1347 Clear 26 1013 14 10000 0.99 306 22:32 19.10.2022
1348 Clear 25 1013 13 10000 2.59 268 21:39 19.10.2022
1349 Clouds 27 1013 12 10000 2.21 217 20:23 19.10.2022
1350 Clouds 33 1012 12 10000 1.07 216 17:52 19.10.2022
1351 Clouds 35 1012 11 10000 1.33 219 16:49 19.10.2022
1352 Clouds 36 1012 9 10000 0.95 154 14:34 19.10.2022
1353 Clouds 36 1012 8 10000 1.52 146 12:40 19.10.2022
1354 Clouds 31 1015 10 10000 0.95 190 08:58 19.10.2022
1355 Clouds 25 1015 11 10000 1.45 201 07:31 19.10.2022
1356 Clouds 20 1014 16 10000 0.51 312 02:46 19.10.2022
1357 Clouds 24 1014 15 10000 0.98 354 23:47 18.10.2022
1358 Clouds 24 1014 13 10000 1.95 319 22:35 18.10.2022
1359 Clouds 25 1014 13 10000 1.82 265 21:31 18.10.2022
1360 Clouds 26 1014 13 10000 1.55 210 20:31 18.10.2022
1361 Clouds 27 1014 12 10000 2.01 213 19:19 18.10.2022
1362 Clouds 34 1014 11 10000 1.52 222 16:58 18.10.2022
1363 Clouds 35 1014 10 10000 0.85 204 15:36 18.10.2022
1364 Clouds 36 1013 9 10000 1.32 106 13:45 18.10.2022
1365 Clouds 37 1014 9 10000 1.43 104 11:48 18.10.2022
1366 Clouds 37 1015 9 10000 1.02 159 11:18 18.10.2022
1367 Clouds 32 1017 9 10000 2.8 212 09:26 18.10.2022
1368 Clouds 21 1017 12 10000 1.2 200 06:56 18.10.2022
1369 Clouds 25 1016 15 10000 2.51 117 23:40 17.10.2022
1370 Clouds 28 1017 15 10000 1.69 203 21:35 17.10.2022
1371 Clouds 28 1016 14 10000 1.85 189 20:49 17.10.2022
1372 Clouds 28 1017 14 10000 1.66 187 20:29 17.10.2022
1373 Clouds 28 1017 14 10000 1.66 187 19:42 17.10.2022
1374 Clouds 31 1016 13 10000 1.86 186 17:49 17.10.2022
1375 Clouds 34 1015 11 10000 2.44 175 15:55 17.10.2022
1376 Clouds 34 1015 10 10000 2.63 154 15:20 17.10.2022
1377 Clear 35 1015 10 10000 3.76 128 12:52 17.10.2022
1378 Clear 31 1018 12 10000 4.63 165 08:59 17.10.2022
1379 Clear 22 1016 19 10000 2.68 184 02:37 17.10.2022
1380 Clear 26 1016 18 10000 3.27 191 22:54 16.10.2022
1381 Clear 26 1016 18 10000 3.27 191 22:54 16.10.2022
1382 Clear 26 1016 16 10000 3.45 145 21:22 16.10.2022
1383 Clear 26 1016 16 10000 3.45 145 21:22 16.10.2022
1384 Clouds 28 1015 15 10000 2.93 135 19:52 16.10.2022
1385 Clouds 28 1015 15 10000 2.44 132 19:33 16.10.2022
1386 Clouds 32 1014 14 10000 3.04 126 17:46 16.10.2022
1387 Clear 34 1013 12 10000 4.04 114 16:29 16.10.2022
1388 Clear 35 1013 12 10000 4.04 114 15:55 16.10.2022
1389 Clear 34 1013 11 10000 2.54 132 12:29 16.10.2022
1390 Clear 35 1014 12 10000 2.47 156 11:27 16.10.2022
1391 Clear 34 1015 12 10000 2.74 182 10:26 16.10.2022
1392 Clear 26 1016 15 10000 2.23 198 07:20 16.10.2022
1393 Clear 24 1013 19 10000 3.3 166 23:43 15.10.2022
1394 Clear 26 1013 17 10000 2.46 186 21:54 15.10.2022
1395 Clear 26 1013 16 10000 2.48 186 21:19 15.10.2022
1396 Clear 28 1013 15 10000 2.4 157 19:32 15.10.2022
1397 Clear 32 1011 14 10000 3.07 99 17:24 15.10.2022
1398 Clear 32 1011 14 10000 3.07 99 17:24 15.10.2022
1399 Clear 34 1011 12 10000 3.3 87 15:45 15.10.2022
1400 Clear 33 1010 12 10000 2.24 119 13:27 15.10.2022
1401 Clear 34 1011 12 10000 2.08 137 11:43 15.10.2022
1402 Clear 31 1013 13 10000 2.67 166 09:37 15.10.2022
1403 Clear 28 1014 16 10000 2.13 144 07:37 15.10.2022
1404 Clear 24 1012 21 10000 2.39 122 00:40 15.10.2022
1405 Clear 24 1013 19 10000 2.88 128 22:58 14.10.2022
1406 Clear 24 1013 18 10000 3.12 125 22:22 14.10.2022
1407 Clear 26 1013 17 10000 3.5 107 20:51 14.10.2022
1408 Clear 30 1012 16 10000 3.63 103 18:51 14.10.2022
1409 Clear 34 1010 13 10000 3.03 132 15:32 14.10.2022
1410 Clear 34 1010 13 10000 3.03 132 15:32 14.10.2022
1411 Clear 34 1010 14 10000 3.65 141 12:57 14.10.2022
1412 Clear 33 1012 17 10000 3.63 133 11:26 14.10.2022
1413 Clear 30 1015 30 10000 2.8 146 08:29 14.10.2022
1414 Clear 23 1015 32 10000 2.63 144 06:47 14.10.2022
1415 Clear 23 1014 33 10000 2.15 137 06:18 14.10.2022
1416 Clear 21 1014 33 10000 2.15 137 05:42 14.10.2022
1417 Clear 22 1013 32 10000 2.26 113 02:26 14.10.2022
1418 Clear 24 1013 26 10000 3.14 88 23:42 13.10.2022
1419 Clear 26 1013 19 10000 2.88 83 21:43 13.10.2022
1420 Clear 28 1013 18 10000 2.72 91 20:44 13.10.2022
1421 Clear 29 1013 17 10000 3.37 99 19:43 13.10.2022
1422 Clear 30 1013 16 10000 4.12 91 18:52 13.10.2022
1423 Clear 30 1012 15 10000 4.6 85 18:21 13.10.2022
1424 Clear 34 1011 11 10000 5.72 82 15:50 13.10.2022
1425 Clear 34 1011 10 10000 6.25 82 15:28 13.10.2022
1426 Clear 35 1011 10 10000 6.08 83 13:54 13.10.2022
1427 Clear 35 1011 9 10000 5.72 88 12:42 13.10.2022
1428 Clear 34 1012 11 10000 3.78 99 10:58 13.10.2022
1429 Clear 30 1015 23 10000 1.42 93 08:34 13.10.2022
1430 Clear 26 1015 23 10000 1.53 109 07:37 13.10.2022
1431 Clear 21 1014 31 10000 0.13 48 03:46 13.10.2022
1432 Clear 23 1013 23 10000 1.38 41 01:40 13.10.2022
1433 Clear 25 1013 21 10000 1.9 44 00:34 13.10.2022
1434 Clear 27 1014 17 10000 2.35 46 22:45 12.10.2022
1435 Clear 27 1013 16 10000 2.1 71 21:46 12.10.2022
1436 Clear 27 1013 15 10000 2.5 119 21:19 12.10.2022
1437 Clear 28 1013 15 10000 2.5 119 20:33 12.10.2022
1438 Clear 30 1013 14 10000 4.5 95 19:22 12.10.2022
1439 Clear 33 1013 13 10000 4.64 86 17:55 12.10.2022
1440 Clear 34 1012 11 10000 4.84 82 16:59 12.10.2022
1441 Clear 35 1011 8 10000 6.07 67 14:27 12.10.2022
1442 Clear 36 1011 8 10000 6.07 67 13:53 12.10.2022
1443 Clear 35 1012 7 10000 5.41 66 11:47 12.10.2022
1444 Clear 33 1014 10 10000 3.52 73 09:27 12.10.2022
1445 Clear 26 1015 15 10000 3.04 47 07:42 12.10.2022
1446 Clear 23 1015 19 10000 2.52 17 06:44 12.10.2022
1447 Clear 22 1014 21 10000 2.61 349 05:27 12.10.2022
1448 Clear 26 1013 19 10000 1.8 333 23:56 11.10.2022
1449 Clear 28 1013 15 10000 3.22 40 21:25 11.10.2022
1450 Clear 29 1013 12 10000 4.03 41 20:26 11.10.2022
1451 Clear 32 1012 10 10000 1.94 65 18:25 11.10.2022
1452 Clear 35 1011 8 10000 1.7 57 16:24 11.10.2022
1453 Clear 36 1011 7 10000 1.64 7 13:44 11.10.2022
1454 Clear 35 1013 8 10000 1.4 357 10:48 11.10.2022
1455 Clear 35 1014 8 10000 1.84 304 10:26 11.10.2022
1456 Clear 30 1014 9 10000 2.48 294 08:46 11.10.2022
1457 Clear 21 1013 16 10000 1.75 198 04:23 11.10.2022
1458 Clear 22 1013 16 10000 1.75 159 00:47 11.10.2022
1459 Clear 26 1014 14 10000 2.64 132 23:52 10.10.2022
1460 Clear 29 1014 12 10000 2.4 187 20:58 10.10.2022
1461 Clear 28 1014 11 10000 2.58 186 19:43 10.10.2022
1462 Clear 34 1013 11 10000 2.81 173 17:52 10.10.2022
1463 Clear 36 1013 11 10000 2.96 173 16:37 10.10.2022
1464 Clear 36 1012 9 10000 2.21 135 14:22 10.10.2022
1465 Clear 36 1013 9 10000 2.6 123 12:24 10.10.2022
1466 Clear 35 1015 10 10000 2.85 157 10:20 10.10.2022
1467 Clear 26 1016 12 10000 3.17 174 07:41 10.10.2022
1468 Clear 20 1015 16 10000 2.27 201 05:37 10.10.2022
1469 Clear 23 1013 16 10000 2.76 165 01:58 10.10.2022
1470 Clear 23 1013 16 10000 2.76 165 01:58 10.10.2022
1471 Clear 23 1013 16 10000 2.76 165 01:58 10.10.2022
1472 Clear 23 1013 15 10000 3.19 133 00:24 10.10.2022
1473 Clear 25 1013 13 10000 3.72 157 22:27 09.10.2022
1474 Clear 28 1013 13 10000 3.72 157 21:49 09.10.2022
1475 Clear 29 1013 11 10000 4.15 157 20:49 09.10.2022
1476 Clear 29 1013 11 10000 3.2 133 19:52 09.10.2022
1477 Clear 29 1013 11 10000 2.63 126 19:20 09.10.2022
1478 Clear 31 1012 11 10000 2.18 131 18:27 09.10.2022
1479 Clear 35 1011 10 10000 1.67 176 16:56 09.10.2022
1480 Clear 35 1011 9 10000 1.91 195 16:24 09.10.2022
1481 Clear 36 1010 8 10000 2.19 177 15:27 09.10.2022
1482 Clear 36 1010 8 10000 2.73 153 14:27 09.10.2022
1483 Clear 36 1010 8 10000 3.49 144 12:54 09.10.2022
1484 Clear 36 1011 9 10000 4.52 139 11:32 09.10.2022
1485 Clear 34 1012 10 10000 4.88 145 09:57 09.10.2022
1486 Clear 29 1013 12 10000 3.34 150 07:52 09.10.2022
1487 Clear 22 1012 15 10000 2.22 128 03:32 09.10.2022
1488 Clear 22 1011 13 10000 2.69 113 02:23 09.10.2022
1489 Clear 25 1011 12 10000 2.07 160 23:56 08.10.2022
1490 Clear 26 1011 12 10000 2.23 170 22:53 08.10.2022
1491 Clear 27 1011 11 10000 3 136 21:18 08.10.2022
1492 Clear 32 1011 10 10000 3.68 112 19:56 08.10.2022
1493 Clear 33 1010 8 10000 4.64 91 18:22 08.10.2022
1494 Clear 38 1008 8 10000 3.92 67 15:50 08.10.2022
1495 Clear 38 1008 7 10000 1.92 90 14:24 08.10.2022
1496 Clear 37 1008 7 10000 1.94 105 12:31 08.10.2022
1497 Clear 35 1010 8 10000 2.24 114 10:37 08.10.2022
1498 Clear 34 1011 8 10000 2.18 127 09:50 08.10.2022
1499 Clear 31 1011 10 10000 1.77 149 08:38 08.10.2022
1500 Clear 23 1011 14 10000 1.12 55 03:50 08.10.2022
1501 Clear 25 1010 14 10000 1.02 63 00:34 08.10.2022
1502 Clear 27 1010 12 10000 2.94 28 23:20 07.10.2022
1503 Clear 27 1010 12 10000 2.94 28 22:32 07.10.2022
1504 Clear 29 1010 11 10000 3.67 16 20:50 07.10.2022
1505 Clear 30 1010 11 10000 3.73 10 19:28 07.10.2022
1506 Clear 34 1009 11 10000 2.34 335 17:37 07.10.2022
1507 Clear 36 1008 10 10000 2.12 297 16:30 07.10.2022
1508 Clear 38 1008 8 10000 0.94 296 14:54 07.10.2022
1509 Clear 37 1008 8 10000 1.03 340 12:34 07.10.2022
1510 Clear 35 1011 9 10000 1.3 310 09:28 07.10.2022
1511 Clear 32 1011 9 10000 1.3 310 08:56 07.10.2022
1512 Clear 24 1012 12 10000 1.34 284 06:51 07.10.2022
1513 Clear 25 1011 14 10000 2.43 353 01:34 07.10.2022
1514 Clear 26 1011 13 10000 1.99 353 22:51 06.10.2022
1515 Clear 28 1011 13 10000 1.83 17 21:46 06.10.2022
1516 Clear 28 1011 12 10000 1.93 27 21:25 06.10.2022
1517 Clear 30 1011 12 10000 2.97 35 19:59 06.10.2022
1518 Clear 31 1011 11 10000 2.44 9 18:37 06.10.2022
1519 Clear 31 1010 11 10000 1.66 301 18:18 06.10.2022
1520 Clear 38 1009 8 10000 2.27 311 14:51 06.10.2022
1521 Clear 37 1010 9 10000 1.3 9 11:38 06.10.2022
1522 Clear 28 1014 12 10000 1.02 329 07:24 06.10.2022
1523 Clear 23 1013 16 10000 0.88 142 03:35 06.10.2022
1524 Clear 27 1013 15 10000 1.95 27 00:27 06.10.2022
1525 Clear 28 1013 14 10000 1.63 63 21:22 05.10.2022
1526 Clear 32 1013 14 10000 3.69 75 19:29 05.10.2022
1527 Clear 35 1012 14 10000 2.65 49 17:36 05.10.2022
1528 Clear 37 1011 12 10000 2.91 82 15:57 05.10.2022
1529 Clear 37 1011 12 10000 2.68 107 14:47 05.10.2022
1530 Clear 37 1011 12 10000 2.31 148 13:56 05.10.2022
1531 Clear 36 1012 13 10000 3.24 136 12:23 05.10.2022
1532 Clear 33 1015 24 10000 2.96 120 09:28 05.10.2022
1533 Clear 31 1015 28 10000 2.41 113 07:43 05.10.2022
1534 Clear 22 1015 33 10000 1.59 118 05:39 05.10.2022
1535 Clear 23 1014 35 10000 1.38 100 04:18 05.10.2022
1536 Clear 26 1013 21 10000 3.4 93 00:50 05.10.2022
1537 Clear 26 1013 20 10000 2.06 79 00:27 05.10.2022
1538 Clear 29 1013 18 10000 2.13 63 22:37 04.10.2022
1539 Clear 31 1012 16 10000 2.2 62 20:39 04.10.2022
1540 Clear 33 1012 15 10000 3.67 42 18:58 04.10.2022
1541 Clear 33 1012 15 10000 3.67 42 18:37 04.10.2022
1542 Clear 34 1011 14 10000 3.57 35 17:45 04.10.2022
1543 Clear 35 1010 12 10000 2.8 33 16:33 04.10.2022
1544 Clear 36 1009 10 10000 2.54 31 12:58 04.10.2022
1545 Clear 31 1012 16 10000 3.23 107 09:45 04.10.2022
1546 Clear 27 1012 24 10000 2.25 95 07:24 04.10.2022
1547 Clear 26 1010 22 10000 1.58 161 02:27 04.10.2022
1548 Clear 29 1010 21 10000 2.45 116 23:40 03.10.2022
1549 Clear 30 1010 17 10000 5.09 78 21:52 03.10.2022
1550 Clear 30 1010 13 10000 5.38 88 20:56 03.10.2022
1551 Clear 31 1010 11 10000 4.65 80 19:52 03.10.2022
1552 Clear 34 1008 10 10000 2.21 145 17:59 03.10.2022
1553 Clear 34 1008 10 10000 2 145 17:18 03.10.2022
1554 Clear 37 1007 8 10000 2.38 147 15:42 03.10.2022
1555 Clear 38 1007 8 10000 2.09 128 13:45 03.10.2022
1556 Clear 37 1008 8 10000 3.02 119 12:24 03.10.2022
1557 Clear 36 1009 9 10000 3.47 134 10:39 03.10.2022
1558 Clear 34 1009 9 10000 3.47 134 09:37 03.10.2022
1559 Clear 23 1009 14 10000 2.05 158 06:30 03.10.2022
1560 Clear 23 1008 16 10000 2.14 148 02:52 03.10.2022
1561 Clear 26 1007 13 10000 2.5 111 22:35 02.10.2022
1562 Clear 28 1007 11 10000 3.37 70 20:51 02.10.2022
1563 Clear 30 1007 11 10000 1.49 157 18:42 02.10.2022
1564 Clear 33 1006 10 10000 2.09 166 17:52 02.10.2022
1565 Clear 36 1006 9 10000 2.7 168 16:33 02.10.2022
1566 Clear 37 1006 8 10000 3.3 159 15:56 02.10.2022
1567 Clear 37 1006 8 10000 3.38 154 13:52 02.10.2022
1568 Clear 37 1006 8 10000 3.12 148 13:21 02.10.2022
1569 Clear 38 1007 8 10000 2.6 133 12:28 02.10.2022
1570 Clear 36 1007 8 10000 2.6 133 11:39 02.10.2022
1571 Clear 35 1008 9 10000 2.16 104 10:59 02.10.2022
1572 Clear 33 1010 12 10000 1.55 63 09:27 02.10.2022
1573 Clear 28 1010 13 10000 0.95 15 07:41 02.10.2022
1574 Clear 23 1009 19 10000 0.78 314 02:55 02.10.2022
1575 Clear 25 1009 18 10000 2.22 12 00:46 02.10.2022
1576 Clear 25 1009 18 10000 1.69 356 00:21 02.10.2022
1577 Clear 27 1009 18 10000 0.88 43 22:43 01.10.2022
1578 Clear 29 1009 15 10000 2.81 85 20:36 01.10.2022
1579 Clear 32 1009 12 10000 4.03 60 18:50 01.10.2022
1580 Clear 35 1008 10 10000 2.48 55 16:36 01.10.2022
1581 Clear 36 1007 8 10000 1.62 49 14:41 01.10.2022
1582 Clear 36 1007 9 10000 1.81 73 13:31 01.10.2022
1583 Clear 36 1008 9 10000 1.6 64 12:33 01.10.2022
1584 Clear 34 1010 10 10000 2.01 65 11:21 01.10.2022
1585 Clear 33 1010 10 10000 2.01 65 10:32 01.10.2022
1586 Clear 32 1012 11 10000 2.63 70 09:28 01.10.2022
1587 Clear 33 1012 11 10000 2.63 70 08:58 01.10.2022
1588 Clear 22 1012 17 10000 1.39 43 05:28 01.10.2022
1589 Clear 22 1012 17 10000 1.08 32 03:34 01.10.2022
1590 Clear 23 1011 15 10000 1.39 58 00:29 01.10.2022
1591 Clear 27 1011 14 10000 2.3 62 22:48 30.09.2022
1592 Clear 28 1011 13 10000 3.47 66 21:31 30.09.2022
1593 Clear 29 1010 13 10000 4.56 63 20:44 30.09.2022
1594 Clear 29 1010 13 10000 5.41 60 20:18 30.09.2022
1595 Clear 33 1009 12 10000 5.47 60 17:38 30.09.2022
1596 Clear 37 1008 10 10000 1.8 50 15:58 30.09.2022
1597 Clear 36 1008 10 10000 0.89 111 13:34 30.09.2022
1598 Clear 34 1009 10 10000 1.84 113 11:58 30.09.2022
1599 Clear 34 1010 10 10000 2.49 109 11:28 30.09.2022
1600 Clear 30 1011 12 10000 3.26 116 08:37 30.09.2022
1601 Clear 24 1011 18 10000 2.39 120 06:26 30.09.2022
1602 Clear 23 1010 17 10000 2.53 141 02:39 30.09.2022
1603 Clear 28 1009 15 10000 2.4 51 22:40 29.09.2022
1604 Clear 29 1009 13 10000 4.84 63 21:28 29.09.2022
1605 Clear 30 1009 13 10000 4.84 63 20:57 29.09.2022
1606 Clear 33 1007 12 10000 4.51 49 18:45 29.09.2022
1607 Clear 35 1007 11 10000 3.68 19 17:32 29.09.2022
1608 Clear 36 1006 9 10000 3.49 4 16:28 29.09.2022
1609 Clear 37 1006 9 10000 3.49 4 15:36 29.09.2022
1610 Clear 37 1006 8 10000 3.3 344 14:31 29.09.2022
1611 Clear 34 1009 10 10000 1.33 351 10:29 29.09.2022
1612 Clear 24 1009 14 10000 0.37 129 06:58 29.09.2022
1613 Clear 24 1008 18 10000 1.55 115 02:51 29.09.2022
1614 Clear 27 1008 17 10000 3.24 11 23:56 28.09.2022
1615 Clear 28 1008 16 10000 2.7 331 22:44 28.09.2022
1616 Clear 29 1009 15 10000 3.32 340 21:29 28.09.2022
1617 Clear 30 1009 14 10000 3.77 355 20:24 28.09.2022
1618 Clear 33 1008 14 10000 4.15 0 18:41 28.09.2022
1619 Clear 37 1006 9 10000 5.25 354 15:26 28.09.2022
1620 Clear 39 1007 9 10000 5.01 348 13:26 28.09.2022
1621 Clear 37 1009 10 10000 4.81 349 11:18 28.09.2022
1622 Clear 35 1011 11 10000 2.89 0 09:18 28.09.2022
1623 Clear 28 1012 10 10000 0.87 213 07:20 28.09.2022
1624 Clear 22 1012 13 10000 1.62 320 03:18 28.09.2022
1625 Clear 24 1011 12 10000 1.71 334 01:35 28.09.2022
1626 Clear 26 1011 10 10000 2.7 24 23:27 27.09.2022
1627 Clear 29 1012 10 10000 3.3 34 21:47 27.09.2022
1628 Clear 29 1012 10 10000 3.87 38 20:39 27.09.2022
1629 Clear 31 1012 9 10000 4.11 36 19:48 27.09.2022
1630 Clear 33 1011 8 10000 4.66 32 18:45 27.09.2022
1631 Clear 34 1010 8 10000 4.85 25 17:45 27.09.2022
1632 Clear 36 1009 5 10000 5.48 20 15:40 27.09.2022
1633 Clear 37 1009 5 10000 5.41 11 14:55 27.09.2022
1634 Clear 37 1009 5 10000 4.77 360 12:50 27.09.2022
1635 Clear 36 1011 7 10000 4.86 354 11:34 27.09.2022
1636 Clear 31 1013 11 10000 5.3 352 08:50 27.09.2022
1637 Clear 24 1014 17 10000 4.86 339 06:56 27.09.2022
1638 Clear 25 1012 25 10000 3.01 333 02:41 27.09.2022
1639 Clear 26 1012 25 10000 2.88 339 01:29 27.09.2022
1640 Clear 28 1012 23 10000 2.98 359 23:26 26.09.2022
1641 Clear 29 1012 23 10000 2.98 359 22:38 26.09.2022
1642 Clear 31 1012 19 10000 4.52 12 20:46 26.09.2022
1643 Clear 32 1011 16 10000 4.75 19 19:31 26.09.2022
1644 Clear 33 1010 15 10000 4.83 23 18:32 26.09.2022
1645 Clear 35 1009 14 10000 5.23 21 16:36 26.09.2022
1646 Clear 35 1008 12 10000 7.48 22 14:37 26.09.2022
1647 Clouds 35 1009 12 10000 7.17 18 11:30 26.09.2022
1648 Clear 33 1010 13 10000 7.11 15 10:39 26.09.2022
1649 Clear 33 1012 15 10000 7.23 13 10:20 26.09.2022
1650 Clear 32 1012 15 10000 7.23 13 09:55 26.09.2022
1651 Clear 32 1012 19 10000 7.25 7 09:24 26.09.2022
1652 Clear 28 1013 22 10000 8.62 6 07:56 26.09.2022
1653 Clear 28 1010 28 10000 7.61 347 02:57 26.09.2022
1654 Clouds 32 1010 25 10000 7.23 350 23:57 25.09.2022
1655 Clouds 33 1010 23 10000 6.93 349 22:45 25.09.2022
1656 Clouds 33 1010 20 10000 6.32 349 21:35 25.09.2022
1657 Clouds 34 1010 19 10000 5.31 350 20:48 25.09.2022
1658 Clouds 34 1009 16 10000 4.52 7 19:43 25.09.2022
1659 Clouds 34 1008 15 10000 4.49 13 18:43 25.09.2022
1660 Clouds 34 1008 14 10000 4.63 15 18:20 25.09.2022
1661 Clouds 35 1007 12 10000 5.04 19 16:45 25.09.2022
1662 Clear 36 1006 11 10000 6.59 22 15:45 25.09.2022
1663 Clear 36 1006 10 10000 6.56 20 14:22 25.09.2022
1664 Clear 35 1006 11 10000 6.71 13 12:57 25.09.2022
1665 Clear 33 1008 13 10000 7.93 5 10:36 25.09.2022
1666 Clear 31 1011 21 10000 8.44 357 08:25 25.09.2022
1667 Clear 25 1011 27 10000 6.12 347 06:23 25.09.2022
1668 Clear 25 1011 27 10000 6.12 347 06:23 25.09.2022
1669 Clear 26 1009 23 10000 4.83 336 02:57 25.09.2022
1670 Clear 29 1010 17 10000 5.8 346 22:50 24.09.2022
1671 Clear 30 1010 15 10000 6.09 358 21:19 24.09.2022
1672 Clear 33 1010 13 10000 5.64 1 19:23 24.09.2022
1673 Clear 36 1009 13 10000 5.86 2 17:50 24.09.2022
1674 Clear 37 1008 10 10000 8.12 358 16:27 24.09.2022
1675 Clear 38 1008 9 10000 7.75 357 15:22 24.09.2022
1676 Clear 39 1008 9 10000 5.6 357 13:35 24.09.2022
1677 Clear 39 1008 9 10000 4.87 4 12:51 24.09.2022
1678 Clear 38 1010 11 10000 5.31 33 11:21 24.09.2022
1679 Clear 34 1011 12 10000 5.77 34 09:46 24.09.2022
1680 Clear 32 1012 14 10000 5.97 31 08:45 24.09.2022
1681 Clear 32 1013 17 10000 6.8 18 07:38 24.09.2022
1682 Clear 28 1012 26 10000 3.74 342 04:46 24.09.2022
1683 Clear 29 1011 23 10000 4.14 343 03:42 24.09.2022
1684 Clouds 32 1009 17 10000 4.22 6 22:36 23.09.2022
1685 Clouds 34 1008 15 10000 5.78 20 21:28 23.09.2022
1686 Clouds 35 1008 15 10000 5.78 20 20:56 23.09.2022
1687 Clear 35 1008 12 10000 3.8 24 20:20 23.09.2022
1688 Clear 35 1007 11 10000 3.11 42 18:50 23.09.2022
1689 Clear 41 1006 8 10000 1.69 33 14:33 23.09.2022
1690 Clear 39 1008 9 10000 1.88 152 10:55 23.09.2022
1691 Clear 36 1009 10 10000 1.85 170 09:32 23.09.2022
1692 Clear 26 1009 16 10000 0.87 311 05:20 23.09.2022
1693 Clouds 31 1007 15 10000 2.74 193 00:31 23.09.2022
1694 Clouds 33 1007 15 10000 3.67 144 23:21 22.09.2022
1695 Clouds 33 1007 15 10000 3.9 147 22:26 22.09.2022
1696 Clouds 35 1007 15 10000 4.71 133 20:46 22.09.2022
1697 Clear 35 1007 13 10000 4.64 134 19:37 22.09.2022
1698 Clear 38 1005 11 10000 4.05 125 16:57 22.09.2022
1699 Clear 39 1005 10 10000 4.71 151 12:19 22.09.2022
1700 Clear 37 1007 10 10000 5.28 161 10:20 22.09.2022
1701 Clear 33 1007 12 10000 4.91 164 08:46 22.09.2022
1702 Clear 28 1008 17 10000 3.68 152 06:45 22.09.2022
1703 Clear 29 1006 25 10000 2.41 158 02:52 22.09.2022
1704 Clear 31 1006 23 10000 3.76 138 23:25 21.09.2022
1705 Clear 32 1006 23 10000 4.21 131 21:41 21.09.2022
1706 Clear 34 1005 21 10000 5.09 101 19:55 21.09.2022
1707 Clear 36 1004 20 10000 2.94 133 17:48 21.09.2022
1708 -273 0 0 0 0 0 16:30 21.09.2022
1709 Clear 39 1004 17 10000 2.1 112 14:31 21.09.2022
1710 Clouds 36 1004 17 10000 2.81 123 12:42 21.09.2022
1711 Clouds 35 1006 20 10000 4.17 141 11:29 21.09.2022
1712 Clouds 34 1007 23 10000 4.16 148 09:50 21.09.2022
1713 Clouds 33 1008 26 10000 3.98 162 09:00 21.09.2022
1714 Clouds 31 1008 27 10000 3.57 147 07:18 21.09.2022
1715 Clear 27 1007 25 10000 3.65 126 02:47 21.09.2022
1716 Clear 27 1006 25 10000 3.33 131 02:25 21.09.2022
1717 Clear 28 1006 26 10000 2.88 119 00:34 21.09.2022
1718 Clear 30 1007 26 10000 2.95 113 22:43 20.09.2022
1719 Clear 32 1007 22 10000 4.51 78 20:51 20.09.2022
1720 Clouds 33 1006 17 10000 6.1 72 19:32 20.09.2022
1721 Clouds 38 1004 8 10000 5.81 26 16:25 20.09.2022
1722 Clear 40 1004 8 10000 4.46 7 14:45 20.09.2022
1723 Clear 40 1004 8 10000 2.09 9 12:58 20.09.2022
1724 Clear 36 1007 13 10000 1.64 105 09:34 20.09.2022
1725 Clear 33 1008 17 10000 2.66 139 08:26 20.09.2022
1726 Clear 26 1008 22 10000 2.21 147 04:50 20.09.2022
1727 Clear 27 1008 21 10000 2.53 146 03:48 20.09.2022
1728 Clear 31 1007 12 10000 2.9 77 22:55 19.09.2022
1729 Clear 32 1007 11 10000 3.33 68 21:46 19.09.2022
1730 Clear 34 1007 11 10000 4.3 69 20:51 19.09.2022
1731 Clear 34 1007 11 10000 4.29 69 20:30 19.09.2022
1732 Clear 38 1006 10 10000 5.25 58 17:44 19.09.2022
1733 Clear 40 1004 7 10000 3.21 358 14:54 19.09.2022
1734 Clear 40 1004 8 10000 2.4 348 13:32 19.09.2022
1735 Clear 40 1006 10 10000 1.87 130 11:25 19.09.2022
1736 Clear 36 1008 12 10000 4 144 08:51 19.09.2022
1737 Clear 28 1008 14 10000 3.13 151 06:42 19.09.2022
1738 Clear 29 1006 17 10000 3.09 117 01:55 19.09.2022
1739 Clear 31 1006 15 10000 2.56 100 23:22 18.09.2022
1740 Clear 32 1007 14 10000 3.11 97 21:44 18.09.2022
1741 Clear 32 1007 13 10000 4.12 82 20:25 18.09.2022
1742 Clear 36 1005 11 10000 4.07 57 18:18 18.09.2022
1743 Clear 38 1005 11 10000 4.07 57 17:37 18.09.2022
1744 Clear 40 1004 9 10000 4.89 42 15:46 18.09.2022
1745 Clear 40 1003 9 10000 4.6 58 13:51 18.09.2022
1746 Clear 40 1005 10 10000 2.33 105 12:35 18.09.2022
1747 Clear 39 1006 11 10000 2.98 159 11:24 18.09.2022
1748 Clear 26 1007 20 10000 2.18 106 04:26 18.09.2022
1749 Clear 28 1005 18 10000 2.52 131 01:25 18.09.2022
1750 Clear 29 1006 17 10000 2.6 128 00:23 18.09.2022
1751 Clear 32 1005 16 10000 2.41 105 21:40 17.09.2022
1752 Clear 35 1005 14 10000 4.73 68 19:44 17.09.2022
1753 Clear 36 1005 13 10000 4.46 59 18:57 17.09.2022
1754 Clear 36 1005 13 10000 4.46 59 18:57 17.09.2022
1755 Clear 40 1003 10 10000 3.96 27 16:22 17.09.2022
1756 Clear 40 1003 10 10000 1.75 18 13:56 17.09.2022
1757 Clear 37 1004 11 10000 0.31 261 11:31 17.09.2022
1758 Clear 34 1007 14 10000 1.35 127 09:27 17.09.2022
1759 Clear 28 1007 20 10000 1.66 41 06:25 17.09.2022
1760 Clear 30 1006 20 10000 2.21 82 00:20 17.09.2022
1761 Clear 31 1007 19 10000 2.51 62 22:54 16.09.2022
1762 Clear 32 1007 17 10000 3.91 48 21:23 16.09.2022
1763 Clear 35 1006 15 10000 4.48 50 19:51 16.09.2022
1764 Clear 38 1004 10 10000 4.06 45 16:56 16.09.2022
1765 Clear 39 1004 9 10000 2.43 12 15:26 16.09.2022
1766 Clear 38 1004 9 10000 1.09 29 13:57 16.09.2022
1767 Clear 38 1006 10 10000 1.03 112 11:42 16.09.2022
1768 Clear 34 1009 13 10000 3.7 73 08:26 16.09.2022
1769 Clouds 32 1009 19 10000 2.61 87 07:19 16.09.2022
1770 Clouds 29 1009 19 10000 2.61 87 06:47 16.09.2022
1771 Clear 29 1008 27 10000 3.17 9 02:40 16.09.2022
1772 Clouds 31 1008 15 10000 2.36 61 22:52 15.09.2022
1773 Clear 33 1008 13 10000 4.19 78 21:18 15.09.2022
1774 Clear 36 1007 12 10000 4.5 85 19:49 15.09.2022
1775 Clear 37 1006 9 10000 5.19 82 18:29 15.09.2022
1776 Clear 39 1006 9 10000 5.19 82 17:32 15.09.2022
1777 Clear 40 1005 8 10000 5.67 65 16:43 15.09.2022
1778 Clear 41 1005 7 10000 7.95 44 14:36 15.09.2022
1779 Clear 41 1006 7 10000 6.61 44 12:21 15.09.2022
1780 Clear 38 1007 8 10000 4.84 33 09:54 15.09.2022
1781 Clear 32 1008 11 10000 1.29 339 07:50 15.09.2022
1782 Clear 27 1007 17 10000 0.28 37 03:53 15.09.2022
1783 Clear 33 1006 15 10000 0.51 169 23:44 14.09.2022
1784 Clear 35 1006 13 10000 2.89 131 21:39 14.09.2022
1785 Clear 37 1006 11 10000 4.99 96 19:34 14.09.2022
1786 Clear 39 1005 10 10000 4.34 80 18:32 14.09.2022
1787 Clear 42 1003 8 10000 4.1 63 16:46 14.09.2022
1788 Clear 43 1003 7 10000 3.73 40 15:34 14.09.2022
1789 Clear 42 1003 6 10000 1.74 352 13:54 14.09.2022
1790 Clear 42 1004 7 10000 1.4 84 11:30 14.09.2022
1791 Clear 40 1006 8 10000 3.39 146 09:48 14.09.2022
1792 Clear 32 1007 11 10000 3.46 170 06:53 14.09.2022
1793 Clear 32 1007 11 10000 3.46 170 06:34 14.09.2022
1794 Clear 32 1007 11 10000 3.46 170 06:34 14.09.2022
1795 Clear 32 1007 11 10000 3.46 170 06:34 14.09.2022
1796 Clear 27 1006 16 10000 2.67 172 04:24 14.09.2022
1797 Clear 32 1005 14 10000 3.33 138 01:46 14.09.2022
1798 Clear 32 1005 13 10000 3.39 124 01:27 14.09.2022
1799 Clear 34 1005 11 10000 4.01 100 23:55 13.09.2022
1800 Clear 34 1005 11 10000 4.01 100 23:37 13.09.2022
1801 Clear 34 1004 10 10000 2.47 125 23:19 13.09.2022
1802 Clear 34 1004 10 10000 2.47 125 22:44 13.09.2022
1803 Clear 34 1004 10 10000 2.32 199 21:44 13.09.2022
1804 Clear 36 1004 9 10000 2.25 152 19:32 13.09.2022
1805 Clear 41 1003 8 10000 2.74 106 17:41 13.09.2022
1806 Clear 43 1002 6 10000 3.13 59 15:54 13.09.2022
1807 Clear 43 1002 6 10000 3.13 59 15:54 13.09.2022
1808 Clear 44 1002 6 10000 2.61 66 14:31 13.09.2022
1809 Clear 42 1002 6 10000 2.31 83 12:30 13.09.2022
1810 Clear 37 1005 7 10000 5.16 175 08:34 13.09.2022
1811 Clear 29 1004 12 10000 2.22 179 04:32 13.09.2022
1812 Clear 31 1004 11 10000 2.61 164 23:32 12.09.2022
1813 Clear 31 1003 11 10000 2.4 138 22:49 12.09.2022
1814 Clear 32 1003 11 10000 2.45 103 21:36 12.09.2022
1815 Clouds 35 1003 10 10000 2.84 55 20:25 12.09.2022
1816 Clouds 38 1002 9 10000 3.19 55 18:43 12.09.2022
1817 Clouds 41 1001 7 10000 3.27 28 16:23 12.09.2022
1818 Clouds 42 1001 7 10000 3.31 24 13:41 12.09.2022
1819 Clear 41 1003 7 10000 1.68 15 11:22 12.09.2022
1820 Clear 40 1004 8 10000 1.29 274 09:45 12.09.2022
1821 Clear 28 1005 13 10000 2.75 185 04:49 12.09.2022
1822 Clear 27 1004 13 10000 2.41 154 03:33 12.09.2022
1823 Clear 33 1004 12 10000 2.97 185 23:22 11.09.2022
1824 Clear 33 1005 13 10000 1.45 102 21:58 11.09.2022
1825 Clear 35 1005 11 10000 3.07 70 20:46 11.09.2022
1826 Clouds 37 1005 10 10000 3.72 62 19:52 11.09.2022
1827 Clouds 37 1004 10 10000 3.68 51 19:22 11.09.2022
1828 Clouds 38 1004 9 10000 3.58 35 18:20 11.09.2022
1829 Clouds 41 1003 8 10000 5.25 35 16:28 11.09.2022
1830 Clear 42 1003 7 10000 5.61 44 14:18 11.09.2022
1831 Clear 42 1003 8 10000 5.81 54 12:33 11.09.2022
1832 Clear 36 1007 11 10000 2.09 51 08:39 11.09.2022
1833 Clear 30 1007 16 10000 0.7 265 06:44 11.09.2022
1834 Clear 32 1006 19 10000 1.56 4 00:49 11.09.2022
1835 Clear 33 1007 18 10000 0.7 130 22:54 10.09.2022
1836 Clear 37 1007 15 10000 3.52 107 20:55 10.09.2022
1837 Clear 37 1006 13 10000 3.35 108 19:46 10.09.2022
1838 Clear 37 1005 12 10000 3.08 124 19:27 10.09.2022
1839 Clear 40 1005 11 10000 2.71 132 17:59 10.09.2022
1840 Clear 44 1003 9 10000 1.82 123 15:45 10.09.2022
1841 Clear 42 1003 9 10000 1.29 139 14:37 10.09.2022
1842 Clear 42 1004 9 10000 1.36 105 12:52 10.09.2022
1843 Clear 41 1006 11 10000 2.78 109 10:35 10.09.2022
1844 Clear 39 1008 14 10000 2.11 177 09:24 10.09.2022
1845 Clear 37 1008 15 10000 1.82 176 08:27 10.09.2022
1846 Clear 28 1008 18 10000 0.71 264 05:50 10.09.2022
1847 Clear 34 1007 18 10000 0.54 331 23:56 09.09.2022
1848 Clear 34 1007 17 10000 0.91 328 23:29 09.09.2022
1849 Clear 35 1007 14 10000 3.63 138 21:24 09.09.2022
1850 Clear 34 1007 13 10000 4.1 104 20:28 09.09.2022
1851 Clear 38 1006 12 10000 3.75 92 19:23 09.09.2022
1852 Clear 39 1006 12 10000 3.76 92 18:33 09.09.2022
1853 Clear 41 1005 9 10000 5.3 91 16:18 09.09.2022
1854 Clear 42 1005 8 10000 3.32 87 13:47 09.09.2022
1855 Clear 41 1006 9 10000 2.06 68 11:51 09.09.2022
1856 Clear 37 1009 11 10000 1.86 140 08:19 09.09.2022
1857 Clear 30 1008 15 10000 2.09 221 03:43 09.09.2022
1858 Clear 32 1007 14 10000 2.09 148 00:39 09.09.2022
1859 Clear 32 1008 12 10000 2.28 185 21:52 08.09.2022
1860 Clear 34 1008 12 10000 2.39 199 20:50 08.09.2022
1861 Clear 34 1007 11 10000 3.37 170 20:29 08.09.2022
1862 Clear 35 1007 11 10000 2.63 178 19:28 08.09.2022
1863 Clear 39 1006 10 10000 2.05 211 17:35 08.09.2022
1864 Clear 41 1005 8 10000 2.64 189 16:19 08.09.2022
1865 Clear 42 1005 8 10000 4.08 165 13:56 08.09.2022
1866 Clear 42 1005 8 10000 4.65 145 12:50 08.09.2022
1867 Clear 41 1006 8 10000 5.12 132 11:32 08.09.2022
1868 Clear 39 1007 9 10000 5.89 160 09:58 08.09.2022
1869 Clear 35 1008 10 10000 6.01 177 07:45 08.09.2022
1870 Clear 33 1008 14 10000 2.88 208 05:30 08.09.2022
1871 Clear 34 1006 16 10000 4.63 176 02:36 08.09.2022
1872 Clear 34 1005 16 10000 4.31 164 02:18 08.09.2022
1873 Clear 35 1005 15 10000 4.1 164 00:21 08.09.2022
1874 Clear 36 1005 14 10000 4.73 164 21:58 07.09.2022
1875 Clear 36 1005 14 10000 4.73 164 21:38 07.09.2022
1876 Clear 36 1005 12 10000 4.77 154 20:30 07.09.2022
1877 Clear 37 1004 10 10000 3.52 148 19:23 07.09.2022
1878 Clear 41 1003 9 10000 3.61 121 16:30 07.09.2022
1879 Clear 41 1003 8 10000 4.86 120 11:32 07.09.2022
1880 Clear 40 1003 8 10000 4.31 126 10:36 07.09.2022
1881 Clear 36 1004 8 10000 2.32 134 08:33 07.09.2022
1882 Clear 29 1005 10 10000 1.43 96 06:31 07.09.2022
1883 Clear 31 1003 12 10000 3.88 342 00:49 07.09.2022
1884 Clear 34 1003 10 10000 3.04 346 21:58 06.09.2022
1885 Clear 34 1003 10 10000 3.04 346 21:36 06.09.2022
1886 Clear 38 1003 10 10000 2.37 22 19:40 06.09.2022
1887 Clear 36 1002 9 10000 2.37 38 18:40 06.09.2022
1888 Clear 39 1002 8 10000 2.84 45 17:50 06.09.2022
1889 Clear 42 1001 7 10000 3.34 44 16:53 06.09.2022
1890 Clear 42 1000 6 10000 4.07 35 16:25 06.09.2022
1891 Clear 43 1000 6 10000 3.3 20 14:49 06.09.2022
1892 Clear 44 1001 6 10000 3.06 339 13:44 06.09.2022
1893 Clear 44 1001 6 10000 3.5 334 13:19 06.09.2022
1894 Clear 42 1003 6 10000 3.01 3 10:56 06.09.2022
1895 Clear 39 1004 6 10000 2.68 359 09:49 06.09.2022
1896 Clear 36 1005 8 10000 3.97 342 08:18 06.09.2022
1897 Clear 29 1005 10 10000 2.38 307 06:20 06.09.2022
1898 Clear 30 1003 12 10000 0.91 6 01:20 06.09.2022
1899 Clear 34 1004 10 10000 2.3 38 22:57 05.09.2022
1900 Clear 37 1004 10 10000 2.93 33 21:38 05.09.2022
1901 Clear 36 1004 9 10000 3.1 32 20:30 05.09.2022
1902 Clear 39 1003 9 10000 2.5 5 18:53 05.09.2022
1903 Clear 39 1002 8 10000 1.39 18 18:26 05.09.2022
1904 Clear 41 1002 8 10000 1.39 18 17:53 05.09.2022
1905 Clear 43 1001 7 10000 2.13 348 15:54 05.09.2022
1906 Clear 42 1001 7 10000 2.61 334 14:40 05.09.2022
1907 Clear 42 1002 7 10000 1.64 352 12:51 05.09.2022
1908 Clear 43 1004 7 10000 1.39 294 11:21 05.09.2022
1909 Clear 35 1005 9 10000 3.2 245 08:52 05.09.2022
1910 Clear 27 1005 15 10000 2.06 172 03:57 05.09.2022
1911 Clear 28 1005 13 10000 2.55 166 01:19 05.09.2022
1912 Clear 32 1005 11 10000 1.88 109 22:29 04.09.2022
1913 Clear 35 1005 11 10000 1.88 109 21:57 04.09.2022
1914 Clear 36 1005 10 10000 3.37 70 20:26 04.09.2022
1915 Clear 38 1004 9 10000 3.86 72 18:35 04.09.2022
1916 Clear 40 1004 9 10000 4.22 62 17:31 04.09.2022
1917 Clear 42 1003 7 10000 5.27 42 15:43 04.09.2022
1918 Clear 41 1003 7 10000 2.94 68 14:25 04.09.2022
1919 Clear 42 1003 8 10000 2.41 79 12:40 04.09.2022
1920 Clear 42 1005 9 10000 2.47 76 10:59 04.09.2022
1921 Clear 39 1006 12 10000 0.36 148 09:34 04.09.2022
1922 Clear 29 1007 14 10000 1.79 161 06:34 04.09.2022
1923 Clear 28 1006 19 10000 1.08 181 03:18 04.09.2022
1924 Clear 33 1006 15 10000 2.07 132 22:53 03.09.2022
1925 Clear 34 1006 14 10000 2.87 116 21:42 03.09.2022
1926 Clear 34 1006 13 10000 3.54 89 21:22 03.09.2022
1927 Clear 38 1006 10 10000 4.24 74 18:41 03.09.2022
1928 Clear 40 1004 8 10000 4.8 65 17:19 03.09.2022
1929 Clear 42 1004 7 10000 5.22 58 15:49 03.09.2022
1930 Clear 42 1004 7 10000 4.19 47 14:42 03.09.2022
1931 Clear 42 1004 6 10000 4.14 50 13:50 03.09.2022
1932 Clear 41 1005 7 10000 3.09 43 11:32 03.09.2022
1933 Clouds 39 1007 8 10000 2.72 27 09:32 03.09.2022
1934 Clouds 33 1008 10 10000 1.51 279 07:48 03.09.2022
1935 Clouds 28 1008 15 10000 0.79 244 04:51 03.09.2022
1936 Clouds 29 1008 16 10000 0.95 155 02:40 03.09.2022
1937 Clouds 30 1007 13 10000 1.86 132 23:44 02.09.2022
1938 Clouds 32 1007 12 10000 2.43 148 22:21 02.09.2022
1939 Clear 35 1007 12 10000 1.73 119 20:42 02.09.2022
1940 Clouds 35 1007 11 10000 2.09 173 20:18 02.09.2022
1941 Clouds 38 1007 10 10000 2.63 148 18:50 02.09.2022
1942 Clouds 38 1006 9 10000 2.95 126 18:25 02.09.2022
1943 Clear 39 1005 8 10000 3.03 123 17:24 02.09.2022
1944 Clear 40 1005 8 10000 3.03 123 16:31 02.09.2022
1945 Clear 40 1005 7 10000 2.46 129 13:32 02.09.2022
1946 Clear 40 1007 8 10000 2.55 109 10:57 02.09.2022
1947 Clear 38 1008 10 10000 1.85 117 09:45 02.09.2022
1948 Clear 36 1009 11 10000 1.72 189 08:46 02.09.2022
1949 Clear 28 1009 14 10000 2.05 210 06:46 02.09.2022
1950 Clear 28 1009 16 10000 1.88 199 06:22 02.09.2022
1951 Clouds 32 1007 16 10000 2.48 175 00:26 02.09.2022
1952 Clouds 32 1007 16 10000 3.25 162 22:21 01.09.2022
1953 Clouds 34 1007 16 10000 3.25 162 21:38 01.09.2022
1954 Clouds 34 1007 15 10000 3.49 148 21:19 01.09.2022
1955 Clouds 34 1007 13 10000 3.7 144 20:23 01.09.2022
1956 Clouds 36 1005 11 10000 2.95 134 18:20 01.09.2022
1957 Clouds 39 1005 10 10000 2.98 145 16:55 01.09.2022
1958 Clear 40 1004 9 10000 3.11 143 15:22 01.09.2022
1959 Clouds 40 1005 10 10000 4.17 141 13:27 01.09.2022
1960 Clouds 40 1005 10 10000 4.17 141 12:55 01.09.2022
1961 Clouds 40 1006 10 10000 3.95 133 11:51 01.09.2022
1962 Clouds 40 1006 11 10000 3.32 135 11:19 01.09.2022
1963 Clouds 38 1007 12 10000 3.23 147 09:31 01.09.2022
1964 Clouds 29 1008 17 10000 3.06 161 06:41 01.09.2022
1965 Clouds 27 1007 20 10000 2.39 155 02:39 01.09.2022
1966 Clouds 28 1007 19 10000 3.06 125 01:30 01.09.2022
1967 Clouds 28 1007 19 10000 3.06 125 01:30 01.09.2022
1968 Clouds 28 1007 19 10000 3.06 125 01:30 01.09.2022
1969 Clouds 28 1007 19 10000 3.06 125 01:30 01.09.2022
1970 Clouds 28 1007 20 10000 2.74 144 01:30 01.09.2022
1971 Clouds 33 1007 18 10000 3.57 120 22:43 31.08.2022
1972 Clouds 35 1007 16 10000 4.44 114 20:43 31.08.2022
1973 Clouds 37 1006 13 10000 5.54 110 18:46 31.08.2022
1974 Clouds 39 1005 10 10000 3.76 122 16:41 31.08.2022
1975 Clouds 40 1004 10 10000 3.1 152 15:21 31.08.2022
1976 Clouds 39 1005 10 10000 3.33 135 12:58 31.08.2022
1977 Clouds 38 1006 10 10000 3.2 128 11:54 31.08.2022
1978 Clouds 37 1008 12 10000 3.3 132 09:35 31.08.2022
1979 Clouds 33 1009 12 10000 3.55 131 07:31 31.08.2022
1980 Clear 29 1007 16 10000 1.77 192 02:47 31.08.2022
1981 Clear 33 1008 15 10000 4.64 118 22:21 30.08.2022
1982 Clear 34 1008 14 10000 4.76 116 21:27 30.08.2022
1983 Clear 36 1007 11 10000 4.75 104 19:51 30.08.2022
1984 Clear 40 1005 8 10000 4.82 71 16:47 30.08.2022
1985 Clear 40 1005 8 10000 4.82 71 16:47 30.08.2022
1986 Clear 41 1004 6 10000 5.97 62 13:37 30.08.2022
1987 Clear 40 1006 8 10000 2.97 55 11:23 30.08.2022
1988 Clear 40 1006 8 10000 2.97 55 10:57 30.08.2022
1989 Clear 37 1008 9 10000 0.71 337 08:51 30.08.2022
1990 Clear 27 1007 16 10000 2.49 195 03:57 30.08.2022
1991 Clear 29 1007 12 10000 3.66 155 00:30 30.08.2022
1992 Clear 32 1007 11 10000 3.83 124 22:36 29.08.2022
1993 Clear 34 1007 11 10000 4.07 86 21:48 29.08.2022
1994 Clear 35 1006 10 10000 5.37 77 20:34 29.08.2022
1995 Clear 37 1005 9 10000 5.36 61 18:58 29.08.2022
1996 Clear 39 1004 9 10000 4.34 53 17:32 29.08.2022
1997 Clear 40 1004 8 10000 4.04 26 16:57 29.08.2022
1998 Clear 41 1003 7 10000 5.29 6 15:18 29.08.2022
1999 Clear 41 1004 7 10000 5.44 9 13:42 29.08.2022
2000 Clear 41 1005 8 10000 2.48 36 12:20 29.08.2022
2001 Clear 40 1006 8 10000 2.01 57 10:42 29.08.2022
2002 Clear 37 1007 8 10000 1.75 3 08:53 29.08.2022
2003 Clear 28 1008 9 10000 0.9 297 06:52 29.08.2022
2004 Clear 27 1006 11 10000 1.11 219 02:25 29.08.2022
2005 Clear 31 1006 11 10000 0.71 113 23:33 28.08.2022
2006 Clear 34 1006 10 10000 1.99 135 21:47 28.08.2022
2007 Clear 34 1006 9 10000 3.73 124 21:25 28.08.2022
2008 Clouds 36 1006 9 10000 4.23 97 19:59 28.08.2022
2009 Clouds 38 1004 10 10000 4.11 23 18:22 28.08.2022
2010 Clouds 39 1004 10 10000 4.11 23 17:50 28.08.2022
2011 Clouds 40 1003 9 10000 4.95 341 16:42 28.08.2022
2012 Clouds 41 1002 9 10000 4.94 354 14:46 28.08.2022
2013 Clear 41 1003 10 10000 2.29 332 12:57 28.08.2022
2014 Clouds 41 1005 11 10000 1.46 112 11:24 28.08.2022
2015 Clouds 39 1006 12 10000 1.69 119 10:19 28.08.2022
2016 Clouds 36 1006 14 10000 1.49 89 08:42 28.08.2022
2017 Clouds 33 1007 15 10000 1.02 65 07:51 28.08.2022
2018 Clouds 28 1006 20 10000 0.76 64 04:55 28.08.2022
2019 Clear 30 1006 18 10000 0.62 336 00:34 28.08.2022
2020 Clear 32 1006 16 10000 1.98 94 22:50 27.08.2022
2021 Clear 32 1006 15 10000 3.05 71 22:19 27.08.2022
2022 Clouds 35 1006 13 10000 3.68 68 20:27 27.08.2022
2023 Clouds 38 1005 12 10000 4.04 65 18:42 27.08.2022
2024 Clouds 40 1003 9 10000 6.85 39 16:25 27.08.2022
2025 Clouds 40 1003 9 10000 6.27 34 15:30 27.08.2022
2026 Clouds 40 1004 10 10000 5.78 49 12:41 27.08.2022
2027 Clouds 39 1004 10 10000 5.42 56 11:53 27.08.2022
2028 Clouds 38 1005 11 10000 5.64 73 09:52 27.08.2022
2029 Clouds 36 1006 13 10000 5.05 73 08:53 27.08.2022
2030 Clouds 28 1005 20 10000 2.65 7 04:39 27.08.2022
2031 Clouds 32 1004 16 10000 1.32 66 00:25 27.08.2022
2032 Clouds 33 1004 15 10000 3.03 70 23:24 26.08.2022
2033 Clouds 34 1004 14 10000 3.71 65 21:43 26.08.2022
2034 Clouds 36 1003 12 10000 4.07 83 19:40 26.08.2022
2035 Clouds 39 1002 11 10000 1.33 117 17:29 26.08.2022
2036 Clouds 41 1001 10 10000 1.04 130 15:37 26.08.2022
2037 Clouds 41 1001 10 10000 1.16 120 14:56 26.08.2022
2038 Clouds 41 1003 11 10000 1.17 138 12:54 26.08.2022
2039 Clouds 40 1003 11 10000 2.2 159 11:42 26.08.2022
2040 Clouds 40 1004 12 10000 2.39 160 11:21 26.08.2022
2041 Clouds 35 1005 17 10000 3.62 121 07:37 26.08.2022
2042 Clouds 31 1003 25 10000 3.48 112 02:43 26.08.2022
2043 Clouds 34 1003 17 10000 4.92 79 23:45 25.08.2022
2044 Clouds 35 1003 17 10000 1.61 115 21:46 25.08.2022
2045 Clouds 36 1003 16 10000 1.59 138 20:51 25.08.2022
2046 Clouds 37 1002 13 10000 2.76 71 19:25 25.08.2022
2047 Clouds 37 1002 12 10000 2.54 45 18:28 25.08.2022
2048 Clouds 39 1002 12 10000 2.54 45 17:31 25.08.2022
2049 Clouds 40 1002 10 10000 2.56 355 16:25 25.08.2022
2050 Clouds 40 1002 10 10000 1.46 3 15:27 25.08.2022
2051 Clouds 40 1002 11 10000 2.16 34 12:47 25.08.2022
2052 Clouds 40 1004 11 10000 3.02 43 10:49 25.08.2022
2053 Clouds 38 1005 12 10000 3.5 26 09:21 25.08.2022
2054 Clouds 30 1006 13 10000 3.42 343 06:45 25.08.2022
2055 Clouds 31 1005 17 10000 1.77 300 01:57 25.08.2022
2056 Clouds 33 1005 15 10000 3.03 45 23:28 24.08.2022
2057 Clouds 33 1005 15 10000 3.03 45 22:43 24.08.2022
2058 Clouds 35 1005 14 10000 4.25 53 21:37 24.08.2022
2059 Clouds 36 1005 14 10000 4.46 58 20:56 24.08.2022
2060 Clouds 37 1004 12 10000 5.54 58 19:24 24.08.2022
2061 Clouds 42 1003 10 10000 4.15 30 16:47 24.08.2022
2062 Clouds 41 1003 9 10000 3.52 19 15:52 24.08.2022
2063 Clouds 42 1003 10 10000 0.84 33 13:48 24.08.2022
2064 Clouds 40 1004 10 10000 1.64 98 11:58 24.08.2022
2065 Clouds 40 1005 11 10000 2.79 98 11:18 24.08.2022
2066 Clear 37 1006 13 10000 3.45 71 08:26 24.08.2022
2067 Clouds 30 1005 21 10000 1.87 62 03:32 24.08.2022
2068 Clouds 35 1005 17 10000 2.71 77 23:35 23.08.2022
2069 Clouds 36 1005 15 10000 3 57 22:33 23.08.2022
2070 Clouds 36 1004 14 10000 2.6 60 21:39 23.08.2022
2071 Clouds 37 1003 13 10000 2.19 41 20:31 23.08.2022
2072 Clouds 39 1003 12 10000 3.02 6 18:50 23.08.2022
2073 Clouds 41 1003 13 10000 6.46 307 17:50 23.08.2022
2074 Clouds 41 1002 10 10000 4.65 26 17:18 23.08.2022
2075 Clouds 44 1001 10 10000 5.57 51 15:39 23.08.2022
2076 Clouds 43 1001 10 10000 2.41 59 13:36 23.08.2022
2077 Clouds 41 1002 11 10000 1.98 77 12:30 23.08.2022
2078 Clouds 40 1003 12 10000 2.68 96 10:51 23.08.2022
2079 Clouds 40 1003 12 10000 2.68 96 10:32 23.08.2022
2080 Clouds 37 1004 14 10000 2.77 75 08:54 23.08.2022
2081 Clouds 37 1005 16 10000 3.02 80 08:22 23.08.2022
2082 Clouds 35 1005 16 10000 3.02 80 07:43 23.08.2022
2083 Clouds 32 1005 16 10000 2.73 56 06:34 23.08.2022
2084 Clouds 30 1004 16 10000 2.09 34 05:52 23.08.2022
2085 Clouds 33 1002 15 10000 0.84 354 00:52 23.08.2022
2086 Clouds 33 1003 14 10000 2.08 77 00:24 23.08.2022
2087 Clouds 35 1003 13 10000 2.61 53 23:29 22.08.2022
2088 Clouds 37 1003 12 10000 3.46 15 21:51 22.08.2022
2089 Clouds 39 1002 11 10000 4.81 26 19:49 22.08.2022
2090 Clouds 39 1002 10 10000 4.77 28 19:27 22.08.2022
2091 Clouds 40 1001 9 10000 5.04 36 17:59 22.08.2022
2092 Clouds 44 1000 8 10000 5.03 13 15:40 22.08.2022
2093 Clouds 45 1000 8 10000 4.92 3 14:32 22.08.2022
2094 Clouds 44 1002 9 10000 4.19 7 11:19 22.08.2022
2095 Clouds 39 1003 12 10000 1.66 256 08:22 22.08.2022
2096 Clouds 32 1002 18 10000 1.34 136 04:42 22.08.2022
2097 Clouds 35 1000 14 10000 2.97 75 00:53 22.08.2022
2098 Clouds 35 1000 14 10000 2.97 75 00:34 22.08.2022
2099 Clouds 37 1001 13 10000 2.69 79 22:54 21.08.2022
2100 Clouds 37 1001 12 10000 3.27 113 21:36 21.08.2022
2101 Clouds 38 1001 12 10000 7.03 86 20:57 21.08.2022
2102 Clouds 40 1000 10 10000 3.32 32 19:28 21.08.2022
2103 Clouds 43 999 9 10000 3.53 50 17:59 21.08.2022
2104 Clouds 45 998 8 10000 5.87 24 15:59 21.08.2022
2105 Clouds 45 998 8 10000 6.29 22 15:28 21.08.2022
2106 Clouds 44 998 7 10000 6.45 26 13:58 21.08.2022
2107 Clouds 44 998 7 10000 6.45 26 13:40 21.08.2022
2108 Clouds 44 999 7 10000 5.79 24 11:56 21.08.2022
2109 Clouds 42 1001 8 10000 4.12 16 09:32 21.08.2022
2110 Clouds 39 1001 8 10000 4.12 15 08:56 21.08.2022
2111 Clear 39 1001 8 10000 3.78 354 08:38 21.08.2022
2112 Clear 35 1002 10 10000 2.85 334 07:28 21.08.2022
2113 Clear 30 1002 14 10000 3.28 335 04:18 21.08.2022
2114 Clear 33 1000 17 10000 2.06 74 00:31 21.08.2022
2115 Clear 35 1001 10 10000 3.83 48 22:59 20.08.2022
2116 Clear 36 1001 9 10000 3.68 36 21:39 20.08.2022
2117 Clear 38 1001 9 10000 3.96 40 20:44 20.08.2022
2118 Clear 39 1001 8 10000 4.37 38 19:41 20.08.2022
2119 Clear 41 1000 8 10000 4.69 30 18:33 20.08.2022
2120 Clear 42 1000 8 10000 5.17 22 17:52 20.08.2022
2121 Clear 42 999 7 10000 6.67 17 17:18 20.08.2022
2122 Clear 44 999 6 10000 8.41 14 15:50 20.08.2022
2123 Clear 44 998 7 10000 8.19 9 13:36 20.08.2022
2124 Clear 44 999 7 10000 7.9 18 11:53 20.08.2022
2125 Clear 41 1000 8 10000 6.01 24 09:43 20.08.2022
2126 Clear 40 1001 10 10000 4.79 23 08:50 20.08.2022
2127 Clear 30 1002 18 10000 3.1 348 05:58 20.08.2022
2128 Clear 31 1001 13 10000 3.89 343 03:28 20.08.2022
2129 Clear 33 1001 11 10000 4.29 343 00:51 20.08.2022
2130 Clear 34 1000 11 10000 3.52 335 23:19 19.08.2022
2131 Clear 37 1000 11 10000 3.38 347 22:35 19.08.2022
2132 Clear 38 1000 9 10000 4.21 7 20:28 19.08.2022
2133 Clear 41 999 8 10000 4.39 20 18:46 19.08.2022
2134 Clear 45 998 6 10000 6.79 13 15:51 19.08.2022
2135 Clear 44 998 6 10000 6.8 4 13:36 19.08.2022
2136 Clear 43 999 6 10000 5.48 8 11:33 19.08.2022
2137 Clear 42 1000 6 10000 5.6 10 10:29 19.08.2022
2138 Clouds 35 1001 9 10000 6.32 353 07:21 19.08.2022
2139 Clouds 32 999 12 10000 4.43 343 01:24 19.08.2022
2140 Clouds 33 999 11 10000 3.74 348 00:31 19.08.2022
2141 Clouds 34 999 11 10000 3.74 348 23:48 18.08.2022
2142 Clouds 36 999 10 10000 3.93 341 22:51 18.08.2022
2143 Clouds 36 999 10 10000 3.96 344 21:57 18.08.2022
2144 Clouds 36 999 9 10000 3.59 2 21:35 18.08.2022
2145 Clouds 38 999 9 10000 3.66 1 20:27 18.08.2022
2146 Clouds 39 998 10 10000 3.21 14 19:30 18.08.2022
2147 Clouds 42 998 10 10000 3.34 8 17:55 18.08.2022
2148 Clear 42 997 9 10000 3.7 9 17:18 18.08.2022
2149 Clear 44 997 7 10000 4.01 359 14:57 18.08.2022
2150 Clear 44 997 8 10000 4.2 353 14:19 18.08.2022
2151 Clear 43 997 8 10000 4.2 353 13:34 18.08.2022
2152 Clear 43 998 8 10000 4.44 350 11:51 18.08.2022
2153 Clear 39 1000 9 10000 5.6 353 09:43 18.08.2022
2154 Clear 38 1001 9 10000 6.41 349 08:42 18.08.2022
2155 Clouds 34 1001 10 10000 6.9 344 07:19 18.08.2022
2156 Clouds 31 1001 13 10000 5.22 331 04:37 18.08.2022
2157 Clouds 33 1000 11 10000 3.96 325 23:37 17.08.2022
2158 Clouds 35 1000 11 10000 3.27 328 21:53 17.08.2022
2159 Clouds 37 1000 10 10000 2.59 11 20:20 17.08.2022
2160 Clouds 38 999 9 10000 3.51 44 19:31 17.08.2022
2161 Clouds 41 999 8 10000 4.2 17 17:37 17.08.2022
2162 Clouds 42 998 7 10000 5.73 8 16:39 17.08.2022
2163 Clouds 43 997 6 10000 7.54 5 15:28 17.08.2022
2164 Clouds 44 998 6 10000 7.29 0 13:31 17.08.2022
2165 Clouds 41 999 7 10000 6.9 9 11:39 17.08.2022
2166 Clouds 38 1001 8 10000 7.76 7 09:31 17.08.2022
2167 Clouds 37 1002 12 10000 8.26 357 08:24 17.08.2022
2168 Clouds 32 1002 14 10000 5.12 328 03:39 17.08.2022
2169 Clear 32 1001 14 10000 4.88 330 00:24 17.08.2022
2170 Clear 35 1001 13 10000 4.77 334 22:41 16.08.2022
2171 Clear 37 1002 10 10000 3.76 16 20:58 16.08.2022
2172 Clouds 39 1002 10 10000 3.9 15 19:54 16.08.2022
2173 Clouds 40 1001 9 10000 3.9 15 18:44 16.08.2022
2174 Clouds 42 1000 9 10000 4.01 16 17:43 16.08.2022
2175 Clouds 43 999 7 10000 5.81 16 15:59 16.08.2022
2176 Clouds 44 999 7 10000 5.87 16 14:55 16.08.2022
2177 Clouds 44 999 7 10000 6.22 26 14:37 16.08.2022
2178 Clouds 43 999 7 10000 6.19 25 13:40 16.08.2022
2179 Clouds 42 1000 8 10000 5.44 6 11:30 16.08.2022
2180 Clear 38 1002 10 10000 5.12 11 09:51 16.08.2022
2181 Clear 36 1003 10 10000 5.54 16 08:47 16.08.2022
2182 Clear 36 1003 13 10000 4.87 356 08:18 16.08.2022
2183 Clear 30 1002 15 10000 2.9 337 04:25 16.08.2022
2184 Clear 36 1001 13 10000 2.24 82 22:55 15.08.2022
2185 Clear 37 1001 12 10000 2.8 59 21:56 15.08.2022
2186 Clear 37 1001 12 10000 2.8 59 21:35 15.08.2022
2187 Clear 38 1001 12 10000 3.85 44 20:20 15.08.2022
2188 Clear 40 1000 12 10000 4.13 12 18:43 15.08.2022
2189 Clear 41 1000 11 10000 4.07 1 17:46 15.08.2022
2190 Clear 42 998 10 10000 6.91 12 16:22 15.08.2022
2191 Clouds 42 999 10 10000 6.41 5 13:58 15.08.2022
2192 Clouds 42 999 10 10000 5.6 3 12:38 15.08.2022
2193 Clouds 41 1001 11 10000 4.66 343 10:18 15.08.2022
2194 Clear 37 1002 10 10000 2.87 313 08:51 15.08.2022
2195 Clouds 32 1002 12 10000 3.12 312 06:33 15.08.2022
2196 Clouds 31 1000 16 10000 1.77 325 02:57 15.08.2022
2197 Clouds 34 1000 15 10000 2.18 178 23:22 14.08.2022
2198 Clouds 36 1000 14 10000 2.34 140 21:42 14.08.2022
2199 Clouds 38 1000 13 10000 2.98 103 20:33 14.08.2022
2200 Clouds 39 1000 11 10000 3.94 87 19:36 14.08.2022
2201 Clouds 40 998 9 10000 3.6 49 18:20 14.08.2022
2202 Clouds 42 998 8 10000 4.23 50 17:22 14.08.2022
2203 Clouds 42 997 7 10000 4.77 48 16:21 14.08.2022
2204 Clouds 43 997 7 10000 4.67 46 14:39 14.08.2022
2205 Clouds 42 997 6 10000 5.18 49 13:50 14.08.2022
2206 Clouds 42 998 6 10000 5.3 49 13:26 14.08.2022
2207 Clouds 42 998 6 10000 5.29 49 12:34 14.08.2022
2208 Clouds 41 999 8 10000 5.98 38 11:20 14.08.2022
2209 Clouds 36 1000 13 10000 7.71 31 08:56 14.08.2022
2210 Clouds 34 1001 16 10000 6.17 357 06:27 14.08.2022
2211 Clouds 32 1000 17 10000 4.84 346 04:21 14.08.2022
2212 Clouds 34 999 18 10000 3.67 341 01:35 14.08.2022
2213 Clouds 38 999 14 10000 4.16 359 22:56 13.08.2022
2214 Clouds 38 999 13 10000 4.89 12 21:59 13.08.2022
2215 Clouds 39 999 13 10000 4.6 359 20:49 13.08.2022
2216 Clouds 40 999 10 10000 4.51 23 19:47 13.08.2022
2217 Clouds 41 998 10 10000 5.11 30 18:47 13.08.2022
2218 Clouds 42 997 9 10000 7.97 19 17:21 13.08.2022
2219 Clouds 43 996 8 10000 9.95 9 14:42 13.08.2022
2220 Clouds 43 996 7 10000 10.01 5 13:49 13.08.2022
2221 Clouds 43 997 7 10000 10.22 7 13:25 13.08.2022
2222 Clouds 42 998 8 10000 10.14 6 11:27 13.08.2022
2223 Clouds 39 1000 11 10000 10.34 8 09:23 13.08.2022
2224 Clouds 34 1000 17 10000 9.59 8 06:44 13.08.2022
2225 Clouds 36 999 18 10000 6.81 345 01:37 13.08.2022
2226 Clouds 39 999 15 10000 6.99 358 23:25 12.08.2022
2227 Clouds 40 999 12 10000 7.33 352 21:37 12.08.2022
2228 Clouds 41 999 12 10000 7.02 5 19:48 12.08.2022
2229 Clouds 41 998 12 10000 6.39 19 19:23 12.08.2022
2230 Clouds 42 998 11 10000 6.6 23 18:21 12.08.2022
2231 Clouds 43 997 10 10000 9.81 21 16:26 12.08.2022
2232 Clouds 43 996 10 10000 10.08 17 14:50 12.08.2022
2233 Clouds 43 997 10 10000 10.35 12 13:43 12.08.2022
2234 Clouds 43 998 10 10000 11.33 5 12:25 12.08.2022
2235 Clouds 38 1000 14 10000 11.66 356 08:52 12.08.2022
2236 Clouds 36 1000 17 10000 11.65 352 07:45 12.08.2022
2237 Clouds 34 1001 24 10000 9.31 345 06:21 12.08.2022
2238 Clouds 37 1000 19 10000 5.99 347 00:32 12.08.2022
2239 Clear 38 1000 17 10000 5.9 349 23:55 11.08.2022
2240 Clouds 39 1000 17 10000 5.65 348 22:45 11.08.2022
2241 Clouds 39 1000 16 10000 5.6 348 21:53 11.08.2022
2242 Clouds 39 1000 15 10000 5.64 351 21:28 11.08.2022
2243 Clouds 40 1000 15 10000 5.64 351 20:30 11.08.2022
2244 Clouds 41 1000 14 10000 5.02 0 19:33 11.08.2022
2245 Clouds 42 999 13 10000 5.39 3 18:53 11.08.2022
2246 Clouds 43 998 10 10000 7.28 12 16:46 11.08.2022
2247 Clouds 44 997 9 10000 7.99 11 15:42 11.08.2022
2248 Clouds 44 997 9 10000 7.98 11 14:32 11.08.2022
2249 Clouds 43 999 11 10000 8.73 11 11:56 11.08.2022
2250 Clouds 39 1001 14 10000 9.53 5 08:57 11.08.2022
2251 Clouds 35 1001 20 10000 6.99 354 05:58 11.08.2022
2252 Clouds 36 1000 17 10000 4.99 356 02:33 11.08.2022
2253 Clouds 40 999 14 10000 5.88 14 22:59 10.08.2022
2254 Clouds 40 999 13 10000 5.39 0 21:47 10.08.2022
2255 Clouds 41 999 12 10000 5.21 8 20:56 10.08.2022
2256 Clouds 41 999 11 10000 5.15 13 20:27 10.08.2022
2257 Clouds 42 998 10 10000 4.79 22 18:48 10.08.2022
2258 Clouds 43 997 8 10000 6.64 23 17:27 10.08.2022
2259 Clouds 45 996 8 10000 8.79 17 14:36 10.08.2022
2260 Clouds 45 996 8 10000 8.79 11 13:32 10.08.2022
2261 Clouds 42 998 10 10000 8.93 15 10:50 10.08.2022
2262 Clouds 39 1000 15 10000 8.68 3 08:39 10.08.2022
2263 Clouds 36 1000 14 10000 8.76 4 07:35 10.08.2022
2264 Clouds 35 1001 18 10000 5.86 345 04:50 10.08.2022
2265 Clouds 38 999 16 10000 6.01 337 01:33 10.08.2022
2266 Clouds 40 999 15 10000 5.45 354 23:31 09.08.2022
2267 Clouds 41 1000 14 10000 5.66 355 21:58 09.08.2022
2268 Clouds 41 1000 13 10000 5.26 356 21:23 09.08.2022
2269 Clouds 42 998 10 10000 4.49 26 19:28 09.08.2022
2270 Clouds 43 998 9 10000 5.24 18 17:39 09.08.2022
2271 Clouds 43 997 8 10000 7.35 15 17:21 09.08.2022
2272 Clouds 44 997 7 10000 8.72 12 16:23 09.08.2022
2273 Clouds 45 997 8 10000 9.03 7 15:26 09.08.2022
2274 Clouds 43 998 11 10000 8.31 18 11:49 09.08.2022
2275 Clouds 39 1001 16 10000 7.39 29 08:53 09.08.2022
2276 Clouds 38 1001 18 10000 7.53 28 07:58 09.08.2022
2277 Clear 33 1001 29 10000 4.61 355 05:25 09.08.2022
2278 Clouds 35 999 24 10000 3.61 50 01:57 09.08.2022
2279 Clouds 37 999 19 10000 3.89 0 23:26 08.08.2022
2280 Clouds 39 999 19 10000 3.89 0 22:45 08.08.2022
2281 Clouds 39 999 18 10000 3.7 339 21:47 08.08.2022
2282 Clouds 40 999 18 10000 4.26 318 20:43 08.08.2022
2283 Clouds 41 999 23 10000 6.32 324 19:41 08.08.2022
2284 Clouds 42 999 23 10000 13.86 317 18:19 08.08.2022
2285 Clouds 45 996 12 10000 5.29 60 15:55 08.08.2022
2286 Clouds 45 996 12 10000 5.29 60 15:37 08.08.2022
2287 Clouds 44 997 11 10000 5.74 59 12:31 08.08.2022
2288 Clouds 43 998 13 10000 4.41 45 10:38 08.08.2022
2289 Clear 40 1000 17 10000 3.74 11 08:20 08.08.2022
2290 Clear 32 1000 26 10000 1.56 151 04:45 08.08.2022
2291 Clear 35 998 23 10000 3.11 95 01:29 08.08.2022
2292 Clear 39 998 19 10000 4.85 84 21:42 07.08.2022
2293 Clear 39 998 18 10000 5.58 80 21:24 07.08.2022
2294 Clear 40 997 17 10000 5.55 70 20:24 07.08.2022
2295 Clear 41 997 17 10000 5.55 70 19:52 07.08.2022
2296 Clear 41 997 16 10000 5.89 63 19:22 07.08.2022
2297 Clear 44 996 14 10000 6.29 54 17:58 07.08.2022
2298 Clear 45 995 12 10000 7.42 50 16:53 07.08.2022
2299 Clear 45 995 11 10000 8.19 47 15:40 07.08.2022
2300 Clear 46 995 10 10000 8.02 45 14:27 07.08.2022
2301 Clear 45 995 12 10000 7.11 43 12:41 07.08.2022
2302 Clear 44 996 13 10000 7.57 32 10:53 07.08.2022
2303 Clear 44 997 14 10000 7.08 26 10:21 07.08.2022
2304 Clear 35 997 19 10000 4.02 355 04:38 07.08.2022
2305 Clear 36 996 18 10000 3.72 325 02:25 07.08.2022
2306 Clear 40 996 14 10000 3.6 316 22:40 06.08.2022
2307 Clear 40 996 14 10000 2.2 315 22:18 06.08.2022
2308 Clouds 42 996 12 10000 2.12 17 19:46 06.08.2022
2309 Clouds 43 996 11 10000 1.9 354 18:50 06.08.2022
2310 Clouds 44 996 11 10000 1.59 10 17:48 06.08.2022
2311 Clouds 45 996 9 10000 4.62 14 16:29 06.08.2022
2312 Clouds 45 996 9 10000 6.28 4 13:51 06.08.2022
2313 Clouds 45 997 9 10000 6.66 19 12:38 06.08.2022
2314 Clouds 44 998 10 10000 6.8 24 11:21 06.08.2022
2315 Clouds 41 999 10 10000 6.7 21 09:41 06.08.2022
2316 Clear 36 1000 16 10000 5.01 335 07:28 06.08.2022
2317 Clouds 34 999 20 10000 2.53 293 01:59 06.08.2022
2318 Clouds 35 999 17 10000 2.45 331 22:37 05.08.2022
2319 Clouds 38 999 16 10000 2.45 331 21:34 05.08.2022
2320 Clouds 38 999 15 10000 3.04 115 19:20 05.08.2022
2321 Clouds 41 999 15 10000 3.04 115 18:44 05.08.2022
2322 Rain 43 998 12 10000 4.41 86 16:53 05.08.2022
2323 Clouds 44 998 11 10000 4.84 65 15:55 05.08.2022
2324 Clouds 43 999 11 10000 6.8 55 14:54 05.08.2022
2325 Clouds 45 999 12 10000 6.84 56 13:39 05.08.2022
2326 Clouds 45 999 12 10000 5.74 54 13:19 05.08.2022
2327 Rain 44 1000 12 10000 4.18 51 11:58 05.08.2022
2328 Clouds 42 1002 17 10000 3.89 348 10:24 05.08.2022
2329 Clouds 37 1002 24 10000 4.58 307 07:58 05.08.2022
2330 Clouds 35 1003 36 10000 4.18 274 05:20 05.08.2022
2331 Clear 36 1003 35 10000 4.66 271 23:50 04.08.2022
2332 Clouds 38 1002 23 10000 1.84 271 21:39 04.08.2022
2333 Clear 38 1003 22 10000 1.66 289 21:21 04.08.2022
2334 Clear 39 1003 22 10000 1.66 289 20:40 04.08.2022
2335 Clouds 40 1002 21 10000 0.37 252 19:21 04.08.2022
2336 Clouds 41 1002 21 10000 0.39 252 18:34 04.08.2022
2337 Clouds 43 1001 18 10000 4.43 25 16:54 04.08.2022
2338 Clouds 43 1000 15 10000 4.7 80 13:34 04.08.2022
2339 Clouds 42 1002 19 10000 3.94 83 11:42 04.08.2022
2340 Clouds 41 1003 22 10000 1.87 70 10:24 04.08.2022
2341 Clear 38 1003 27 10000 1.98 115 07:49 04.08.2022
2342 Clear 34 1002 31 10000 2.05 163 03:29 04.08.2022
2343 Clouds 36 1001 30 10000 2.93 163 00:52 04.08.2022
2344 Clouds 37 1001 29 10000 3.8 156 23:41 03.08.2022
2345 Clouds 38 1001 27 10000 5.29 133 21:34 03.08.2022
2346 Clouds 39 1001 25 10000 6.32 123 20:21 03.08.2022
2347 Clouds 39 1001 25 10000 6.32 123 20:21 03.08.2022
2348 Clouds 39 1001 22 10000 7.42 126 19:27 03.08.2022
2349 Clouds 42 999 20 10000 6.13 135 16:53 03.08.2022
2350 Clouds 42 999 20 10000 4.59 135 16:23 03.08.2022
2351 Clouds 41 1000 21 10000 4.03 122 13:53 03.08.2022
2352 Clouds 41 1001 23 10000 4.02 134 11:46 03.08.2022
2353 Clear 36 1002 30 10000 4.06 153 07:45 03.08.2022
2354 Clear 32 1001 40 10000 3.24 133 04:22 03.08.2022
2355 Clear 34 1000 39 10000 2.79 132 03:24 03.08.2022
2356 Clouds 36 1000 36 10000 2.59 149 00:58 03.08.2022
2357 Clouds 37 1000 34 10000 2.53 175 22:49 02.08.2022
2358 Clouds 37 1000 33 10000 2.76 193 21:52 02.08.2022
2359 Clouds 38 1000 32 10000 3.02 199 20:37 02.08.2022
2360 Clouds 39 999 30 10000 3.99 243 18:39 02.08.2022
2361 Clouds 40 999 27 10000 3.69 233 15:27 02.08.2022
2362 Clouds 40 1000 30 10000 4.28 215 11:30 02.08.2022
2363 Clouds 37 1002 37 10000 3.71 237 08:59 02.08.2022
2364 Clouds 35 1001 37 10000 3.21 248 07:52 02.08.2022
2365 Clouds 33 1001 40 10000 3.43 243 06:41 02.08.2022
2366 Clouds 33 1001 43 10000 2.56 222 04:31 02.08.2022
2367 Clouds 35 1000 41 10000 1.47 177 23:35 01.08.2022
2368 Clouds 36 1001 40 10000 1.14 274 22:23 01.08.2022
2369 Clouds 36 1001 38 10000 2.54 283 20:51 01.08.2022
2370 Clouds 37 1001 41 10000 2.35 4 19:23 01.08.2022
2371 Clouds 38 1000 34 10000 3.28 288 17:57 01.08.2022
2372 Clouds 39 1000 30 10000 4.73 233 16:52 01.08.2022
2373 Clouds 39 1000 29 10000 2.78 251 15:52 01.08.2022
2374 Clouds 39 1000 29 10000 2.78 251 15:52 01.08.2022
2375 Clouds 39 1000 29 10000 2.78 251 15:30 01.08.2022
2376 Clouds 37 999 28 10000 2.78 121 13:48 01.08.2022
2377 Clouds 36 1000 31 10000 2.7 107 11:50 01.08.2022
2378 Clouds 36 1000 31 10000 2.7 107 11:50 01.08.2022
2379 Clouds 34 1001 37 10000 1.24 133 09:39 01.08.2022
2380 Clouds 32 1002 57 10000 1.75 309 08:22 01.08.2022
2381 Clouds 30 1003 68 10000 5.1 261 04:47 01.08.2022
2382 Clouds 31 1003 74 10000 6.1 275 02:32 01.08.2022
2383 Clouds 32 1002 67 10000 10.44 246 23:54 31.07.2022
2384 Clouds 32 1002 70 10000 10.06 252 22:36 31.07.2022
2385 Clouds 32 1002 70 10000 10.07 252 22:36 31.07.2022
2386 Clouds 31 1002 61 10000 7.76 261 20:50 31.07.2022
2387 Rain 32 1003 74 10000 8.9 298 19:40 31.07.2022
2388 Rain 33 1001 71 10000 6.71 212 17:44 31.07.2022
2389 Clouds 38 999 69 5013 9.16 116 15:35 31.07.2022
2390 Clouds 40 998 32 10000 3.09 108 13:41 31.07.2022
2391 Clouds 38 1000 34 10000 3.7 96 11:52 31.07.2022
2392 Clouds 36 1001 42 10000 3.69 107 09:28 31.07.2022
2393 Clouds 33 1002 46 10000 4.01 108 06:43 31.07.2022
2394 Clouds 33 1001 46 10000 3.51 104 02:57 31.07.2022
2395 Clouds 36 1000 45 10000 3.85 110 23:35 30.07.2022
2396 Clouds 36 1001 37 10000 6.45 104 22:19 30.07.2022
2397 Clouds 37 1001 37 10000 6.45 104 21:47 30.07.2022
2398 Clouds 38 1001 31 10000 5.89 73 20:56 30.07.2022
2399 Clouds 38 1000 28 10000 5.04 78 19:58 30.07.2022
2400 Clouds 39 1000 29 10000 3.87 94 18:51 30.07.2022
2401 Clouds 39 1000 27 10000 3.48 87 17:41 30.07.2022
2402 Clouds 41 999 24 10000 3.19 73 15:38 30.07.2022
2403 Clouds 41 999 23 10000 2.1 88 14:53 30.07.2022
2404 Clouds 40 1000 24 10000 2.53 146 12:47 30.07.2022
2405 Clouds 39 1001 25 10000 3.29 144 11:55 30.07.2022
2406 Clouds 38 1002 30 10000 4.16 131 10:25 30.07.2022
2407 Clouds 36 1002 30 10000 4.16 131 09:46 30.07.2022
2408 Clouds 33 1003 29 10000 2.38 132 07:47 30.07.2022
2409 Clouds 32 1002 25 10000 0.25 119 02:34 30.07.2022
2410 Clouds 33 1002 24 10000 0.38 323 01:43 30.07.2022
2411 Clouds 35 1003 16 10000 4.73 323 21:39 29.07.2022
2412 Clouds 36 1003 16 10000 4.73 322 20:58 29.07.2022
2413 Clouds 38 1003 11 10000 4.32 338 19:48 29.07.2022
2414 Clouds 41 1001 9 10000 4.36 11 17:52 29.07.2022
2415 Clouds 41 1000 7 10000 7.98 355 15:19 29.07.2022
2416 Clouds 39 1001 9 10000 6.26 352 12:59 29.07.2022
2417 Clouds 36 1003 13 10000 3.65 351 10:35 29.07.2022
2418 Clouds 36 1004 19 10000 0.67 33 08:49 29.07.2022
2419 Clouds 34 1004 34 10000 2.8 162 07:40 29.07.2022
2420 Clouds 32 1003 36 10000 2.15 196 01:47 29.07.2022
2421 Clouds 34 1004 35 10000 1.46 186 22:41 28.07.2022
2422 Clouds 36 1005 36 10000 4.16 109 20:59 28.07.2022
2423 Clouds 36 1005 30 10000 4.63 70 20:27 28.07.2022
2424 Clouds 36 1005 35 10000 5.2 92 19:42 28.07.2022
2425 Clouds 37 1004 16 10000 4.53 26 18:48 28.07.2022
2426 Clouds 38 1003 15 10000 5.69 351 17:43 28.07.2022
2427 Clouds 39 1003 15 10000 7.04 354 16:42 28.07.2022
2428 Clouds 39 1003 13 10000 9.12 30 15:24 28.07.2022
2429 Rain 38 1004 13 10000 5.93 39 12:51 28.07.2022
2430 Clouds 37 1004 18 10000 2.95 130 09:45 28.07.2022
2431 Clouds 34 1004 27 10000 6.66 121 06:24 28.07.2022
2432 Rain 34 1003 14 10000 4.4 115 05:26 28.07.2022
2433 Clouds 35 1001 16 10000 2.88 137 00:45 28.07.2022
2434 Clouds 36 1001 13 10000 7.62 88 22:34 27.07.2022
2435 Clouds 38 1001 11 10000 7.31 95 20:56 27.07.2022
2436 Clouds 39 1001 10 10000 7.21 109 19:34 27.07.2022
2437 Clouds 41 999 8 10000 2.81 189 17:23 27.07.2022
2438 Clouds 43 999 7 10000 2.69 186 15:52 27.07.2022
2439 Clouds 42 999 7 10000 1.68 203 14:55 27.07.2022
2440 Clouds 42 999 7 10000 1.68 203 14:33 27.07.2022
2441 Rain 42 999 7 10000 1.32 138 12:49 27.07.2022
2442 Clouds 35 1001 11 10000 3.26 127 07:53 27.07.2022
2443 Clouds 35 1002 11 10000 3.36 137 07:53 27.07.2022
2444 Clouds 31 1002 14 10000 3.29 165 06:19 27.07.2022
2445 Clouds 32 1000 14 10000 2.98 107 00:48 27.07.2022
2446 Clouds 35 1000 13 10000 4.34 88 22:25 26.07.2022
2447 Clouds 36 1000 12 10000 4.5 82 21:20 26.07.2022
2448 Clouds 36 1000 12 10000 4.5 82 21:20 26.07.2022
2449 Clouds 37 1000 12 10000 3.42 75 20:25 26.07.2022
2450 Clouds 40 999 11 10000 2.58 176 18:42 26.07.2022
2451 Clouds 41 998 11 10000 3.38 192 17:57 26.07.2022
2452 Clouds 42 998 9 10000 2.23 171 15:58 26.07.2022
2453 Clouds 42 998 9 10000 2.22 160 14:57 26.07.2022
2454 Clouds 41 999 9 10000 3.88 133 12:59 26.07.2022
2455 Clouds 40 1001 9 10000 4.55 131 10:59 26.07.2022
2456 Clouds 38 1001 11 10000 4.73 107 08:46 26.07.2022
2457 Clouds 33 1002 18 10000 2.41 135 05:49 26.07.2022
2458 Clouds 35 1000 16 10000 3.36 111 00:28 26.07.2022
2459 Clouds 37 1000 14 10000 4.54 101 22:53 25.07.2022
2460 Clouds 37 999 13 10000 6.39 92 22:22 25.07.2022
2461 Clouds 38 999 13 10000 6.39 92 21:38 25.07.2022
2462 Clouds 39 998 12 10000 6.6 91 20:40 25.07.2022
2463 Clouds 40 997 12 10000 5.69 106 19:27 25.07.2022
2464 Clouds 41 996 11 10000 4.46 110 18:18 25.07.2022
2465 Clouds 42 995 10 10000 5.1 91 17:27 25.07.2022
2466 Clouds 43 995 11 10000 4.82 92 14:32 25.07.2022
2467 Clouds 42 997 10 10000 4.26 123 11:50 25.07.2022
2468 Clouds 39 999 12 10000 6.78 165 08:32 25.07.2022
2469 Clouds 34 999 19 10000 4.31 137 03:23 25.07.2022
2470 Clouds 36 998 15 10000 5.42 127 23:53 24.07.2022
2471 Clouds 37 998 15 10000 5.69 120 22:56 24.07.2022
2472 Clouds 37 997 13 10000 3.6 149 22:26 24.07.2022
2473 Clouds 38 997 13 10000 4.03 164 21:19 24.07.2022
2474 Clouds 39 997 13 10000 4.03 164 20:47 24.07.2022
2475 Clouds 41 997 11 10000 2.94 144 19:54 24.07.2022
2476 Clouds 42 996 10 10000 2.99 145 18:30 24.07.2022
2477 Clouds 44 996 8 10000 2.65 76 16:28 24.07.2022
2478 Clouds 45 996 8 10000 2.65 76 15:45 24.07.2022
2479 Clouds 45 997 9 10000 3.42 88 14:19 24.07.2022
2480 Clouds 44 997 9 10000 2.53 112 12:52 24.07.2022
2481 Clouds 44 998 9 10000 3.44 139 11:38 24.07.2022
2482 Clouds 43 999 10 10000 4.05 146 10:59 24.07.2022
2483 Clouds 40 1000 14 10000 4.18 149 08:31 24.07.2022
2484 Clouds 37 1000 14 10000 4.17 149 07:47 24.07.2022
2485 Clouds 34 1000 19 10000 3.11 156 04:45 24.07.2022
2486 Clouds 36 1000 15 10000 3.49 120 23:51 23.07.2022
2487 Clouds 37 1000 11 10000 3.91 70 21:28 23.07.2022
2488 Clouds 40 1000 11 10000 4.14 70 19:59 23.07.2022
2489 Clouds 42 999 10 10000 4.89 65 18:50 23.07.2022
2490 Clouds 44 998 8 10000 6.6 49 17:28 23.07.2022
2491 Clouds 44 998 8 10000 6.6 49 16:33 23.07.2022
2492 Clouds 45 998 7 10000 6.99 40 15:22 23.07.2022
2493 Clouds 45 998 7 10000 6.99 40 14:58 23.07.2022
2494 Clouds 45 999 7 10000 6.29 36 14:27 23.07.2022
2495 Clouds 45 999 7 10000 6.08 36 12:44 23.07.2022
2496 Clouds 43 1000 8 10000 3.1 51 10:45 23.07.2022
2497 Clouds 42 1001 9 10000 2.51 65 09:56 23.07.2022
2498 Clouds 40 1002 10 10000 2.27 72 08:31 23.07.2022
2499 Clouds 32 1002 19 10000 1.46 90 03:39 23.07.2022
2500 Clouds 33 1001 18 10000 2.78 54 00:49 23.07.2022
2501 Clouds 35 1001 18 10000 3.74 76 22:32 22.07.2022
2502 Clouds 38 1002 13 10000 6.24 52 20:51 22.07.2022
2503 Clouds 40 1001 11 10000 6.53 49 19:34 22.07.2022
2504 Clouds 41 999 10 10000 7.5 45 18:28 22.07.2022
2505 Clouds 43 999 9 10000 7.23 53 16:48 22.07.2022
2506 Clouds 44 998 7 10000 7.68 55 14:40 22.07.2022
2507 Clouds 42 1000 9 10000 7.88 41 10:59 22.07.2022
2508 Clouds 41 1000 12 10000 8.3 35 09:25 22.07.2022
2509 Clouds 39 1001 12 10000 7.95 25 08:29 22.07.2022
2510 Clouds 32 1001 12 10000 3.15 342 05:18 22.07.2022
2511 Clouds 35 1000 10 10000 4.41 342 00:40 22.07.2022
2512 Clouds 37 1000 8 10000 2.79 10 22:25 21.07.2022
2513 Clouds 38 1000 8 10000 3.72 27 20:48 21.07.2022
2514 Clouds 40 999 7 10000 5.37 31 19:23 21.07.2022
2515 Clouds 43 998 6 10000 6.24 30 17:39 21.07.2022
2516 Clouds 43 997 5 10000 7.23 27 17:19 21.07.2022
2517 Clouds 45 997 5 10000 7.83 19 14:52 21.07.2022
2518 Clouds 45 997 5 10000 7.93 16 14:24 21.07.2022
2519 Clouds 44 998 5 10000 8.27 11 12:27 21.07.2022
2520 Clouds 43 999 5 10000 7.58 12 10:48 21.07.2022
2521 Clouds 42 1000 6 10000 6.41 16 09:18 21.07.2022
2522 Clouds 39 1000 6 10000 6.41 16 08:45 21.07.2022
2523 Clouds 37 1001 9 10000 4.66 0 07:23 21.07.2022
2524 Clouds 31 1000 12 10000 2.48 355 03:55 21.07.2022
2525 Clouds 34 1000 10 10000 3.79 359 00:24 21.07.2022
2526 Clouds 36 999 9 10000 4.37 5 22:21 20.07.2022
2527 Clouds 38 1000 9 10000 4.85 2 20:51 20.07.2022
2528 Clouds 40 999 9 10000 4.95 20 19:49 20.07.2022
2529 Clouds 40 999 9 10000 5.04 18 19:20 20.07.2022
2530 Clouds 42 999 9 10000 5.04 18 18:33 20.07.2022
2531 Clouds 43 998 8 10000 5.34 27 17:54 20.07.2022
2532 Clouds 44 997 7 10000 7.14 31 16:19 20.07.2022
2533 Clouds 44 997 6 10000 7 29 14:57 20.07.2022
2534 Clouds 44 997 6 10000 6.89 27 13:57 20.07.2022
2535 Clouds 44 998 6 10000 7.85 33 11:32 20.07.2022
2536 Clouds 38 1001 9 10000 7.77 41 07:50 20.07.2022
2537 Clear 33 1000 14 10000 4.68 340 03:25 20.07.2022
2538 Clouds 35 1000 13 10000 4.45 336 00:48 20.07.2022
2539 Clear 36 1001 12 10000 4.32 336 23:41 19.07.2022
2540 Clear 36 1001 11 10000 4.74 5 22:22 19.07.2022
2541 Clear 38 1001 10 10000 4.69 345 21:23 19.07.2022
2542 Clouds 38 1001 10 10000 4.59 344 20:27 19.07.2022
2543 Clouds 42 999 10 10000 4.3 48 18:43 19.07.2022
2544 Clouds 43 999 9 10000 4.9 45 17:57 19.07.2022
2545 Clouds 43 998 8 10000 6.21 38 16:31 19.07.2022
2546 Clouds 44 999 7 10000 7.4 26 14:36 19.07.2022
2547 Clouds 43 1001 7 10000 8.3 31 11:38 19.07.2022
2548 Clouds 42 1001 7 10000 8.3 31 10:47 19.07.2022
2549 Clouds 41 1002 8 10000 8.35 36 09:21 19.07.2022
2550 Clouds 39 1002 8 10000 8.35 36 08:32 19.07.2022
2551 Clouds 37 1002 10 10000 4.62 25 07:19 19.07.2022
2552 Clouds 32 1002 14 10000 3.29 342 05:27 19.07.2022
2553 Clouds 31 1002 14 10000 3.29 342 04:48 19.07.2022
2554 Clouds 33 1000 13 10000 2.98 324 00:35 19.07.2022
2555 Clouds 35 1000 13 10000 1.78 33 23:31 18.07.2022
2556 Clouds 36 1000 12 10000 2.93 21 22:58 18.07.2022
2557 Clouds 37 1000 11 10000 3.54 19 21:58 18.07.2022
2558 Clouds 39 1001 11 10000 3.86 19 20:50 18.07.2022
2559 Clouds 40 1000 9 10000 4.83 23 19:26 18.07.2022
2560 Clouds 42 998 7 10000 6.18 20 17:24 18.07.2022
2561 Clouds 44 998 7 10000 5.29 19 15:51 18.07.2022
2562 Clear 44 998 7 10000 5.06 31 14:30 18.07.2022
2563 Clear 43 998 7 10000 2.28 32 12:45 18.07.2022
2564 Clear 43 1000 8 10000 1.9 34 11:29 18.07.2022
2565 Clear 38 1001 9 10000 1.51 16 08:54 18.07.2022
2566 Clear 33 1001 11 10000 3.9 2 07:28 18.07.2022
2567 Clouds 33 1000 12 10000 4.11 324 00:42 18.07.2022
2568 Clouds 34 1000 10 10000 2.4 345 22:37 17.07.2022
2569 Clouds 35 1000 11 10000 0.98 42 21:49 17.07.2022
2570 Clouds 35 1000 10 10000 1.61 57 21:18 17.07.2022
2571 Clouds 37 1000 10 10000 1.61 57 20:37 17.07.2022
2572 Clouds 38 999 11 10000 3.15 84 19:29 17.07.2022
2573 Clouds 40 998 10 10000 3.8 91 18:27 17.07.2022
2574 Clouds 41 998 10 10000 3.8 91 17:38 17.07.2022
2575 Clouds 41 998 8 10000 3.44 80 16:51 17.07.2022
2576 Clouds 41 997 8 10000 2.31 64 16:26 17.07.2022
2577 Clouds 43 997 7 10000 1.3 40 14:44 17.07.2022
2578 Clouds 42 997 7 10000 3.96 28 13:31 17.07.2022
2579 Clouds 41 999 8 10000 6.39 13 11:35 17.07.2022
2580 Clouds 37 1000 11 10000 6.72 5 08:57 17.07.2022
2581 Clouds 31 1000 12 10000 5.43 339 03:44 17.07.2022
2582 Clouds 31 1000 11 10000 5.11 340 02:32 17.07.2022
2583 Clouds 32 1000 10 10000 5.41 334 23:20 16.07.2022
2584 Clouds 35 1000 9 10000 5.3 334 21:30 16.07.2022
2585 Clouds 38 999 9 10000 3.58 1 19:30 16.07.2022
2586 Clouds 39 998 9 10000 3.68 17 18:32 16.07.2022
2587 Clouds 43 997 7 10000 4.16 20 16:34 16.07.2022
2588 Clouds 43 997 6 10000 5.22 9 13:49 16.07.2022
2589 Clouds 41 999 6 10000 6.83 20 10:53 16.07.2022
2590 Clouds 40 1000 7 10000 8.48 15 09:33 16.07.2022
2591 Clouds 38 1000 7 10000 8.48 15 08:43 16.07.2022
2592 Clouds 38 1000 7 10000 8.4 7 08:19 16.07.2022
2593 Clear 33 1000 13 10000 4.73 346 03:58 16.07.2022
2594 Clear 32 1000 13 10000 4.62 345 02:40 16.07.2022
2595 Clouds 34 1000 11 10000 4.31 338 23:29 15.07.2022
2596 Clouds 35 1000 11 10000 4.31 338 22:40 15.07.2022
2597 Clouds 35 1000 10 10000 4.59 345 21:28 15.07.2022
2598 Clouds 36 1000 9 10000 4.67 2 20:26 15.07.2022
2599 Clouds 40 999 7 10000 5.07 16 18:40 15.07.2022
2600 Clouds 41 998 7 10000 6.06 20 17:37 15.07.2022
2601 Clouds 43 997 6 10000 9.93 10 14:53 15.07.2022
2602 Clouds 43 998 7 10000 9.58 3 12:57 15.07.2022
2603 Clouds 42 999 7 10000 9.09 3 11:20 15.07.2022
2604 Clouds 40 1000 7 10000 8.63 4 09:44 15.07.2022
2605 Clouds 33 1000 13 10000 4.24 344 06:24 15.07.2022
2606 Clouds 33 998 11 10000 3.69 324 00:53 15.07.2022
2607 Clouds 33 998 11 10000 3.7 331 00:21 15.07.2022
2608 Clouds 35 998 10 10000 3.86 339 22:50 14.07.2022
2609 Clouds 36 998 9 10000 3.91 344 21:46 14.07.2022
2610 Clouds 36 998 9 10000 4.09 346 21:28 14.07.2022
2611 Clouds 37 998 9 10000 4.09 346 20:44 14.07.2022
2612 Clouds 37 998 8 10000 4.39 350 20:20 14.07.2022
2613 Clouds 40 997 7 10000 4.82 2 18:52 14.07.2022
2614 Clouds 42 996 5 10000 8.78 359 16:22 14.07.2022
2615 Clouds 43 996 5 10000 8.78 359 15:32 14.07.2022
2616 Clouds 43 996 7 10000 7.56 355 13:53 14.07.2022
2617 Clouds 42 996 8 10000 7.14 360 12:58 14.07.2022
2618 Clouds 41 997 8 10000 6.98 6 11:47 14.07.2022
2619 Clouds 41 998 9 10000 7.24 12 11:23 14.07.2022
2620 Clouds 39 999 10 10000 7.63 16 09:54 14.07.2022
2621 Clouds 35 1000 12 10000 7.38 9 07:47 14.07.2022
2622 Clouds 33 1000 12 10000 4.45 325 01:25 14.07.2022
2623 Clouds 33 1000 12 10000 4.45 325 00:53 14.07.2022
2624 Clouds 36 1000 10 10000 3.84 326 22:33 13.07.2022
2625 Clouds 36 1001 10 10000 3.3 344 21:57 13.07.2022
2626 Clouds 36 1001 9 10000 3.56 357 21:18 13.07.2022
2627 Clouds 38 999 8 10000 4.19 14 19:34 13.07.2022
2628 Clouds 40 999 7 10000 4.92 19 17:51 13.07.2022
2629 Clouds 40 998 6 10000 7.12 15 16:43 13.07.2022
2630 Clouds 41 998 5 10000 8.01 3 15:24 13.07.2022
2631 Clouds 41 999 5 10000 7.2 352 12:56 13.07.2022
2632 Clouds 41 999 5 10000 7.2 352 12:56 13.07.2022
2633 Clouds 40 1001 7 10000 7.1 349 10:46 13.07.2022
2634 Clouds 40 1002 7 10000 6.63 350 10:24 13.07.2022
2635 Clouds 38 1002 8 10000 5.64 353 09:25 13.07.2022
2636 Clouds 31 1003 10 10000 5.94 351 06:46 13.07.2022
2637 Clouds 31 1003 12 10000 4.71 339 02:38 13.07.2022
2638 Clouds 33 1002 10 10000 3.74 327 23:52 12.07.2022
2639 Clouds 35 1003 10 10000 3.08 360 22:18 12.07.2022
2640 Clouds 36 1003 10 10000 3.08 360 21:34 12.07.2022
2641 Clouds 37 1003 10 10000 3.27 6 20:42 12.07.2022
2642 Clouds 37 1003 10 10000 3.85 9 19:36 12.07.2022
2643 Rain 39 1002 9 10000 7.05 27 17:54 12.07.2022
2644 Clouds 40 1001 9 10000 9.01 25 16:20 12.07.2022
2645 Clouds 40 1001 9 10000 9.01 25 16:20 12.07.2022
2646 Clouds 39 1001 9 10000 9.45 20 14:31 12.07.2022
2647 Clouds 39 1002 8 10000 8.45 25 13:20 12.07.2022
2648 Clouds 38 1002 8 10000 8.78 25 11:37 12.07.2022
2649 Clouds 38 1003 8 10000 8.47 22 10:18 12.07.2022
2650 Clouds 38 1003 8 10000 8.47 22 10:18 12.07.2022
2651 Clouds 36 1004 10 10000 9.1 17 08:24 12.07.2022
2652 Clouds 32 1004 11 10000 7.5 8 06:59 12.07.2022
2653 Clouds 31 1004 12 10000 6.68 6 05:42 12.07.2022
2654 Clouds 33 1003 11 10000 6.37 5 03:29 12.07.2022
2655 Clouds 35 1002 13 10000 4.27 355 23:42 11.07.2022
2656 Clouds 34 1002 11 10000 3.72 17 22:31 11.07.2022
2657 Clouds 36 1002 9 10000 4.25 24 20:41 11.07.2022
2658 Clouds 38 1002 8 10000 4.56 27 19:50 11.07.2022
2659 Clouds 39 1001 7 10000 5.58 37 18:38 11.07.2022
2660 Clouds 40 1000 6 10000 6.41 35 17:53 11.07.2022
2661 Clouds 41 999 6 10000 8.92 25 16:22 11.07.2022
2662 Clouds 41 998 6 10000 8.14 22 14:49 11.07.2022
2663 Clouds 41 999 6 10000 7.66 19 12:18 11.07.2022
2664 Clouds 39 1000 7 10000 8.07 16 10:42 11.07.2022
2665 Rain 38 1000 7 10000 8.84 18 09:54 11.07.2022
2666 Clear 36 1001 8 10000 8.56 23 08:35 11.07.2022
2667 Clouds 35 1001 9 10000 7.31 7 07:24 11.07.2022
2668 Clouds 32 999 9 10000 3.76 328 00:24 11.07.2022
2669 Clouds 33 999 9 10000 3.76 328 23:32 10.07.2022
2670 Clouds 35 1000 8 10000 3.61 359 22:21 10.07.2022
2671 Clouds 37 999 8 10000 3.89 2 20:55 10.07.2022
2672 Clouds 38 998 7 10000 4.48 5 19:55 10.07.2022
2673 Clouds 38 997 7 10000 4.45 6 19:20 10.07.2022
2674 Clouds 40 997 6 10000 4.93 5 17:50 10.07.2022
2675 Clouds 42 996 5 10000 6.95 355 16:59 10.07.2022
2676 Clouds 42 995 5 10000 8.34 349 16:20 10.07.2022
2677 Clouds 42 995 5 10000 8.57 343 14:35 10.07.2022
2678 Clouds 43 997 6 10000 6.71 342 12:42 10.07.2022
2679 Clouds 42 997 6 10000 6.22 341 11:36 10.07.2022
2680 Clouds 40 999 7 10000 5.12 1 09:30 10.07.2022
2681 Clouds 37 999 8 10000 4.77 16 08:42 10.07.2022
2682 Clouds 31 1000 10 10000 4.16 4 06:32 10.07.2022
2683 Clouds 33 998 13 10000 3.99 343 23:35 09.07.2022
2684 Clouds 34 999 11 10000 4 346 22:26 09.07.2022
2685 Clouds 35 999 11 10000 4 346 21:40 09.07.2022
2686 Clouds 38 998 10 10000 4.04 8 19:37 09.07.2022
2687 Clouds 39 997 9 10000 4.71 19 18:25 09.07.2022
2688 Clouds 41 996 8 10000 6.97 20 17:18 09.07.2022
2689 Clouds 42 996 7 10000 8.29 19 15:58 09.07.2022
2690 Clouds 42 996 7 10000 8.29 19 15:38 09.07.2022
2691 Clouds 42 996 7 10000 8.25 18 14:21 09.07.2022
2692 Clouds 42 997 7 10000 8.19 20 13:28 09.07.2022
2693 Clouds 41 998 7 10000 8.26 22 11:40 09.07.2022
2694 Clouds 40 999 7 10000 8.26 23 10:25 09.07.2022
2695 Clouds 39 1000 8 10000 8.17 25 09:23 09.07.2022
2696 Clouds 36 1000 9 10000 7.56 20 07:43 09.07.2022
2697 Clouds 30 1001 12 10000 4.13 348 04:38 09.07.2022
2698 Clouds 33 1000 11 10000 4.27 345 23:33 08.07.2022
2699 Clouds 34 1000 10 10000 4.5 1 22:18 08.07.2022
2700 Clouds 35 1000 10 10000 4.69 1 21:21 08.07.2022
2701 Clouds 37 1000 10 10000 4.69 1 20:35 08.07.2022
2702 Clouds 40 1000 9 10000 4.21 16 18:45 08.07.2022
2703 Clouds 41 999 9 10000 4.6 26 17:45 08.07.2022
2704 Clouds 41 999 9 10000 4.6 26 17:45 08.07.2022
2705 Clouds 42 998 7 10000 7.35 26 16:24 08.07.2022
2706 Clouds 42 998 6 10000 7 19 14:50 08.07.2022
2707 Clouds 41 999 8 10000 5.56 7 12:31 08.07.2022
2708 Clouds 40 1001 7 10000 6.21 20 10:46 08.07.2022
2709 Clouds 39 1001 8 10000 6.58 26 09:58 08.07.2022
2710 Clouds 34 1003 10 10000 7.31 22 06:59 08.07.2022
2711 Clouds 31 1003 11 10000 6.13 13 05:33 08.07.2022
2712 Clouds 34 1002 12 10000 4.73 346 00:30 08.07.2022
2713 Clouds 37 1002 12 10000 3.33 0 22:50 07.07.2022
2714 Rain 37 1002 12 10000 3.15 357 21:46 07.07.2022
2715 Rain 39 1001 10 10000 3.43 70 19:34 07.07.2022
2716 Clouds 40 1000 9 10000 5.65 59 17:43 07.07.2022
2717 Clouds 40 999 7 10000 5.87 45 16:21 07.07.2022
2718 Clouds 41 1000 7 10000 5.5 50 13:40 07.07.2022
2719 Clouds 41 1000 7 10000 5.62 36 12:41 07.07.2022
2720 Clouds 41 1000 7 10000 5.67 26 12:22 07.07.2022
2721 Clouds 40 1000 7 10000 5.67 26 11:32 07.07.2022
2722 Clouds 39 1001 7 10000 5.93 18 10:45 07.07.2022
2723 Clouds 39 1002 8 10000 6.39 15 10:27 07.07.2022
2724 Clouds 36 1002 9 10000 7.22 4 08:40 07.07.2022
2725 Clouds 30 1003 14 10000 6.47 344 05:44 07.07.2022
2726 Clouds 32 1001 14 10000 5.01 337 23:54 06.07.2022
2727 Clouds 32 1001 14 10000 5.01 337 23:36 06.07.2022
2728 Clouds 32 1002 13 10000 5.23 335 23:18 06.07.2022
2729 Clouds 35 1002 13 10000 5.23 335 22:46 06.07.2022
2730 Clouds 35 1002 13 10000 5.26 341 22:28 06.07.2022
2731 Clouds 37 1001 12 10000 4.88 342 19:46 06.07.2022
2732 Clouds 39 1000 11 10000 5.03 342 18:45 06.07.2022
2733 Clouds 41 999 9 10000 6.61 348 16:45 06.07.2022
2734 Clouds 42 999 8 10000 7.76 347 15:44 06.07.2022
2735 Clouds 41 999 7 10000 7.92 344 12:44 06.07.2022
2736 Clouds 41 999 8 10000 7.87 342 11:49 06.07.2022
2737 Clouds 39 1001 8 10000 7.27 348 10:33 06.07.2022
2738 Clouds 35 1001 9 10000 7.6 348 08:43 06.07.2022
2739 Clouds 33 1002 10 10000 6.12 2 07:41 06.07.2022
2740 Clouds 30 1002 11 10000 5.12 358 06:40 06.07.2022
2741 Clouds 33 1000 11 10000 5.05 329 22:49 05.07.2022
2742 Clouds 33 1000 10 10000 4.97 327 22:28 05.07.2022
2743 Clouds 36 1001 10 10000 4.76 330 20:42 05.07.2022
2744 Clear 38 999 9 10000 4.63 331 19:44 05.07.2022
2745 Clear 38 999 9 10000 4.66 341 19:26 05.07.2022
2746 Clear 41 998 8 10000 5.13 352 17:48 05.07.2022
2747 Clear 42 997 7 10000 6.46 348 16:57 05.07.2022
2748 Clear 42 997 6 10000 7.78 342 15:39 05.07.2022
2749 Clear 42 998 6 10000 7.87 342 14:39 05.07.2022
2750 Clouds 42 999 7 10000 7.73 340 12:52 05.07.2022
2751 Clouds 42 999 7 10000 6.95 338 12:19 05.07.2022
2752 Clouds 41 1000 8 10000 6.58 334 10:44 05.07.2022
2753 Clouds 39 1001 9 10000 5.98 344 09:28 05.07.2022
2754 Clear 38 1001 12 10000 6.32 342 08:19 05.07.2022
2755 Clear 32 1002 16 10000 5.15 347 06:22 05.07.2022
2756 Clear 30 1001 18 10000 4.16 323 04:26 05.07.2022
2757 Clouds 32 1000 15 10000 4.44 327 00:38 05.07.2022
2758 Clouds 33 1000 14 10000 4.15 323 23:34 04.07.2022
2759 Clouds 35 1000 13 10000 4.35 321 22:50 04.07.2022
2760 Clouds 35 1000 11 10000 4.68 313 21:48 04.07.2022
2761 Clouds 36 1000 10 10000 5.05 307 20:54 04.07.2022
2762 Clouds 36 1000 10 10000 5.05 307 20:34 04.07.2022
2763 Clouds 37 1000 10 10000 5.09 308 19:55 04.07.2022
2764 Clouds 37 1000 10 10000 5.09 308 19:36 04.07.2022
2765 Clouds 39 998 9 10000 5.5 328 18:26 04.07.2022
2766 Clouds 42 997 8 10000 7.12 328 16:34 04.07.2022
2767 Clear 42 997 8 10000 7.16 328 15:34 04.07.2022
2768 Clear 42 998 8 10000 7.11 327 13:33 04.07.2022
2769 Clear 41 999 9 10000 6.22 325 12:33 04.07.2022
2770 Clear 40 1000 10 10000 5.79 326 10:34 04.07.2022
2771 Clear 39 1001 10 10000 5.65 329 09:53 04.07.2022
2772 Clouds 37 1001 12 10000 5.41 341 08:31 04.07.2022
2773 Clouds 30 1001 17 10000 4 339 05:18 04.07.2022
2774 Clouds 32 999 16 10000 4.05 340 00:42 04.07.2022
2775 Clouds 34 999 14 10000 3.95 335 22:59 03.07.2022
2776 Clouds 37 1000 12 10000 4.76 318 20:59 03.07.2022
2777 Clouds 37 1000 12 10000 4.76 318 20:41 03.07.2022
2778 Clouds 38 999 11 10000 4.76 322 19:41 03.07.2022
2779 Clouds 38 998 11 10000 4.98 323 19:23 03.07.2022
2780 Clouds 40 998 10 10000 4.24 329 17:45 03.07.2022
2781 Clouds 42 997 9 10000 5.97 327 15:55 03.07.2022
2782 Clouds 41 997 9 10000 5.41 332 14:59 03.07.2022
2783 Clouds 41 997 9 10000 5.41 332 14:32 03.07.2022
2784 Clouds 41 997 9 10000 4.54 336 13:48 03.07.2022
2785 Clouds 40 998 9 10000 4.38 333 12:35 03.07.2022
2786 Clouds 40 999 10 10000 4.48 339 11:29 03.07.2022
2787 Clouds 40 999 10 10000 4.48 339 10:39 03.07.2022
2788 Clouds 39 1000 11 10000 4.43 349 09:55 03.07.2022
2789 Clouds 35 1001 11 10000 3.89 356 07:36 03.07.2022
2790 Clouds 29 1001 15 10000 2.63 319 05:18 03.07.2022
2791 Clouds 32 999 13 10000 3.87 353 00:23 03.07.2022
2792 Clouds 34 1000 12 10000 3.99 356 22:35 02.07.2022
2793 Clouds 36 1000 12 10000 4.5 348 21:38 02.07.2022
2794 Clouds 39 999 10 10000 4.6 338 19:52 02.07.2022
2795 Clouds 39 999 9 10000 4.55 348 19:23 02.07.2022
2796 Clouds 42 998 8 10000 4.98 354 17:51 02.07.2022
2797 Clouds 42 998 8 10000 4.98 354 17:33 02.07.2022
2798 Clouds 44 997 6 10000 6.92 346 14:52 02.07.2022
2799 Clouds 43 999 6 10000 5.28 341 12:22 02.07.2022
2800 Clouds 42 1000 6 10000 4.8 351 11:27 02.07.2022
2801 Clouds 41 1000 6 10000 4.8 351 10:46 02.07.2022
2802 Clouds 39 1001 7 10000 4.49 359 09:37 02.07.2022
2803 Clouds 38 1001 7 10000 4.29 5 08:36 02.07.2022
2804 Clouds 38 1002 9 10000 4.83 354 08:18 02.07.2022
2805 Clouds 30 1000 13 10000 4.06 348 02:52 02.07.2022
2806 Clouds 33 1000 11 10000 4.46 334 00:26 02.07.2022
2807 Clouds 35 1000 11 10000 4.33 326 22:59 01.07.2022
2808 Clouds 36 1001 11 10000 4.4 334 21:56 01.07.2022
2809 Clouds 36 1001 11 10000 4.4 334 21:37 01.07.2022
2810 Clouds 38 1001 10 10000 4.28 342 20:56 01.07.2022
2811 Clouds 40 1000 10 10000 4.24 355 19:47 01.07.2022
2812 Clouds 43 999 8 10000 4.59 360 17:58 01.07.2022
2813 Clouds 44 998 6 10000 6.31 348 16:24 01.07.2022
2814 Clouds 44 998 6 10000 5.16 342 13:55 01.07.2022
2815 Clouds 44 998 6 10000 5.38 336 12:59 01.07.2022
2816 Clouds 42 1000 7 10000 4.24 335 10:46 01.07.2022
2817 Clouds 42 1001 7 10000 3.72 338 10:18 01.07.2022
2818 Clear 30 1002 11 10000 3.96 340 05:58 01.07.2022
2819 Clouds 31 1000 12 10000 3.68 336 01:30 01.07.2022
2820 Clouds 33 1000 11 10000 3.93 337 23:28 30.06.2022
2821 Clouds 34 1000 11 10000 3.93 337 22:45 30.06.2022
2822 Clouds 34 1000 11 10000 4.41 340 22:27 30.06.2022
2823 Clouds 35 1000 11 10000 4.41 340 21:50 30.06.2022
2824 Clear 36 1001 10 10000 4.61 352 20:31 30.06.2022
2825 Clear 39 1000 9 10000 4.07 358 19:55 30.06.2022
2826 Clear 39 1000 9 10000 4.07 358 19:32 30.06.2022
2827 Clear 40 1000 8 10000 4.17 5 18:43 30.06.2022
2828 Clear 42 999 7 10000 4.67 1 17:49 30.06.2022
2829 Clear 43 998 6 10000 6.47 356 16:55 30.06.2022
2830 Clear 44 998 6 10000 7.55 354 15:50 30.06.2022
2831 Clear 44 998 5 10000 7.81 359 13:50 30.06.2022
2832 Clear 42 998 5 10000 8.08 1 12:36 30.06.2022
2833 Clear 42 999 6 10000 8.36 3 11:59 30.06.2022
2834 Clear 40 1001 6 10000 8.16 5 09:55 30.06.2022
2835 Clear 40 1001 6 10000 8.16 5 09:37 30.06.2022
2836 Clear 38 1002 8 10000 7.07 3 08:22 30.06.2022
2837 Clear 35 1002 8 10000 6.78 2 07:40 30.06.2022
2838 Clear 30 1001 14 10000 4.57 356 02:49 30.06.2022
2839 Clear 33 1001 12 10000 4.76 328 23:38 29.06.2022
2840 Clear 33 1001 12 10000 4.63 326 22:41 29.06.2022
2841 Clear 35 1002 11 10000 4.51 327 21:59 29.06.2022
2842 Clear 36 1002 11 10000 4.27 332 20:35 29.06.2022
2843 Clear 37 1002 10 10000 4.66 340 19:56 29.06.2022
2844 Clear 40 1001 7 10000 5.83 1 17:55 29.06.2022
2845 Clear 40 1001 7 10000 5.83 1 17:55 29.06.2022
2846 Clear 41 1000 6 10000 7.72 357 16:55 29.06.2022
2847 Clear 42 999 5 10000 8.95 352 15:44 29.06.2022
2848 Clear 42 1000 4 10000 7.85 352 13:43 29.06.2022
2849 Clear 42 1001 4 10000 7.29 348 12:36 29.06.2022
2850 Clouds 37 1004 7 10000 4.88 344 09:46 29.06.2022
2851 Clouds 37 1004 9 10000 4.91 343 09:22 29.06.2022
2852 Clouds 30 1005 15 10000 3.59 349 06:29 29.06.2022
2853 Clouds 27 1004 17 10000 2.98 327 04:42 29.06.2022
2854 Clouds 31 1002 14 10000 5.34 16 00:53 29.06.2022
2855 Clouds 31 1002 14 10000 5.34 16 00:33 29.06.2022
2856 Clouds 33 1003 14 10000 5.51 19 22:50 28.06.2022
2857 Clouds 35 1004 14 10000 5.31 15 21:58 28.06.2022
2858 Clouds 35 1004 13 10000 5.06 8 21:39 28.06.2022
2859 Clouds 35 1004 13 10000 5.06 8 21:19 28.06.2022
2860 Clouds 37 1003 10 10000 4.82 4 19:54 28.06.2022
2861 Clouds 37 1003 9 10000 5.14 9 19:28 28.06.2022
2862 Clouds 39 1003 9 10000 5.14 9 18:38 28.06.2022
2863 Clouds 42 1001 7 10000 7.17 360 16:47 28.06.2022
2864 Clouds 42 1001 7 10000 8.22 354 15:54 28.06.2022
2865 Clouds 43 1001 7 10000 8.06 351 14:48 28.06.2022
2866 Clouds 43 1001 7 10000 7.52 347 14:18 28.06.2022
2867 Clouds 41 1001 7 10000 7.09 348 13:45 28.06.2022
2868 Clouds 41 1003 8 10000 5.96 346 12:28 28.06.2022
2869 Clouds 38 1005 9 10000 4.9 351 09:53 28.06.2022
2870 Clouds 36 1005 10 10000 4.63 356 08:55 28.06.2022
2871 Clouds 36 1005 11 10000 3.88 353 08:26 28.06.2022
2872 Clouds 34 1005 12 10000 3.85 6 07:20 28.06.2022
2873 Clear 28 1004 16 10000 3.37 352 02:42 28.06.2022
2874 Clear 32 1003 13 10000 4.35 18 23:51 27.06.2022
2875 Clear 32 1003 13 10000 4.65 16 23:25 27.06.2022
2876 Clear 34 1004 12 10000 4.93 10 21:53 27.06.2022
2877 Clear 34 1004 11 10000 5.24 9 21:21 27.06.2022
2878 Clouds 35 1004 11 10000 5.53 17 20:21 27.06.2022
2879 Clouds 38 1003 10 10000 5.65 16 18:50 27.06.2022
2880 Clouds 40 1002 9 10000 6.44 8 17:33 27.06.2022
2881 Clouds 41 1001 8 10000 8.13 354 15:44 27.06.2022
2882 Clouds 41 1002 9 10000 7.53 347 14:18 27.06.2022
2883 Clouds 41 1002 9 10000 6.94 345 12:58 27.06.2022
2884 Clouds 39 1003 10 10000 6.25 349 11:40 27.06.2022
2885 Clouds 37 1005 12 10000 6.03 8 09:45 27.06.2022
2886 Clouds 35 1005 14 10000 6.33 16 08:43 27.06.2022
2887 Clouds 34 1005 16 10000 6.76 16 07:39 27.06.2022
2888 Clouds 31 1005 21 10000 5.01 359 05:22 27.06.2022
2889 Clouds 34 1003 15 10000 5.87 7 01:24 27.06.2022
2890 Clouds 35 1004 13 10000 6.06 359 22:59 26.06.2022
2891 Clouds 37 1003 10 10000 5.84 7 21:38 26.06.2022
2892 Clouds 38 1002 9 10000 5.08 359 20:28 26.06.2022
2893 Clouds 41 1002 8 10000 4.83 355 18:33 26.06.2022
2894 Clouds 43 1001 7 10000 4.76 351 17:40 26.06.2022
2895 Clouds 45 1000 6 10000 6.53 343 15:36 26.06.2022
2896 Clouds 45 1000 5 10000 7.07 341 14:23 26.06.2022
2897 Clouds 44 1000 6 10000 6.99 344 13:24 26.06.2022
2898 Clouds 44 1001 6 10000 7.02 348 11:41 26.06.2022
2899 Clouds 42 1001 6 10000 7.02 354 10:42 26.06.2022
2900 Clouds 40 1002 6 10000 7.06 357 09:58 26.06.2022
2901 Clouds 39 1003 7 10000 6.72 351 08:27 26.06.2022
2902 Clouds 35 1003 10 10000 4.27 330 06:19 26.06.2022
2903 Clouds 34 1001 13 10000 0.95 277 00:37 26.06.2022
2904 Clouds 34 1001 11 10000 1.88 45 00:18 26.06.2022
2905 Clouds 38 1001 11 10000 1.88 45 23:31 25.06.2022
2906 Clouds 39 1001 11 10000 2.83 331 22:46 25.06.2022
2907 Clouds 39 1002 10 10000 3.6 299 22:24 25.06.2022
2908 Clouds 40 1002 10 10000 2.84 282 21:21 25.06.2022
2909 Clouds 41 1002 10 10000 2.84 282 20:39 25.06.2022
2910 Clouds 40 1002 9 10000 2.83 288 19:59 25.06.2022
2911 Clouds 42 1000 9 10000 2.37 184 18:23 25.06.2022
2912 Clouds 44 1000 7 10000 2.1 169 17:26 25.06.2022
2913 Clouds 45 999 7 10000 1.29 148 16:27 25.06.2022
2914 Clouds 45 999 7 10000 1.05 107 14:31 25.06.2022
2915 Clouds 44 1001 7 10000 0.7 64 12:46 25.06.2022
2916 Clouds 44 1001 7 10000 0.35 213 12:27 25.06.2022
2917 Clouds 41 1004 11 10000 3.58 209 09:24 25.06.2022
2918 Clouds 41 1004 11 10000 3.58 209 09:24 25.06.2022
2919 Clouds 39 1004 11 10000 3.58 209 08:49 25.06.2022
2920 Clouds 39 1004 14 10000 3.64 193 08:20 25.06.2022
2921 Clouds 32 1004 16 10000 2.85 187 06:35 25.06.2022
2922 Clear 34 1003 19 10000 2.99 166 00:45 25.06.2022
2923 Clear 34 1003 18 10000 4.05 143 23:54 24.06.2022
2924 Clear 36 1004 16 10000 4.85 116 22:26 24.06.2022
2925 Clear 37 1004 15 10000 5.22 112 21:25 24.06.2022
2926 Clear 37 1003 12 10000 4.45 130 20:23 24.06.2022
2927 Clear 39 1002 11 10000 3.67 156 19:24 24.06.2022
2928 Clear 40 1002 11 10000 3.67 156 18:51 24.06.2022
2929 Clear 40 1002 11 10000 3.67 156 18:31 24.06.2022
2930 Clear 41 1002 10 10000 2.46 160 17:49 24.06.2022
2931 Clear 42 1002 8 10000 2.26 157 16:45 24.06.2022
2932 Clear 42 1002 8 10000 2.26 157 16:45 24.06.2022
2933 Clear 43 1002 8 10000 3.45 146 14:30 24.06.2022
2934 Clouds 43 1002 8 10000 4.37 147 13:58 24.06.2022
2935 Clouds 43 1003 9 10000 5.05 150 12:49 24.06.2022
2936 Clouds 41 1003 10 10000 5.43 150 11:40 24.06.2022
2937 Clouds 41 1004 12 10000 5.96 141 10:34 24.06.2022
2938 Clouds 39 1005 14 10000 6.91 129 09:41 24.06.2022
2939 Clouds 38 1005 15 10000 5.79 116 08:53 24.06.2022
2940 Clouds 38 1005 15 10000 5.79 116 08:53 24.06.2022
2941 Clouds 34 1006 19 10000 4.97 96 07:39 24.06.2022
2942 Clouds 32 1006 24 10000 4.02 83 06:42 24.06.2022
2943 Clouds 32 1006 28 10000 3.57 74 06:18 24.06.2022
2944 Clouds 28 1005 31 10000 3.28 73 03:47 24.06.2022
2945 Clear 35 1003 12 10000 4.77 132 22:59 23.06.2022
2946 Clear 35 1003 12 10000 4.77 132 22:40 23.06.2022
2947 Clear 38 1003 10 10000 5.23 125 20:58 23.06.2022
2948 Clear 38 1003 10 10000 5.23 125 20:35 23.06.2022
2949 Clouds 40 1002 8 10000 4.57 121 19:40 23.06.2022
2950 Clouds 43 1001 7 10000 4.05 138 17:53 23.06.2022
2951 Clouds 43 1000 6 10000 5.37 134 17:23 23.06.2022
2952 Clouds 44 1000 6 10000 6.22 140 15:50 23.06.2022
2953 Clouds 44 1000 5 10000 6.77 137 15:24 23.06.2022
2954 Clouds 44 1000 5 10000 6.94 137 13:45 23.06.2022
2955 Clouds 41 1002 5 10000 4.48 153 11:27 23.06.2022
2956 Clouds 41 1003 6 10000 4.06 172 10:37 23.06.2022
2957 Clouds 38 1003 6 10000 3.96 178 09:18 23.06.2022
2958 Rain 32 1002 11 10000 2.6 91 03:39 23.06.2022
2959 Clouds 36 1000 10 10000 1.07 176 00:26 23.06.2022
2960 Rain 36 1000 10 10000 1.08 176 23:41 22.06.2022
2961 Clouds 39 1000 10 10000 0.36 124 22:41 22.06.2022
2962 Clear 37 999 7 10000 3.4 173 21:22 22.06.2022
2963 Clear 39 999 7 10000 3.4 173 20:43 22.06.2022
2964 Clouds 37 998 7 10000 3.37 154 19:56 22.06.2022
2965 Clouds 41 998 7 10000 3.61 160 18:47 22.06.2022
2966 Clear 43 997 6 10000 3.88 149 17:28 22.06.2022
2967 Clear 44 997 6 10000 2.75 136 16:29 22.06.2022
2968 Clear 45 997 6 10000 1.94 127 15:26 22.06.2022
2969 Clear 44 997 6 10000 1.42 113 14:20 22.06.2022
2970 Clear 45 997 6 10000 1.25 149 13:39 22.06.2022
2971 Clear 45 998 6 10000 1.23 136 13:21 22.06.2022
2972 Clear 44 998 6 10000 2.06 139 11:49 22.06.2022
2973 Clear 44 999 6 10000 3.32 148 10:55 22.06.2022
2974 Clear 44 999 6 10000 4.67 156 10:19 22.06.2022
2975 Clear 41 999 8 10000 4.29 154 08:28 22.06.2022
2976 Clear 30 999 12 10000 2.4 183 04:50 22.06.2022
2977 Clear 32 999 12 10000 4.32 338 01:23 22.06.2022
2978 Clear 33 999 11 10000 4.69 345 00:24 22.06.2022
2979 Clear 34 1000 10 10000 5.24 332 22:18 21.06.2022
2980 Rain 39 998 8 10000 4.73 338 19:56 21.06.2022
2981 Clear 42 998 8 10000 4.23 341 18:35 21.06.2022
2982 Clear 43 997 7 10000 4.18 6 17:39 21.06.2022
2983 Clear 44 997 5 10000 7.08 8 13:54 21.06.2022
2984 Clear 44 998 6 10000 7.49 28 11:49 21.06.2022
2985 Clear 43 1000 6 10000 8.28 28 10:18 21.06.2022
2986 Clear 39 1000 7 10000 8.88 24 08:48 21.06.2022
2987 Clear 37 1001 7 10000 6.64 339 07:23 21.06.2022
2988 Clear 32 1001 7 10000 2.62 351 01:43 21.06.2022
2989 Clear 36 1001 7 10000 2.59 351 23:25 20.06.2022
2990 Clear 36 1002 6 10000 2.84 332 21:55 20.06.2022
2991 Clear 38 1001 6 10000 3.03 332 20:53 20.06.2022
2992 Clear 41 1001 5 10000 3.76 320 19:44 20.06.2022
2993 Clear 42 1000 5 10000 3.74 319 18:48 20.06.2022
2994 Clear 42 1000 5 10000 4.23 312 18:20 20.06.2022
2995 Clear 44 1000 5 10000 4.23 312 17:35 20.06.2022
2996 Clear 45 999 4 10000 4.74 283 15:57 20.06.2022
2997 Clear 45 999 4 10000 2.19 268 13:34 20.06.2022
2998 Clear 45 1002 5 10000 1.54 209 11:25 20.06.2022
2999 Clear 42 1002 5 10000 1.38 234 09:47 20.06.2022
3000 Clear 41 1003 5 10000 1.54 250 08:44 20.06.2022
3001 Clear 33 1003 6 10000 1.41 303 06:37 20.06.2022
3002 Clear 31 1002 9 10000 0.72 102 02:56 20.06.2022
3003 Clear 31 1001 8 10000 1.11 272 00:37 20.06.2022
3004 Clear 35 1002 7 10000 1.5 250 23:24 19.06.2022
3005 Clear 39 1002 7 10000 1.44 231 22:00 19.06.2022
3006 Clear 39 1002 7 10000 1.44 231 21:40 19.06.2022
3007 Clear 38 1002 6 10000 1.65 210 20:46 19.06.2022
3008 Clear 39 1001 6 10000 1.67 256 19:48 19.06.2022
3009 Clear 39 1001 6 10000 1.99 225 19:23 19.06.2022
3010 Clear 40 1001 6 10000 2 225 18:31 19.06.2022
3011 Clear 44 1001 5 10000 2.38 201 17:34 19.06.2022
3012 Clear 45 1000 5 10000 2.3 192 16:38 19.06.2022
3013 Clear 44 1000 4 10000 2.32 183 15:44 19.06.2022
3014 Clear 44 1000 4 10000 2.91 172 15:25 19.06.2022
3015 Clear 45 1000 4 10000 2.82 160 14:20 19.06.2022
3016 Clear 44 1000 4 10000 2.82 160 13:37 19.06.2022
3017 Clear 43 1001 4 10000 1.93 114 11:52 19.06.2022
3018 Clear 42 1002 4 10000 2.06 70 10:49 19.06.2022
3019 Clear 39 1003 6 10000 3.07 15 08:54 19.06.2022
3020 Clear 39 1003 7 10000 2.43 9 08:30 19.06.2022
3021 Clear 32 1004 9 10000 3.96 338 05:59 19.06.2022
3022 Clear 33 1002 9 10000 4.03 325 02:59 19.06.2022
3023 Clear 35 1002 7 10000 3.03 320 00:26 19.06.2022
3024 Clear 36 1002 7 10000 3.03 320 23:36 18.06.2022
3025 Clear 37 1002 7 10000 2.55 323 22:55 18.06.2022
3026 Clear 38 1002 6 10000 2.08 328 21:52 18.06.2022
3027 Clear 39 1002 7 10000 1.29 360 20:50 18.06.2022
3028 Clear 39 1001 6 10000 2.1 44 19:48 18.06.2022
3029 Clear 40 1001 5 10000 3.4 53 18:54 18.06.2022
3030 Clear 42 1000 4 10000 4.55 38 17:54 18.06.2022
3031 Clear 42 999 3 10000 6.59 16 17:23 18.06.2022
3032 Clear 43 999 3 10000 8.93 7 15:38 18.06.2022
3033 Clear 44 999 4 10000 9.53 2 14:49 18.06.2022
3034 Clear 43 1000 4 10000 9.56 358 13:54 18.06.2022
3035 Clear 42 1001 6 10000 8.74 351 11:58 18.06.2022
3036 Clear 41 1002 6 10000 7.93 350 10:59 18.06.2022
3037 Clear 38 1003 8 10000 6.51 358 09:29 18.06.2022
3038 Clear 37 1004 10 10000 6.17 7 08:33 18.06.2022
3039 Clear 35 1004 10 10000 5.77 1 07:32 18.06.2022
3040 Clear 31 1004 16 10000 3.89 331 04:20 18.06.2022
3041 Clear 33 1004 15 10000 4.75 326 01:27 18.06.2022
3042 Clear 33 1004 15 10000 4.75 326 01:27 18.06.2022
3043 Clear 35 1004 15 10000 4.75 326 00:55 18.06.2022
3044 Clear 35 1004 14 10000 4.77 322 00:22 18.06.2022
3045 Clear 36 1004 14 10000 4.73 324 23:29 17.06.2022
3046 Clear 37 1004 13 10000 4.79 330 21:57 17.06.2022
3047 Clear 38 1004 12 10000 4.87 339 20:29 17.06.2022
3048 Clear 39 1003 10 10000 5.47 350 19:19 17.06.2022
3049 Clear 41 1003 9 10000 6.3 355 17:47 17.06.2022
3050 Clear 42 1002 7 10000 7.46 354 16:44 17.06.2022
3051 Clear 42 1002 7 10000 8.18 351 16:19 17.06.2022
3052 Clear 43 1002 7 10000 8.18 351 15:37 17.06.2022
3053 Clear 43 1002 7 10000 8.18 351 15:37 17.06.2022
3054 Clear 43 1002 7 10000 7.59 356 14:23 17.06.2022
3055 Clouds 42 1002 7 10000 7.52 1 13:57 17.06.2022
3056 Clouds 42 1002 7 10000 7.52 1 13:37 17.06.2022
3057 Clouds 41 1004 7 10000 6.31 7 12:20 17.06.2022
3058 Clouds 41 1004 7 10000 6.31 7 11:49 17.06.2022
3059 Clouds 41 1004 7 10000 6.31 7 11:30 17.06.2022
3060 Clouds 36 1006 11 10000 3.1 2 08:45 17.06.2022
3061 Clouds 36 1006 13 10000 2.74 12 08:24 17.06.2022
3062 Clouds 32 1007 15 10000 3.17 2 06:35 17.06.2022
3063 Clear 30 1006 18 10000 2.47 325 03:25 17.06.2022
3064 Clear 31 1006 17 10000 2.02 328 01:55 17.06.2022
3065 Clear 33 1006 17 10000 1.74 70 23:34 16.06.2022
3066 Clear 35 1006 15 10000 3.16 57 22:40 16.06.2022
3067 Clear 36 1006 12 10000 5.38 36 21:21 16.06.2022
3068 Clear 37 1006 12 10000 5.38 36 20:50 16.06.2022
3069 Clear 37 1006 10 10000 4.74 39 20:21 16.06.2022
3070 Clouds 39 1005 9 10000 4.71 48 18:51 16.06.2022
3071 Clouds 41 1004 8 10000 5.07 48 17:54 16.06.2022
3072 Clear 41 1003 7 10000 6.35 47 17:27 16.06.2022
3073 Clear 42 1002 6 10000 6.63 46 16:20 16.06.2022
3074 Clear 42 1002 6 10000 5.71 49 15:21 16.06.2022
3075 Clear 42 1003 6 10000 4.9 57 14:27 16.06.2022
3076 Clear 42 1003 7 10000 5.55 59 12:56 16.06.2022
3077 Clear 42 1003 7 10000 5.55 59 12:34 16.06.2022
3078 Clear 42 1004 7 10000 5.47 60 11:48 16.06.2022
3079 Clear 41 1005 8 10000 3.83 75 10:42 16.06.2022
3080 Clear 39 1005 9 10000 3.87 110 09:43 16.06.2022
3081 Clear 39 1006 10 10000 4.89 117 09:19 16.06.2022
3082 Clear 36 1006 10 10000 3.54 118 07:42 16.06.2022
3083 Clear 32 1006 12 10000 2.29 133 06:49 16.06.2022
3084 Clear 27 1005 18 10000 0.81 229 04:27 16.06.2022
3085 Clear 31 1005 19 10000 0.41 330 01:53 16.06.2022
3086 Clear 31 1005 17 10000 1.42 49 01:29 16.06.2022
3087 Clear 31 1005 16 10000 2.52 71 00:29 16.06.2022
3088 Clear 33 1005 13 10000 3.57 74 22:54 15.06.2022
3089 Clear 35 1005 12 10000 3.33 72 21:55 15.06.2022
3090 Clear 35 1006 11 10000 3.58 89 21:20 15.06.2022
3091 Clear 36 1006 11 10000 3.58 89 20:37 15.06.2022
3092 Clear 36 1005 11 10000 4.36 88 20:18 15.06.2022
3093 Clear 39 1004 10 10000 4.8 86 18:47 15.06.2022
3094 Clear 40 1003 9 10000 5.57 81 17:54 15.06.2022
3095 Clear 41 1003 7 10000 6.96 70 16:35 15.06.2022
3096 Clear 42 1002 6 10000 7.17 55 15:22 15.06.2022
3097 Clear 42 1002 7 10000 5.92 56 13:37 15.06.2022
3098 Clear 42 1003 7 10000 4.71 67 12:51 15.06.2022
3099 Clear 40 1004 7 10000 4.47 81 11:37 15.06.2022
3100 Clear 39 1005 9 10000 4.55 90 10:22 15.06.2022
3101 Clear 38 1005 9 10000 4.55 90 09:34 15.06.2022
3102 Clear 34 1006 14 10000 1.95 115 07:58 15.06.2022
3103 Clear 32 1006 18 10000 2.44 133 06:33 15.06.2022
3104 Clear 30 1005 20 10000 3.32 129 03:28 15.06.2022
3105 Clear 32 1004 18 10000 3.7 117 01:37 15.06.2022
3106 Clear 32 1004 17 10000 3.06 110 00:41 15.06.2022
3107 Clear 32 1004 15 10000 3.35 98 23:38 14.06.2022
3108 Clear 34 1004 14 10000 3.69 86 22:51 14.06.2022
3109 Clear 35 1005 13 10000 3.95 85 21:47 14.06.2022
3110 Clear 35 1005 13 10000 5 86 21:26 14.06.2022
3111 Clear 36 1005 13 10000 5 86 20:48 14.06.2022
3112 Clear 37 1004 10 10000 6.73 86 19:59 14.06.2022
3113 Clear 38 1004 9 10000 6.6 85 18:45 14.06.2022
3114 Clear 40 1003 7 10000 6.33 68 17:29 14.06.2022
3115 Clear 41 1003 7 10000 6.33 68 16:43 14.06.2022
3116 Clear 42 1002 7 10000 6.33 56 15:49 14.06.2022
3117 Clear 42 1002 6 10000 6 53 14:57 14.06.2022
3118 Clear 42 1003 6 10000 5.31 55 14:19 14.06.2022
3119 Clear 41 1003 6 10000 5.7 57 13:32 14.06.2022
3120 Clear 42 1004 7 10000 6.11 65 12:25 14.06.2022
3121 Clear 40 1005 7 10000 5.83 66 10:59 14.06.2022
3122 Clear 40 1005 7 10000 5.83 66 10:59 14.06.2022
3123 Clear 40 1005 7 10000 5.83 66 10:33 14.06.2022
3124 Clear 40 1006 8 10000 2.91 74 09:28 14.06.2022
3125 Clear 40 1006 8 10000 2.91 74 09:28 14.06.2022
3126 Clear 38 1006 8 10000 2.91 74 08:41 14.06.2022
3127 Clear 32 1006 11 10000 1.08 226 06:54 14.06.2022
3128 Clear 31 1004 14 10000 1.64 97 04:28 14.06.2022
3129 Clear 31 1004 13 10000 2.15 106 02:43 14.06.2022
3130 Clear 33 1003 11 10000 4.39 78 00:27 14.06.2022
3131 Clear 34 1003 10 10000 5.35 70 23:18 13.06.2022
3132 Clear 34 1004 10 10000 5.88 65 22:24 13.06.2022
3133 Clear 35 1004 10 10000 5.88 65 21:41 13.06.2022
3134 Clear 37 1004 9 10000 4.51 41 19:59 13.06.2022
3135 Clear 37 1003 8 10000 3.45 34 19:25 13.06.2022
3136 Clear 41 1002 8 10000 2.74 27 17:57 13.06.2022
3137 Clear 41 1001 7 10000 2.73 6 17:27 13.06.2022
3138 Clear 42 1001 7 10000 2.73 6 16:32 13.06.2022
3139 Clear 42 1001 6 10000 2.4 358 14:53 13.06.2022
3140 Clear 42 1001 6 10000 2.49 15 14:33 13.06.2022
3141 Clear 42 1002 6 10000 1.73 30 13:39 13.06.2022
3142 Clear 42 1003 6 10000 2.25 67 12:25 13.06.2022
3143 Clear 40 1004 7 10000 2.74 74 11:18 13.06.2022
3144 Clear 40 1004 7 10000 3.17 74 10:26 13.06.2022
3145 Clear 39 1005 7 10000 2.99 54 09:22 13.06.2022
3146 Clear 31 1005 10 10000 2.7 13 06:55 13.06.2022
3147 Clear 29 1005 11 10000 2.23 22 05:39 13.06.2022
3148 Clear 31 1003 13 10000 2.21 112 02:47 13.06.2022
3149 Clear 30 1002 14 10000 1 60 01:36 13.06.2022
3150 Clear 32 1003 13 10000 1.78 53 23:52 12.06.2022
3151 Clear 33 1003 12 10000 2.6 24 22:50 12.06.2022
3152 Clear 33 1003 11 10000 3.18 28 22:22 12.06.2022
3153 Clear 36 1002 10 10000 3.93 47 20:58 12.06.2022
3154 Clear 36 1001 9 10000 3.73 37 20:27 12.06.2022
3155 Clear 38 1001 9 10000 3.73 37 19:30 12.06.2022
3156 Clear 42 1000 8 10000 3.98 19 17:47 12.06.2022
3157 Clear 43 999 6 10000 2.96 8 15:58 12.06.2022
3158 Clear 44 1000 6 10000 2.87 5 14:56 12.06.2022
3159 Clear 44 1000 6 10000 2.6 354 14:20 12.06.2022
3160 Clear 43 1000 7 10000 2.95 355 13:49 12.06.2022
3161 Clear 42 1001 7 10000 2.37 337 12:37 12.06.2022
3162 Clear 42 1003 7 10000 1.69 321 11:37 12.06.2022
3163 Clear 40 1004 8 10000 1.86 349 10:22 12.06.2022
3164 Clear 37 1004 8 10000 2.31 4 08:54 12.06.2022
3165 Clear 37 1004 8 10000 2.31 4 08:35 12.06.2022
3166 Clear 35 1005 9 10000 2.29 5 07:32 12.06.2022
3167 Clear 29 1005 15 10000 1.27 342 04:35 12.06.2022
3168 Clear 29 1004 15 10000 1.43 350 02:38 12.06.2022
3169 Clear 31 1004 14 10000 2.42 338 01:37 12.06.2022
3170 Clear 31 1004 14 10000 2.76 320 00:58 12.06.2022
3171 Clear 31 1004 13 10000 3.27 23 00:20 12.06.2022
3172 Clear 33 1004 13 10000 3.27 23 23:40 11.06.2022
3173 Clear 34 1004 13 10000 5.4 21 22:38 11.06.2022
3174 Clear 34 1004 13 10000 5.4 21 22:38 11.06.2022
3175 Clear 35 1005 12 10000 5.27 12 21:42 11.06.2022
3176 Clear 36 1005 11 10000 5.19 12 20:34 11.06.2022
3177 Clear 38 1004 10 10000 5.31 17 19:46 11.06.2022
3178 Clear 38 1004 9 10000 5.3 11 19:19 11.06.2022
3179 Clear 40 1004 9 10000 5.3 11 18:33 11.06.2022
3180 Clear 41 1003 8 10000 5.42 3 17:50 11.06.2022
3181 Clear 41 1003 7 10000 6.83 358 17:26 11.06.2022
3182 Clear 43 1003 7 10000 6.83 358 16:52 11.06.2022
3183 Clear 43 1003 6 10000 7.24 353 16:26 11.06.2022
3184 Clear 43 1003 6 10000 5.97 348 15:28 11.06.2022
3185 Clear 42 1003 6 10000 4.8 335 13:53 11.06.2022
3186 Clear 42 1004 6 10000 4.32 331 12:37 11.06.2022
3187 Clear 39 1006 7 10000 3.48 355 10:46 11.06.2022
3188 Clear 38 1007 8 10000 3.7 8 09:48 11.06.2022
3189 Clear 37 1007 8 10000 3.82 14 08:51 11.06.2022
3190 Clear 32 1008 11 10000 4.5 18 06:47 11.06.2022
3191 Clear 32 1008 13 10000 3.38 20 06:24 11.06.2022
3192 Clear 30 1006 17 10000 1.08 31 03:46 11.06.2022
3193 Clear 31 1006 17 10000 2.83 13 01:52 11.06.2022
3194 Clear 31 1006 16 10000 2.93 20 01:26 11.06.2022
3195 Clear 34 1006 14 10000 3.56 60 23:29 10.06.2022
3196 Clear 35 1006 14 10000 3.56 60 22:31 10.06.2022
3197 Clear 36 1006 11 10000 5.73 70 21:50 10.06.2022
3198 Clear 38 1006 8 10000 5.54 39 20:39 10.06.2022
3199 Clear 38 1005 7 10000 2.06 11 20:21 10.06.2022
3200 Clear 39 1004 7 10000 0.46 214 19:19 10.06.2022
3201 Clear 39 1004 7 10000 0.46 214 19:19 10.06.2022
3202 Clear 39 1004 7 10000 0.46 214 18:55 10.06.2022
3203 Clear 43 1003 6 10000 1.82 233 17:55 10.06.2022
3204 Clear 43 1003 6 10000 1.82 233 17:32 10.06.2022
3205 Clear 45 1003 5 10000 2.05 239 16:36 10.06.2022
3206 Clear 44 1003 4 10000 2.03 238 15:40 10.06.2022
3207 Clear 45 1003 4 10000 1.7 227 14:34 10.06.2022
3208 Clear 45 1004 4 10000 1.31 180 13:23 10.06.2022
3209 Clear 43 1004 4 10000 1.97 155 11:59 10.06.2022
3210 Clear 42 1005 5 10000 2.83 139 10:59 10.06.2022
3211 Clear 42 1005 5 10000 2.83 139 10:35 10.06.2022
3212 Clear 41 1006 5 10000 2.87 96 09:21 10.06.2022
3213 Clear 35 1007 6 10000 1.88 66 07:51 10.06.2022
3214 Clear 31 1007 7 10000 3.24 43 06:47 10.06.2022
3215 Clear 31 1007 8 10000 2.86 26 06:28 10.06.2022
3216 Clear 28 1006 11 10000 1.06 309 05:31 10.06.2022
3217 Clear 31 1005 10 10000 2.21 138 02:46 10.06.2022
3218 Clear 30 1004 9 10000 2.63 133 01:37 10.06.2022
3219 Clear 34 1004 9 10000 1.68 128 23:58 09.06.2022
3220 Clear 35 1004 8 10000 2.56 135 22:43 09.06.2022
3221 Clear 35 1005 7 10000 2.5 122 21:43 09.06.2022
3222 Clear 35 1005 7 10000 1.63 110 21:24 09.06.2022
3223 Clear 37 1005 7 10000 1.63 110 20:38 09.06.2022
3224 Clear 39 1004 6 10000 3.62 102 19:46 09.06.2022
3225 Clear 41 1003 6 10000 3.9 75 18:41 09.06.2022
3226 Clear 43 1002 5 10000 2.56 71 17:33 09.06.2022
3227 Clear 44 1002 4 10000 2.53 85 16:28 09.06.2022
3228 Clear 45 1002 4 10000 2.04 104 15:22 09.06.2022
3229 Clear 45 1002 4 10000 2.04 104 14:30 09.06.2022
3230 Clear 45 1002 5 10000 2.51 107 13:44 09.06.2022
3231 Clear 45 1003 5 10000 2.29 113 13:19 09.06.2022
3232 Clear 44 1004 5 10000 3.53 98 11:35 09.06.2022
3233 Clear 42 1004 5 10000 3.11 102 09:55 09.06.2022
3234 Clear 42 1004 5 10000 3.11 102 09:55 09.06.2022
3235 Clear 42 1004 5 10000 3.11 102 09:37 09.06.2022
3236 Clear 41 1005 6 10000 2.4 154 08:38 09.06.2022
3237 Clear 38 1005 7 10000 3 213 07:29 09.06.2022
3238 Clear 28 1006 12 10000 0.89 115 04:30 09.06.2022
3239 Clear 33 1004 9 10000 1.76 131 00:35 09.06.2022
3240 Clear 35 1004 8 10000 2.91 74 23:18 08.06.2022
3241 Clear 36 1004 8 10000 2.91 74 22:43 08.06.2022
3242 Clear 36 1004 7 10000 1.66 80 22:23 08.06.2022
3243 Clear 37 1004 7 10000 1.66 80 21:33 08.06.2022
3244 Clear 36 1004 7 10000 1.89 235 20:25 08.06.2022
3245 Clear 39 1004 7 10000 1.54 246 19:41 08.06.2022
3246 Clear 41 1004 6 10000 2.97 241 18:48 08.06.2022
3247 Clear 43 1003 6 10000 2.16 211 17:41 08.06.2022
3248 Clear 44 1002 5 10000 1.84 179 15:54 08.06.2022
3249 Clear 45 1002 5 10000 1.85 191 14:38 08.06.2022
3250 Clear 45 1003 5 10000 1.97 129 12:55 08.06.2022
3251 Clear 45 1003 5 10000 1.96 129 12:55 08.06.2022
3252 Clear 45 1003 5 10000 1.97 129 12:55 08.06.2022
3253 Clear 45 1003 5 10000 1.97 129 12:55 08.06.2022
3254 Clear 43 1003 5 10000 2.72 108 11:36 08.06.2022
3255 Clear 42 1004 5 10000 2.09 108 10:51 08.06.2022
3256 Clear 41 1005 5 10000 2.62 198 09:28 08.06.2022
3257 Clear 40 1005 5 10000 2.62 198 08:54 08.06.2022
3258 Clear 32 1005 7 10000 2.55 176 06:56 08.06.2022
3259 Clear 27 1005 9 10000 2.44 188 04:47 08.06.2022
3260 Clear 31 1003 8 10000 3.4 127 01:25 08.06.2022
3261 Clear 33 1003 7 10000 3.02 136 23:32 07.06.2022
3262 Clear 32 1003 7 10000 2.14 150 22:54 07.06.2022
3263 Clear 32 1003 7 10000 2.14 150 22:34 07.06.2022
3264 Clear 34 1003 7 10000 1.5 169 21:39 07.06.2022
3265 Clear 34 1003 7 10000 1.64 178 21:20 07.06.2022
3266 Clear 37 1003 7 10000 1.64 178 20:40 07.06.2022
3267 Clear 36 1003 6 10000 1.6 207 19:57 07.06.2022
3268 Clear 38 1002 6 10000 2.1 127 18:26 07.06.2022
3269 Clear 43 1002 6 10000 2.1 127 17:33 07.06.2022
3270 Clear 44 1001 5 10000 1.76 132 16:44 07.06.2022
3271 Clear 44 1001 4 10000 1.79 127 15:58 07.06.2022
3272 Clear 44 1001 4 10000 1.79 127 15:36 07.06.2022
3273 Clear 44 1001 4 10000 2.11 123 15:18 07.06.2022
3274 Clear 45 1001 4 10000 2.11 123 14:42 07.06.2022
3275 Clear 44 1001 4 10000 2.04 131 13:38 07.06.2022
3276 Clear 44 1002 4 10000 2.68 121 13:20 07.06.2022
3277 Clear 44 1002 5 10000 3.08 124 11:55 07.06.2022
3278 Clear 43 1003 5 10000 3.32 137 10:48 07.06.2022
3279 Clear 39 1004 6 10000 3.29 165 08:58 07.06.2022
3280 Clear 36 1004 6 10000 2.89 184 07:54 07.06.2022
3281 Clear 31 1004 7 10000 2.63 181 06:41 07.06.2022
3282 Clear 27 1004 9 10000 3.06 166 04:47 07.06.2022
3283 Clouds 31 1003 9 10000 2.68 150 01:27 07.06.2022
3284 Clouds 32 1003 8 10000 3.07 140 23:58 06.06.2022
3285 Clouds 32 1003 7 10000 3.63 111 22:54 06.06.2022
3286 Clouds 32 1003 7 10000 3.63 111 22:30 06.06.2022
3287 Clouds 36 1003 6 10000 2.67 197 20:54 06.06.2022
3288 Clouds 36 1002 5 10000 3.57 144 19:29 06.06.2022
3289 Clouds 38 1002 5 10000 3.57 144 18:53 06.06.2022
3290 Clouds 38 1002 5 10000 3.65 128 18:26 06.06.2022
3291 Clear 43 1001 5 10000 3.3 112 17:26 06.06.2022
3292 Clear 44 1001 4 10000 2.53 106 16:18 06.06.2022
3293 Clear 44 1001 4 10000 2.53 106 15:33 06.06.2022
3294 Clear 45 1001 4 10000 2.08 101 14:32 06.06.2022
3295 Clear 45 1002 4 10000 0.53 118 13:25 06.06.2022
3296 Clear 43 1002 4 10000 0.53 118 12:36 06.06.2022
3297 Clear 43 1003 4 10000 0.47 263 11:53 06.06.2022
3298 Clear 42 1004 4 10000 1.71 267 10:40 06.06.2022
3299 Clear 41 1004 5 10000 3.29 258 09:33 06.06.2022
3300 Clear 40 1005 5 10000 3.9 262 08:32 06.06.2022
3301 Clear 35 1005 6 10000 3.56 232 07:28 06.06.2022
3302 Clear 26 1005 9 10000 2.66 228 05:27 06.06.2022
3303 Clear 27 1004 10 10000 1.34 209 02:55 06.06.2022
3304 Clear 29 1004 8 10000 2.17 212 01:18 06.06.2022
3305 Clear 30 1004 8 10000 2.17 212 00:38 06.06.2022
3306 Clear 31 1005 8 10000 2.42 205 23:34 05.06.2022
3307 Clear 31 1005 8 10000 2.86 182 22:45 05.06.2022
3308 Clear 35 1005 7 10000 1.69 132 20:47 05.06.2022
3309 Clear 38 1004 7 10000 2.43 113 19:41 05.06.2022
3310 Clear 39 1004 6 10000 3.23 104 18:30 05.06.2022
3311 Clear 42 1004 6 10000 3.49 100 17:54 05.06.2022
3312 Clear 42 1003 5 10000 3.12 91 17:25 05.06.2022
3313 Clear 43 1003 5 10000 3.12 91 16:51 05.06.2022
3314 Clear 43 1003 5 10000 3.12 91 16:32 05.06.2022
3315 Clear 45 1003 4 10000 3.06 100 14:25 05.06.2022
3316 Clear 43 1004 4 10000 3.53 96 12:55 05.06.2022
3317 Clear 43 1004 4 10000 3.53 96 12:55 05.06.2022
3318 Clear 42 1004 4 10000 3.97 99 11:45 05.06.2022
3319 Clear 44 1005 5 10000 3.89 94 10:34 05.06.2022
3320 Clear 40 1006 5 10000 3.33 80 09:59 05.06.2022
3321 Clear 39 1007 6 10000 2.08 49 08:32 05.06.2022
3322 Clear 36 1007 6 10000 2.88 304 07:44 05.06.2022
3323 Clear 27 1007 10 10000 2.62 294 05:22 05.06.2022
3324 Clear 25 1007 11 10000 2.39 321 04:19 05.06.2022
3325 Clear 29 1006 12 10000 0.69 323 01:32 05.06.2022
3326 Clear 29 1006 12 10000 0.69 323 01:32 05.06.2022
3327 Clear 29 1006 11 10000 0.55 108 00:33 05.06.2022
3328 Clear 31 1007 10 10000 0.9 156 22:36 04.06.2022
3329 Clear 35 1007 9 10000 1.57 114 20:33 04.06.2022
3330 Clear 39 1006 8 10000 3.85 95 18:45 04.06.2022
3331 Clear 41 1005 6 10000 4.89 80 16:47 04.06.2022
3332 Clear 41 1005 5 10000 4.98 67 16:18 04.06.2022
3333 Clear 42 1005 5 10000 4.4 63 14:53 04.06.2022
3334 Clear 41 1006 5 10000 4.02 75 12:38 04.06.2022
3335 Clear 41 1007 5 10000 2.78 88 11:19 04.06.2022
3336 Clear 42 1007 5 10000 2.77 88 10:44 04.06.2022
3337 Clear 40 1008 6 10000 2.42 98 09:44 04.06.2022
3338 Clear 37 1009 7 10000 2.28 120 08:43 04.06.2022
3339 Clear 33 1009 7 10000 2.67 99 07:41 04.06.2022
3340 Clear 26 1008 10 10000 2.31 301 05:29 04.06.2022
3341 Clear 27 1007 11 10000 1.23 276 01:42 04.06.2022
3342 Clear 30 1008 10 10000 1.6 263 23:59 03.06.2022
3343 Clear 31 1008 10 10000 1.61 204 22:40 03.06.2022
3344 Clear 33 1009 9 10000 2.01 177 21:30 03.06.2022
3345 Clear 32 1009 9 10000 2.54 121 20:37 03.06.2022
3346 Clear 32 1009 9 10000 2.54 121 20:37 03.06.2022
3347 Clear 32 1009 8 10000 3.73 87 20:37 03.06.2022
3348 Clear 37 1008 7 10000 3.86 91 18:41 03.06.2022
3349 Clear 40 1006 6 10000 3.35 96 16:49 03.06.2022
3350 Clear 40 1006 5 10000 2.73 101 15:37 03.06.2022
3351 Clear 40 1007 6 10000 3.7 120 13:28 03.06.2022
3352 Clear 39 1008 6 10000 3.83 125 11:40 03.06.2022
3353 Clear 38 1009 8 10000 4.24 119 09:50 03.06.2022
3354 Clear 38 1009 8 10000 4.24 119 09:50 03.06.2022
3355 Clear 38 1009 10 10000 4.18 145 09:24 03.06.2022
3356 Clear 34 1010 13 10000 2.44 176 07:27 03.06.2022
3357 Clear 30 1010 13 10000 2.44 176 06:39 03.06.2022
3358 Clear 30 1010 15 10000 2.14 158 06:20 03.06.2022
3359 Clear 30 1008 14 10000 4.01 131 00:41 03.06.2022
3360 Clear 30 1008 11 10000 3.87 129 22:48 02.06.2022
3361 Clear 33 1008 10 10000 3.58 119 21:57 02.06.2022
3362 Clear 34 1008 10 10000 4.96 107 20:22 02.06.2022
3363 Clear 36 1008 10 10000 4.96 107 19:50 02.06.2022
3364 Clear 36 1008 9 10000 4.8 98 19:32 02.06.2022
3365 Clear 39 1006 8 10000 5.54 99 17:58 02.06.2022
3366 Clear 40 1005 6 10000 6.38 96 16:28 02.06.2022
3367 Clear 41 1005 6 10000 6.15 98 14:34 02.06.2022
3368 Clear 41 1005 5 10000 6.41 103 13:30 02.06.2022
3369 Clear 40 1005 5 10000 6.03 105 12:40 02.06.2022
3370 Clear 38 1007 6 10000 5.12 119 10:20 02.06.2022
3371 Clear 38 1008 7 10000 4.11 116 09:28 02.06.2022
3372 Clear 35 1009 8 10000 3.3 127 08:28 02.06.2022
3373 Clear 33 1008 7 10000 5.35 116 07:34 02.06.2022
3374 Clear 25 1008 11 10000 3.55 107 05:29 02.06.2022
3375 Clear 27 1007 10 10000 2.89 107 03:45 02.06.2022
3376 Clear 28 1007 10 10000 0.84 136 23:52 01.06.2022
3377 Clear 30 1007 9 10000 1.44 155 22:54 01.06.2022
3378 Clear 32 1007 9 10000 2.21 125 21:39 01.06.2022
3379 Clear 32 1007 8 10000 3.37 108 21:20 01.06.2022
3380 Clear 33 1007 8 10000 3.37 108 20:37 01.06.2022
3381 Clear 36 1006 8 10000 4.13 56 19:31 01.06.2022
3382 Clear 39 1005 7 10000 5.47 24 17:46 01.06.2022
3383 Clear 40 1004 6 10000 6.63 11 16:41 01.06.2022
3384 Clear 40 1003 5 10000 6.49 12 15:18 01.06.2022
3385 Clear 40 1004 5 10000 6.51 8 13:57 01.06.2022
3386 Clear 40 1005 5 10000 7.18 20 12:29 01.06.2022
3387 Clear 38 1006 6 10000 7.3 29 10:25 01.06.2022
3388 Clear 38 1007 6 10000 7.19 34 09:24 01.06.2022
3389 Clear 34 1008 8 10000 4.77 18 07:25 01.06.2022
3390 Clear 33 1008 8 10000 4.77 18 06:40 01.06.2022
3391 Clear 29 1005 11 10000 3.13 359 01:29 01.06.2022
3392 Clear 31 1005 11 10000 3.41 14 23:41 31.05.2022
3393 Clear 33 1006 10 10000 3.88 18 22:37 31.05.2022
3394 Clear 33 1006 10 10000 4.28 20 21:46 31.05.2022
3395 Clear 35 1006 10 10000 4.81 10 20:46 31.05.2022
3396 Clear 35 1006 9 10000 4.62 355 20:23 31.05.2022
3397 Clear 37 1005 8 10000 4.58 9 18:53 31.05.2022
3398 Clear 39 1004 8 10000 4.71 16 17:51 31.05.2022
3399 Clear 39 1004 7 10000 4.53 11 17:18 31.05.2022
3400 Clear 41 1004 6 10000 3.87 357 15:41 31.05.2022
3401 Clear 41 1004 6 10000 3.87 357 15:41 31.05.2022
3402 Clear 42 1004 6 10000 3.55 345 14:18 31.05.2022
3403 Clear 39 1005 7 10000 2.4 24 12:21 31.05.2022
3404 Clear 38 1006 7 10000 3.16 45 10:55 31.05.2022
3405 Clear 37 1007 7 10000 4.07 58 09:31 31.05.2022
3406 Clear 33 1009 9 10000 3.1 55 07:28 31.05.2022
3407 Clear 28 1008 12 10000 2 31 05:23 31.05.2022
3408 Clear 26 1007 12 10000 1.53 54 01:41 31.05.2022
3409 Clear 30 1007 11 10000 3.28 25 23:29 30.05.2022
3410 Clear 31 1007 11 10000 3.28 25 22:57 30.05.2022
3411 Clear 31 1007 10 10000 3.46 31 22:21 30.05.2022
3412 Clear 33 1007 10 10000 3.46 31 21:34 30.05.2022
3413 Clear 34 1007 10 10000 4.13 43 20:20 30.05.2022
3414 Clear 37 1005 9 10000 3.95 57 18:41 30.05.2022
3415 Clear 38 1005 9 10000 2.92 47 17:38 30.05.2022
3416 Clear 40 1004 8 10000 3.08 38 16:44 30.05.2022
3417 Clear 40 1005 7 10000 1.39 61 14:51 30.05.2022
3418 Clear 40 1007 7 10000 3.88 149 12:29 30.05.2022
3419 Clear 38 1007 7 10000 4.26 144 10:46 30.05.2022
3420 Clear 37 1008 8 10000 3.69 128 09:39 30.05.2022
3421 Clear 32 1009 11 10000 3.32 124 07:23 30.05.2022
3422 Clear 26 1009 12 10000 3.03 128 05:49 30.05.2022
3423 Clear 28 1008 14 10000 3.35 140 02:24 30.05.2022
3424 Clear 31 1008 12 10000 2.52 92 23:21 29.05.2022
3425 Clear 32 1008 12 10000 2.52 92 22:38 29.05.2022
3426 Clear 34 1008 10 10000 4.07 81 20:57 29.05.2022
3427 Clear 36 1007 10 10000 4.83 70 19:34 29.05.2022
3428 Clear 37 1006 9 10000 4.87 73 18:59 29.05.2022
3429 Clear 38 1005 8 10000 3.61 102 17:31 29.05.2022
3430 Clear 40 1005 7 10000 3.34 95 15:48 29.05.2022
3431 Clear 40 1005 7 10000 3.51 85 15:23 29.05.2022
3432 Clear 40 1006 7 10000 2.44 102 13:59 29.05.2022
3433 Clear 38 1008 8 10000 3.24 147 11:42 29.05.2022
3434 Clear 37 1008 8 10000 3.64 146 10:39 29.05.2022
3435 Clear 35 1010 9 10000 4.11 114 09:31 29.05.2022
3436 Clear 30 1010 13 10000 3.92 112 06:24 29.05.2022
3437 Clear 25 1009 15 10000 3.24 116 04:45 29.05.2022
3438 Clear 27 1009 16 10000 3.15 102 03:53 29.05.2022
3439 Clouds 31 1007 13 10000 4.67 92 23:50 28.05.2022
3440 Clouds 31 1007 12 10000 5.89 96 23:26 28.05.2022
3441 Clouds 32 1007 12 10000 5.88 96 22:40 28.05.2022
3442 Clouds 33 1007 11 10000 7.62 80 21:38 28.05.2022
3443 Clouds 36 1006 10 10000 5.93 78 19:51 28.05.2022
3444 Clouds 37 1004 9 10000 3.64 149 18:58 28.05.2022
3445 Clouds 38 1003 8 10000 4.29 157 17:38 28.05.2022
3446 Clouds 39 1003 7 10000 4.94 166 16:50 28.05.2022
3447 Clear 40 1002 6 10000 5.52 179 15:43 28.05.2022
3448 Clear 39 1003 6 10000 4.56 165 14:28 28.05.2022
3449 Clear 39 1004 7 10000 4.99 140 12:57 28.05.2022
3450 Clear 39 1004 7 10000 4.99 140 12:35 28.05.2022
3451 Clear 37 1006 8 10000 5.51 130 11:22 28.05.2022
3452 Clear 35 1007 9 10000 5.83 152 09:59 28.05.2022
3453 Clear 35 1008 11 10000 6.49 151 09:22 28.05.2022
3454 Clear 32 1009 15 10000 3.8 137 07:23 28.05.2022
3455 Clear 27 1009 17 10000 3.22 127 05:48 28.05.2022
3456 Clear 28 1008 19 10000 2.83 87 02:52 28.05.2022
3457 Clear 30 1007 19 10000 3.37 93 00:33 28.05.2022
3458 Clear 30 1007 16 10000 5.02 86 23:20 27.05.2022
3459 Clear 33 1007 14 10000 5.58 88 21:46 27.05.2022
3460 Clear 34 1007 13 10000 4.69 115 20:56 27.05.2022
3461 Clear 34 1006 13 10000 4.72 137 20:25 27.05.2022
3462 Clear 35 1005 11 10000 5.43 154 19:48 27.05.2022
3463 Clear 35 1005 11 10000 6.52 145 19:29 27.05.2022
3464 Clear 38 1005 10 10000 7.49 137 17:58 27.05.2022
3465 Clear 39 1004 9 10000 7.29 130 16:39 27.05.2022
3466 Clear 39 1004 8 10000 6.12 127 15:33 27.05.2022
3467 Clear 39 1005 8 10000 4.72 126 14:26 27.05.2022
3468 Clear 38 1006 8 10000 5 125 13:18 27.05.2022
3469 Clear 36 1007 8 10000 5.04 145 11:34 27.05.2022
3470 Clear 36 1009 9 10000 5.56 163 10:56 27.05.2022
3471 Clear 36 1009 9 10000 5.56 163 10:31 27.05.2022
3472 Clear 34 1009 10 10000 5.9 157 09:35 27.05.2022
3473 Clear 31 1011 14 10000 5.26 138 07:52 27.05.2022
3474 Clear 26 1011 18 10000 2.35 139 05:44 27.05.2022
3475 Clouds 28 1009 18 10000 4.97 114 02:26 27.05.2022
3476 Clouds 29 1008 16 10000 4.78 116 00:29 27.05.2022
3477 Clouds 32 1008 15 10000 5.03 112 22:39 26.05.2022
3478 Clouds 34 1009 14 10000 4.74 118 21:39 26.05.2022
3479 Clouds 34 1009 13 10000 4.73 154 20:53 26.05.2022
3480 Clear 35 1006 10 10000 7.03 149 19:19 26.05.2022
3481 Clear 36 1006 10 10000 7.11 139 18:18 26.05.2022
3482 Clear 38 1005 8 10000 6.64 133 16:42 26.05.2022
3483 Clear 39 1006 7 10000 5.06 144 15:45 26.05.2022
3484 Clear 39 1006 7 10000 3.84 154 14:28 26.05.2022
3485 Clear 38 1007 8 10000 5.14 131 12:37 26.05.2022
3486 Clear 37 1010 10 10000 4.98 152 11:23 26.05.2022
3487 Clear 37 1010 10 10000 4.98 152 11:23 26.05.2022
3488 Clear 34 1011 11 10000 5.28 161 09:44 26.05.2022
3489 Clear 34 1011 13 10000 5.29 150 09:26 26.05.2022
3490 Clouds 33 1012 15 10000 4.55 140 08:30 26.05.2022
3491 Clear 27 1012 21 10000 3.5 117 04:41 26.05.2022
3492 Clear 29 1010 19 10000 3.6 135 00:38 26.05.2022
3493 Clear 30 1010 18 10000 2.85 125 23:40 25.05.2022
3494 Clear 31 1011 17 10000 4.49 105 21:59 25.05.2022
3495 Clear 31 1011 17 10000 4.49 105 21:32 25.05.2022
3496 Clear 32 1011 16 10000 5.89 104 20:35 25.05.2022
3497 Clear 34 1009 12 10000 5.86 98 19:24 25.05.2022
3498 Clear 36 1009 11 10000 4.36 97 17:43 25.05.2022
3499 Clear 37 1008 9 10000 3.48 112 16:38 25.05.2022
3500 Clear 37 1008 8 10000 3.17 115 15:54 25.05.2022
3501 Clear 37 1008 8 10000 3.16 111 14:51 25.05.2022
3502 Clear 37 1008 8 10000 3.07 105 14:33 25.05.2022
3503 Clear 37 1008 8 10000 3.12 99 13:45 25.05.2022
3504 Clear 36 1009 9 10000 3.14 91 12:38 25.05.2022
3505 Clear 33 1010 10 10000 4.57 76 10:43 25.05.2022
3506 Clear 33 1011 10 10000 4.77 71 10:18 25.05.2022
3507 Clear 33 1011 11 10000 4.81 71 08:37 25.05.2022
3508 Clear 30 1012 14 10000 4.64 62 07:23 25.05.2022
3509 Clear 24 1010 19 10000 3.36 46 04:22 25.05.2022
3510 Clear 28 1010 17 10000 4.02 44 00:19 25.05.2022
3511 Clear 27 1010 17 10000 4.02 44 23:43 24.05.2022
3512 Clear 29 1010 16 10000 4.19 41 22:32 24.05.2022
3513 Clear 30 1010 15 10000 4.32 36 21:40 24.05.2022
3514 Clear 30 1010 14 10000 4.15 41 21:21 24.05.2022
3515 Clear 32 1010 13 10000 4.12 37 19:48 24.05.2022
3516 Clear 33 1008 11 10000 4.41 60 18:56 24.05.2022
3517 Clear 35 1006 9 10000 4.55 54 16:53 24.05.2022
3518 Clear 35 1006 8 10000 3.92 50 16:23 24.05.2022
3519 Clear 36 1006 8 10000 3.32 50 14:58 24.05.2022
3520 Clear 36 1006 8 10000 3.1 50 14:21 24.05.2022
3521 Clear 34 1006 8 10000 3.94 46 12:50 24.05.2022
3522 Clear 34 1006 8 10000 3.94 46 12:50 24.05.2022
3523 Clear 33 1007 8 10000 4.14 41 11:33 24.05.2022
3524 Clear 31 1008 9 10000 5.55 27 09:45 24.05.2022
3525 Clear 30 1009 10 10000 6.01 26 08:50 24.05.2022
3526 Clear 28 1009 12 10000 7.64 27 06:57 24.05.2022
3527 Clear 27 1008 15 10000 5.66 5 04:30 24.05.2022
3528 Clear 29 1006 14 10000 5.5 6 02:37 24.05.2022
3529 Clear 29 1005 15 10000 5.79 6 01:42 24.05.2022
3530 Clear 31 1005 14 10000 7.07 16 23:33 23.05.2022
3531 Clear 33 1004 14 10000 7.58 19 21:57 23.05.2022
3532 Clear 33 1004 14 10000 7.58 19 21:39 23.05.2022
3533 Clear 35 1004 14 10000 7.84 11 20:41 23.05.2022
3534 Clear 36 1003 10 10000 6.5 355 19:33 23.05.2022
3535 Clear 38 1002 8 10000 5.54 326 18:59 23.05.2022
3536 Clear 38 1002 8 10000 5.54 326 18:31 23.05.2022
3537 Clear 40 1000 5 10000 6.1 289 17:24 23.05.2022
3538 Clear 44 999 4 10000 5.63 296 15:37 23.05.2022
3539 Clear 43 1000 4 10000 5.23 283 13:32 23.05.2022
3540 Clear 42 1001 5 10000 5.93 243 11:34 23.05.2022
3541 Clear 41 1002 5 10000 7.59 238 10:42 23.05.2022
3542 Clear 40 1004 6 10000 7.31 214 09:39 23.05.2022
3543 Clear 38 1004 6 10000 8.38 218 08:38 23.05.2022
3544 Clear 30 1005 6 10000 6.07 220 06:47 23.05.2022
3545 Clear 30 1004 8 10000 4.03 192 06:22 23.05.2022
3546 Clear 29 1004 9 10000 3.09 169 02:35 23.05.2022
3547 Clear 31 1004 9 10000 2.86 182 01:42 23.05.2022
3548 Clear 30 1004 9 10000 2.84 174 00:38 23.05.2022
3549 Clear 32 1005 9 10000 2.67 101 22:42 22.05.2022
3550 Clear 34 1005 9 10000 3.38 77 21:55 22.05.2022
3551 Clear 34 1005 9 10000 3.38 77 21:36 22.05.2022
3552 Clear 35 1005 9 10000 4.09 68 20:32 22.05.2022
3553 Clear 37 1005 8 10000 4.99 61 19:57 22.05.2022
3554 Clear 38 1005 7 10000 5.14 45 18:57 22.05.2022
3555 Clear 38 1004 7 10000 4.99 45 18:28 22.05.2022
3556 Clear 40 1004 7 10000 4.99 45 17:39 22.05.2022
3557 Clear 41 1004 6 10000 4.63 37 16:50 22.05.2022
3558 Clear 42 1004 5 10000 3.68 28 14:53 22.05.2022
3559 Clear 43 1004 6 10000 2.42 10 13:56 22.05.2022
3560 Clear 41 1005 6 10000 1.88 360 12:53 22.05.2022
3561 Clear 40 1006 7 10000 0.65 348 11:52 22.05.2022
3562 Clear 37 1008 8 10000 0.91 62 10:27 22.05.2022
3563 Clear 35 1009 9 10000 1.44 57 09:19 22.05.2022
3564 Clear 32 1009 11 10000 3.2 33 07:22 22.05.2022
3565 Clear 30 1009 13 10000 3.17 19 06:27 22.05.2022
3566 Clear 28 1009 16 10000 1.33 8 03:20 22.05.2022
3567 Clear 31 1009 16 10000 2.28 1 00:44 22.05.2022
3568 Clear 31 1009 15 10000 3.03 39 23:56 21.05.2022
3569 Clear 31 1009 14 10000 4.32 44 23:22 21.05.2022
3570 Clear 34 1009 12 10000 5.83 51 21:55 21.05.2022
3571 Clear 34 1009 11 10000 5.43 45 21:26 21.05.2022
3572 Clear 36 1009 9 10000 4.98 48 20:27 21.05.2022
3573 Clear 37 1009 9 10000 4.98 48 19:43 21.05.2022
3574 Clear 40 1007 8 10000 5.26 48 18:31 21.05.2022
3575 Clear 44 1005 6 10000 2.85 35 16:57 21.05.2022
3576 Clear 44 1005 5 10000 2.31 314 14:38 21.05.2022
3577 Clear 43 1005 5 10000 2.22 322 13:54 21.05.2022
3578 Clear 43 1006 5 10000 2.03 317 13:18 21.05.2022
3579 Clear 44 1006 5 10000 2.03 317 12:38 21.05.2022
3580 Clear 41 1007 5 10000 2.07 263 10:53 21.05.2022
3581 Clear 40 1008 6 10000 2.44 240 09:53 21.05.2022
3582 Clear 38 1008 6 10000 2.58 225 08:58 21.05.2022
3583 Clear 38 1008 6 10000 2.58 225 08:35 21.05.2022
3584 Clear 31 1009 12 10000 2.73 183 05:29 21.05.2022
3585 Clear 32 1007 12 10000 2.68 135 01:24 21.05.2022
3586 Clear 33 1008 11 10000 1.52 54 23:29 20.05.2022
3587 Clear 33 1008 10 10000 2.59 234 22:26 20.05.2022
3588 Clear 36 1008 10 10000 2.59 234 21:55 20.05.2022
3589 Clear 36 1008 10 10000 2.75 195 20:58 20.05.2022
3590 Clear 36 1008 10 10000 2.75 195 20:58 20.05.2022
3591 Clear 36 1007 9 10000 2.76 167 20:29 20.05.2022
3592 Clear 37 1006 8 10000 2.94 132 19:30 20.05.2022
3593 Clear 38 1006 8 10000 2.94 132 18:48 20.05.2022
3594 Clear 41 1006 7 10000 3.01 120 17:47 20.05.2022
3595 Clear 42 1006 6 10000 3.06 76 16:21 20.05.2022
3596 Clear 42 1006 6 10000 3.06 76 15:53 20.05.2022
3597 Clear 43 1006 6 10000 2.78 66 14:31 20.05.2022
3598 Clear 43 1006 6 10000 2.34 77 13:56 20.05.2022
3599 Clear 41 1008 7 10000 2.22 129 11:49 20.05.2022
3600 Clear 39 1009 9 10000 2.74 145 10:24 20.05.2022
3601 Clear 35 1010 10 10000 3.02 140 08:58 20.05.2022
3602 Clear 33 1010 11 10000 3.33 135 07:40 20.05.2022
3603 Clear 30 1011 12 10000 3.02 137 06:38 20.05.2022
3604 Clear 26 1010 16 10000 2.39 127 05:28 20.05.2022
3605 Clear 30 1009 15 10000 3.35 87 00:54 20.05.2022
3606 Clear 32 1009 12 10000 3.89 92 23:25 19.05.2022
3607 Clear 33 1009 10 10000 3.49 85 22:26 19.05.2022
3608 Clear 34 1009 10 10000 3.48 85 21:49 19.05.2022
3609 Clear 34 1009 10 10000 0.98 78 21:23 19.05.2022
3610 Clear 35 1009 10 10000 0.98 78 20:40 19.05.2022
3611 Clear 37 1008 9 10000 2.07 166 19:53 19.05.2022
3612 Clear 38 1007 8 10000 3.19 116 18:45 19.05.2022
3613 Clear 40 1007 7 10000 2.98 84 17:31 19.05.2022
3614 Clear 43 1007 6 10000 3.29 28 15:33 19.05.2022
3615 Clear 42 1007 6 10000 2.88 23 14:29 19.05.2022
3616 Clear 42 1007 6 10000 2.73 29 13:50 19.05.2022
3617 Clear 42 1009 7 10000 1.87 29 11:46 19.05.2022
3618 Clear 38 1010 8 10000 0.81 46 09:46 19.05.2022
3619 Clear 36 1011 10 10000 0.52 260 08:27 19.05.2022
3620 Clear 28 1011 11 10000 1.68 171 06:31 19.05.2022
3621 Clear 27 1009 15 10000 3.25 163 02:57 19.05.2022
3622 Clear 30 1009 15 10000 4.54 157 00:47 19.05.2022
3623 Clear 30 1009 13 10000 3.82 107 22:53 18.05.2022
3624 Clear 30 1009 13 10000 3.82 107 22:35 18.05.2022
3625 Clear 32 1010 12 10000 3.86 102 21:31 18.05.2022
3626 Clear 33 1010 11 10000 3.54 89 20:54 18.05.2022
3627 Clear 33 1010 11 10000 3.59 72 20:19 18.05.2022
3628 Clear 36 1008 10 10000 4.18 73 18:43 18.05.2022
3629 Clear 38 1007 9 10000 3.95 68 17:41 18.05.2022
3630 Clear 38 1007 7 10000 2.57 52 17:23 18.05.2022
3631 Clear 39 1007 7 10000 2.2 32 16:35 18.05.2022
3632 Clear 39 1007 7 10000 2.19 32 15:42 18.05.2022
3633 Clear 40 1007 7 10000 1.92 29 14:54 18.05.2022
3634 Clear 40 1007 7 10000 1.35 43 13:47 18.05.2022
3635 Clear 38 1008 7 10000 1.21 58 12:51 18.05.2022
3636 Clear 37 1008 8 10000 0.94 92 11:37 18.05.2022
3637 Clear 37 1009 9 10000 1.15 127 11:19 18.05.2022
3638 Clear 33 1010 9 10000 1.6 121 09:57 18.05.2022
3639 Clear 30 1011 12 10000 1.82 110 07:55 18.05.2022
3640 Clear 27 1011 13 10000 1.73 96 06:49 18.05.2022
3641 Clear 24 1010 17 10000 1.93 25 02:23 18.05.2022
3642 Clear 27 1010 16 10000 2.59 24 00:26 18.05.2022
3643 Clear 28 1010 16 10000 2.84 31 22:47 17.05.2022
3644 Clear 30 1011 15 10000 3.81 34 21:20 17.05.2022
3645 Clear 32 1010 14 10000 4.26 29 20:29 17.05.2022
3646 Clear 33 1009 12 10000 4.96 36 19:28 17.05.2022
3647 Clear 36 1008 11 10000 5.32 33 17:52 17.05.2022
3648 Clear 36 1007 10 10000 6.48 29 17:18 17.05.2022
3649 Clear 37 1007 10 10000 6.48 29 16:34 17.05.2022
3650 Clear 37 1007 10 10000 6.54 27 15:32 17.05.2022
3651 Clear 38 1007 9 10000 5.85 26 14:31 17.05.2022
3652 Clear 37 1008 9 10000 3.58 34 13:38 17.05.2022
3653 Clear 36 1009 9 10000 3 44 12:23 17.05.2022
3654 Clear 31 1010 10 10000 3.26 71 09:53 17.05.2022
3655 Clear 30 1011 10 10000 3.76 72 08:43 17.05.2022
3656 Clear 28 1012 14 10000 4.92 31 06:52 17.05.2022
3657 Clear 27 1010 16 10000 4.21 345 04:24 17.05.2022
3658 Clear 29 1009 8 10000 3.56 323 00:46 17.05.2022
3659 Clear 29 1010 7 10000 2.31 169 22:44 16.05.2022
3660 Clear 29 1010 7 10000 2.04 129 22:18 16.05.2022
3661 Clear 32 1010 7 10000 2.12 98 20:49 16.05.2022
3662 Clear 34 1010 6 10000 2.84 98 19:57 16.05.2022
3663 Clear 36 1008 6 10000 4.15 78 18:21 16.05.2022
3664 Clear 39 1007 5 10000 6.82 48 16:28 16.05.2022
3665 Clear 40 1007 4 10000 6.78 46 14:42 16.05.2022
3666 Clear 40 1008 5 10000 6.76 48 13:25 16.05.2022
3667 Clear 38 1008 5 10000 6.78 50 11:33 16.05.2022
3668 Clear 35 1010 6 10000 6.5 47 09:58 16.05.2022
3669 Clear 29 1012 8 10000 3.69 358 07:21 16.05.2022
3670 Clear 20 1012 10 10000 2.9 335 05:23 16.05.2022
3671 Clear 26 1011 9 10000 2.95 333 23:56 15.05.2022
3672 Clear 26 1011 8 10000 2.7 349 22:34 15.05.2022
3673 Clear 28 1012 8 10000 2.73 0 21:48 15.05.2022
3674 Clear 28 1012 7 10000 3.04 8 21:19 15.05.2022
3675 Clear 31 1011 6 10000 3.66 16 19:56 15.05.2022
3676 Clear 36 1010 5 10000 4.44 16 17:52 15.05.2022
3677 Clear 36 1009 4 10000 5.05 19 16:35 15.05.2022
3678 Clear 37 1009 4 10000 6.79 14 14:18 15.05.2022
3679 Clear 36 1010 4 10000 7.03 14 13:27 15.05.2022
3680 Clear 35 1010 4 10000 7.23 10 11:55 15.05.2022
3681 Clear 33 1011 5 10000 7.47 12 10:35 15.05.2022
3682 Clear 30 1012 7 10000 8.42 7 08:52 15.05.2022
3683 Clear 24 1013 11 10000 8.46 354 06:59 15.05.2022
3684 Clear 24 1013 11 10000 8.46 354 06:38 15.05.2022
3685 Clear 24 1012 12 10000 6.72 334 01:43 15.05.2022
3686 Clear 25 1012 11 10000 6.3 335 23:52 14.05.2022
3687 Clear 25 1012 10 10000 6.21 332 23:33 14.05.2022
3688 Clear 27 1012 9 10000 6.04 332 21:43 14.05.2022
3689 Clear 27 1012 8 10000 5.86 338 21:18 14.05.2022
3690 Clear 30 1012 7 10000 5.89 345 19:40 14.05.2022
3691 Clear 30 1011 6 10000 5.79 351 19:20 14.05.2022
3692 Clear 31 1011 6 10000 5.79 351 18:47 14.05.2022
3693 Clear 32 1010 5 10000 9.37 350 17:28 14.05.2022
3694 Clear 34 1009 7 10000 11.47 343 15:34 14.05.2022
3695 Clear 35 1009 7 10000 11.47 343 14:34 14.05.2022
3696 Clear 35 1010 8 10000 11.35 340 12:49 14.05.2022
3697 Clear 33 1011 9 10000 11.45 338 11:37 14.05.2022
3698 Clear 32 1012 11 10000 11.16 335 10:22 14.05.2022
3699 Clear 31 1012 11 10000 11.16 335 09:54 14.05.2022
3700 Clear 29 1013 12 10000 10.45 333 08:49 14.05.2022
3701 Clear 24 1014 15 10000 7.2 334 06:52 14.05.2022
3702 Clear 23 1013 17 10000 5.22 344 03:27 14.05.2022
3703 Clear 26 1012 17 10000 4.93 344 23:45 13.05.2022
3704 Clear 26 1013 16 10000 4.42 345 23:18 13.05.2022
3705 Clear 28 1013 16 10000 4.42 345 22:43 13.05.2022
3706 Clear 28 1013 15 10000 4.56 348 22:18 13.05.2022
3707 Clear 30 1013 14 10000 5.02 350 20:49 13.05.2022
3708 Clear 30 1013 13 10000 5.9 356 20:27 13.05.2022
3709 Clear 31 1013 13 10000 5.9 356 19:34 13.05.2022
3710 Clear 34 1011 11 10000 7.29 357 17:53 13.05.2022
3711 Clear 34 1010 9 10000 7.99 353 17:29 13.05.2022
3712 Clear 36 1010 8 10000 8.92 347 16:21 13.05.2022
3713 Clear 37 1010 8 10000 8.92 347 15:39 13.05.2022
3714 Clear 37 1010 8 10000 9.1 344 13:54 13.05.2022
3715 Clear 37 1011 7 10000 8.67 341 12:32 13.05.2022
3716 Clear 37 1011 7 10000 8.67 341 12:32 13.05.2022
3717 Clear 35 1013 8 10000 7.51 342 11:23 13.05.2022
3718 Clear 32 1014 8 10000 7.17 350 09:35 13.05.2022
3719 Clear 31 1014 9 10000 7.18 357 08:49 13.05.2022
3720 Clear 28 1015 9 10000 7.71 2 07:48 13.05.2022
3721 Clear 26 1015 10 10000 7.26 4 06:33 13.05.2022
3722 Clear 26 1015 10 10000 7.26 4 06:33 13.05.2022
3723 Clear 26 1015 10 10000 7.26 4 06:33 13.05.2022
3724 Clear 26 1014 14 10000 4.38 2 03:34 13.05.2022
3725 Clear 28 1012 14 10000 4.6 355 00:39 13.05.2022
3726 Clear 29 1012 13 10000 3.78 354 22:45 12.05.2022
3727 Clear 30 1013 12 10000 3.83 6 21:56 12.05.2022
3728 Clear 32 1012 11 10000 4.95 36 20:29 12.05.2022
3729 Clear 34 1011 10 10000 4.87 28 18:59 12.05.2022
3730 Clear 36 1010 8 10000 4.79 18 17:24 12.05.2022
3731 Clear 38 1010 7 10000 4.7 13 16:18 12.05.2022
3732 Clear 37 1010 7 10000 4.38 15 14:41 12.05.2022
3733 Clear 37 1010 7 10000 3.58 23 13:46 12.05.2022
3734 Clear 35 1012 9 10000 3.06 76 10:52 12.05.2022
3735 Clear 34 1012 9 10000 3.45 81 09:30 12.05.2022
3736 Clear 32 1013 10 10000 3.8 92 08:51 12.05.2022
3737 Clear 30 1014 10 10000 4.44 81 07:40 12.05.2022
3738 Clear 27 1014 15 10000 3.44 64 06:19 12.05.2022
3739 Clear 26 1012 19 10000 2.8 44 02:58 12.05.2022
3740 Clear 28 1012 17 10000 5.91 38 00:36 12.05.2022
3741 Clear 32 1011 14 10000 7.8 32 22:36 11.05.2022
3742 Clear 33 1010 13 10000 8.77 36 21:50 11.05.2022
3743 Clear 33 1010 13 10000 9.04 19 21:24 11.05.2022
3744 Clear 37 1008 11 10000 3.71 19 18:49 11.05.2022
3745 Clear 40 1007 8 10000 3.04 338 16:55 11.05.2022
3746 Clear 41 1006 8 10000 1.05 317 15:38 11.05.2022
3747 Clear 40 1006 8 10000 1.07 187 14:39 11.05.2022
3748 Clear 40 1007 9 10000 2.02 233 14:18 11.05.2022
3749 Clear 37 1008 10 10000 4.93 243 11:54 11.05.2022
3750 Clear 37 1009 11 10000 4.02 215 11:19 11.05.2022
3751 Clear 33 1011 12 10000 5.5 174 08:40 11.05.2022
3752 Clear 25 1012 15 10000 4.85 160 05:31 11.05.2022
3753 Clear 28 1010 14 10000 2.92 116 00:45 11.05.2022
3754 Clear 30 1010 14 10000 4.43 115 22:32 10.05.2022
3755 Clear 31 1010 14 10000 4.43 115 21:57 10.05.2022
3756 Clear 32 1010 14 10000 3.88 104 20:58 10.05.2022
3757 Clear 32 1009 13 10000 3.96 113 19:47 10.05.2022
3758 Clear 35 1009 12 10000 4.39 92 17:59 10.05.2022
3759 Clear 35 1009 12 10000 4.39 92 17:34 10.05.2022
3760 Clear 36 1009 10 10000 2.49 90 15:41 10.05.2022
3761 Clear 35 1010 10 10000 2.87 166 12:47 10.05.2022
3762 Clear 34 1011 10 10000 3.57 164 11:51 10.05.2022
3763 Clear 34 1011 10 10000 3.96 150 11:21 10.05.2022
3764 Clear 33 1011 10 10000 3.96 150 10:54 10.05.2022
3765 Clear 31 1013 10 10000 3.76 129 09:26 10.05.2022
3766 Clear 29 1013 11 10000 3.38 83 07:26 10.05.2022
3767 Clear 22 1014 17 10000 3.21 51 04:34 10.05.2022
3768 Clear 24 1013 17 10000 3.23 49 01:34 10.05.2022
3769 Clear 27 1012 15 10000 4.14 51 23:26 09.05.2022
3770 Clear 28 1012 15 10000 4.13 56 21:58 09.05.2022
3771 Clear 28 1012 14 10000 3.79 71 21:21 09.05.2022
3772 Clear 31 1011 13 10000 4.89 68 19:37 09.05.2022
3773 Clear 33 1010 12 10000 2.8 53 17:56 09.05.2022
3774 Clear 34 1010 11 10000 2.28 29 16:49 09.05.2022
3775 Clear 35 1010 10 10000 1.57 4 15:53 09.05.2022
3776 Clear 35 1010 10 10000 1.57 4 15:31 09.05.2022
3777 Clear 34 1010 10 10000 1.38 12 14:32 09.05.2022
3778 Clear 34 1010 10 10000 1.43 41 13:50 09.05.2022
3779 Clear 33 1011 10 10000 1.77 46 12:30 09.05.2022
3780 Clear 32 1011 10 10000 1.95 51 11:43 09.05.2022
3781 Clear 30 1012 11 10000 2.33 64 10:44 09.05.2022
3782 Clear 29 1013 12 10000 2.54 63 09:38 09.05.2022
3783 Clear 25 1014 15 10000 2.95 85 07:55 09.05.2022
3784 Clear 20 1013 25 10000 2.05 77 04:33 09.05.2022
3785 Clear 20 1013 25 10000 2.05 77 04:33 09.05.2022
3786 Clear 20 1013 25 10000 2.05 77 04:33 09.05.2022
3787 Clear 25 1012 23 10000 4.2 55 00:21 09.05.2022
3788 Clear 26 1012 22 10000 4.94 65 22:57 08.05.2022
3789 Clear 26 1012 17 10000 6.27 64 22:22 08.05.2022
3790 Clear 29 1012 14 10000 6.74 53 20:37 08.05.2022
3791 Clear 30 1011 13 10000 7.04 54 19:53 08.05.2022
3792 Clear 31 1011 12 10000 6.38 52 18:57 08.05.2022
3793 Clear 31 1010 11 10000 5.03 41 18:24 08.05.2022
3794 Clear 33 1009 9 10000 4.28 29 16:59 08.05.2022
3795 Clear 34 1009 8 10000 3.62 19 15:41 08.05.2022
3796 Clear 34 1009 8 10000 3.6 19 15:20 08.05.2022
3797 Clear 34 1009 8 10000 3.6 19 15:20 08.05.2022
3798 Clear 33 1009 9 10000 3.34 22 12:41 08.05.2022
3799 Clear 30 1011 11 10000 3.61 45 10:34 08.05.2022
3800 Clear 29 1012 12 10000 3.85 52 09:59 08.05.2022
3801 Clear 29 1012 12 10000 3.85 52 09:33 08.05.2022
3802 Clear 25 1013 16 10000 5.07 62 07:33 08.05.2022
3803 Clear 22 1011 23 10000 3.75 26 04:20 08.05.2022
3804 Clear 23 1011 22 10000 4.55 29 03:19 08.05.2022
3805 Clear 24 1010 23 10000 6.81 27 00:28 08.05.2022
3806 Clear 25 1010 23 10000 6.81 27 23:53 07.05.2022
3807 Clear 26 1010 21 10000 7.4 24 22:51 07.05.2022
3808 Clear 26 1010 21 10000 7.4 24 22:33 07.05.2022
3809 Clear 27 1010 19 10000 7.86 23 21:34 07.05.2022
3810 Clear 29 1010 18 10000 7.04 23 20:42 07.05.2022
3811 Clear 30 1008 17 10000 7.19 17 19:58 07.05.2022
3812 Clear 33 1007 16 10000 6.5 17 17:43 07.05.2022
3813 Clear 35 1005 14 10000 6.95 19 15:51 07.05.2022
3814 Clear 35 1005 14 10000 4.46 10 14:19 07.05.2022
3815 Clouds 32 1007 15 10000 4.11 28 10:56 07.05.2022
3816 Clouds 30 1008 19 10000 5.07 23 09:22 07.05.2022
3817 Clouds 28 1008 24 10000 5.27 359 07:52 07.05.2022
3818 Clouds 27 1008 27 10000 5.06 349 06:43 07.05.2022
3819 Clouds 26 1007 32 10000 2.36 336 04:59 07.05.2022
3820 Clouds 27 1005 28 10000 3.05 341 01:46 07.05.2022
3821 Clouds 29 1006 23 10000 2.33 344 23:38 06.05.2022
3822 Clouds 30 1006 22 10000 1.47 357 22:31 06.05.2022
3823 Clear 31 1005 19 10000 4 335 21:43 06.05.2022
3824 Clear 34 1005 17 10000 5.22 333 20:35 06.05.2022
3825 Clouds 35 1004 14 10000 4.93 311 19:31 06.05.2022
3826 Clouds 37 1003 14 10000 2.83 282 19:00 06.05.2022
3827 Clouds 37 1003 12 10000 3.58 152 18:19 06.05.2022
3828 Clouds 36 1003 12 10000 3.62 152 16:44 06.05.2022
3829 Clouds 38 1003 12 10000 3.07 172 15:41 06.05.2022
3830 Clouds 39 1003 11 10000 3.52 268 14:50 06.05.2022
3831 Clouds 38 1002 7 10000 3.41 192 12:56 06.05.2022
3832 Clouds 40 1002 7 10000 3.41 192 12:37 06.05.2022
3833 Clouds 39 1003 8 10000 3.11 136 11:42 06.05.2022
3834 Clouds 39 1006 10 10000 2.49 159 10:30 06.05.2022
3835 Clouds 36 1006 10 10000 2.49 159 09:45 06.05.2022
3836 Clouds 35 1006 11 10000 1.54 158 08:27 06.05.2022
3837 Clouds 30 1006 15 10000 4.87 140 06:46 06.05.2022
3838 Clouds 29 1006 18 10000 2.04 80 04:53 06.05.2022
3839 Clouds 30 1006 17 10000 2.69 48 02:45 06.05.2022
3840 Clouds 31 1007 16 10000 5.4 341 00:19 06.05.2022
3841 Clouds 35 1006 13 10000 3.07 352 21:56 05.05.2022
3842 Clouds 35 1006 13 10000 2.17 228 21:19 05.05.2022
3843 Clouds 38 1006 11 10000 5.49 229 19:53 05.05.2022
3844 Clouds 39 1004 8 10000 2.05 315 18:26 05.05.2022
3845 Clear 40 1003 6 10000 6.76 292 16:20 05.05.2022
3846 Clouds 41 1003 6 10000 6.9 285 14:49 05.05.2022
3847 Clear 41 1004 7 10000 6.07 247 13:22 05.05.2022
3848 Clear 41 1005 7 10000 6.51 228 12:25 05.05.2022
3849 Clear 39 1007 8 10000 7.5 241 10:37 05.05.2022
3850 Clear 38 1008 9 10000 8.91 247 09:39 05.05.2022
3851 Clouds 35 1009 12 10000 10.06 249 07:34 05.05.2022
3852 Clear 29 1008 16 10000 3.5 234 04:28 05.05.2022
3853 Clear 29 1007 14 10000 2.13 216 01:50 05.05.2022
3854 Clear 29 1007 14 10000 3.91 252 01:24 05.05.2022
3855 Clear 32 1007 13 10000 4.15 266 23:47 04.05.2022
3856 Clouds 32 1008 13 10000 4.11 265 22:30 04.05.2022
3857 Clouds 33 1008 12 10000 3.27 231 21:49 04.05.2022
3858 Clouds 33 1009 12 10000 1.69 211 21:26 04.05.2022
3859 Clouds 34 1008 11 10000 0.67 11 20:22 04.05.2022
3860 Clouds 36 1008 11 10000 0.67 11 19:51 04.05.2022
3861 Clouds 38 1007 10 10000 0.64 305 18:54 04.05.2022
3862 Clouds 38 1007 10 10000 0.87 273 18:22 04.05.2022
3863 Clouds 39 1007 10 10000 0.87 273 17:30 04.05.2022
3864 Clear 40 1006 7 10000 2.96 276 15:38 04.05.2022
3865 Clear 40 1006 7 10000 2.95 264 15:20 04.05.2022
3866 Clear 40 1007 7 10000 3.95 261 14:20 04.05.2022
3867 Clear 39 1007 7 10000 6.58 258 13:20 04.05.2022
3868 Clear 39 1008 8 10000 7.14 248 12:29 04.05.2022
3869 Clear 36 1009 8 10000 5.87 226 10:40 04.05.2022
3870 Clear 34 1010 9 10000 5.5 199 09:40 04.05.2022
3871 Clear 32 1012 13 10000 7.33 175 08:34 04.05.2022
3872 Clear 25 1012 17 10000 4.65 178 05:53 04.05.2022
3873 Clear 25 1011 18 10000 3.69 154 02:49 04.05.2022
3874 Clear 27 1011 16 10000 2.72 93 23:58 03.05.2022
3875 Clear 28 1011 16 10000 2.84 70 22:30 03.05.2022
3876 Clear 29 1012 16 10000 3.35 59 21:36 03.05.2022
3877 Clear 31 1011 15 10000 4.19 53 20:53 03.05.2022
3878 Clear 32 1011 13 10000 4.32 31 19:45 03.05.2022
3879 Clear 33 1010 11 10000 3.66 4 18:50 03.05.2022
3880 Clear 33 1010 11 10000 3.66 4 18:50 03.05.2022
3881 Clear 35 1009 11 10000 3.81 358 17:45 03.05.2022
3882 Clear 36 1008 9 10000 4.23 346 16:37 03.05.2022
3883 Clear 37 1008 8 10000 4.29 336 15:32 03.05.2022
3884 Clear 36 1009 9 10000 2.39 332 12:47 03.05.2022
3885 Clear 36 1010 10 10000 1.69 312 12:27 03.05.2022
3886 Clear 35 1011 10 10000 0.96 267 10:57 03.05.2022
3887 Clear 32 1012 12 10000 1.45 171 09:21 03.05.2022
3888 Clear 25 1012 16 10000 1.7 135 06:46 03.05.2022
3889 Clear 21 1012 17 10000 1.24 114 05:56 03.05.2022
3890 Clear 26 1009 17 10000 4.19 4 00:19 03.05.2022
3891 Clear 27 1009 15 10000 3.95 0 22:36 02.05.2022
3892 Clear 28 1010 14 10000 4.1 10 21:51 02.05.2022
3893 Clear 29 1010 13 10000 3.9 25 20:51 02.05.2022
3894 Clear 31 1009 12 10000 4.2 12 18:37 02.05.2022
3895 Clear 33 1008 11 10000 4.04 9 17:57 02.05.2022
3896 Clear 33 1008 11 10000 4.04 9 17:34 02.05.2022
3897 Clear 34 1007 9 10000 3.77 4 16:21 02.05.2022
3898 Clear 35 1007 8 10000 3.33 1 15:29 02.05.2022
3899 Clear 35 1007 8 10000 3.37 2 13:50 02.05.2022
3900 Clear 35 1008 8 10000 3.8 13 12:19 02.05.2022
3901 Clear 32 1009 8 10000 4.23 15 10:38 02.05.2022
3902 Clear 28 1010 9 10000 4.18 17 08:49 02.05.2022
3903 Clear 27 1010 9 10000 4.75 35 07:40 02.05.2022
3904 Clear 25 1009 18 10000 3.25 23 03:48 02.05.2022
3905 Clouds 28 1007 16 10000 2.23 0 00:24 02.05.2022
3906 Clouds 28 1007 16 10000 2.23 0 23:47 01.05.2022
3907 Clouds 29 1006 14 10000 3.63 66 22:20 01.05.2022
3908 Clear 31 1007 13 10000 4.05 47 21:19 01.05.2022
3909 Clear 33 1007 12 10000 5.5 21 19:51 01.05.2022
3910 Clear 35 1006 12 10000 4.96 352 18:57 01.05.2022
3911 Clear 35 1006 11 10000 5.3 340 18:27 01.05.2022
3912 Clear 36 1005 9 10000 6.76 324 17:26 01.05.2022
3913 Clear 38 1005 9 10000 8.41 308 16:23 01.05.2022
3914 Clear 39 1005 9 10000 8.76 299 15:24 01.05.2022
3915 Clear 38 1005 9 10000 9.17 299 13:42 01.05.2022
3916 Clear 37 1007 11 10000 8.43 264 11:18 01.05.2022
3917 Clear 30 1009 14 10000 6.05 217 08:53 01.05.2022
3918 Clear 28 1010 17 10000 5.32 191 07:55 01.05.2022
3919 Clear 23 1009 28 10000 2.47 185 03:31 01.05.2022
3920 Clear 24 1010 27 10000 1.7 18 23:49 30.04.2022
3921 Clear 26 1011 24 10000 3.4 24 21:47 30.04.2022
3922 Clear 28 1011 23 10000 4.52 19 20:45 30.04.2022
3923 Clear 30 1011 20 10000 5.11 6 19:41 30.04.2022
3924 Clear 33 1010 16 10000 4.97 347 17:45 30.04.2022
3925 Clear 35 1009 13 10000 6.23 335 16:42 30.04.2022
3926 Clear 36 1009 13 10000 6.53 325 15:46 30.04.2022
3927 Clear 35 1009 13 10000 7.22 320 14:43 30.04.2022
3928 Clear 33 1009 12 10000 8.03 303 12:42 30.04.2022
3929 Clear 32 1010 13 10000 7.08 296 11:33 30.04.2022
3930 Clear 30 1011 17 10000 6.3 271 10:43 30.04.2022
3931 Clear 28 1013 27 10000 2.98 260 09:25 30.04.2022
3932 Clear 21 1013 35 10000 2.87 221 06:43 30.04.2022
3933 Clouds 21 1012 49 10000 3.34 156 01:53 30.04.2022
3934 Clouds 21 1012 48 10000 3.57 155 23:37 29.04.2022
3935 Clouds 21 1013 47 10000 4.15 157 22:31 29.04.2022
3936 Clouds 21 1013 46 10000 6.51 125 21:34 29.04.2022
3937 Clouds 21 1013 46 10000 6.5 125 20:40 29.04.2022
3938 Clouds 22 1013 35 10000 3.08 72 19:45 29.04.2022
3939 Clouds 26 1010 26 10000 3.97 117 17:55 29.04.2022
3940 Clouds 26 1010 24 10000 4.88 105 17:21 29.04.2022
3941 Clear 27 1010 23 10000 3.01 110 15:23 29.04.2022
3942 Clouds 28 1010 24 10000 1.68 134 14:22 29.04.2022
3943 Clouds 27 1011 24 10000 2.78 149 12:52 29.04.2022
3944 Clouds 26 1012 25 10000 3.62 149 11:40 29.04.2022
3945 Clouds 22 1014 31 10000 5.44 134 08:46 29.04.2022
3946 Clouds 20 1013 41 10000 4.53 164 07:27 29.04.2022
3947 Clouds 21 1013 41 10000 4.53 164 06:38 29.04.2022
3948 Clouds 21 1013 59 10000 4.35 95 04:43 29.04.2022
3949 Clouds 21 1014 50 10000 1.63 17 00:19 29.04.2022
3950 Clouds 21 1013 49 10000 5.1 324 23:27 28.04.2022
3951 Clouds 21 1013 49 10000 5.1 324 22:41 28.04.2022
3952 Clouds 21 1012 49 10000 2.2 290 21:47 28.04.2022
3953 Clouds 20 1013 48 10000 1.08 252 20:57 28.04.2022
3954 Clouds 20 1012 50 10000 2.54 21 20:24 28.04.2022
3955 Clouds 20 1011 53 10000 6.88 55 19:41 28.04.2022
3956 Clouds 20 1012 56 10000 7.07 24 19:21 28.04.2022
3957 Clouds 20 1012 56 10000 7.07 24 18:35 28.04.2022
3958 Rain 20 1013 66 10000 9.98 338 17:20 28.04.2022
3959 Rain 24 1013 66 10000 9.98 338 16:40 28.04.2022
3960 Rain 24 1012 69 8196 12.4 331 16:18 28.04.2022
3961 Clouds 23 1008 34 10000 7.83 314 15:27 28.04.2022
3962 Clouds 23 1008 34 10000 7.83 314 15:27 28.04.2022
3963 Clouds 28 1006 16 10000 9.67 158 13:44 28.04.2022
3964 Clouds 29 1007 16 10000 9.66 165 12:44 28.04.2022
3965 Clouds 30 1008 17 10000 6.88 168 11:56 28.04.2022
3966 Clouds 29 1008 19 10000 6.86 168 10:44 28.04.2022
3967 Clouds 27 1009 23 10000 2.44 136 09:52 28.04.2022
3968 Clouds 25 1009 28 10000 2.9 64 08:31 28.04.2022
3969 Clouds 22 1010 36 10000 4.73 26 06:59 28.04.2022
3970 Clouds 23 1011 45 10000 8.23 356 05:55 28.04.2022
3971 Clouds 23 1011 45 10000 8.23 356 05:37 28.04.2022
3972 Clouds 23 1011 49 10000 9.17 329 04:38 28.04.2022
3973 Clouds 28 1007 22 10000 2.67 172 00:22 28.04.2022
3974 Clouds 30 1007 20 10000 3.91 170 22:38 27.04.2022
3975 Clouds 31 1007 20 10000 4.38 154 21:52 27.04.2022
3976 Clouds 31 1008 20 10000 6.38 162 20:59 27.04.2022
3977 Clouds 31 1008 20 10000 6.38 162 20:35 27.04.2022
3978 Clouds 31 1008 22 10000 9.6 158 19:37 27.04.2022
3979 Clouds 32 1008 24 10000 10.02 167 18:56 27.04.2022
3980 Clouds 32 1007 25 10000 9.62 188 18:22 27.04.2022
3981 Clouds 35 1005 14 10000 7.02 127 16:29 27.04.2022
3982 Clouds 35 1005 13 10000 5.73 119 14:31 27.04.2022
3983 Clouds 33 1006 12 10000 4.33 185 11:45 27.04.2022
3984 Clear 33 1008 13 10000 5.12 168 11:20 27.04.2022
3985 Clear 28 1010 20 10000 7.35 169 08:58 27.04.2022
3986 Clear 25 1011 30 10000 6.38 153 07:18 27.04.2022
3987 Clear 22 1010 43 10000 4.23 125 04:21 27.04.2022
3988 Clouds 23 1009 42 10000 3.61 125 01:32 27.04.2022
3989 Clouds 23 1009 41 10000 3.39 108 00:36 27.04.2022
3990 Clouds 23 1010 38 10000 4.01 73 23:25 26.04.2022
3991 Clouds 23 1010 38 10000 4.01 73 22:58 26.04.2022
3992 Clouds 23 1010 38 10000 4.01 73 22:39 26.04.2022
3993 Clouds 24 1009 29 10000 3.86 113 21:26 26.04.2022
3994 Clouds 24 1009 29 10000 3.86 113 21:26 26.04.2022
3995 Clouds 24 1009 29 10000 3.86 113 21:26 26.04.2022
3996 Clouds 25 1009 29 10000 3.86 113 20:41 26.04.2022
3997 Clouds 28 1009 29 10000 3.78 108 19:49 26.04.2022
3998 Clouds 28 1007 28 10000 4.15 85 19:30 26.04.2022
3999 Clouds 31 1007 28 10000 4.15 85 18:44 26.04.2022
4000 Clouds 32 1006 24 10000 5.72 108 17:54 26.04.2022
4001 Clouds 33 1005 15 10000 5.22 244 16:28 26.04.2022
4002 Clouds 33 1005 16 10000 4.59 224 13:59 26.04.2022
4003 Clouds 33 1005 16 10000 4.59 224 13:31 26.04.2022
4004 Clear 31 1008 21 10000 5.51 233 11:48 26.04.2022
4005 Clear 30 1009 24 10000 5.55 227 10:31 26.04.2022
4006 Clear 26 1011 27 10000 4.94 228 08:47 26.04.2022
4007 Clouds 22 1011 38 10000 5.49 181 06:57 26.04.2022
4008 Clouds 21 1011 46 10000 3.98 202 04:23 26.04.2022
4009 Clouds 23 1010 45 10000 4.21 219 00:57 26.04.2022
4010 Clouds 23 1010 46 10000 5.85 203 00:20 26.04.2022
4011 Clouds 21 1011 42 10000 9.51 204 22:19 25.04.2022
4012 Clouds 23 1011 34 10000 9.63 182 21:33 25.04.2022
4013 Clouds 22 1011 34 10000 9.63 182 20:34 25.04.2022
4014 Clouds 24 1010 40 10000 10.36 188 18:54 25.04.2022
4015 Clouds 25 1009 30 10000 5.85 185 17:43 25.04.2022
4016 Clouds 24 1008 28 10000 4.59 173 16:51 25.04.2022
4017 Clouds 25 1009 32 10000 8.07 189 15:23 25.04.2022
4018 Clouds 23 1009 32 10000 8.13 190 14:34 25.04.2022
4019 Clouds 20 1010 38 10000 12.11 208 13:30 25.04.2022
4020 Rain 23 1010 41 10000 9.06 212 11:37 25.04.2022
4021 Clouds 24 1010 32 10000 4.31 218 09:55 25.04.2022
4022 Clouds 22 1011 37 10000 4.04 215 08:33 25.04.2022
4023 Clouds 20 1012 49 10000 3.67 304 06:27 25.04.2022
4024 Clouds 23 1011 45 10000 5.28 286 02:20 25.04.2022
4025 Clouds 24 1011 44 10000 8.58 321 23:58 24.04.2022
4026 Clouds 24 1011 44 10000 8.58 321 23:30 24.04.2022
4027 Clouds 24 1011 36 10000 8.17 324 22:40 24.04.2022
4028 Clouds 29 1010 19 10000 8.73 295 21:58 24.04.2022
4029 Clouds 29 1008 17 10000 4.84 53 21:23 24.04.2022
4030 Clouds 28 1008 17 10000 4.84 53 20:47 24.04.2022
4031 Clouds 28 1008 17 10000 4.84 53 20:47 24.04.2022
4032 Clouds 28 1007 16 10000 8.56 65 20:21 24.04.2022
4033 Clouds 29 1005 13 10000 6.75 116 18:58 24.04.2022
4034 Clouds 30 1004 13 10000 5.41 120 17:55 24.04.2022
4035 Clouds 30 1004 12 10000 5.4 128 17:22 24.04.2022
4036 Clouds 30 1004 12 10000 5.4 128 16:56 24.04.2022
4037 Clouds 30 1004 12 10000 6.16 140 16:29 24.04.2022
4038 Clouds 30 1004 12 10000 6.16 140 16:29 24.04.2022
4039 Clouds 31 1004 12 10000 6.16 140 15:52 24.04.2022
4040 Clouds 32 1005 11 10000 6.49 151 14:40 24.04.2022
4041 Clouds 32 1005 11 10000 7.56 154 13:38 24.04.2022
4042 Clouds 32 1006 12 10000 6.72 153 13:18 24.04.2022
4043 Clouds 32 1007 12 10000 4.96 153 11:50 24.04.2022
4044 Clouds 33 1008 14 10000 6.47 151 10:59 24.04.2022
4045 Clouds 31 1009 14 10000 7.41 149 09:47 24.04.2022
4046 Clouds 30 1010 17 10000 5.64 129 08:18 24.04.2022
4047 Clouds 27 1010 22 10000 2.75 49 05:46 24.04.2022
4048 Clouds 26 1008 23 10000 4.78 152 02:48 24.04.2022
4049 Clouds 28 1007 23 10000 6.1 147 00:47 24.04.2022
4050 Clouds 30 1008 22 10000 5.94 143 23:55 23.04.2022
4051 Clouds 30 1008 20 10000 6.84 146 23:25 23.04.2022
4052 Clouds 30 1008 20 10000 6.84 146 22:39 23.04.2022
4053 Clouds 30 1008 19 10000 7.06 141 21:41 23.04.2022
4054 Clouds 30 1008 18 10000 6.31 149 21:22 23.04.2022
4055 Clouds 32 1008 16 10000 6.05 134 19:56 23.04.2022
4056 Clear 32 1007 14 10000 6.01 139 19:20 23.04.2022
4057 Clear 33 1007 14 10000 6.01 139 18:54 23.04.2022
4058 Clear 33 1007 14 10000 6.01 139 18:32 23.04.2022
4059 Clear 34 1007 13 10000 6.54 140 17:46 23.04.2022
4060 Clear 35 1006 12 10000 7.12 136 16:45 23.04.2022
4061 Clear 36 1006 11 10000 6.44 146 15:43 23.04.2022
4062 Clouds 35 1008 11 10000 7.91 135 13:24 23.04.2022
4063 Clouds 32 1009 13 10000 8.27 119 11:29 23.04.2022
4064 Clouds 30 1011 16 10000 5.61 98 09:41 23.04.2022
4065 Clouds 25 1013 14 10000 2.48 17 07:52 23.04.2022
4066 Clouds 24 1011 16 10000 3.12 21 03:57 23.04.2022
4067 Clouds 24 1011 15 10000 3.42 316 02:36 23.04.2022
4068 Clouds 25 1011 13 10000 2.51 70 23:34 22.04.2022
4069 Clouds 25 1011 13 10000 2.51 70 22:43 22.04.2022
4070 Clouds 26 1011 13 10000 2.91 59 21:56 22.04.2022
4071 Clouds 26 1011 13 10000 2.91 59 21:56 22.04.2022
4072 Clouds 26 1011 13 10000 2.91 59 21:38 22.04.2022
4073 Clouds 27 1012 13 10000 4 67 20:30 22.04.2022
4074 Clouds 28 1009 15 10000 6.47 76 19:24 22.04.2022
4075 Clouds 29 1009 15 10000 6.47 76 18:56 22.04.2022
4076 Clear 29 1008 15 10000 6.25 66 18:24 22.04.2022
4077 Clear 31 1008 13 10000 5.82 53 16:53 22.04.2022
4078 Clear 32 1008 12 10000 5.25 65 15:58 22.04.2022
4079 Clear 32 1008 12 10000 4.55 74 15:23 22.04.2022
4080 Clear 32 1008 12 10000 4.55 74 14:37 22.04.2022
4081 Clouds 32 1008 11 10000 3.31 115 13:41 22.04.2022
4082 Clouds 32 1010 13 10000 4.07 50 12:35 22.04.2022
4083 Clouds 31 1011 14 10000 2.83 50 11:23 22.04.2022
4084 Clouds 31 1011 14 10000 2.83 50 10:56 22.04.2022
4085 Clouds 31 1011 14 10000 2.82 50 10:32 22.04.2022
4086 Clouds 30 1012 15 10000 3.14 34 09:54 22.04.2022
4087 Clouds 28 1013 16 10000 4.66 354 08:56 22.04.2022
4088 Clouds 28 1012 18 10000 7.71 15 08:29 22.04.2022
4089 Clouds 26 1012 23 10000 4.68 339 06:21 22.04.2022
4090 Clouds 27 1009 20 10000 6.37 352 00:53 22.04.2022
4091 Clouds 28 1008 16 10000 5.58 35 23:29 21.04.2022
4092 Clouds 29 1008 13 10000 4.33 68 22:34 21.04.2022
4093 Clouds 30 1008 14 10000 4.26 138 21:25 21.04.2022
4094 Clouds 32 1009 13 10000 5.9 267 20:29 21.04.2022
4095 Clouds 34 1007 19 10000 11.47 286 18:49 21.04.2022
4096 Clouds 34 1007 20 10000 10.99 285 18:19 21.04.2022
4097 Clouds 38 1004 13 10000 5.05 33 16:56 21.04.2022
4098 Clouds 37 1004 7 10000 4.28 201 15:24 21.04.2022
4099 Clouds 40 1004 7 10000 4.28 201 14:51 21.04.2022
4100 Clouds 39 1005 9 10000 4.36 185 13:56 21.04.2022
4101 Clouds 39 1006 9 10000 5.53 210 13:20 21.04.2022
4102 Clouds 38 1007 9 10000 7.57 232 11:37 21.04.2022
4103 Clouds 33 1009 9 10000 6.01 224 09:24 21.04.2022
4104 Clouds 32 1009 9 10000 4.83 199 08:29 21.04.2022
4105 Clouds 28 1009 13 10000 3.36 172 06:26 21.04.2022
4106 Clouds 28 1008 15 10000 4.16 174 03:37 21.04.2022
4107 Clouds 28 1008 15 10000 4.39 169 03:18 21.04.2022
4108 Clouds 29 1008 15 10000 4.39 169 02:43 21.04.2022
4109 Clouds 29 1008 14 10000 5.35 165 00:25 21.04.2022
4110 Clouds 31 1008 14 10000 5.12 162 23:24 20.04.2022
4111 Clouds 32 1008 14 10000 5.08 163 22:52 20.04.2022
4112 Clouds 32 1008 14 10000 5.12 162 22:32 20.04.2022
4113 Clouds 32 1008 14 10000 5.12 162 22:32 20.04.2022
4114 Clouds 33 1008 13 10000 5.36 168 21:35 20.04.2022
4115 Clouds 33 1008 12 10000 6.44 168 20:43 20.04.2022
4116 Clouds 33 1007 14 10000 6.35 126 19:55 20.04.2022
4117 Clouds 33 1006 10 10000 8.37 136 19:29 20.04.2022
4118 Clouds 34 1006 10 10000 8.37 136 18:33 20.04.2022
4119 Clouds 37 1004 9 10000 6.98 135 16:58 20.04.2022
4120 Clouds 37 1004 9 10000 6.98 135 16:38 20.04.2022
4121 Clouds 38 1004 8 10000 4.37 180 14:52 20.04.2022
4122 Clouds 35 1007 8 10000 2.61 174 11:57 20.04.2022
4123 Clouds 35 1007 8 10000 2.61 174 11:33 20.04.2022
4124 Clouds 33 1009 8 10000 1.82 196 10:29 20.04.2022
4125 Clouds 33 1010 9 10000 2.42 187 09:27 20.04.2022
4126 Clouds 31 1011 10 10000 3.35 163 08:25 20.04.2022
4127 Clouds 27 1011 10 10000 3.35 163 07:43 20.04.2022
4128 Clouds 23 1010 15 10000 3.58 165 04:49 20.04.2022
4129 Clouds 24 1009 13 10000 3.67 149 01:20 20.04.2022
4130 Clouds 25 1009 12 10000 3.99 153 00:20 20.04.2022
4131 Clouds 27 1010 12 10000 4.11 142 22:44 19.04.2022
4132 Clouds 27 1010 11 10000 3.48 143 22:22 19.04.2022
4133 Clouds 28 1010 11 10000 3.48 142 21:38 19.04.2022
4134 Clouds 29 1011 11 10000 3.89 145 20:56 19.04.2022
4135 Clouds 29 1011 11 10000 3.89 145 20:36 19.04.2022
4136 Clouds 30 1010 9 10000 3.52 104 19:31 19.04.2022
4137 Clouds 32 1009 9 10000 3.16 102 18:18 19.04.2022
4138 Clouds 35 1009 9 10000 1.4 78 16:46 19.04.2022
4139 Clouds 35 1009 7 10000 1.3 346 16:24 19.04.2022
4140 Clouds 35 1009 7 10000 1.41 345 15:20 19.04.2022
4141 Clouds 34 1009 7 10000 1.41 345 14:32 19.04.2022
4142 Clouds 35 1010 8 10000 1.2 137 12:52 19.04.2022
4143 Clouds 35 1011 7 10000 1.76 160 12:26 19.04.2022
4144 Clouds 32 1012 7 10000 2.14 174 11:23 19.04.2022
4145 Clouds 30 1014 6 10000 2.06 159 09:26 19.04.2022
4146 Clouds 25 1014 7 10000 1.73 148 07:26 19.04.2022
4147 Clouds 17 1013 10 10000 0.93 117 04:19 19.04.2022
4148 Clouds 22 1012 11 10000 1.04 14 00:56 19.04.2022
4149 Clouds 23 1013 11 10000 1.16 36 23:40 18.04.2022
4150 Clouds 25 1013 10 10000 2.42 23 21:56 18.04.2022
4151 Clouds 25 1013 10 10000 3.45 26 21:24 18.04.2022
4152 Clouds 27 1013 10 10000 3.45 26 20:38 18.04.2022
4153 Clouds 28 1012 9 10000 4.65 30 19:59 18.04.2022
4154 Clouds 28 1012 9 10000 4.9 21 19:29 18.04.2022
4155 Clouds 30 1012 9 10000 4.9 21 18:34 18.04.2022
4156 Clouds 32 1011 9 10000 4.97 18 17:39 18.04.2022
4157 Clouds 32 1011 9 10000 4.97 18 17:39 18.04.2022
4158 Clouds 32 1010 8 10000 5.09 12 17:19 18.04.2022
4159 Clouds 33 1010 8 10000 5.09 12 16:36 18.04.2022
4160 Clear 34 1009 7 10000 4.42 351 15:28 18.04.2022
4161 Clouds 33 1010 8 10000 3.89 336 13:55 18.04.2022
4162 Clouds 32 1010 8 10000 3.83 337 12:41 18.04.2022
4163 Clouds 30 1011 9 10000 3.55 351 11:48 18.04.2022
4164 Clear 30 1012 10 10000 3.74 4 10:46 18.04.2022
4165 Clear 28 1013 11 10000 3.59 14 09:31 18.04.2022
4166 Clear 26 1014 13 10000 3.11 43 08:37 18.04.2022
4167 Clear 21 1014 21 10000 3.78 39 06:25 18.04.2022
4168 Clear 20 1012 21 10000 2.12 97 02:22 18.04.2022
4169 Clear 24 1012 19 10000 4.47 57 22:53 17.04.2022
4170 Clear 24 1012 19 10000 4.47 57 22:31 17.04.2022
4171 Clear 25 1012 17 10000 4.67 54 21:32 17.04.2022
4172 Clear 26 1012 16 10000 4.36 59 20:50 17.04.2022
4173 Clear 28 1011 13 10000 5.07 62 19:55 17.04.2022
4174 Clear 29 1010 13 10000 5.92 60 18:34 17.04.2022
4175 Clear 32 1008 12 10000 6.12 55 16:44 17.04.2022
4176 Clear 33 1007 12 10000 5.03 59 15:33 17.04.2022
4177 Clear 33 1007 12 10000 4.01 67 14:38 17.04.2022
4178 Clear 32 1007 13 10000 3.53 94 13:23 17.04.2022
4179 Clear 32 1007 13 10000 3.53 94 12:30 17.04.2022
4180 Clear 30 1009 13 10000 4.38 89 10:48 17.04.2022
4181 Clear 30 1010 13 10000 4.96 79 10:29 17.04.2022
4182 Clear 28 1010 13 10000 4.96 79 09:50 17.04.2022
4183 Clear 27 1011 13 10000 4.82 77 08:59 17.04.2022
4184 Clear 27 1011 13 10000 4.27 82 08:27 17.04.2022
4185 Clear 21 1011 18 10000 3.8 60 05:33 17.04.2022
4186 Clear 22 1008 33 10000 4.06 13 01:47 17.04.2022
4187 Clouds 24 1007 29 10000 2.92 1 23:59 16.04.2022
4188 Clouds 25 1007 25 10000 2.11 264 22:56 16.04.2022
4189 Clouds 26 1007 23 10000 3.6 200 21:44 16.04.2022
4190 Clouds 28 1008 23 10000 4.3 195 20:54 16.04.2022
4191 Clouds 29 1008 28 10000 7.65 204 19:21 16.04.2022
4192 Clouds 29 1008 28 10000 7.65 204 18:35 16.04.2022
4193 Clouds 30 1006 29 10000 6.65 157 16:44 16.04.2022
4194 Clouds 33 1006 30 10000 7.7 168 15:46 16.04.2022
4195 Rain 34 1007 39 10000 8.71 163 14:57 16.04.2022
4196 Rain 37 1007 39 10000 8.71 163 14:30 16.04.2022
4197 Rain 36 1009 60 10000 14.75 182 13:48 16.04.2022
4198 Clear 36 1005 16 10000 2.2 103 12:35 16.04.2022
4199 Clear 36 1008 18 10000 1.91 123 11:26 16.04.2022
4200 Clear 34 1010 19 10000 1.39 138 10:25 16.04.2022
4201 Clear 33 1010 19 10000 1.39 138 09:32 16.04.2022
4202 Clear 32 1010 20 10000 1.99 64 08:41 16.04.2022
4203 Clouds 29 1010 25 10000 1.59 167 07:21 16.04.2022
4204 Clouds 26 1009 32 10000 2.02 231 04:54 16.04.2022
4205 Clouds 27 1009 28 10000 3.56 251 00:40 16.04.2022
4206 Clouds 28 1009 27 10000 1.71 7 23:40 15.04.2022
4207 Clouds 28 1009 26 10000 3.88 334 22:45 15.04.2022
4208 Clouds 28 1009 23 10000 1.38 1 22:27 15.04.2022
4209 Clouds 29 1009 25 10000 1.85 34 21:20 15.04.2022
4210 Clouds 30 1009 25 10000 1.85 34 20:36 15.04.2022
4211 Rain 31 1010 30 10000 3.67 347 19:43 15.04.2022
4212 Rain 31 1010 30 10000 3.67 347 19:43 15.04.2022
4213 Clouds 32 1010 29 10000 10.88 311 18:58 15.04.2022
4214 Clouds 32 1007 21 10000 3.69 29 18:26 15.04.2022
4215 Clouds 33 1007 21 10000 3.69 29 17:57 15.04.2022
4216 Clouds 33 1006 17 10000 2.32 82 17:24 15.04.2022
4217 Clouds 34 1006 16 10000 3.28 101 16:24 15.04.2022
4218 Clouds 34 1006 16 10000 3.28 101 15:41 15.04.2022
4219 Clouds 34 1006 16 10000 3.28 101 15:41 15.04.2022
4220 Clouds 33 1007 14 10000 4.84 86 13:55 15.04.2022
4221 Clouds 32 1007 15 10000 6.99 123 12:50 15.04.2022
4222 Clouds 32 1008 15 10000 6.77 127 12:21 15.04.2022
4223 Clouds 32 1008 15 10000 6.77 127 11:42 15.04.2022
4224 Clouds 31 1009 16 10000 5.17 127 10:46 15.04.2022
4225 Clouds 30 1010 17 10000 4.61 110 09:59 15.04.2022
4226 Clouds 30 1010 19 10000 2.78 64 09:22 15.04.2022
4227 Clouds 29 1010 19 10000 2.78 64 08:37 15.04.2022
4228 Clouds 25 1011 28 10000 4.96 5 06:47 15.04.2022
4229 Clouds 26 1011 35 10000 4.86 345 04:42 15.04.2022
4230 Clouds 26 1010 34 10000 5.32 349 00:32 15.04.2022
4231 Clouds 28 1009 21 10000 6.18 52 23:20 14.04.2022
4232 Clouds 29 1009 21 10000 6.18 52 22:44 14.04.2022
4233 Clouds 29 1009 20 10000 6.49 42 22:25 14.04.2022
4234 Clouds 31 1009 24 10000 4.24 36 21:39 14.04.2022
4235 Clouds 32 1008 24 10000 8.48 2 19:24 14.04.2022
4236 Clouds 32 1008 24 10000 8.48 2 18:38 14.04.2022
4237 Clouds 33 1007 25 10000 10.19 350 17:45 14.04.2022
4238 Clouds 34 1005 16 10000 3.74 9 16:49 14.04.2022
4239 Clouds 34 1005 12 10000 4.14 135 15:50 14.04.2022
4240 Clouds 34 1005 13 10000 6.33 115 13:52 14.04.2022
4241 Clouds 34 1006 15 10000 2.28 60 13:19 14.04.2022
4242 Clouds 34 1006 15 10000 2.28 59 12:32 14.04.2022
4243 Clouds 29 1007 14 10000 4.98 82 11:36 14.04.2022
4244 Clouds 29 1008 15 10000 5.95 75 10:57 14.04.2022
4245 Clouds 29 1008 16 10000 6.31 56 10:29 14.04.2022
4246 Clouds 30 1009 17 10000 6.58 18 09:26 14.04.2022
4247 Clouds 27 1010 21 10000 5.35 25 07:54 14.04.2022
4248 Clouds 26 1010 28 10000 5.08 357 05:35 14.04.2022
4249 Clouds 28 1009 31 10000 3.59 33 00:22 14.04.2022
4250 Clouds 31 1008 26 10000 5.21 33 22:37 13.04.2022
4251 Clouds 32 1008 23 10000 5.75 44 21:42 13.04.2022
4252 Clouds 33 1008 21 10000 6.37 41 20:35 13.04.2022
4253 Clouds 33 1006 16 10000 7.33 50 19:46 13.04.2022
4254 Clouds 34 1005 14 10000 5.49 36 18:36 13.04.2022
4255 Clouds 36 1004 11 10000 2.29 67 17:24 13.04.2022
4256 Clouds 37 1004 11 10000 2.29 67 16:49 13.04.2022
4257 Clouds 37 1004 9 10000 2.03 63 15:44 13.04.2022
4258 Clouds 37 1004 9 10000 2.22 73 15:21 13.04.2022
4259 Clouds 37 1004 9 10000 2.22 73 14:34 13.04.2022
4260 Clouds 37 1004 9 10000 1.76 21 13:37 13.04.2022
4261 Clouds 36 1004 9 10000 1.9 23 12:41 13.04.2022
4262 Clouds 34 1006 11 10000 0.22 87 11:25 13.04.2022
4263 Clouds 30 1007 12 10000 0.6 70 09:53 13.04.2022
4264 Clouds 28 1008 13 10000 2.92 14 08:44 13.04.2022
4265 Clouds 26 1008 17 10000 4.42 346 07:38 13.04.2022
4266 Clouds 25 1008 19 10000 5.26 341 06:46 13.04.2022
4267 Clouds 25 1007 21 10000 4.74 325 06:23 13.04.2022
4268 Clouds 29 1005 15 10000 1.67 177 00:28 13.04.2022
4269 Clouds 31 1005 15 10000 1.66 177 23:55 12.04.2022
4270 Clouds 32 1005 15 10000 3.56 181 22:31 12.04.2022
4271 Clouds 36 1005 15 10000 3.1 172 21:42 12.04.2022
4272 Clouds 35 1006 14 10000 4.89 287 20:44 12.04.2022
4273 Clouds 35 1005 14 10000 7.67 261 19:54 12.04.2022
4274 Clouds 35 1006 13 10000 8.22 260 19:54 12.04.2022
4275 Clouds 35 1005 14 10000 7.69 261 19:35 12.04.2022
4276 Clouds 37 1004 12 10000 6.51 234 18:52 12.04.2022
4277 Clouds 38 1004 11 10000 4.75 211 17:36 12.04.2022
4278 Clouds 38 1003 10 10000 4.36 227 16:34 12.04.2022
4279 Clouds 39 1003 8 10000 6.05 223 15:33 12.04.2022
4280 Clouds 38 1003 8 10000 6.87 230 14:33 12.04.2022
4281 Clouds 37 1003 8 10000 7.58 242 13:40 12.04.2022
4282 Clouds 37 1004 8 10000 6.64 244 13:20 12.04.2022
4283 Clouds 35 1005 9 10000 5.17 209 11:47 12.04.2022
4284 Clouds 35 1007 10 10000 5.2 191 11:24 12.04.2022
4285 Clouds 32 1008 10 10000 4.99 193 09:32 12.04.2022
4286 Clouds 30 1010 12 10000 4.7 193 08:26 12.04.2022
4287 Clouds 25 1010 15 10000 3.21 169 06:33 12.04.2022
4288 Clouds 25 1010 16 10000 2.68 115 05:38 12.04.2022
4289 Clouds 28 1008 20 10000 2.33 98 01:47 12.04.2022
4290 Clouds 30 1008 16 10000 3.41 145 23:20 11.04.2022
4291 Clouds 32 1008 15 10000 4.8 183 21:50 11.04.2022
4292 Clouds 32 1009 15 10000 5.29 189 21:18 11.04.2022
4293 Clouds 34 1009 15 10000 5.29 189 20:30 11.04.2022
4294 Clouds 34 1009 15 10000 5.29 189 20:30 11.04.2022
4295 Clouds 34 1008 13 10000 3.03 103 19:58 11.04.2022
4296 Clouds 34 1008 12 10000 2.37 160 19:25 11.04.2022
4297 Clouds 35 1008 12 10000 2.37 160 18:52 11.04.2022
4298 Clouds 36 1007 12 10000 3.07 153 17:57 11.04.2022
4299 Clouds 36 1006 10 10000 4.75 128 17:30 11.04.2022
4300 Clouds 37 1005 9 10000 6.32 117 16:25 11.04.2022
4301 Clouds 38 1006 9 10000 5.15 129 14:40 11.04.2022
4302 Clear 38 1006 9 10000 7.18 154 13:19 11.04.2022
4303 Clear 37 1006 9 10000 7.17 154 12:36 11.04.2022
4304 Clear 36 1007 9 10000 7.6 155 11:42 11.04.2022
4305 Clear 33 1009 10 10000 7.58 162 10:34 11.04.2022
4306 Clear 32 1010 11 10000 7.37 165 09:30 11.04.2022
4307 Clear 27 1012 19 10000 5.18 136 07:19 11.04.2022
4308 Clear 22 1011 24 10000 2.82 112 02:36 11.04.2022
4309 Clear 26 1012 19 10000 3.25 96 22:58 10.04.2022
4310 Clear 26 1012 17 10000 4.16 85 22:26 10.04.2022
4311 Clear 26 1012 17 10000 4.16 85 21:35 10.04.2022
4312 Clear 28 1012 16 10000 4.78 73 20:39 10.04.2022
4313 Clear 29 1012 13 10000 5.91 71 19:46 10.04.2022
4314 Clear 29 1011 12 10000 5.85 62 19:25 10.04.2022
4315 Clear 30 1011 12 10000 5.85 62 18:45 10.04.2022
4316 Clear 32 1010 11 10000 5.49 58 17:56 10.04.2022
4317 Clear 32 1010 11 10000 5.49 58 17:56 10.04.2022
4318 Clear 32 1010 11 10000 5.49 58 17:37 10.04.2022
4319 Clear 33 1009 9 10000 3.96 57 16:33 10.04.2022
4320 Clear 34 1009 8 10000 2.4 58 15:37 10.04.2022
4321 Clouds 34 1009 8 10000 1.84 66 14:25 10.04.2022
4322 Clouds 32 1009 9 10000 3.02 81 12:35 10.04.2022
4323 Clouds 32 1009 9 10000 3.02 81 12:35 10.04.2022
4324 Clouds 31 1011 9 10000 3.42 75 11:56 10.04.2022
4325 Clouds 31 1012 11 10000 4 61 11:29 10.04.2022
4326 Clouds 29 1012 11 10000 4 61 10:56 10.04.2022
4327 Clouds 27 1012 12 10000 4.5 44 09:58 10.04.2022
4328 Clouds 27 1012 12 10000 4.5 44 09:37 10.04.2022
4329 Clouds 25 1014 17 10000 5.23 20 08:22 10.04.2022
4330 Clouds 24 1013 16 10000 5.05 25 07:35 10.04.2022
4331 Clouds 22 1013 20 10000 4.66 1 05:50 10.04.2022
4332 Clear 24 1011 14 10000 4.51 3 02:25 10.04.2022
4333 Clouds 26 1010 11 10000 5.3 22 00:29 10.04.2022
4334 Clouds 28 1010 11 10000 5.31 22 23:49 09.04.2022
4335 Clouds 31 1010 10 10000 4.03 7 22:48 09.04.2022
4336 Clouds 28 1009 10 10000 2.81 159 21:35 09.04.2022
4337 Clouds 30 1009 9 10000 4.06 174 20:49 09.04.2022
4338 Clouds 30 1009 8 10000 4.19 183 20:26 09.04.2022
4339 Clouds 32 1009 7 10000 3.89 165 19:42 09.04.2022
4340 Clouds 33 1008 6 10000 4.11 143 18:59 09.04.2022
4341 Clouds 33 1008 7 10000 1.69 152 18:20 09.04.2022
4342 Clouds 36 1008 7 10000 1.69 152 17:39 09.04.2022
4343 Clouds 37 1007 6 10000 1.32 275 16:52 09.04.2022
4344 Clouds 38 1007 5 10000 3.25 292 15:55 09.04.2022
4345 Clouds 38 1007 5 10000 3.25 292 15:30 09.04.2022
4346 Clouds 38 1007 4 10000 4.13 288 14:44 09.04.2022
4347 Clouds 38 1007 4 10000 4.06 277 14:23 09.04.2022
4348 Clouds 38 1007 4 10000 3.74 240 13:18 09.04.2022
4349 Clouds 38 1007 4 10000 3.74 240 12:41 09.04.2022
4350 Clouds 37 1009 5 10000 5.64 207 11:22 09.04.2022
4351 Clouds 35 1010 5 10000 6.02 203 10:21 09.04.2022
4352 Clouds 33 1010 5 10000 6.02 203 09:38 09.04.2022
4353 Clouds 31 1011 6 10000 6.96 195 08:53 09.04.2022
4354 Clouds 25 1011 8 10000 4.87 177 06:56 09.04.2022
4355 Clouds 23 1011 14 10000 2.92 146 02:20 09.04.2022
4356 Clouds 26 1012 11 10000 3.36 134 23:45 08.04.2022
4357 Clear 28 1012 10 10000 4.41 120 21:58 08.04.2022
4358 Clear 28 1013 9 10000 4.23 104 21:29 08.04.2022
4359 Clear 29 1013 9 10000 4.23 104 20:38 08.04.2022
4360 Clear 30 1011 7 10000 2.07 104 19:20 08.04.2022
4361 Clear 32 1011 7 10000 2.07 104 18:30 08.04.2022
4362 Clear 34 1011 8 10000 1.52 144 17:49 08.04.2022
4363 Clear 34 1010 6 10000 1.99 148 17:25 08.04.2022
4364 Clear 36 1010 6 10000 1.99 148 16:47 08.04.2022
4365 Clear 37 1010 5 10000 1.82 138 15:57 08.04.2022
4366 Clear 37 1010 5 10000 1.7 134 15:26 08.04.2022
4367 Clear 37 1010 5 10000 1.55 133 14:27 08.04.2022
4368 Clear 35 1010 5 10000 1.9 140 13:46 08.04.2022
4369 Clear 35 1011 5 10000 1.85 129 13:27 08.04.2022
4370 Clear 33 1012 5 10000 1.88 111 11:56 08.04.2022
4371 Clear 32 1013 6 10000 2.34 94 10:33 08.04.2022
4372 Clear 30 1014 6 10000 2.91 78 09:38 08.04.2022
4373 Clear 28 1015 7 10000 3.46 68 08:44 08.04.2022
4374 Clouds 24 1016 10 10000 3.63 29 06:55 08.04.2022
4375 Clouds 22 1015 13 10000 3.52 353 05:18 08.04.2022
4376 Clear 25 1013 9 10000 2.79 335 01:27 08.04.2022
4377 Clear 25 1012 8 10000 3.6 184 00:25 08.04.2022
4378 Clear 25 1012 8 10000 3.61 184 00:25 08.04.2022
4379 Clear 29 1012 8 10000 4.63 174 22:59 07.04.2022
4380 Clear 29 1012 8 10000 4.63 174 22:39 07.04.2022
4381 Clear 29 1013 8 10000 4.67 167 22:21 07.04.2022
4382 Clear 31 1013 8 10000 4.67 167 21:51 07.04.2022
4383 Clear 31 1013 8 10000 4.51 157 21:19 07.04.2022
4384 Clear 31 1013 8 10000 4.51 157 20:37 07.04.2022
4385 Clear 33 1012 7 10000 4.81 154 18:35 07.04.2022
4386 Clear 36 1011 7 10000 4.07 136 17:27 07.04.2022
4387 Clear 38 1011 7 10000 4.07 136 16:44 07.04.2022
4388 Clear 38 1010 5 10000 2.8 141 16:22 07.04.2022
4389 Clear 38 1010 5 10000 2.8 141 16:22 07.04.2022
4390 Clear 38 1010 5 10000 2.22 157 14:50 07.04.2022
4391 Clear 37 1010 5 10000 2.27 172 13:43 07.04.2022
4392 Clear 37 1011 5 10000 2.53 188 12:46 07.04.2022
4393 Clear 36 1013 6 10000 3.87 205 11:30 07.04.2022
4394 Clouds 33 1014 6 10000 4.87 202 09:37 07.04.2022
4395 Clouds 32 1014 6 10000 5.35 198 08:38 07.04.2022
4396 Clouds 25 1014 9 10000 4.8 195 06:42 07.04.2022
4397 Clouds 28 1012 12 10000 4.9 163 02:51 07.04.2022
4398 Clouds 28 1012 11 10000 4.51 161 02:25 07.04.2022
4399 Clouds 28 1013 11 10000 4.28 168 00:27 07.04.2022
4400 Clouds 29 1013 12 10000 4.65 162 22:51 06.04.2022
4401 Clouds 29 1013 12 10000 5.64 151 22:27 06.04.2022
4402 Clouds 29 1013 12 10000 5.64 151 21:44 06.04.2022
4403 Clouds 29 1014 11 10000 5.39 151 20:36 06.04.2022
4404 Clouds 31 1013 10 10000 5.57 139 19:53 06.04.2022
4405 Clouds 31 1013 9 10000 5.12 132 18:51 06.04.2022
4406 Clear 31 1012 8 10000 4.41 129 18:25 06.04.2022
4407 Clear 34 1012 8 10000 4.41 129 17:35 06.04.2022
4408 Clear 35 1011 7 10000 3.42 135 16:38 06.04.2022
4409 Clear 36 1011 6 10000 3.53 138 15:48 06.04.2022
4410 Clear 36 1011 6 10000 3.82 141 15:21 06.04.2022
4411 Clear 36 1012 6 10000 4.35 144 13:24 06.04.2022
4412 Clear 35 1013 6 10000 4.86 144 12:26 06.04.2022
4413 Clear 33 1014 7 10000 5.1 146 10:47 06.04.2022
4414 Clear 33 1015 7 10000 4.78 149 10:25 06.04.2022
4415 Clear 32 1015 7 10000 4.78 149 09:40 06.04.2022
4416 Clear 32 1015 7 10000 4.78 149 09:40 06.04.2022
4417 Clear 30 1015 8 10000 4.43 149 08:32 06.04.2022
4418 Clear 27 1016 9 10000 3.97 145 07:50 06.04.2022
4419 Clear 23 1014 12 10000 2.37 144 03:54 06.04.2022
4420 Clear 26 1014 11 10000 3.64 117 23:53 05.04.2022
4421 Clear 27 1014 10 10000 4.06 112 22:58 05.04.2022
4422 Clear 28 1015 9 10000 4.83 110 21:23 05.04.2022
4423 Clear 29 1015 9 10000 5.39 101 20:26 05.04.2022
4424 Clear 30 1014 9 10000 5.94 106 19:47 05.04.2022
4425 Clear 32 1012 8 10000 6.58 88 18:18 05.04.2022
4426 Clear 36 1011 7 10000 5.34 76 16:54 05.04.2022
4427 Clear 37 1011 6 10000 4.39 70 15:57 05.04.2022
4428 Clear 37 1010 6 10000 2.67 68 15:35 05.04.2022
4429 Clear 37 1010 6 10000 2.67 68 14:36 05.04.2022
4430 Clear 37 1010 6 10000 2.22 74 13:35 05.04.2022
4431 Clear 36 1012 6 10000 1.92 83 11:51 05.04.2022
4432 Clear 36 1012 6 10000 1.92 83 11:51 05.04.2022
4433 Clear 36 1013 6 10000 2.03 88 11:32 05.04.2022
4434 Clear 35 1013 6 10000 2.03 88 10:41 05.04.2022
4435 Clear 32 1014 7 10000 1.83 114 08:55 05.04.2022
4436 Clear 28 1015 9 10000 1.68 139 07:22 05.04.2022
4437 Clear 26 1012 11 10000 2.06 114 01:58 05.04.2022
4438 Clear 27 1013 11 10000 2.93 157 22:44 04.04.2022
4439 Clear 27 1013 10 10000 3.1 133 22:26 04.04.2022
4440 Clear 28 1012 10 10000 3.77 102 21:21 04.04.2022
4441 Clear 30 1012 10 10000 3.77 102 20:50 04.04.2022
4442 Clouds 31 1012 9 10000 4.11 80 19:58 04.04.2022
4443 Clouds 31 1011 9 10000 4.38 75 19:26 04.04.2022
4444 Clouds 33 1011 9 10000 4.39 75 18:37 04.04.2022
4445 Clouds 37 1009 6 10000 4.95 22 16:37 04.04.2022
4446 Clouds 37 1009 6 10000 4.94 22 15:58 04.04.2022
4447 Clouds 37 1009 6 10000 4.65 13 15:33 04.04.2022
4448 Clouds 38 1009 6 10000 4.65 13 14:46 04.04.2022
4449 Clouds 38 1009 6 10000 4.02 13 13:33 04.04.2022
4450 Clouds 38 1011 6 10000 2.96 1 12:23 04.04.2022
4451 Clouds 37 1012 7 10000 1.85 346 11:29 04.04.2022
4452 Clear 34 1013 8 10000 1.38 260 09:20 04.04.2022
4453 Clouds 19 1012 14 10000 1.42 202 05:27 04.04.2022
4454 Clouds 24 1012 13 10000 2.4 194 02:41 04.04.2022
4455 Clouds 25 1013 12 10000 2.22 90 22:47 03.04.2022
4456 Clouds 27 1013 12 10000 3.54 70 21:48 03.04.2022
4457 Clouds 27 1013 11 10000 3.46 53 21:19 03.04.2022
4458 Clouds 30 1012 11 10000 4.05 43 19:52 03.04.2022
4459 Clouds 32 1011 10 10000 4.38 39 18:33 03.04.2022
4460 Clouds 34 1010 9 10000 4.24 33 17:49 03.04.2022
4461 Clouds 34 1009 8 10000 4.31 18 17:27 03.04.2022
4462 Clouds 36 1009 8 10000 4.31 18 16:48 03.04.2022
4463 Clouds 36 1009 7 10000 5.44 9 15:32 03.04.2022
4464 Clouds 37 1010 7 10000 3.37 1 13:58 03.04.2022
4465 Clouds 36 1011 7 10000 2.69 1 12:56 03.04.2022
4466 Clear 36 1012 7 10000 1.73 354 11:33 03.04.2022
4467 Clear 32 1014 8 10000 0.78 261 09:40 03.04.2022
4468 Clear 31 1015 9 10000 0.94 226 08:50 03.04.2022
4469 Clouds 19 1015 13 10000 1.92 231 05:44 03.04.2022
4470 Clear 21 1014 16 10000 1 43 02:55 03.04.2022
4471 Clouds 23 1014 13 10000 0.78 7 23:22 02.04.2022
4472 Clouds 23 1014 13 10000 0.78 7 23:22 02.04.2022
4473 Clouds 25 1014 13 10000 0.78 7 22:40 02.04.2022
4474 Clouds 25 1015 12 10000 1.61 34 21:54 02.04.2022
4475 Clouds 25 1015 11 10000 2.98 43 21:19 02.04.2022
4476 Clouds 28 1015 11 10000 2.98 43 20:35 02.04.2022
4477 Clear 30 1014 10 10000 4.18 42 18:47 02.04.2022
4478 Clear 30 1013 10 10000 3.15 41 18:19 02.04.2022
4479 Clear 35 1012 9 10000 2.25 16 16:45 02.04.2022
4480 Clear 35 1012 8 10000 1.63 1 15:27 02.04.2022
4481 Clear 35 1012 8 10000 1.63 1 14:52 02.04.2022
4482 Clouds 35 1013 8 10000 1.21 12 14:26 02.04.2022
4483 Clouds 34 1012 8 10000 1.08 15 13:31 02.04.2022
4484 Clouds 36 1014 8 10000 0.84 133 12:20 02.04.2022
4485 Clouds 31 1017 8 10000 0.97 122 10:22 02.04.2022
4486 Clouds 25 1018 9 10000 1.21 47 07:48 02.04.2022
4487 Clear 19 1017 16 10000 2.77 9 04:34 02.04.2022
4488 Clear 22 1016 15 10000 2.62 9 01:21 02.04.2022
4489 Clear 24 1016 15 10000 1.87 0 23:54 01.04.2022
4490 Clear 25 1016 14 10000 1.93 19 22:46 01.04.2022
4491 Clear 28 1016 12 10000 3.1 62 20:55 01.04.2022
4492 Clear 28 1016 12 10000 3.1 62 20:35 01.04.2022
4493 Clear 29 1016 11 10000 3.52 67 19:45 01.04.2022
4494 Clear 29 1015 10 10000 3.92 69 19:26 01.04.2022
4495 Clear 31 1015 10 10000 3.92 69 18:37 01.04.2022
4496 Clear 33 1014 10 10000 4.12 70 17:38 01.04.2022
4497 Clear 35 1013 7 10000 3.84 57 15:46 01.04.2022
4498 Clear 35 1013 7 10000 3.15 63 14:53 01.04.2022
4499 Clear 35 1013 7 10000 2.88 61 13:40 01.04.2022
4500 Clear 35 1013 7 10000 2.56 58 13:20 01.04.2022
4501 Clear 35 1014 8 10000 2.45 55 12:24 01.04.2022
4502 Clear 34 1015 8 10000 2.74 55 10:50 01.04.2022
4503 Clear 32 1016 8 10000 2.23 50 09:41 01.04.2022
4504 Clear 25 1017 8 10000 1.36 188 07:41 01.04.2022
4505 Clear 17 1017 11 10000 1.36 176 05:38 01.04.2022
4506 Clear 17 1016 14 10000 1.49 164 04:41 01.04.2022
4507 Clear 18 1015 14 10000 2.32 167 03:18 01.04.2022
4508 Clear 23 1015 14 10000 3.04 165 01:35 01.04.2022
4509 Clear 25 1016 12 10000 3.73 106 22:34 31.03.2022
4510 Clear 26 1016 12 10000 3.73 106 21:44 31.03.2022
4511 Clear 28 1016 10 10000 3.13 99 20:51 31.03.2022
4512 Clear 28 1015 10 10000 2.32 118 20:28 31.03.2022
4513 Clear 29 1015 10 10000 2.91 106 19:43 31.03.2022
4514 Clear 31 1015 9 10000 2.33 126 18:34 31.03.2022
4515 Clear 35 1013 9 10000 1.67 104 16:53 31.03.2022
4516 Clear 34 1013 7 10000 2.17 65 15:56 31.03.2022
4517 Clear 34 1013 7 10000 2.25 63 15:29 31.03.2022
4518 Clear 35 1013 7 10000 2.25 63 14:48 31.03.2022
4519 Clear 34 1013 7 10000 1.87 70 13:42 31.03.2022
4520 Clear 32 1014 7 10000 1.68 136 11:31 31.03.2022
4521 Clear 31 1016 8 10000 3.36 169 10:26 31.03.2022
4522 Clear 29 1016 8 10000 3.36 169 09:40 31.03.2022
4523 Clouds 22 1017 9 10000 3.17 178 07:49 31.03.2022
4524 Clouds 17 1015 12 10000 3.17 167 03:30 31.03.2022
4525 Clouds 21 1016 11 10000 3.19 129 23:25 30.03.2022
4526 Clouds 21 1017 11 10000 3.33 112 22:19 30.03.2022
4527 Clouds 23 1017 11 10000 3.33 112 21:31 30.03.2022
4528 Clouds 24 1017 11 10000 3.34 95 20:44 30.03.2022
4529 Clouds 25 1017 11 10000 3.48 94 19:48 30.03.2022
4530 Clouds 26 1016 11 10000 2.82 103 18:44 30.03.2022
4531 Clouds 28 1015 10 10000 2.2 136 17:51 30.03.2022
4532 Clouds 28 1015 9 10000 1.69 155 17:20 30.03.2022
4533 Clouds 30 1014 8 10000 1.19 132 16:40 30.03.2022
4534 Clouds 30 1014 8 10000 1.19 132 15:55 30.03.2022
4535 Clouds 30 1014 8 10000 1.13 120 14:36 30.03.2022
4536 Clouds 29 1015 8 10000 0.94 90 13:22 30.03.2022
4537 Clouds 31 1016 8 10000 0.77 63 12:22 30.03.2022
4538 Clouds 26 1018 8 10000 0.79 47 10:48 30.03.2022
4539 Clouds 26 1019 7 10000 1.14 36 09:43 30.03.2022
4540 Clouds 22 1020 7 10000 1.27 28 08:21 30.03.2022
4541 Clouds 15 1020 8 10000 1.04 30 06:50 30.03.2022
4542 Clouds 11 1019 10 10000 1.16 355 05:40 30.03.2022
4543 Clear 14 1018 11 10000 1.41 16 01:48 30.03.2022
4544 Clear 17 1019 10 10000 2.57 23 22:39 29.03.2022
4545 Clear 17 1020 9 10000 2.92 20 21:48 29.03.2022
4546 Clear 17 1020 9 10000 3.33 21 21:20 29.03.2022
4547 Clear 20 1020 8 10000 4.06 22 20:25 29.03.2022
4548 Clear 21 1020 9 10000 4.49 28 19:27 29.03.2022
4549 Clear 22 1020 9 10000 4.49 28 18:53 29.03.2022
4550 Clear 24 1019 9 10000 4.83 27 17:48 29.03.2022
4551 Clear 25 1018 9 10000 4.9 20 16:59 29.03.2022
4552 Clear 25 1018 9 10000 5.44 10 16:25 29.03.2022
4553 Clear 26 1018 9 10000 5.26 2 14:58 29.03.2022
4554 Clear 26 1018 9 10000 5.26 2 14:39 29.03.2022
4555 Clear 25 1018 10 10000 5.26 358 13:30 29.03.2022
4556 Clear 23 1019 11 10000 5.18 353 11:46 29.03.2022
4557 Clear 21 1021 12 10000 5.15 354 10:59 29.03.2022
4558 Clear 19 1022 14 10000 5.24 357 09:50 29.03.2022
4559 Clear 17 1023 20 10000 6.08 4 08:20 29.03.2022
4560 Clear 13 1023 27 10000 5.29 5 05:44 29.03.2022
4561 Clear 16 1022 23 10000 4.34 9 01:31 29.03.2022
4562 Clear 16 1023 18 10000 3.72 24 23:26 28.03.2022
4563 Clear 17 1023 18 10000 3.72 24 22:55 28.03.2022
4564 Clear 17 1023 18 10000 3.72 24 22:30 28.03.2022
4565 Clear 18 1024 16 10000 4.08 27 21:18 28.03.2022
4566 Clear 19 1023 13 10000 5.17 32 20:32 28.03.2022
4567 Clear 20 1023 13 10000 5.17 32 19:46 28.03.2022
4568 Clear 20 1022 12 10000 5.68 29 19:28 28.03.2022
4569 Clear 21 1022 12 10000 5.68 29 18:40 28.03.2022
4570 Clear 22 1021 12 10000 5.94 26 17:39 28.03.2022
4571 Clear 23 1021 11 10000 6.04 26 16:38 28.03.2022
4572 Clear 24 1020 11 10000 6.61 21 14:49 28.03.2022
4573 Clear 24 1019 11 10000 6.66 17 14:22 28.03.2022
4574 Clear 23 1020 11 10000 6.35 17 12:41 28.03.2022
4575 Clear 22 1021 12 10000 5.99 19 11:32 28.03.2022
4576 Clear 20 1023 14 10000 5.95 20 09:43 28.03.2022
4577 Clear 20 1024 15 10000 6.01 21 09:19 28.03.2022
4578 Clear 19 1025 17 10000 5.77 22 08:22 28.03.2022
4579 Clear 17 1025 17 10000 5.78 22 07:40 28.03.2022
4580 Clear 13 1023 28 10000 3.45 20 04:18 28.03.2022
4581 Clear 16 1023 25 10000 4.52 23 23:33 27.03.2022
4582 Clear 17 1023 23 10000 4.38 23 22:25 27.03.2022
4583 Clear 18 1023 23 10000 4.38 23 21:42 27.03.2022
4584 Clear 18 1023 22 10000 4.16 21 20:58 27.03.2022
4585 Clear 19 1023 19 10000 4.62 33 19:49 27.03.2022
4586 Clear 19 1022 18 10000 4.49 35 19:26 27.03.2022
4587 Clear 20 1021 17 10000 4.75 32 18:28 27.03.2022
4588 Clear 21 1021 17 10000 4.75 32 17:40 27.03.2022
4589 Clear 22 1020 15 10000 5.45 28 16:31 27.03.2022
4590 Clear 23 1019 13 10000 5.47 26 15:25 27.03.2022
4591 Clear 22 1019 13 10000 5.15 21 13:56 27.03.2022
4592 Clear 23 1020 13 10000 5.02 22 12:37 27.03.2022
4593 Clear 21 1022 15 10000 5.42 23 11:20 27.03.2022
4594 Clear 16 1024 18 10000 6.01 24 08:53 27.03.2022
4595 Clear 12 1023 26 10000 5.35 23 05:54 27.03.2022
4596 Clear 13 1021 26 10000 4.73 22 00:48 27.03.2022
4597 Clear 15 1021 25 10000 4.49 28 23:42 26.03.2022
4598 Clear 15 1021 23 10000 4.41 28 22:38 26.03.2022
4599 Clear 16 1022 22 10000 4.41 27 21:38 26.03.2022
4600 Clear 17 1022 21 10000 4.43 31 20:57 26.03.2022
4601 Clear 18 1022 19 10000 4.45 30 19:21 26.03.2022
4602 Clear 20 1020 17 10000 5.35 41 17:54 26.03.2022
4603 Clear 20 1020 17 10000 5.35 41 17:33 26.03.2022
4604 Clear 21 1018 13 10000 5.51 41 16:27 26.03.2022
4605 Clear 23 1017 11 10000 5.89 40 14:57 26.03.2022
4606 Clear 23 1017 11 10000 5.56 38 13:53 26.03.2022
4607 Clear 23 1017 10 10000 5.24 38 12:51 26.03.2022
4608 Clear 22 1017 10 10000 5.03 40 11:41 26.03.2022
4609 Clear 22 1019 11 10000 5.67 43 10:22 26.03.2022
4610 Clear 19 1020 12 10000 6.57 44 08:34 26.03.2022
4611 Clear 15 1021 16 10000 7.69 30 05:54 26.03.2022
4612 Clear 14 1019 21 10000 4.23 18 04:23 26.03.2022
4613 Clear 16 1015 21 10000 3.56 48 00:22 26.03.2022
4614 Clear 19 1014 19 10000 3.14 85 21:41 25.03.2022
4615 Clear 20 1014 19 10000 3.94 108 20:46 25.03.2022
4616 Clear 21 1014 18 10000 4.55 101 19:36 25.03.2022
4617 Clear 22 1013 16 10000 5.07 78 18:47 25.03.2022
4618 Clear 24 1012 15 10000 3.11 91 17:37 25.03.2022
4619 Clear 25 1012 15 10000 3.11 90 16:50 25.03.2022
4620 Clear 25 1011 14 10000 2.84 91 16:18 25.03.2022
4621 Clear 27 1011 12 10000 0.87 129 14:22 25.03.2022
4622 Clear 26 1010 12 10000 1.45 167 12:33 25.03.2022
4623 Clear 21 1013 15 10000 1.41 78 09:55 25.03.2022
4624 Clear 21 1014 16 10000 2.47 67 09:26 25.03.2022
4625 Clear 18 1015 18 10000 3.21 48 07:53 25.03.2022
4626 Clear 18 1015 20 10000 3.61 43 07:26 25.03.2022
4627 Clear 15 1015 31 10000 5.5 22 05:23 25.03.2022
4628 Clear 19 1013 30 10000 5.58 1 00:33 25.03.2022
4629 Clear 21 1012 23 10000 5.87 18 22:30 24.03.2022
4630 Clear 23 1012 19 10000 5.99 29 21:34 24.03.2022
4631 Clear 26 1011 13 10000 7.56 2 19:50 24.03.2022
4632 Clear 28 1009 11 10000 2.78 0 18:58 24.03.2022
4633 Clear 30 1009 11 10000 2.61 359 17:45 24.03.2022
4634 Clear 33 1008 10 10000 2.88 337 16:54 24.03.2022
4635 Clear 34 1007 7 10000 5.71 275 15:19 24.03.2022
4636 Clear 35 1007 7 10000 5.71 275 14:42 24.03.2022
4637 Clear 35 1007 7 10000 6.49 268 13:59 24.03.2022
4638 Clear 36 1007 7 10000 6.74 260 12:42 24.03.2022
4639 Clear 34 1007 7 10000 5.9 246 11:33 24.03.2022
4640 Clear 33 1009 7 10000 3.46 230 09:48 24.03.2022
4641 Clear 31 1010 8 10000 2.74 224 08:40 24.03.2022
4642 Clear 26 1011 10 10000 2.48 262 06:44 24.03.2022
4643 Clear 21 1010 15 10000 0.7 77 01:43 24.03.2022
4644 Clouds 24 1010 13 10000 2.2 18 22:37 23.03.2022
4645 Clouds 23 1011 12 10000 3.29 19 21:25 23.03.2022
4646 Clouds 23 1011 12 10000 3.29 19 21:25 23.03.2022
4647 Clouds 23 1011 12 10000 3.29 19 21:25 23.03.2022
4648 Clouds 24 1011 12 10000 3.29 19 20:47 23.03.2022
4649 Clouds 25 1011 11 10000 2.91 359 19:45 23.03.2022
4650 Clouds 28 1010 10 10000 3.77 338 18:30 23.03.2022
4651 Clouds 30 1009 10 10000 3.03 300 17:36 23.03.2022
4652 Clouds 33 1008 9 10000 4.4 280 16:20 23.03.2022
4653 Clouds 34 1008 8 10000 5.48 265 14:50 23.03.2022
4654 Clouds 34 1008 8 10000 4.82 247 14:21 23.03.2022
4655 Clouds 33 1008 7 10000 3.83 225 12:24 23.03.2022
4656 Clear 31 1011 6 10000 4.82 195 09:38 23.03.2022
4657 Clouds 24 1012 9 10000 3.6 182 06:40 23.03.2022
4658 Clouds 19 1011 16 10000 1.99 210 03:58 23.03.2022
4659 Clear 21 1009 16 10000 1.79 241 00:29 23.03.2022
4660 Clear 22 1010 14 10000 1.71 215 22:26 22.03.2022
4661 Clear 24 1010 13 10000 2.65 215 21:29 22.03.2022
4662 Clear 25 1010 13 10000 2.65 215 20:39 22.03.2022
4663 Clear 27 1009 12 10000 3.25 226 19:39 22.03.2022
4664 Clear 27 1009 11 10000 3.58 193 19:18 22.03.2022
4665 Clear 31 1009 11 10000 4.27 175 17:58 22.03.2022
4666 Clear 31 1008 10 10000 4.42 188 17:25 22.03.2022
4667 Clear 34 1007 9 10000 4.74 212 15:54 22.03.2022
4668 Clear 34 1007 8 10000 6.76 231 15:22 22.03.2022
4669 Clear 33 1007 8 10000 6.76 231 14:46 22.03.2022
4670 Clear 33 1006 8 10000 7.46 234 14:25 22.03.2022
4671 Clear 34 1006 8 10000 7.61 226 12:46 22.03.2022
4672 Clear 32 1008 7 10000 7.53 216 11:36 22.03.2022
4673 Clear 31 1008 7 10000 7.53 216 10:35 22.03.2022
4674 Clear 26 1011 6 10000 5.6 191 07:57 22.03.2022
4675 Clear 20 1011 11 10000 2.77 177 05:20 22.03.2022
4676 Clear 19 1011 13 10000 3.19 171 03:41 22.03.2022
4677 Clouds 22 1009 13 10000 4.11 152 23:49 21.03.2022
4678 Clouds 23 1010 14 10000 3.78 158 21:58 21.03.2022
4679 Clouds 24 1010 13 10000 4.2 138 20:47 21.03.2022
4680 Clouds 24 1010 13 10000 5.74 133 20:27 21.03.2022
4681 Clouds 25 1010 13 10000 5.74 133 19:57 21.03.2022
4682 Clouds 25 1010 13 10000 6.23 125 19:24 21.03.2022
4683 Clear 27 1009 13 10000 5.7 120 17:53 21.03.2022
4684 Clear 27 1008 13 10000 5.72 136 17:18 21.03.2022
4685 Clear 29 1008 13 10000 5.72 136 16:39 21.03.2022
4686 Clear 30 1007 12 10000 6.1 136 15:47 21.03.2022
4687 Clear 30 1007 11 10000 4.74 154 14:51 21.03.2022
4688 Clear 30 1007 10 10000 5.5 149 13:43 21.03.2022
4689 Clouds 29 1007 10 10000 5.73 139 12:33 21.03.2022
4690 Clouds 29 1008 10 10000 5.31 147 11:44 21.03.2022
4691 Clouds 27 1009 10 10000 5.44 154 10:34 21.03.2022
4692 Clouds 26 1012 8 10000 4.86 159 08:29 21.03.2022
4693 Clouds 23 1012 7 10000 4.32 162 06:36 21.03.2022
4694 Clouds 21 1011 10 10000 3.59 156 02:40 21.03.2022
4695 Clouds 21 1010 10 10000 4.88 154 23:40 20.03.2022
4696 Clouds 21 1011 10 10000 4.61 144 22:43 20.03.2022
4697 Clear 21 1011 10 10000 4.89 153 21:49 20.03.2022
4698 Clear 21 1011 9 10000 4.91 149 21:20 20.03.2022
4699 Clear 23 1011 9 10000 4.91 149 20:42 20.03.2022
4700 Clear 22 1011 9 10000 4.84 144 19:57 20.03.2022
4701 Clear 22 1011 9 10000 4.73 130 19:26 20.03.2022
4702 Clear 26 1011 9 10000 4.55 119 17:51 20.03.2022
4703 Clear 26 1010 9 10000 3.67 132 17:29 20.03.2022
4704 Clear 28 1010 9 10000 3.67 132 16:46 20.03.2022
4705 Clear 30 1010 7 10000 5.02 127 14:54 20.03.2022
4706 Clear 30 1010 6 10000 5.01 131 13:49 20.03.2022
4707 Clear 30 1010 7 10000 4.64 136 12:22 20.03.2022
4708 Clear 28 1012 7 10000 4.28 145 10:42 20.03.2022
4709 Clear 24 1014 8 10000 4.28 166 08:37 20.03.2022
4710 Clear 18 1015 10 10000 4.54 167 06:55 20.03.2022
4711 Clear 16 1015 16 10000 3.79 159 03:59 20.03.2022
4712 Clear 16 1014 13 10000 4.25 147 01:29 20.03.2022
4713 Clear 16 1014 13 10000 4.34 151 00:36 20.03.2022
4714 Clear 17 1015 12 10000 4.61 146 22:56 19.03.2022
4715 Clear 19 1016 12 10000 4.18 136 21:27 19.03.2022
4716 Clear 19 1016 12 10000 4.09 133 20:19 19.03.2022
4717 Clear 22 1016 11 10000 4.28 114 18:44 19.03.2022
4718 Clear 22 1015 11 10000 3.86 121 18:23 19.03.2022
4719 Clear 23 1015 11 10000 3.86 121 17:34 19.03.2022
4720 Clear 27 1014 10 10000 3.17 109 15:43 19.03.2022
4721 Clear 27 1014 9 10000 3.26 97 14:30 19.03.2022
4722 Clear 28 1014 9 10000 2.3 89 12:56 19.03.2022
4723 Clear 28 1014 9 10000 2.3 89 12:38 19.03.2022
4724 Clear 26 1014 9 10000 1.6 94 11:49 19.03.2022
4725 Clear 24 1015 9 10000 1.31 136 10:41 19.03.2022
4726 Clear 15 1020 7 10000 2.57 170 06:27 19.03.2022
4727 Clear 9 1019 9 10000 2.28 147 02:48 19.03.2022
4728 Clear 10 1018 9 10000 2.07 138 01:32 19.03.2022
4729 Clear 11 1019 9 10000 1.94 101 23:26 18.03.2022
4730 Clear 12 1019 8 10000 2.31 96 22:25 18.03.2022
4731 Clear 14 1020 8 10000 2.59 83 20:56 18.03.2022
4732 Clear 15 1020 8 10000 2.82 69 19:49 18.03.2022
4733 Clear 15 1020 8 10000 3.15 53 19:19 18.03.2022
4734 Clear 19 1019 8 10000 3.72 39 17:39 18.03.2022
4735 Clear 21 1018 8 10000 3.44 26 16:46 18.03.2022
4736 Clear 23 1017 8 10000 3.18 7 14:37 18.03.2022
4737 Clear 23 1017 8 10000 2.95 354 14:18 18.03.2022
4738 Clear 22 1017 9 10000 2.86 339 12:19 18.03.2022
4739 Clear 20 1019 8 10000 2.67 337 10:39 18.03.2022
4740 Clear 17 1021 8 10000 3.02 346 09:23 18.03.2022
4741 Clear 13 1022 9 10000 3.03 344 07:45 18.03.2022
4742 Clear 8 1023 12 10000 4.19 350 05:46 18.03.2022
4743 Clear 8 1022 15 10000 3.42 350 02:50 18.03.2022
4744 Clear 9 1021 14 10000 3.45 339 00:21 18.03.2022
4745 Clear 11 1021 13 10000 3.18 336 22:56 17.03.2022
4746 Clear 11 1022 13 10000 3.08 337 22:22 17.03.2022
4747 Clear 11 1022 13 10000 3.08 337 21:47 17.03.2022
4748 Clear 11 1022 12 10000 3.37 345 21:19 17.03.2022
4749 Clear 12 1023 11 10000 3.61 353 20:32 17.03.2022
4750 Clear 13 1023 11 10000 3.61 353 19:41 17.03.2022
4751 Clouds 14 1022 11 10000 3.85 2 18:57 17.03.2022
4752 Clear 15 1021 9 10000 4.2 20 17:55 17.03.2022
4753 Clear 16 1020 7 10000 4.7 14 16:34 17.03.2022
4754 Clear 17 1020 7 10000 4.7 14 15:44 17.03.2022
4755 Clear 17 1020 6 10000 5.14 7 15:22 17.03.2022
4756 Clear 17 1019 6 10000 4.99 5 13:49 17.03.2022
4757 Clear 16 1019 6 10000 5.39 2 12:49 17.03.2022
4758 Clear 15 1020 6 10000 5.66 3 11:53 17.03.2022
4759 Clear 15 1021 7 10000 6.18 2 11:22 17.03.2022
4760 Clouds 13 1022 8 10000 6.63 4 09:47 17.03.2022
4761 Clouds 12 1023 11 10000 7.61 4 08:31 17.03.2022
4762 Clouds 9 1024 24 10000 9.06 2 06:25 17.03.2022
4763 Clouds 8 1024 24 10000 9.06 2 05:39 17.03.2022
4764 Clouds 8 1024 24 10000 9.06 2 05:39 17.03.2022
4765 Clouds 12 1019 27 10000 9.72 4 00:42 17.03.2022
4766 Clouds 13 1019 28 10000 8.9 358 22:59 16.03.2022
4767 Clouds 13 1019 28 10000 8.9 358 22:39 16.03.2022
4768 Clouds 13 1019 34 10000 8.9 356 22:19 16.03.2022
4769 Clouds 13 1019 36 10000 9.23 352 21:18 16.03.2022
4770 Clouds 13 1020 30 10000 9.26 355 19:26 16.03.2022
4771 Clouds 14 1020 30 10000 9.26 355 18:55 16.03.2022
4772 Clouds 14 1018 25 10000 9.24 2 18:20 16.03.2022
4773 Clear 16 1016 23 10000 8.14 4 17:37 16.03.2022
4774 Clear 17 1016 23 10000 8.14 4 16:49 16.03.2022
4775 Clear 19 1015 22 10000 7.52 6 15:35 16.03.2022
4776 Clear 20 1013 19 10000 6.6 7 13:41 16.03.2022
4777 Clear 20 1012 18 10000 5.92 16 12:59 16.03.2022
4778 Clear 20 1013 18 10000 5.99 17 11:44 16.03.2022
4779 Clear 20 1013 19 10000 6.18 20 11:18 16.03.2022
4780 Clear 18 1014 20 10000 6.65 21 09:58 16.03.2022
4781 Clear 16 1015 22 10000 7.41 17 08:37 16.03.2022
4782 Clear 16 1012 33 10000 5.83 14 03:30 16.03.2022
4783 Clear 20 1011 25 10000 5.98 14 23:37 15.03.2022
4784 Clear 21 1011 24 10000 6.89 15 22:37 15.03.2022
4785 Clear 22 1012 24 10000 7.53 14 21:27 15.03.2022
4786 Clear 24 1011 22 10000 7.75 7 19:47 15.03.2022
4787 Clear 26 1010 20 10000 7.57 7 18:38 15.03.2022
4788 Clear 33 1007 13 10000 1.78 173 16:45 15.03.2022
4789 Clear 36 1006 10 10000 6.43 152 15:44 15.03.2022
4790 Clear 36 1006 7 10000 5.87 183 14:55 15.03.2022
4791 Clear 36 1006 7 10000 5.87 183 14:30 15.03.2022
4792 Clear 35 1006 7 10000 6.08 208 13:24 15.03.2022
4793 Clear 33 1007 7 10000 7 214 11:34 15.03.2022
4794 Clear 32 1007 7 10000 7 214 10:55 15.03.2022
4795 Clear 30 1010 8 10000 7.1 201 09:29 15.03.2022
4796 Clear 26 1010 8 10000 7.1 201 08:32 15.03.2022
4797 Clear 26 1011 9 10000 6.92 196 07:39 15.03.2022
4798 Clear 22 1012 12 10000 4.24 199 06:32 15.03.2022
4799 Clear 21 1011 15 10000 3.05 183 01:57 15.03.2022
4800 Clear 23 1011 15 10000 3.18 187 23:31 14.03.2022
4801 Clear 25 1011 15 10000 3.84 177 22:54 14.03.2022
4802 Clear 26 1012 14 10000 4.65 165 21:56 14.03.2022
4803 Clear 26 1012 12 10000 5.44 161 21:18 14.03.2022
4804 Clear 26 1012 12 10000 5.44 161 20:30 14.03.2022
4805 Clear 27 1012 11 10000 7 148 19:33 14.03.2022
4806 Clear 28 1011 9 10000 6.82 145 17:59 14.03.2022
4807 Clear 28 1011 9 10000 6.82 145 17:41 14.03.2022
4808 Clear 29 1010 9 10000 5.57 145 16:33 14.03.2022
4809 Clear 30 1009 7 10000 6.59 153 14:58 14.03.2022
4810 Clear 30 1009 7 10000 7.25 156 13:58 14.03.2022
4811 Clouds 28 1011 8 10000 8.09 156 11:27 14.03.2022
4812 Clouds 22 1012 11 10000 8.17 155 09:58 14.03.2022
4813 Clouds 22 1012 11 10000 8.17 155 09:38 14.03.2022
4814 Clouds 20 1014 15 10000 7.33 159 08:58 14.03.2022
4815 Clouds 20 1014 15 10000 7.33 159 08:30 14.03.2022
4816 Clouds 15 1015 33 10000 5.8 141 06:47 14.03.2022
4817 Clear 14 1014 44 10000 3.31 79 03:27 14.03.2022
4818 Clear 15 1014 41 10000 2.78 66 01:42 14.03.2022
4819 Clear 16 1013 34 10000 2.38 64 00:29 14.03.2022
4820 Clear 21 1012 28 10000 6.49 134 21:51 13.03.2022
4821 Clear 21 1012 25 10000 7.39 128 21:22 13.03.2022
4822 Clear 22 1012 25 10000 7.39 128 20:46 13.03.2022
4823 Clear 22 1012 21 10000 7.4 115 20:22 13.03.2022
4824 Clear 23 1012 21 10000 7.41 115 19:42 13.03.2022
4825 Clear 23 1012 17 10000 6.61 123 19:22 13.03.2022
4826 Clear 26 1012 17 10000 6.61 123 18:45 13.03.2022
4827 Clear 26 1011 14 10000 6.33 130 18:26 13.03.2022
4828 Clear 27 1011 14 10000 6.33 130 17:38 13.03.2022
4829 Clear 28 1010 13 10000 5.31 122 16:45 13.03.2022
4830 Clear 28 1010 12 10000 4.02 120 16:23 13.03.2022
4831 Clear 29 1010 12 10000 4.02 120 15:42 13.03.2022
4832 Clear 30 1009 11 10000 3.47 129 14:37 13.03.2022
4833 Clear 29 1009 14 10000 5.67 154 13:28 13.03.2022
4834 Clear 30 1010 15 10000 6.38 152 12:23 13.03.2022
4835 Clear 26 1010 15 10000 6.38 152 11:39 13.03.2022
4836 Clear 24 1011 16 10000 6.06 154 10:50 13.03.2022
4837 Clear 24 1012 17 10000 6 153 10:28 13.03.2022
4838 Clear 22 1012 17 10000 6 153 09:42 13.03.2022
4839 Clear 20 1014 19 10000 5.16 141 08:49 13.03.2022
4840 Clear 20 1014 19 10000 5.16 141 08:49 13.03.2022
4841 Clear 20 1015 21 10000 4.85 126 08:29 13.03.2022
4842 Clear 16 1015 22 10000 4.64 113 06:40 13.03.2022
4843 Clear 14 1015 24 10000 3.82 83 04:51 13.03.2022
4844 Clear 15 1013 29 10000 4.26 48 01:46 13.03.2022
4845 Clear 18 1012 35 10000 3.47 67 22:51 12.03.2022
4846 Clear 19 1011 33 10000 4.6 109 21:32 12.03.2022
4847 Clear 21 1011 29 10000 6.81 101 20:19 12.03.2022
4848 Clear 23 1011 29 10000 6.81 101 19:44 12.03.2022
4849 Clear 24 1011 26 10000 6.72 90 18:38 12.03.2022
4850 Clear 26 1009 20 10000 6.84 85 17:48 12.03.2022
4851 Clear 27 1009 16 10000 3.91 82 16:28 12.03.2022
4852 Clear 28 1009 16 10000 3.91 82 15:40 12.03.2022
4853 Clear 28 1008 14 10000 3.64 136 15:18 12.03.2022
4854 Clear 28 1009 15 10000 5.09 145 13:53 12.03.2022
4855 Clear 26 1010 16 10000 5.84 139 12:27 12.03.2022
4856 Clear 25 1010 16 10000 5.84 139 11:52 12.03.2022
4857 Clear 25 1010 18 10000 5.86 125 11:21 12.03.2022
4858 Clear 23 1012 20 10000 5.94 108 09:59 12.03.2022
4859 Clear 23 1012 20 10000 5.94 108 09:40 12.03.2022
4860 Clear 19 1015 27 10000 6.01 85 07:51 12.03.2022
4861 Clear 17 1015 38 10000 6.16 70 05:46 12.03.2022
4862 Clouds 20 1012 30 10000 6.09 40 00:27 12.03.2022
4863 Clouds 21 1012 30 10000 6.09 40 23:37 11.03.2022
4864 Clouds 22 1012 27 10000 7.49 29 21:55 11.03.2022
4865 Clouds 24 1012 25 10000 7.72 20 20:59 11.03.2022
4866 Clouds 24 1012 25 10000 7.72 20 20:40 11.03.2022
4867 Clouds 24 1012 24 10000 8.17 17 20:19 11.03.2022
4868 Clouds 27 1011 22 10000 8.47 22 19:28 11.03.2022
4869 Clouds 31 1009 17 10000 3.9 345 17:38 11.03.2022
4870 Clouds 31 1008 15 10000 3.61 327 17:19 11.03.2022
4871 Clouds 33 1007 14 10000 2.57 314 15:57 11.03.2022
4872 Clouds 33 1006 12 10000 2.91 274 15:29 11.03.2022
4873 Clouds 37 1006 11 10000 4.69 259 13:27 11.03.2022
4874 Clouds 37 1006 10 10000 5.63 249 12:23 11.03.2022
4875 Clouds 35 1006 10 10000 5.63 249 11:56 11.03.2022
4876 Clouds 35 1008 10 10000 6.61 244 10:24 11.03.2022
4877 Clouds 34 1008 10 10000 6.61 244 09:32 11.03.2022
4878 Clouds 32 1010 10 10000 8.14 236 08:25 11.03.2022
4879 Clouds 31 1010 10 10000 8.14 236 07:46 11.03.2022
4880 Clouds 29 1010 12 10000 5.81 238 06:22 11.03.2022
4881 Clouds 26 1009 15 10000 5.12 211 04:24 11.03.2022
4882 Clouds 29 1007 14 10000 6.68 177 00:21 11.03.2022
4883 Clouds 30 1007 14 10000 7.75 174 22:31 10.03.2022
4884 Clouds 30 1007 13 10000 8.96 166 21:50 10.03.2022
4885 Clouds 30 1007 13 10000 8.85 166 21:23 10.03.2022
4886 Clear 33 1007 12 10000 8.28 173 19:51 10.03.2022
4887 Clouds 33 1008 12 10000 7.68 178 18:56 10.03.2022
4888 Clouds 33 1007 11 10000 7.98 171 17:36 10.03.2022
4889 Clouds 36 1006 10 10000 7.14 168 16:37 10.03.2022
4890 Clouds 38 1004 8 10000 7.86 168 15:26 10.03.2022
4891 Clouds 38 1004 7 10000 8.26 177 13:30 10.03.2022
4892 Clear 37 1004 7 10000 6.38 192 12:34 10.03.2022
4893 Clear 36 1006 8 10000 6.31 199 11:20 10.03.2022
4894 Clear 33 1009 10 10000 6.05 199 09:22 10.03.2022
4895 Clear 30 1011 11 10000 6.44 195 07:43 10.03.2022
4896 Clear 21 1010 21 10000 5.42 167 04:47 10.03.2022
4897 Clear 21 1008 21 10000 5.09 160 01:50 10.03.2022
4898 Clouds 25 1009 20 10000 6.11 164 23:28 09.03.2022
4899 Clouds 25 1010 20 10000 6.48 164 21:51 09.03.2022
4900 Clouds 25 1010 20 10000 6.48 164 21:32 09.03.2022
4901 Clouds 27 1010 18 10000 5.85 162 19:55 09.03.2022
4902 Clouds 26 1010 15 10000 4.98 141 18:34 09.03.2022
4903 Clouds 27 1009 15 10000 5.11 142 17:27 09.03.2022
4904 Clouds 29 1009 15 10000 5.11 142 16:31 09.03.2022
4905 Clouds 30 1008 12 10000 6.16 145 15:28 09.03.2022
4906 Clouds 30 1008 11 10000 6 156 13:53 09.03.2022
4907 Clouds 30 1008 11 10000 6.59 166 12:47 09.03.2022
4908 Clouds 29 1009 12 10000 6.99 168 11:54 09.03.2022
4909 Clear 29 1010 13 10000 7.22 163 11:35 09.03.2022
4910 Clear 27 1011 14 10000 7.48 155 10:26 09.03.2022
4911 Clear 24 1013 16 10000 6.92 145 08:54 09.03.2022
4912 Clear 22 1013 17 10000 6.1 132 07:38 09.03.2022
4913 Clouds 18 1011 23 10000 3.26 128 02:46 09.03.2022
4914 Clouds 19 1011 23 10000 2.62 127 00:41 09.03.2022
4915 Clouds 20 1011 22 10000 3.24 96 22:47 08.03.2022
4916 Clouds 21 1012 20 10000 3.7 77 21:59 08.03.2022
4917 Clouds 21 1012 19 10000 4.3 55 21:23 08.03.2022
4918 Clouds 22 1012 18 10000 4.57 49 20:29 08.03.2022
4919 Clouds 23 1012 18 10000 4.57 49 19:31 08.03.2022
4920 Clouds 24 1011 16 10000 5.84 47 18:44 08.03.2022
4921 Clear 25 1009 14 10000 4.61 57 17:26 08.03.2022
4922 Clear 28 1007 11 10000 2.7 85 15:19 08.03.2022
4923 Clear 28 1007 11 10000 2.39 82 14:19 08.03.2022
4924 Clouds 28 1007 11 10000 2.99 91 12:43 08.03.2022
4925 Clouds 28 1008 11 10000 3.3 103 11:45 08.03.2022
4926 Clouds 26 1009 11 10000 3.45 103 10:41 08.03.2022
4927 Clouds 25 1010 12 10000 3.79 94 09:37 08.03.2022
4928 Clouds 20 1012 15 10000 4.73 49 06:43 08.03.2022
4929 Clouds 19 1011 23 10000 3.44 17 04:47 08.03.2022
4930 Clouds 23 1008 20 10000 4.13 20 23:36 07.03.2022
4931 Clouds 24 1008 17 10000 2.43 62 21:50 07.03.2022
4932 Clouds 25 1008 17 10000 2.44 62 21:31 07.03.2022
4933 Clouds 26 1008 15 10000 1.31 319 20:39 07.03.2022
4934 Clouds 27 1008 14 10000 3.51 238 19:55 07.03.2022
4935 Clouds 27 1008 14 10000 4.37 210 19:29 07.03.2022
4936 Clouds 28 1007 13 10000 4.22 212 18:38 07.03.2022
4937 Clouds 30 1007 13 10000 4.35 205 17:41 07.03.2022
4938 Clouds 31 1006 13 10000 4.16 212 16:55 07.03.2022
4939 Clouds 33 1005 10 10000 7.36 221 15:27 07.03.2022
4940 Clouds 32 1005 10 10000 9.22 237 12:48 07.03.2022
4941 Clouds 32 1006 10 10000 9.43 238 12:20 07.03.2022
4942 Clouds 29 1006 10 10000 9.7 235 10:35 07.03.2022
4943 Clouds 27 1009 12 10000 7.84 219 08:39 07.03.2022
4944 Clouds 23 1010 30 10000 5.32 178 02:58 07.03.2022
4945 Clouds 23 1010 31 10000 4.97 173 00:21 07.03.2022
4946 Clouds 23 1011 30 10000 5.4 167 23:28 06.03.2022
4947 Clouds 23 1011 30 10000 5.4 167 22:32 06.03.2022
4948 Clouds 24 1011 29 10000 5.77 163 21:45 06.03.2022
4949 Clouds 24 1011 27 10000 6.04 157 20:30 06.03.2022
4950 Clouds 24 1012 26 10000 6.64 159 19:48 06.03.2022
4951 Clouds 25 1012 24 10000 6.45 154 18:51 06.03.2022
4952 Clouds 26 1011 21 10000 6.39 142 17:49 06.03.2022
4953 Clouds 26 1011 20 10000 5.57 139 17:20 06.03.2022
4954 Clouds 26 1011 20 10000 5.57 139 16:40 06.03.2022
4955 Clouds 27 1010 18 10000 6.13 133 15:37 06.03.2022
4956 Clouds 28 1010 18 10000 6.13 133 14:48 06.03.2022
4957 Clouds 28 1010 17 10000 5.86 131 14:26 06.03.2022
4958 Clouds 28 1010 17 10000 5.52 139 12:40 06.03.2022
4959 Clouds 27 1011 17 10000 5.61 148 11:46 06.03.2022
4960 Clouds 25 1012 18 10000 5.45 146 10:43 06.03.2022
4961 Clouds 23 1015 22 10000 4.59 154 09:25 06.03.2022
4962 Clouds 21 1016 26 10000 4.52 156 08:28 06.03.2022
4963 Clouds 19 1016 26 10000 4.52 156 07:33 06.03.2022
4964 Clouds 14 1015 42 10000 2.16 138 03:18 06.03.2022
4965 Clouds 16 1015 40 10000 2.61 113 00:41 06.03.2022
4966 Clouds 16 1015 40 10000 2.42 120 00:22 06.03.2022
4967 Clouds 15 1015 39 10000 2.45 128 23:19 05.03.2022
4968 Clouds 16 1015 39 10000 2.45 128 22:35 05.03.2022
4969 Clouds 17 1016 38 10000 2.62 120 21:31 05.03.2022
4970 Clouds 18 1016 35 10000 3.81 87 20:38 05.03.2022
4971 Clouds 19 1016 33 10000 5.15 77 19:23 05.03.2022
4972 Clouds 20 1016 33 10000 5.15 77 18:48 05.03.2022
4973 Clouds 21 1015 24 10000 4.1 90 17:35 05.03.2022
4974 Clouds 23 1014 19 10000 2.62 134 16:19 05.03.2022
4975 Clear 24 1014 17 10000 2.94 134 15:20 05.03.2022
4976 Clear 24 1014 17 10000 2.94 134 15:20 05.03.2022
4977 Clear 24 1014 17 10000 2.94 134 14:36 05.03.2022
4978 Clear 24 1014 16 10000 3.1 147 13:44 05.03.2022
4979 Clouds 24 1014 17 10000 4.09 155 12:45 05.03.2022
4980 Clouds 22 1015 17 10000 4.54 134 11:21 05.03.2022
4981 Clouds 21 1015 17 10000 4.54 134 10:52 05.03.2022
4982 Clouds 19 1016 19 10000 4.19 122 09:37 05.03.2022
4983 Clouds 17 1018 21 10000 3.79 108 08:31 05.03.2022
4984 Clouds 16 1019 24 10000 3.86 75 07:22 05.03.2022
4985 Clouds 15 1019 28 10000 4.11 70 05:39 05.03.2022
4986 Clouds 16 1016 30 10000 4.73 27 00:49 05.03.2022
4987 Clouds 17 1016 31 10000 4.96 37 22:58 04.03.2022
4988 Clouds 17 1016 31 10000 4.96 37 22:38 04.03.2022
4989 Clouds 17 1017 31 10000 5.87 32 21:43 04.03.2022
4990 Clouds 18 1016 30 10000 6.12 31 20:42 04.03.2022
4991 Clouds 18 1016 29 10000 6.89 30 19:37 04.03.2022
4992 Clouds 19 1016 30 10000 7.24 28 18:58 04.03.2022
4993 Clouds 19 1015 31 10000 7.26 32 18:35 04.03.2022
4994 Clouds 20 1013 28 10000 7.46 31 17:29 04.03.2022
4995 Clouds 21 1012 27 10000 7.8 26 15:58 04.03.2022
4996 Clouds 21 1012 25 10000 7.6 24 15:25 04.03.2022
4997 Clouds 23 1011 23 10000 7.02 20 13:36 04.03.2022
4998 Clouds 23 1011 21 10000 6.26 13 12:47 04.03.2022
4999 Clouds 23 1011 22 10000 6.12 4 11:37 04.03.2022
5000 Clouds 23 1011 22 10000 6.12 4 11:37 04.03.2022
5001 Clouds 23 1013 15 10000 5.63 318 10:26 04.03.2022
5002 Clouds 24 1014 12 10000 6.3 291 09:28 04.03.2022
5003 Clouds 26 1015 10 10000 7.27 256 07:49 04.03.2022
5004 Clouds 23 1014 12 10000 6.25 226 06:26 04.03.2022
5005 Clouds 22 1012 13 10000 4.96 185 02:26 04.03.2022
5006 Clouds 26 1012 13 10000 7.43 176 23:41 03.03.2022
5007 Clouds 26 1012 13 10000 9.24 168 22:18 03.03.2022
5008 Clouds 27 1014 14 10000 7.9 174 21:36 03.03.2022
5009 Clouds 27 1014 14 10000 7.9 174 20:50 03.03.2022
5010 Clouds 28 1014 15 10000 7.08 173 19:34 03.03.2022
5011 Clouds 28 1013 15 10000 6.71 173 18:33 03.03.2022
5012 Clouds 29 1013 14 10000 6.43 173 17:43 03.03.2022
5013 Clouds 29 1012 13 10000 5.84 170 17:24 03.03.2022
5014 Clouds 31 1012 12 10000 5.4 172 15:47 03.03.2022
5015 Clouds 33 1011 10 10000 6.14 186 14:51 03.03.2022
5016 Clouds 33 1011 10 10000 6.14 186 14:32 03.03.2022
5017 Clouds 32 1010 10 10000 6.4 192 12:43 03.03.2022
5018 Clouds 31 1012 11 10000 6.62 184 11:32 03.03.2022
5019 Clouds 30 1012 11 10000 6.62 184 10:39 03.03.2022
5020 Clouds 26 1015 14 10000 7.56 183 08:44 03.03.2022
5021 Clouds 22 1016 20 10000 7.72 177 06:58 03.03.2022
5022 Clouds 22 1017 24 10000 6.02 172 06:23 03.03.2022
5023 Clouds 21 1015 27 10000 4.94 170 00:43 03.03.2022
5024 Clouds 21 1016 26 10000 4.83 168 23:28 02.03.2022
5025 Clouds 21 1016 26 10000 4.83 168 22:48 02.03.2022
5026 Clouds 22 1017 25 10000 4.6 164 21:23 02.03.2022
5027 Clouds 26 1017 25 10000 4.6 164 20:30 02.03.2022
5028 Clear 26 1017 24 10000 4.19 167 19:49 02.03.2022
5029 Clear 26 1017 24 10000 4.19 167 19:30 02.03.2022
5030 Clear 27 1016 21 10000 4.13 165 18:39 02.03.2022
5031 Clear 27 1016 21 10000 4.13 165 18:39 02.03.2022
5032 Clear 27 1016 21 10000 4.13 165 18:39 02.03.2022
5033 Clear 27 1016 19 10000 4.32 158 17:45 02.03.2022
5034 Clear 29 1015 18 10000 4.94 142 16:56 02.03.2022
5035 Clear 29 1015 18 10000 4.94 142 16:36 02.03.2022
5036 Clear 32 1013 14 10000 6.29 140 14:42 02.03.2022
5037 Clear 32 1013 12 10000 5.91 156 13:24 02.03.2022
5038 Clear 31 1013 12 10000 6.26 152 12:41 02.03.2022
5039 Clear 30 1013 13 10000 5.92 160 11:39 02.03.2022
5040 Clear 30 1015 13 10000 5.72 170 11:18 02.03.2022
5041 Clear 26 1016 15 10000 6.1 175 09:41 02.03.2022
5042 Clear 24 1018 17 10000 6.68 175 08:52 02.03.2022
5043 Clear 23 1020 23 10000 6.54 167 07:28 02.03.2022
5044 Clear 17 1019 27 10000 5.56 162 05:44 02.03.2022
5045 Clear 17 1019 27 10000 5.56 162 05:44 02.03.2022
5046 Clear 17 1019 32 10000 4 155 00:58 02.03.2022
5047 Clear 17 1019 31 10000 4.17 145 23:46 01.03.2022
5048 Clear 18 1019 30 10000 4.31 138 22:45 01.03.2022
5049 Clear 19 1020 29 10000 3.92 133 21:56 01.03.2022
5050 Clear 19 1020 28 10000 4.06 124 21:21 01.03.2022
5051 Clear 19 1020 27 10000 4.11 115 20:24 01.03.2022
5052 Clear 21 1019 24 10000 4.69 110 19:23 01.03.2022
5053 Clear 22 1019 24 10000 4.69 110 18:37 01.03.2022
5054 Clear 22 1018 23 10000 4.72 105 18:18 01.03.2022
5055 Clear 25 1018 22 10000 3.86 122 16:54 01.03.2022
5056 Clear 25 1018 22 10000 3.86 122 16:30 01.03.2022
5057 Clear 26 1017 18 10000 3.25 131 15:23 01.03.2022
5058 Clear 26 1017 18 10000 3.25 131 14:34 01.03.2022
5059 Clear 27 1017 18 10000 2.62 128 13:45 01.03.2022
5060 Clouds 27 1017 17 10000 2.66 132 13:22 01.03.2022
5061 Clouds 27 1017 18 10000 2.75 139 12:27 01.03.2022
5062 Clouds 24 1019 18 10000 2.86 134 10:32 01.03.2022
5063 Clear 21 1022 23 10000 2.46 128 08:41 01.03.2022
5064 Clear 19 1022 23 10000 2.46 128 07:40 01.03.2022
5065 Clear 12 1021 33 10000 2.23 109 04:50 01.03.2022
5066 Clear 14 1020 33 10000 1.68 83 01:48 01.03.2022
5067 Clear 15 1020 31 10000 2.77 81 00:24 01.03.2022
5068 Clear 16 1020 30 10000 3.25 73 23:19 28.02.2022
5069 Clear 18 1020 28 10000 3.59 75 21:59 28.02.2022
5070 Clear 18 1020 26 10000 3.92 75 21:24 28.02.2022
5071 Clear 20 1020 25 10000 4.27 66 19:53 28.02.2022
5072 Clear 20 1020 25 10000 4.21 61 19:27 28.02.2022
5073 Clear 21 1020 24 10000 4.77 61 18:38 28.02.2022
5074 Clear 22 1018 22 10000 4.31 59 17:24 28.02.2022
5075 Clear 23 1018 22 10000 4.31 59 16:33 28.02.2022
5076 Clear 24 1017 19 10000 2.64 68 15:23 28.02.2022
5077 Clear 25 1017 19 10000 2.64 68 14:31 28.02.2022
5078 Clear 25 1016 19 10000 2.32 72 13:34 28.02.2022
5079 Clear 24 1016 19 10000 1.94 86 12:41 28.02.2022
5080 Clear 23 1017 19 10000 2.27 73 11:44 28.02.2022
5081 Clear 22 1018 20 10000 2.36 77 10:48 28.02.2022
5082 Clear 22 1019 21 10000 2.58 65 10:20 28.02.2022
5083 Clear 21 1020 23 10000 3.12 51 09:32 28.02.2022
5084 Clear 19 1023 26 10000 5.14 30 08:29 28.02.2022
5085 Clear 18 1023 27 10000 2.57 50 07:28 28.02.2022
5086 Clear 12 1021 35 10000 2.61 17 04:44 28.02.2022
5087 Clear 12 1020 36 10000 3.18 15 04:23 28.02.2022
5088 Clear 15 1019 28 10000 3.72 38 23:27 27.02.2022
5089 Clear 16 1019 28 10000 3.72 38 22:33 27.02.2022
5090 Clear 17 1020 27 10000 3.66 29 21:51 27.02.2022
5091 Clear 18 1020 26 10000 3.74 26 20:59 27.02.2022
5092 Clear 18 1020 25 10000 3.67 31 20:27 27.02.2022
5093 Clear 19 1020 25 10000 3.67 31 19:57 27.02.2022
5094 Clear 19 1020 24 10000 3.9 35 19:26 27.02.2022
5095 Clear 20 1020 24 10000 3.9 35 18:47 27.02.2022
5096 Clear 21 1019 22 10000 4.51 36 17:55 27.02.2022
5097 Clear 23 1018 21 10000 4.46 37 16:45 27.02.2022
5098 Clear 23 1017 20 10000 4.54 31 16:21 27.02.2022
5099 Clouds 24 1016 19 10000 4.69 22 13:25 27.02.2022
5100 Clear 24 1020 17 10000 2.57 40 12:32 27.02.2022
5101 Clear 22 1022 21 10000 6.69 360 10:56 27.02.2022
5102 Clear 22 1022 21 10000 6.69 360 10:19 27.02.2022
5103 Clear 21 1022 23 10000 6.69 20 09:49 27.02.2022
5104 Clear 21 1022 23 10000 6.69 20 09:20 27.02.2022
5105 Clouds 18 1023 27 10000 5.14 100 07:37 27.02.2022
5106 Clouds 14 1019 33 10000 3.6 320 05:38 27.02.2022
5107 Clouds 17 1017 27 10000 6.68 13 01:53 27.02.2022
5108 Clear 19 1016 31 10000 6.71 8 23:23 26.02.2022
5109 Clear 21 1016 36 10000 7.16 7 21:58 26.02.2022
5110 Clear 22 1016 38 10000 6.7 7 20:59 26.02.2022
5111 Clear 22 1015 36 10000 6.52 11 20:20 26.02.2022
5112 Clear 23 1015 36 10000 6.52 11 19:49 26.02.2022
5113 Clear 23 1015 32 10000 5.48 9 19:26 26.02.2022
5114 Clear 26 1014 30 10000 4.85 26 17:52 26.02.2022
5115 Clear 26 1013 27 10000 4.19 19 17:28 26.02.2022
5116 Clear 29 1012 25 10000 3.86 12 15:57 26.02.2022
5117 Clear 29 1011 22 10000 3.85 358 15:25 26.02.2022
5118 Clear 30 1011 22 10000 3.85 358 14:55 26.02.2022
5119 Clear 30 1011 22 10000 3.85 358 14:36 26.02.2022
5120 Clear 31 1011 22 10000 3.57 352 13:24 26.02.2022
5121 Clear 30 1015 19 10000 3.09 30 12:51 26.02.2022
5122 Clear 30 1015 20 10000 3.09 310 11:29 26.02.2022
5123 Clear 30 1015 17 10000 1.54 320 10:55 26.02.2022
5124 Clear 29 1015 18 10000 2.57 310 09:18 26.02.2022
5125 Clear 25 1016 18 10000 2.57 210 07:57 26.02.2022
5126 Clouds 19 1011 19 10000 3.58 192 02:53 26.02.2022
5127 Clouds 22 1011 17 10000 3.72 164 23:31 25.02.2022
5128 Clouds 24 1012 16 10000 4.16 174 21:48 25.02.2022
5129 Clouds 24 1012 15 10000 5.8 152 21:29 25.02.2022
5130 Clouds 25 1012 15 10000 5.8 152 20:33 25.02.2022
5131 Clouds 24 1012 14 10000 5.74 147 19:39 25.02.2022
5132 Clouds 27 1012 13 10000 4.27 160 17:33 25.02.2022
5133 Clouds 28 1012 12 10000 3.98 167 16:44 25.02.2022
5134 Clouds 29 1010 11 10000 6.23 141 15:48 25.02.2022
5135 Clouds 29 1010 9 10000 6.12 137 15:23 25.02.2022
5136 Clouds 30 1010 9 10000 6.12 137 14:42 25.02.2022
5137 Clouds 30 1010 7 10000 4.29 145 13:58 25.02.2022
5138 Clouds 30 1010 7 10000 3.3 165 13:20 25.02.2022
5139 Clouds 29 1017 10 10000 4.12 170 11:28 25.02.2022
5140 Clear 27 1017 11 10000 4.12 180 10:54 25.02.2022
5141 Clear 27 1017 11 10000 4.12 180 10:23 25.02.2022
5142 Clear 26 1017 11 10000 4.12 170 09:35 25.02.2022
5143 Clear 21 1018 14 10000 2.57 140 07:44 25.02.2022
5144 Clear 16 1017 33 10000 2.06 130 06:19 25.02.2022
5145 Clear 12 1017 37 10000 1.54 140 05:36 25.02.2022
5146 Clouds 18 1014 19 10000 4.52 173 00:30 25.02.2022
5147 Clear 20 1015 17 10000 5.49 158 22:20 24.02.2022
5148 Clear 20 1015 17 10000 5.49 158 21:42 24.02.2022
5149 Clear 20 1015 16 10000 5.49 157 21:20 24.02.2022
5150 Clear 20 1015 16 10000 5.49 157 20:30 24.02.2022
5151 Clear 23 1015 13 10000 6.5 148 18:52 24.02.2022
5152 Clear 23 1015 11 10000 5.88 143 18:19 24.02.2022
5153 Clear 25 1015 11 10000 5.88 143 17:42 24.02.2022
5154 Clear 26 1014 10 10000 5.27 143 16:56 24.02.2022
5155 Clear 26 1014 10 10000 5.37 141 16:25 24.02.2022
5156 Clear 26 1014 10 10000 5.37 141 16:25 24.02.2022
5157 Clear 27 1014 10 10000 5.36 141 15:30 24.02.2022
5158 Clear 28 1013 8 10000 6.27 142 14:37 24.02.2022
5159 Clear 28 1016 9 10000 4.63 140 13:42 24.02.2022
5160 Clear 28 1016 9 10000 4.63 140 13:24 24.02.2022
5161 Clear 25 1018 12 10000 5.14 130 10:48 24.02.2022
5162 Clear 23 1019 14 10000 4.63 160 09:41 24.02.2022
5163 Clear 22 1020 16 10000 7.2 150 08:42 24.02.2022
5164 Clear 18 1019 20 10000 4.12 170 06:25 24.02.2022
5165 Clear 13 1019 35 10000 2.06 0 05:36 24.02.2022
5166 Clear 15 1017 20 10000 4.33 148 00:30 24.02.2022
5167 Clear 17 1018 19 10000 3.92 146 21:55 23.02.2022
5168 Clear 17 1018 18 10000 4.33 145 20:32 23.02.2022
5169 Clear 19 1018 17 10000 4.09 144 19:56 23.02.2022
5170 Clear 20 1017 16 10000 4.29 132 18:59 23.02.2022
5171 Clear 21 1017 16 10000 4.29 125 17:46 23.02.2022
5172 Clear 25 1016 14 10000 3.52 124 15:47 23.02.2022
5173 Clear 26 1015 12 10000 3.37 132 13:34 23.02.2022
5174 Clear 25 1017 14 10000 4.63 160 12:28 23.02.2022
5175 Clear 23 1019 14 10000 3.6 160 10:55 23.02.2022
5176 Clear 21 1020 16 10000 4.12 170 09:31 23.02.2022
5177 Clear 20 1021 15 10000 6.17 130 08:28 23.02.2022
5178 Clear 18 1021 45 10000 4.63 160 07:19 23.02.2022
5179 Clear 11 1017 27 10000 2.33 156 02:22 23.02.2022
5180 Clear 11 1017 25 10000 2.89 146 23:46 22.02.2022
5181 Clear 11 1017 24 10000 2.69 142 23:28 22.02.2022
5182 Clear 12 1018 24 10000 2.61 127 22:28 22.02.2022
5183 Clear 14 1018 24 10000 2.61 127 21:40 22.02.2022
5184 Clear 14 1018 22 10000 2.71 103 21:19 22.02.2022
5185 Clear 16 1018 22 10000 2.71 103 20:31 22.02.2022
5186 Clear 17 1018 21 10000 2.65 87 19:54 22.02.2022
5187 Clear 17 1018 20 10000 2.64 87 19:33 22.02.2022
5188 Clear 18 1017 19 10000 3.02 75 18:35 22.02.2022
5189 Clear 19 1017 17 10000 1.38 41 17:27 22.02.2022
5190 Clear 21 1017 17 10000 1.38 41 16:55 22.02.2022
5191 Clear 21 1016 16 10000 1.36 38 16:19 22.02.2022
5192 Clear 23 1016 13 10000 1.65 27 15:18 22.02.2022
5193 Clear 24 1015 13 10000 1.22 18 13:37 22.02.2022
5194 Clear 21 1021 24 10000 5.14 50 11:18 22.02.2022
5195 Clear 21 1021 17 10000 3.09 0 09:22 22.02.2022
5196 Clear 20 1021 19 10000 0.51 0 07:29 22.02.2022
5197 Clear 16 1021 27 10000 0.51 0 06:54 22.02.2022
5198 Clear 10 1019 31 10000 2.95 330 02:49 22.02.2022
5199 Clear 13 1019 29 10000 3.16 324 23:18 21.02.2022
5200 Clear 15 1020 28 10000 3.2 322 21:56 21.02.2022
5201 Clear 16 1020 27 10000 3.41 327 20:38 21.02.2022
5202 Clear 18 1019 23 10000 4.44 349 18:47 21.02.2022
5203 Clear 18 1019 22 10000 4.82 351 18:19 21.02.2022
5204 Clear 21 1017 18 10000 6.24 344 15:49 21.02.2022
5205 Clear 22 1016 14 10000 7.75 338 14:22 21.02.2022
5206 Clear 23 1016 14 10000 7.75 338 13:31 21.02.2022
5207 Clear 21 1019 14 10000 7.2 330 12:41 21.02.2022
5208 Clear 22 1016 16 10000 8.52 335 12:20 21.02.2022
5209 Clear 19 1020 19 10000 7.72 340 10:26 21.02.2022
5210 Clear 14 1021 42 10000 6.69 326 06:25 21.02.2022
5211 Clear 15 1019 44 10000 7.34 336 00:35 21.02.2022
5212 Clouds 17 1018 28 10000 6.29 316 22:32 20.02.2022
5213 Clouds 17 1018 28 10000 4.95 302 21:43 20.02.2022
5214 Clouds 17 1018 26 10000 4.93 304 21:21 20.02.2022
5215 Clouds 18 1018 26 10000 4.93 304 20:43 20.02.2022
5216 Clear 19 1018 25 10000 5.72 310 19:48 20.02.2022
5217 Clear 20 1018 24 10000 5.48 320 18:55 20.02.2022
5218 Clear 20 1018 21 10000 6.93 320 18:34 20.02.2022
5219 Clear 20 1018 21 10000 6.93 320 18:34 20.02.2022
5220 Clear 21 1017 19 10000 6.81 322 17:55 20.02.2022
5221 Clear 23 1015 14 10000 5.9 302 16:18 20.02.2022
5222 Clear 25 1014 13 10000 7.05 294 14:53 20.02.2022
5223 Clear 24 1013 12 10000 7.2 294 13:58 20.02.2022
5224 Clouds 25 1013 13 10000 5.46 292 12:35 20.02.2022
5225 Clouds 24 1013 15 10000 4.88 299 10:52 20.02.2022
5226 Clouds 24 1014 18 10000 4.84 305 10:20 20.02.2022
5227 Clouds 23 1015 20 10000 5.31 314 08:58 20.02.2022
5228 Clouds 21 1013 22 10000 4.21 290 01:19 20.02.2022
5229 Clouds 22 1013 35 10000 5.9 314 00:30 20.02.2022
5230 Clouds 23 1013 19 10000 4.92 221 23:19 19.02.2022
5231 Clouds 23 1013 20 10000 5.77 169 22:23 19.02.2022
5232 Clouds 24 1013 20 10000 5.77 169 21:39 19.02.2022
5233 Clouds 25 1012 18 10000 7.89 158 19:58 19.02.2022
5234 Clouds 25 1012 18 10000 7.89 158 19:33 19.02.2022
5235 Clear 25 1012 17 10000 7.49 149 18:38 19.02.2022
5236 Clear 26 1011 17 10000 7.56 141 17:37 19.02.2022
5237 Clear 27 1011 16 10000 5.98 153 16:34 19.02.2022
5238 Clear 28 1010 13 10000 9.07 166 15:19 19.02.2022
5239 Clear 28 1010 13 10000 9.07 166 14:52 19.02.2022
5240 Clear 28 1009 13 10000 10.43 168 13:45 19.02.2022
5241 Clear 27 1010 13 10000 10.72 171 11:39 19.02.2022
5242 Clear 25 1011 14 10000 10.88 172 10:30 19.02.2022
5243 Clear 20 1014 18 10000 10.7 162 07:55 19.02.2022
5244 Clear 16 1014 28 10000 6.65 152 04:32 19.02.2022
5245 Clear 17 1012 26 10000 6.14 152 23:38 18.02.2022
5246 Clear 17 1012 25 10000 7 149 21:53 18.02.2022
5247 Clear 18 1012 24 10000 7.09 147 20:51 18.02.2022
5248 Clear 20 1013 23 10000 6.94 145 19:54 18.02.2022
5249 Clear 22 1013 23 10000 6.3 145 18:50 18.02.2022
5250 Clear 22 1012 22 10000 6.59 141 18:22 18.02.2022
5251 Clear 23 1012 22 10000 6.59 141 17:51 18.02.2022
5252 Clear 24 1010 18 10000 7.49 159 15:22 18.02.2022
5253 Clear 24 1010 18 10000 8.18 163 13:55 18.02.2022
5254 Clear 23 1010 16 10000 8.62 160 12:53 18.02.2022
5255 Clear 23 1010 16 10000 8.62 160 12:33 18.02.2022
5256 Clear 22 1012 18 10000 8.78 160 11:29 18.02.2022
5257 Clear 20 1013 20 10000 8.84 156 10:23 18.02.2022
5258 Clear 14 1015 30 10000 7.93 145 06:57 18.02.2022
5259 Clear 12 1015 32 10000 6.66 138 05:40 18.02.2022
5260 Clear 15 1013 26 10000 4.66 130 23:31 17.02.2022
5261 Clear 16 1014 24 10000 4.89 122 21:45 17.02.2022
5262 Clear 16 1014 23 10000 5.11 112 21:19 17.02.2022
5263 Clear 17 1014 23 10000 5.11 112 20:37 17.02.2022
5264 Clear 18 1014 22 10000 5.79 103 19:48 17.02.2022
5265 Clouds 19 1013 20 10000 6 94 18:41 17.02.2022
5266 Clouds 20 1013 20 10000 6.01 94 17:50 17.02.2022
5267 Clouds 21 1012 19 10000 4.88 110 16:29 17.02.2022
5268 Clouds 23 1012 19 10000 4.88 110 15:32 17.02.2022
5269 Clouds 23 1011 17 10000 5.1 133 14:26 17.02.2022
5270 Clear 23 1011 17 10000 4.65 135 12:36 17.02.2022
5271 Clear 22 1013 17 10000 5.56 127 11:23 17.02.2022
5272 Clear 22 1013 17 10000 5.56 127 11:23 17.02.2022
5273 Clear 18 1015 20 10000 6.03 114 08:52 17.02.2022
5274 Clear 14 1013 24 10000 4.22 81 01:45 17.02.2022
5275 Clear 15 1013 21 10000 4.33 85 23:19 16.02.2022
5276 Clear 17 1013 20 10000 4.22 83 21:31 16.02.2022
5277 Clear 19 1013 18 10000 3.73 118 19:46 16.02.2022
5278 Clear 20 1012 17 10000 4.19 115 18:38 16.02.2022
5279 Clear 21 1011 16 10000 4.39 126 17:49 16.02.2022
5280 Clear 25 1011 14 10000 4.48 117 15:36 16.02.2022
5281 Clear 26 1010 12 10000 3.69 116 14:57 16.02.2022
5282 Clear 26 1010 11 10000 1.99 135 12:35 16.02.2022
5283 Clear 25 1011 12 10000 1.42 157 11:55 16.02.2022
5284 Clear 25 1012 12 10000 1.18 184 11:24 16.02.2022
5285 Clear 24 1014 13 10000 1.02 212 10:30 16.02.2022
5286 Clear 14 1016 18 10000 2.32 157 06:57 16.02.2022
5287 Clear 9 1016 23 10000 2.45 142 04:43 16.02.2022
5288 Clear 13 1015 20 10000 2.18 123 23:44 15.02.2022
5289 Clear 13 1016 19 10000 1.78 142 22:19 15.02.2022
5290 Clear 14 1016 19 10000 1.78 142 21:45 15.02.2022
5291 Clear 14 1016 18 10000 2.06 145 21:27 15.02.2022
5292 Clear 14 1016 18 10000 2.06 145 20:55 15.02.2022
5293 Clear 17 1016 18 10000 2.16 145 19:57 15.02.2022
5294 Clear 19 1017 17 10000 2.25 132 18:52 15.02.2022
5295 Clear 19 1016 17 10000 2.63 122 18:20 15.02.2022
5296 Clear 19 1016 17 10000 2.63 122 17:48 15.02.2022
5297 Clear 22 1016 16 10000 3.05 113 16:32 15.02.2022
5298 Clear 24 1015 12 10000 2.03 105 15:22 15.02.2022
5299 Clear 24 1014 12 10000 0.76 140 13:26 15.02.2022
5300 Clear 23 1015 12 10000 1.04 184 11:57 15.02.2022
5301 Clear 22 1016 13 10000 1.52 180 10:59 15.02.2022
5302 Clear 21 1018 15 10000 2.76 165 09:28 15.02.2022
5303 Clear 13 1020 17 10000 2.06 150 06:50 15.02.2022
5304 Clear 9 1018 22 10000 1.65 108 02:36 15.02.2022
5305 Clear 11 1018 20 10000 1.94 60 22:25 14.02.2022
5306 Clear 13 1019 19 10000 2.11 46 21:27 14.02.2022
5307 Clear 14 1019 19 10000 2.11 46 20:30 14.02.2022
5308 Clear 15 1018 19 10000 2.15 41 19:32 14.02.2022
5309 Clear 17 1018 17 10000 2.76 35 18:30 14.02.2022
5310 Clear 18 1018 17 10000 2.14 21 17:58 14.02.2022
5311 Clear 18 1017 16 10000 2.03 10 17:24 14.02.2022
5312 Clear 22 1017 16 10000 2.05 8 15:59 14.02.2022
5313 Clear 22 1015 14 10000 2.01 359 13:44 14.02.2022
5314 Clear 22 1015 13 10000 2.22 2 13:23 14.02.2022
5315 Clear 22 1015 13 10000 2.22 2 12:32 14.02.2022
5316 Clear 21 1016 14 10000 2.51 354 11:54 14.02.2022
5317 Clear 19 1017 15 10000 2.35 348 10:31 14.02.2022
5318 Clear 16 1019 19 10000 3.02 348 08:43 14.02.2022
5319 Clear 14 1020 22 10000 3.52 343 07:30 14.02.2022
5320 Clear 10 1018 32 10000 3.84 326 23:45 13.02.2022
5321 Clear 11 1018 31 10000 3.85 322 22:42 13.02.2022
5322 Clear 11 1019 31 10000 3.74 317 22:23 13.02.2022
5323 Clear 12 1019 31 10000 3.74 317 21:30 13.02.2022
5324 Clear 13 1019 30 10000 3.41 316 20:33 13.02.2022
5325 Clear 15 1019 28 10000 3.62 334 19:29 13.02.2022
5326 Clear 16 1019 27 10000 3.73 343 18:44 13.02.2022
5327 Clear 17 1019 26 10000 3.9 341 17:57 13.02.2022
5328 Clear 19 1017 23 10000 5.28 341 15:54 13.02.2022
5329 Clear 19 1017 21 10000 6.95 340 15:20 13.02.2022
5330 Clear 20 1016 20 10000 7.44 338 13:59 13.02.2022
5331 Clear 20 1016 20 10000 7.46 337 12:50 13.02.2022
5332 Clear 19 1017 21 10000 7.57 335 11:35 13.02.2022
5333 Clear 18 1018 22 10000 7.55 336 10:32 13.02.2022
5334 Clear 17 1019 24 10000 7.43 336 09:45 13.02.2022
5335 Clear 14 1022 33 10000 8.03 330 07:21 13.02.2022
5336 Clear 10 1021 40 10000 4.41 327 00:35 13.02.2022
5337 Clear 11 1021 40 10000 4.41 327 23:39 12.02.2022
5338 Clear 12 1021 37 10000 4.44 334 22:33 12.02.2022
5339 Clear 13 1021 31 10000 5.85 342 21:20 12.02.2022
5340 Clear 14 1021 29 10000 6.5 344 20:34 12.02.2022
5341 Clear 14 1021 31 10000 6.66 344 19:27 12.02.2022
5342 Clear 15 1021 31 10000 6.66 344 18:53 12.02.2022
5343 Clear 15 1021 29 10000 6.51 346 18:35 12.02.2022
5344 Clear 17 1019 30 10000 7.03 346 16:58 12.02.2022
5345 Clear 17 1019 29 10000 6.87 344 16:25 12.02.2022
5346 Clear 19 1019 29 10000 6.87 344 15:50 12.02.2022
5347 Clear 19 1018 27 10000 7.34 342 14:31 12.02.2022
5348 Clouds 20 1017 26 10000 7.21 342 13:19 12.02.2022
5349 Clouds 17 1018 26 10000 6.97 351 10:41 12.02.2022
5350 Clouds 16 1019 27 10000 7.29 356 09:39 12.02.2022
5351 Clouds 16 1020 29 10000 7.83 357 09:20 12.02.2022
5352 Clouds 16 1020 30 10000 7.77 358 08:18 12.02.2022
5353 Clouds 16 1020 30 10000 7.77 358 08:18 12.02.2022
5354 Clouds 16 1020 30 10000 7.77 358 08:18 12.02.2022
5355 Clouds 13 1020 35 10000 7.33 3 05:33 12.02.2022
5356 Clouds 13 1018 38 10000 5.66 14 04:27 12.02.2022
5357 Clouds 14 1016 43 10000 5.85 8 02:18 12.02.2022
5358 Clear 16 1015 41 10000 4.79 28 22:29 11.02.2022
5359 Clear 17 1015 41 10000 4.79 28 21:55 11.02.2022
5360 Clear 18 1015 37 10000 4.98 39 20:41 11.02.2022
5361 Clear 19 1015 34 10000 5.76 35 19:46 11.02.2022
5362 Clear 19 1015 30 10000 5.01 19 19:26 11.02.2022
5363 Clear 22 1014 22 10000 2.33 16 17:55 11.02.2022
5364 Clear 22 1012 17 10000 2.62 165 17:25 11.02.2022
5365 Clear 23 1012 15 10000 3.68 199 16:22 11.02.2022
5366 Clear 28 1011 13 10000 4.28 215 14:43 11.02.2022
5367 Clear 28 1011 12 10000 5.21 225 14:21 11.02.2022
5368 Clear 28 1011 12 10000 5.21 225 13:57 11.02.2022
5369 Clear 28 1011 12 10000 5.21 225 13:39 11.02.2022
5370 Clear 26 1012 15 10000 6.15 244 11:42 11.02.2022
5371 Clear 24 1014 13 10000 6.1 222 09:58 11.02.2022
5372 Clear 21 1015 13 10000 5.7 217 08:49 11.02.2022
5373 Clear 21 1016 15 10000 4.85 210 08:26 11.02.2022
5374 Clear 19 1016 18 10000 3.6 205 07:18 11.02.2022
5375 Clear 17 1014 24 10000 5.89 167 02:26 11.02.2022
5376 Clear 18 1014 24 10000 6.3 166 00:52 11.02.2022
5377 Clear 19 1014 23 10000 6.16 162 22:51 10.02.2022
5378 Clear 20 1015 22 10000 6.2 160 21:46 10.02.2022
5379 Clear 20 1015 22 10000 6.23 159 20:59 10.02.2022
5380 Clear 20 1015 22 10000 6.23 159 20:35 10.02.2022
5381 Clear 21 1016 21 10000 6.03 157 19:26 10.02.2022
5382 Clear 21 1015 21 10000 6.36 155 18:45 10.02.2022
5383 Clear 22 1014 20 10000 6.36 158 17:26 10.02.2022
5384 Clear 23 1014 20 10000 6.36 158 16:50 10.02.2022
5385 Clear 25 1014 19 10000 6.69 152 15:51 10.02.2022
5386 Clear 25 1014 19 10000 6.69 152 15:30 10.02.2022
5387 Clear 26 1013 18 10000 7.1 153 14:48 10.02.2022
5388 Clear 26 1013 17 10000 7.65 153 14:24 10.02.2022
5389 Clear 25 1013 16 10000 6.52 156 13:29 10.02.2022
5390 Clear 25 1013 16 10000 6.52 156 12:45 10.02.2022
5391 Clear 24 1013 15 10000 5.6 157 11:33 10.02.2022
5392 Clear 23 1014 15 10000 5.63 162 10:44 10.02.2022
5393 Clear 21 1016 16 10000 5.35 165 09:57 10.02.2022
5394 Clear 21 1017 17 10000 5.28 168 09:23 10.02.2022
5395 Clear 18 1018 23 10000 5.38 161 07:19 10.02.2022
5396 Clear 12 1018 32 10000 4.36 155 04:23 10.02.2022
5397 Clear 13 1017 31 10000 4.31 161 01:48 10.02.2022
5398 Clear 14 1017 30 10000 4.47 159 00:44 10.02.2022
5399 Clear 14 1018 30 10000 4.25 153 00:26 10.02.2022
5400 Clear 14 1018 29 10000 4.32 149 23:22 09.02.2022
5401 Clear 15 1018 29 10000 4.32 149 22:35 09.02.2022
5402 Clear 14 1019 28 10000 4.32 144 21:50 09.02.2022
5403 Clear 14 1019 26 10000 4.11 145 21:28 09.02.2022
5404 Clear 15 1019 26 10000 4.11 145 20:47 09.02.2022
5405 Clear 15 1019 25 10000 3.9 141 20:24 09.02.2022
5406 Clear 17 1019 25 10000 3.9 141 19:45 09.02.2022
5407 Clear 17 1019 24 10000 3.86 135 19:22 09.02.2022
5408 Clear 19 1018 23 10000 3.87 132 17:35 09.02.2022
5409 Clear 20 1018 22 10000 4.12 133 16:32 09.02.2022
5410 Clear 22 1017 21 10000 3.82 137 15:33 09.02.2022
5411 Clear 23 1017 18 10000 2.94 134 14:25 09.02.2022
5412 Clear 23 1018 18 10000 2.25 136 12:28 09.02.2022
5413 Clear 21 1019 19 10000 2.31 147 10:47 09.02.2022
5414 Clear 18 1020 21 10000 2.24 151 09:59 09.02.2022
5415 Clear 18 1022 23 10000 2.27 147 09:23 09.02.2022
5416 Clear 17 1022 23 10000 2.27 147 08:58 09.02.2022
5417 Clear 15 1023 25 10000 2.18 144 07:47 09.02.2022
5418 Clear 8 1023 31 10000 1.68 151 05:30 09.02.2022
5419 Clear 8 1023 31 10000 1.68 151 05:30 09.02.2022
5420 Clear 8 1022 37 10000 1.37 124 03:50 09.02.2022
5421 Clear 10 1021 35 10000 1.31 95 00:23 09.02.2022
5422 Clear 11 1021 35 10000 1.31 95 23:30 08.02.2022
5423 Clear 12 1022 33 10000 1.64 74 22:46 08.02.2022
5424 Clear 12 1022 31 10000 2.12 63 22:21 08.02.2022
5425 Clear 13 1022 31 10000 2.12 63 21:38 08.02.2022
5426 Clear 13 1022 30 10000 2.62 54 21:19 08.02.2022
5427 Clear 14 1022 30 10000 2.62 54 20:41 08.02.2022
5428 Clear 15 1022 28 10000 3.1 46 19:45 08.02.2022
5429 Clear 16 1022 27 10000 3.51 41 18:34 08.02.2022
5430 Clear 18 1021 24 10000 3.21 15 17:36 08.02.2022
5431 Clear 21 1021 23 10000 3.04 8 15:55 08.02.2022
5432 Clear 21 1020 20 10000 3.36 359 15:29 08.02.2022
5433 Clear 21 1020 19 10000 3.33 353 13:59 08.02.2022
5434 Clear 21 1020 19 10000 2.83 348 12:40 08.02.2022
5435 Clear 20 1021 22 10000 2.31 340 11:20 08.02.2022
5436 Clear 17 1022 24 10000 1.93 343 09:59 08.02.2022
5437 Clear 17 1024 27 10000 1.85 347 08:56 08.02.2022
5438 Clear 14 1025 34 10000 1.37 345 07:27 08.02.2022
5439 Clear 10 1024 41 10000 2.02 337 04:40 08.02.2022
5440 Clear 10 1024 41 10000 2.02 344 04:22 08.02.2022
5441 Clear 9 1024 41 10000 2.02 344 03:36 08.02.2022
5442 Clear 9 1023 40 10000 2.2 350 03:18 08.02.2022
5443 Clear 9 1023 40 10000 2.2 350 02:59 08.02.2022
5444 Clear 9 1023 40 10000 2.2 350 02:37 08.02.2022
5445 Clear 9 1023 39 10000 2.68 355 02:18 08.02.2022
5446 Clear 10 1023 39 10000 2.68 355 01:45 08.02.2022
5447 Clear 10 1022 38 10000 2.9 360 01:25 08.02.2022
5448 Clear 11 1022 38 10000 3.07 356 00:55 08.02.2022
5449 Clear 11 1022 38 10000 3.07 356 00:36 08.02.2022
5450 Clear 11 1022 37 10000 3.02 357 23:45 07.02.2022
5451 Clear 11 1023 36 10000 2.99 359 23:18 07.02.2022
5452 Clear 12 1023 36 10000 2.99 359 22:59 07.02.2022
5453 Clear 12 1023 35 10000 3.07 3 22:19 07.02.2022
5454 Clear 13 1023 35 10000 3.07 3 21:51 07.02.2022
5455 Clear 13 1023 33 10000 3.3 12 21:28 07.02.2022
5456 Clear 13 1023 33 10000 3.3 12 20:52 07.02.2022
5457 Clear 13 1023 33 10000 3.3 12 20:34 07.02.2022
5458 Clear 15 1023 31 10000 3.67 12 19:47 07.02.2022
5459 Clear 15 1023 29 10000 3.3 7 18:58 07.02.2022
5460 Clear 17 1022 27 10000 3.6 9 17:38 07.02.2022
5461 Clear 18 1021 26 10000 4.01 12 16:52 07.02.2022
5462 Clear 19 1021 24 10000 4.22 6 15:48 07.02.2022
5463 Clear 20 1020 20 10000 4.66 346 14:19 07.02.2022
5464 Clear 21 1020 22 10000 4.36 337 13:27 07.02.2022
5465 Clear 19 1020 23 10000 3.98 334 12:36 07.02.2022
5466 Clear 19 1020 23 10000 3.99 334 11:50 07.02.2022
5467 Clear 19 1021 25 10000 3.45 334 11:24 07.02.2022
5468 Clear 19 1021 25 10000 3.45 334 10:42 07.02.2022
5469 Clear 19 1023 27 10000 2.88 335 10:24 07.02.2022
5470 Clear 18 1025 24 10000 0 0 09:52 07.02.2022
5471 Clear 18 1025 24 10000 0 0 09:18 07.02.2022
5472 Clear 16 1025 29 10000 0 0 07:53 07.02.2022
5473 Clear 14 1025 33 10000 0 0 06:34 07.02.2022
5474 Clear 9 1024 46 10000 1.17 358 04:49 07.02.2022
5475 Clear 9 1023 45 10000 2.54 4 02:38 07.02.2022
5476 Clear 10 1022 41 10000 2.78 13 00:24 07.02.2022
5477 Clear 10 1023 41 10000 3 15 23:20 06.02.2022
5478 Clear 11 1023 41 10000 3 15 22:42 06.02.2022
5479 Clear 11 1023 40 10000 3.33 17 21:47 06.02.2022
5480 Clear 11 1023 39 10000 3.5 20 21:21 06.02.2022
5481 Clear 12 1023 39 10000 3.5 20 20:48 06.02.2022
5482 Clear 12 1023 39 10000 3.68 21 20:24 06.02.2022
5483 Clear 13 1023 37 10000 3.89 17 19:22 06.02.2022
5484 Clear 14 1022 36 10000 4.19 14 18:33 06.02.2022
5485 Clear 15 1021 31 10000 4.31 1 17:37 06.02.2022
5486 Clear 17 1021 31 10000 4.31 1 16:52 06.02.2022
5487 Clear 17 1021 29 10000 4.43 354 16:20 06.02.2022
5488 Clear 19 1021 29 10000 4.43 354 15:47 06.02.2022
5489 Clear 19 1020 26 10000 5.51 351 15:24 06.02.2022
5490 Clear 19 1020 24 10000 5.62 349 14:19 06.02.2022
5491 Clear 19 1019 24 10000 5.57 347 13:21 06.02.2022
5492 Clear 19 1019 24 10000 5.98 343 12:27 06.02.2022
5493 Clear 17 1022 27 10000 5.14 340 10:33 06.02.2022
5494 Clear 16 1023 31 10000 6.17 340 09:48 06.02.2022
5495 Clear 15 1024 33 10000 5.14 350 08:41 06.02.2022
5496 Clear 14 1023 33 10000 3.6 340 07:31 06.02.2022
5497 Clear 11 1022 40 10000 0 0 05:28 06.02.2022
5498 Clear 10 1020 37 10000 3.66 342 02:25 06.02.2022
5499 Clear 11 1020 37 10000 3.95 353 00:33 06.02.2022
5500 Clear 11 1020 35 10000 4.38 355 23:39 05.02.2022
5501 Clear 13 1020 32 10000 4.63 357 21:48 05.02.2022
5502 Clear 13 1020 31 10000 4.62 1 20:47 05.02.2022
5503 Clear 13 1019 30 10000 4.82 3 20:22 05.02.2022
5504 Clear 14 1019 30 10000 4.82 3 19:42 05.02.2022
5505 Clear 15 1018 26 10000 5.44 2 18:37 05.02.2022
5506 Clear 16 1018 26 10000 5.44 2 17:35 05.02.2022
5507 Clear 17 1016 22 10000 5.97 347 16:24 05.02.2022
5508 Clear 19 1016 22 10000 5.97 347 15:31 05.02.2022
5509 Clear 20 1014 20 10000 6.06 346 13:55 05.02.2022
5510 Clear 21 1016 24 8000 7.2 10 12:46 05.02.2022
5511 Clear 20 1018 24 7000 8.23 350 11:47 05.02.2022
5512 Clear 20 1018 26 8000 8.75 10 10:44 05.02.2022
5513 Clear 18 1018 32 10000 8.23 360 09:51 05.02.2022
5514 Clear 17 1018 31 10000 7.72 340 08:47 05.02.2022
5515 Clouds 16 1017 31 8000 7.2 310 07:27 05.02.2022
5516 Clouds 16 1016 33 7000 7.72 290 06:55 05.02.2022
5517 Clouds 20 1012 36 10000 8.82 319 02:43 05.02.2022
5518 Clouds 20 1010 54 10000 6.21 272 01:18 05.02.2022
5519 Clouds 18 1011 48 10000 6.56 282 00:36 05.02.2022
5520 Clouds 19 1010 61 10000 5.2 283 23:33 04.02.2022
5521 Clouds 20 1011 55 10000 5.82 277 22:45 04.02.2022
5522 Clouds 22 1010 35 10000 3.88 282 21:36 04.02.2022
5523 Clear 22 1010 23 10000 2.68 248 21:18 04.02.2022
5524 Clear 21 1010 23 10000 2.68 248 20:36 04.02.2022
5525 Clear 21 1010 20 10000 3.01 213 19:19 04.02.2022
5526 Clear 26 1009 18 10000 3.76 180 16:44 04.02.2022
5527 Clear 28 1009 15 10000 4.42 212 15:19 04.02.2022
5528 Clear 29 1009 15 10000 4.42 212 14:40 04.02.2022
5529 Clear 28 1012 16 10000 4.12 240 12:43 04.02.2022
5530 Clear 27 1013 21 10000 5.66 220 11:45 04.02.2022
5531 Clear 26 1014 21 10000 5.14 240 10:55 04.02.2022
5532 Clear 26 1015 22 10000 5.66 250 09:56 04.02.2022
5533 Clear 17 1017 36 10000 2.57 210 07:56 04.02.2022
5534 Clouds 16 1014 37 10000 2.05 197 03:31 04.02.2022
5535 Clouds 16 1014 37 10000 2.5 193 02:36 04.02.2022
5536 Clear 17 1014 36 10000 4.37 160 23:40 03.02.2022
5537 Clear 18 1015 36 10000 4.49 164 22:50 03.02.2022
5538 Clear 19 1016 35 10000 5.03 167 21:51 03.02.2022
5539 Clear 19 1016 34 10000 5.55 161 21:22 03.02.2022
5540 Clear 19 1017 33 10000 5.62 159 20:22 03.02.2022
5541 Clear 19 1017 33 10000 5.62 159 19:42 03.02.2022
5542 Clear 20 1017 31 10000 4.81 156 18:56 03.02.2022
5543 Clear 21 1017 30 10000 4.39 159 17:55 03.02.2022
5544 Clear 23 1016 29 10000 4.54 157 16:48 03.02.2022
5545 Clear 24 1016 24 10000 6.15 146 14:59 03.02.2022
5546 Clear 25 1016 22 10000 6.4 151 13:45 03.02.2022
5547 Clear 22 1020 20 10000 3.6 120 11:47 03.02.2022
5548 Clear 18 1022 27 10000 2.06 160 08:55 03.02.2022
5549 Clear 16 1022 31 10000 4.12 150 07:41 03.02.2022
5550 Clear 11 1022 38 10000 2.25 146 00:47 03.02.2022
5551 Clear 11 1022 37 10000 2.53 133 00:22 03.02.2022
5552 Clear 12 1022 36 10000 2.56 117 22:38 02.02.2022
5553 Clear 12 1022 36 10000 2.59 100 21:45 02.02.2022
5554 Clear 12 1023 35 10000 2.53 81 21:27 02.02.2022
5555 Clear 13 1023 34 10000 3.03 75 20:20 02.02.2022
5556 Clear 14 1023 34 10000 3.03 75 19:45 02.02.2022
5557 Clear 15 1023 31 10000 3.55 71 18:55 02.02.2022
5558 Clear 15 1023 30 10000 3.87 71 18:23 02.02.2022
5559 Clear 16 1022 28 10000 3.92 66 17:20 02.02.2022
5560 Clear 17 1022 28 10000 3.92 66 16:48 02.02.2022
5561 Clear 19 1021 23 10000 3.76 49 14:42 02.02.2022
5562 Clear 19 1022 22 10000 4.12 30 12:29 02.02.2022
5563 Clear 17 1023 29 10000 5.66 10 11:44 02.02.2022
5564 Clear 17 1023 29 10000 5.66 10 11:24 02.02.2022
5565 Clear 13 1026 50 10000 4.12 350 08:26 02.02.2022
5566 Clear 10 1022 39 10000 4.14 5 01:37 02.02.2022
5567 Clear 13 1022 31 10000 4.79 7 22:29 01.02.2022
5568 Clear 14 1022 29 10000 4.71 6 20:49 01.02.2022
5569 Clear 16 1022 26 10000 5.6 4 18:55 01.02.2022
5570 Clear 18 1020 19 10000 6.5 3 16:46 01.02.2022
5571 Clear 20 1019 17 10000 6.16 357 15:44 01.02.2022
5572 Clouds 20 1018 19 8000 6.17 330 12:49 01.02.2022
5573 Clouds 20 1018 21 8000 6.17 340 11:51 01.02.2022
5574 Clouds 19 1020 27 10000 7.72 340 08:37 01.02.2022
5575 Clouds 17 1013 43 10000 3.32 187 00:28 01.02.2022
5576 Clouds 18 1013 43 10000 3.39 186 23:36 31.01.2022
5577 Clouds 18 1013 43 10000 4.06 196 22:30 31.01.2022
5578 Clouds 19 1012 39 10000 6.65 158 21:34 31.01.2022
5579 Clouds 19 1013 40 10000 6.83 166 20:34 31.01.2022
5580 Clear 19 1012 39 10000 8.36 155 19:46 31.01.2022
5581 Clear 20 1012 37 10000 8.53 150 18:31 31.01.2022
5582 Clear 20 1013 35 10000 6.43 147 17:55 31.01.2022
5583 Clear 21 1012 33 10000 5.69 148 16:58 31.01.2022
5584 Clear 22 1012 31 10000 5.6 151 15:46 31.01.2022
5585 Clear 22 1011 28 10000 6.98 158 14:49 31.01.2022
5586 Clear 22 1014 28 7000 7.2 170 12:57 31.01.2022
5587 Clear 22 1014 28 7000 7.2 170 12:36 31.01.2022
5588 Clear 18 1017 32 10000 7.72 130 10:58 31.01.2022
5589 Clear 18 1017 32 10000 7.72 130 10:37 31.01.2022
5590 Clear 17 1018 34 10000 7.72 150 09:35 31.01.2022
5591 Clear 16 1019 33 10000 6.69 120 08:53 31.01.2022
5592 Clear 16 1019 33 10000 6.69 120 08:20 31.01.2022
5593 Clear 14 1019 38 10000 5.14 130 07:29 31.01.2022
5594 Clear 12 1018 40 10000 3.09 130 05:24 31.01.2022
5595 Clear 13 1017 44 10000 4.42 132 23:37 30.01.2022
5596 Clear 13 1017 43 10000 4.77 131 22:31 30.01.2022
5597 Clear 15 1017 42 10000 5.3 133 21:44 30.01.2022
5598 Clear 15 1017 42 10000 5.3 133 21:44 30.01.2022
5599 Clear 15 1017 38 10000 6.07 126 21:22 30.01.2022
5600 Clear 15 1017 38 10000 6.07 126 20:51 30.01.2022
5601 Clear 15 1017 38 10000 6.07 126 20:30 30.01.2022
5602 Clear 16 1018 38 10000 6.15 121 19:54 30.01.2022
5603 Clear 16 1018 37 10000 5.46 117 18:51 30.01.2022
5604 Clear 16 1018 36 10000 4.55 111 18:21 30.01.2022
5605 Clear 17 1018 36 10000 4.55 111 17:30 30.01.2022
5606 Clear 17 1017 35 10000 4.5 108 16:42 30.01.2022
5607 Clear 17 1017 33 10000 4.29 112 16:22 30.01.2022
5608 Clear 18 1017 33 10000 4.29 112 15:53 30.01.2022
5609 Clear 18 1017 33 10000 4.29 112 15:32 30.01.2022
5610 Clear 18 1016 30 10000 4.1 124 14:47 30.01.2022
5611 Clear 18 1016 28 10000 4.07 138 13:37 30.01.2022
5612 Clear 17 1018 34 6000 4.12 160 12:41 30.01.2022
5613 Clear 16 1020 36 9000 4.63 150 10:38 30.01.2022
5614 Clear 14 1021 44 9000 4.12 130 09:57 30.01.2022
5615 Clear 14 1021 44 9000 4.12 130 09:21 30.01.2022
5616 Clear 11 1022 50 8000 4.63 120 07:56 30.01.2022
5617 Clear 9 1020 42 10000 3.46 101 02:43 30.01.2022
5618 Clear 9 1020 41 10000 3.61 98 01:52 30.01.2022
5619 Clear 11 1020 41 10000 4.16 105 23:45 29.01.2022
5620 Clear 11 1020 39 10000 4.56 107 22:37 29.01.2022
5621 Clear 12 1020 35 10000 5.05 114 21:27 29.01.2022
5622 Clear 12 1020 35 10000 5.05 114 20:48 29.01.2022
5623 Clear 13 1020 33 10000 5.04 116 19:47 29.01.2022
5624 Clear 13 1021 32 10000 4.61 114 19:25 29.01.2022
5625 Clear 14 1020 26 10000 4.34 105 18:32 29.01.2022
5626 Clear 16 1020 26 10000 4.34 105 17:41 29.01.2022
5627 Clear 16 1020 24 10000 4.52 108 16:42 29.01.2022
5628 Clear 18 1018 21 10000 5.32 132 14:52 29.01.2022
5629 Clear 17 1018 20 10000 5.19 140 13:46 29.01.2022
5630 Clear 17 1018 20 10000 5.2 148 13:25 29.01.2022
5631 Clear 17 1020 19 7000 2.57 90 12:40 29.01.2022
5632 Clear 17 1021 19 8000 4.63 130 11:38 29.01.2022
5633 Clear 15 1022 21 7000 3.09 120 10:21 29.01.2022
5634 Clear 12 1024 30 6000 2.06 90 07:24 29.01.2022
5635 Clear 9 1021 35 10000 2.41 88 01:35 29.01.2022
5636 Clear 10 1021 35 10000 2.67 86 00:31 29.01.2022
5637 Clear 11 1022 34 10000 3.17 75 22:53 28.01.2022
5638 Clear 11 1022 34 10000 3.37 67 22:29 28.01.2022
5639 Clear 11 1022 34 10000 3.37 67 21:53 28.01.2022
5640 Clear 11 1023 33 10000 3.26 53 20:31 28.01.2022
5641 Clear 12 1023 32 10000 3.35 51 19:44 28.01.2022
5642 Clear 13 1023 31 10000 3.55 54 18:48 28.01.2022
5643 Clear 13 1023 29 10000 4.16 48 17:43 28.01.2022
5644 Clear 14 1021 24 10000 5.09 32 15:28 28.01.2022
5645 Clear 15 1021 23 10000 4.66 31 14:18 28.01.2022
5646 Dust 16 1023 21 4000 5.66 20 12:33 28.01.2022
5647 Dust 16 1024 23 4000 7.2 10 11:38 28.01.2022
5648 Dust 13 1026 26 4000 6.17 10 09:59 28.01.2022
5649 Dust 12 1026 24 4000 5.66 30 08:41 28.01.2022
5650 Dust 11 1025 25 3000 7.2 360 07:36 28.01.2022
5651 Dust 11 1024 30 4000 5.14 30 05:23 28.01.2022
5652 Clear 10 1023 35 10000 6.02 9 03:45 28.01.2022
5653 Clear 10 1022 33 10000 6.04 16 02:22 28.01.2022
5654 Clear 11 1021 32 10000 6.5 15 01:33 28.01.2022
5655 Clear 12 1020 30 10000 6.23 20 23:30 27.01.2022
5656 Clear 14 1020 30 10000 6.23 16 21:49 27.01.2022
5657 Clear 14 1019 29 10000 6.13 13 21:29 27.01.2022
5658 Clear 14 1019 29 10000 6.13 13 20:44 27.01.2022
5659 Clear 16 1019 25 10000 6.96 2 18:55 27.01.2022
5660 Clear 17 1019 23 10000 7.56 358 17:56 27.01.2022
5661 Clear 21 1016 22 10000 7.31 350 14:42 27.01.2022
5662 Clear 22 1015 21 10000 6.71 340 13:36 27.01.2022
5663 Dust 21 1017 18 4000 8.23 350 12:40 27.01.2022
5664 Clear 25 1017 27 10000 4.63 270 10:23 27.01.2022
5665 Clear 23 1018 12 10000 5.14 220 08:56 27.01.2022
5666 Clear 23 1018 12 10000 5.14 220 08:31 27.01.2022
5667 Clear 14 1017 28 10000 1.03 0 05:59 27.01.2022
5668 Clear 16 1014 31 10000 3.37 199 02:36 27.01.2022
5669 Clear 19 1014 29 10000 7.09 169 23:32 26.01.2022
5670 Clear 21 1014 29 10000 7.14 169 21:57 26.01.2022
5671 Clear 21 1014 29 10000 7.14 169 21:33 26.01.2022
5672 Clear 21 1014 29 10000 6.77 165 20:36 26.01.2022
5673 Clear 21 1014 29 10000 6.78 166 19:55 26.01.2022
5674 Clear 21 1014 29 10000 6.39 163 19:20 26.01.2022
5675 Clear 22 1014 29 10000 6.24 162 18:40 26.01.2022
5676 Clear 23 1014 28 10000 5.78 165 17:49 26.01.2022
5677 Clear 23 1014 26 10000 5.75 167 17:21 26.01.2022
5678 Clear 24 1013 25 10000 6.06 162 16:27 26.01.2022
5679 Clear 25 1013 25 10000 6.06 162 15:47 26.01.2022
5680 Clear 28 1012 18 10000 7.38 169 13:24 26.01.2022
5681 Clear 26 1015 19 10000 7.72 150 11:48 26.01.2022
5682 Clear 25 1017 20 10000 8.23 160 10:20 26.01.2022
5683 Clear 23 1018 21 10000 6.17 160 09:43 26.01.2022
5684 Clear 18 1019 32 10000 5.14 160 07:32 26.01.2022
5685 Clear 14 1017 40 10000 4.77 146 00:48 26.01.2022
5686 Clear 14 1017 40 10000 4.77 146 00:48 26.01.2022
5687 Clear 14 1018 43 10000 4.4 138 23:54 25.01.2022
5688 Clear 15 1018 43 10000 4.2 131 22:50 25.01.2022
5689 Clear 15 1018 43 10000 4.2 131 22:50 25.01.2022
5690 Clear 15 1018 41 10000 4.01 126 22:21 25.01.2022
5691 Clear 15 1018 41 10000 4.01 126 21:41 25.01.2022
5692 Clear 16 1018 39 10000 4.33 126 20:46 25.01.2022
5693 Clear 16 1018 37 10000 4.3 117 20:22 25.01.2022
5694 Clear 17 1018 37 10000 4.3 117 19:44 25.01.2022
5695 Clear 18 1018 35 10000 3.98 116 18:22 25.01.2022
5696 Clear 19 1018 35 10000 3.98 116 17:42 25.01.2022
5697 Clear 21 1018 33 10000 3.64 117 16:35 25.01.2022
5698 Clear 23 1017 32 10000 3.32 120 15:44 25.01.2022
5699 Clear 23 1016 28 10000 3.49 123 15:26 25.01.2022
5700 Clear 24 1016 28 10000 3.49 123 14:57 25.01.2022
5701 Clear 24 1016 28 10000 3.49 123 14:57 25.01.2022
5702 Clear 23 1016 26 10000 3.42 130 13:18 25.01.2022
5703 Clear 20 1018 27 10000 2.4 97 10:00 25.01.2022
5704 Clear 18 1022 22 10000 2.57 20 08:32 25.01.2022
5705 Clear 16 1022 29 10000 1.54 320 07:28 25.01.2022
5706 Clear 14 1022 38 10000 1.03 0 06:22 25.01.2022
5707 Clear 12 1019 54 10000 3.57 18 01:34 25.01.2022
5708 Clear 14 1018 42 10000 3.73 29 23:36 24.01.2022
5709 Clear 14 1018 32 10000 2.65 25 23:18 24.01.2022
5710 Clear 15 1018 32 10000 2.6 25 22:58 24.01.2022
5711 Clear 15 1018 32 10000 2.6 25 22:40 24.01.2022
5712 Clear 17 1018 30 10000 1.62 137 21:43 24.01.2022
5713 Clear 17 1018 29 10000 2.01 152 21:25 24.01.2022
5714 Clear 17 1018 28 10000 2.05 147 20:28 24.01.2022
5715 Clear 18 1018 28 10000 2.05 147 19:39 24.01.2022
5716 Clear 19 1018 27 10000 2.49 144 18:50 24.01.2022
5717 Clear 21 1018 26 10000 3.28 145 17:43 24.01.2022
5718 Clear 21 1017 25 10000 1.89 168 17:23 24.01.2022
5719 Clear 22 1017 25 10000 1.89 168 16:32 24.01.2022
5720 Clear 24 1016 24 10000 1.85 251 15:52 24.01.2022
5721 Clear 24 1015 20 10000 4.21 259 14:27 24.01.2022
5722 Clear 25 1017 14 10000 3.09 240 12:36 24.01.2022
5723 Clear 24 1018 16 10000 2.57 0 11:45 24.01.2022
5724 Clear 23 1019 16 10000 2.06 0 10:23 24.01.2022
5725 Clear 21 1020 16 10000 2.06 210 09:46 24.01.2022
5726 Clear 19 1021 16 10000 1.54 230 08:18 24.01.2022
5727 Clear 11 1017 30 10000 3.48 152 02:29 24.01.2022
5728 Clear 11 1017 29 10000 3.72 151 01:27 24.01.2022
5729 Clear 11 1017 29 10000 3.72 151 01:27 24.01.2022
5730 Clouds 12 1017 29 10000 3.95 148 00:32 24.01.2022
5731 Clouds 11 1017 29 10000 3.81 147 23:46 23.01.2022
5732 Clear 12 1018 30 10000 3.88 150 22:21 23.01.2022
5733 Clear 12 1018 30 10000 3.88 150 21:41 23.01.2022
5734 Clear 12 1018 30 10000 3.92 144 21:23 23.01.2022
5735 Clear 14 1019 29 10000 4.02 145 20:23 23.01.2022
5736 Clear 15 1019 28 10000 4.05 147 18:56 23.01.2022
5737 Clear 15 1018 27 10000 3.96 143 18:24 23.01.2022
5738 Clear 17 1018 25 10000 3.95 137 17:25 23.01.2022
5739 Clear 18 1017 23 10000 4.27 124 16:18 23.01.2022
5740 Clear 20 1017 21 10000 4.13 124 14:52 23.01.2022
5741 Clear 20 1017 20 10000 3.12 144 14:19 23.01.2022
5742 Clear 20 1018 11 10000 4.12 160 12:46 23.01.2022
5743 Clear 20 1018 11 10000 4.12 160 12:21 23.01.2022
5744 Clear 19 1020 12 10000 4.63 150 11:27 23.01.2022
5745 Clear 17 1021 14 10000 3.6 160 10:58 23.01.2022
5746 Clear 17 1021 14 10000 3.6 160 10:25 23.01.2022
5747 Clear 15 1022 15 10000 3.09 160 09:32 23.01.2022
5748 Clear 19 1022 68 10000 4.12 160 08:50 23.01.2022
5749 Clear 8 1021 29 10000 2.96 158 03:59 23.01.2022
5750 Clear 7 1020 28 10000 3.04 152 01:40 23.01.2022
5751 Clear 8 1021 27 10000 2.83 143 00:47 23.01.2022
5752 Clear 8 1021 27 10000 2.92 139 00:18 23.01.2022
5753 Clear 9 1021 27 10000 3.05 131 22:55 22.01.2022
5754 Clear 9 1021 27 10000 3.05 131 22:33 22.01.2022
5755 Clear 10 1022 25 10000 3.33 124 20:47 22.01.2022
5756 Clear 11 1022 24 10000 2.99 107 19:46 22.01.2022
5757 Clear 12 1022 22 10000 3.11 106 18:41 22.01.2022
5758 Clear 12 1022 20 10000 2.88 106 17:49 22.01.2022
5759 Clear 12 1022 20 10000 2.88 106 17:31 22.01.2022
5760 Clear 12 1022 19 10000 2.42 92 16:54 22.01.2022
5761 Clear 13 1021 18 10000 2.06 83 15:45 22.01.2022
5762 Clear 14 1021 15 10000 1.77 74 14:56 22.01.2022
5763 Clear 14 1021 14 10000 1.23 75 13:31 22.01.2022
5764 Clear 13 1021 15 10000 0.61 77 12:40 22.01.2022
5765 Clear 13 1021 15 10000 0.45 106 12:20 22.01.2022
5766 Clear 11 1023 16 10000 0.66 36 10:55 22.01.2022
5767 Clear 11 1025 17 10000 1.25 21 10:26 22.01.2022
5768 Clear 9 1026 20 10000 1.55 10 09:25 22.01.2022
5769 Clear 7 1026 20 10000 1.55 10 08:50 22.01.2022
5770 Clear 4 1027 26 10000 2.2 349 06:56 22.01.2022
5771 Clear 3 1027 35 10000 3.23 339 03:26 22.01.2022
5772 Clear 4 1027 33 10000 3.43 342 00:31 22.01.2022
5773 Clear 4 1027 31 10000 3.18 347 23:21 21.01.2022
5774 Clear 5 1028 30 10000 2.84 342 22:19 21.01.2022
5775 Clear 7 1029 27 10000 3.2 356 19:52 21.01.2022
5776 Clear 7 1028 24 10000 4.84 8 18:21 21.01.2022
5777 Clear 9 1027 22 10000 5.02 10 16:54 21.01.2022
5778 Clear 11 1026 18 10000 5.63 6 15:24 21.01.2022
5779 Clear 11 1025 14 10000 6.17 358 12:53 21.01.2022
5780 Clear 12 1026 15 10000 6.56 356 11:42 21.01.2022
5781 Clear 12 1027 16 10000 6.91 355 11:23 21.01.2022
5782 Clear 9 1030 20 10000 6.89 356 09:26 21.01.2022
5783 Clear 9 1031 23 10000 7.36 357 08:20 21.01.2022
5784 Clear 5 1029 41 10000 6.96 356 04:36 21.01.2022
5785 Clear 9 1026 49 10000 8.96 356 22:53 20.01.2022
5786 Clear 10 1026 46 10000 9.26 355 21:49 20.01.2022
5787 Clear 10 1025 45 10000 9.24 355 21:28 20.01.2022
5788 Clear 11 1025 43 10000 8.91 356 19:56 20.01.2022
5789 Clear 12 1024 40 10000 8.57 357 19:19 20.01.2022
5790 Clear 14 1023 34 10000 8.17 357 17:38 20.01.2022
5791 Clear 15 1020 31 10000 7.64 346 16:32 20.01.2022
5792 Clear 17 1019 30 10000 7.17 342 15:32 20.01.2022
5793 Clear 20 1019 30 10000 7.17 342 14:38 20.01.2022
5794 Clear 20 1018 27 10000 6.23 336 13:18 20.01.2022
5795 Clear 20 1017 25 10000 6.72 318 12:30 20.01.2022
5796 Clear 20 1018 26 10000 5.87 320 11:20 20.01.2022
5797 Clear 19 1019 29 10000 4.52 323 10:19 20.01.2022
5798 Clear 16 1021 35 10000 3.41 322 09:18 20.01.2022
5799 Clouds 13 1022 43 10000 1.05 302 07:24 20.01.2022
5800 Clouds 9 1018 44 10000 2.56 111 00:41 20.01.2022
5801 Clouds 10 1019 42 10000 3.34 118 22:40 19.01.2022
5802 Clouds 11 1019 42 10000 3.44 97 21:40 19.01.2022
5803 Clouds 11 1019 46 10000 3.41 95 21:21 19.01.2022
5804 Clouds 11 1019 46 10000 3.41 95 20:45 19.01.2022
5805 Clouds 12 1019 45 10000 4.53 105 19:18 19.01.2022
5806 Clouds 14 1018 44 10000 5.41 107 17:51 19.01.2022
5807 Clouds 14 1019 45 10000 4.08 107 17:18 19.01.2022
5808 Clouds 16 1018 43 10000 4.02 105 15:36 19.01.2022
5809 Clear 15 1018 42 10000 1.41 130 13:38 19.01.2022
5810 Clouds 14 1019 47 10000 1.14 133 12:20 19.01.2022
5811 Clouds 13 1019 47 10000 1.14 133 11:38 19.01.2022
5812 Clouds 11 1021 47 10000 1.41 128 09:49 19.01.2022
5813 Clouds 11 1023 45 10000 2.09 118 09:22 19.01.2022
5814 Clouds 9 1024 36 10000 2.11 79 06:34 19.01.2022
5815 Clouds 9 1022 37 10000 2.89 46 00:33 19.01.2022
5816 Clouds 9 1022 35 10000 3.43 42 23:18 18.01.2022
5817 Clouds 9 1023 36 10000 3.52 39 21:55 18.01.2022
5818 Clouds 9 1023 35 10000 3.61 44 20:44 18.01.2022
5819 Clouds 9 1023 50 10000 4.76 45 19:52 18.01.2022
5820 Clouds 9 1023 50 10000 4.76 45 19:33 18.01.2022
5821 Clouds 9 1023 54 10000 6.23 38 18:25 18.01.2022
5822 Clouds 10 1023 54 10000 6.23 38 17:33 18.01.2022
5823 Clouds 10 1021 62 10000 6.09 41 16:22 18.01.2022
5824 Clouds 10 1020 66 10000 6.31 38 15:25 18.01.2022
5825 Clouds 10 1020 66 10000 6.31 38 14:34 18.01.2022
5826 Clouds 10 1019 71 10000 6.49 34 11:51 18.01.2022
5827 Clouds 10 1020 68 10000 6.9 32 10:30 18.01.2022
5828 Clouds 10 1021 66 10000 6.91 34 08:36 18.01.2022
5829 Clouds 11 1021 65 10000 6.75 39 07:45 18.01.2022
5830 Clouds 15 1016 83 10000 2.97 43 01:34 18.01.2022
5831 Clouds 16 1015 68 10000 2.78 65 22:47 17.01.2022
5832 Clouds 16 1015 59 10000 2.71 73 21:50 17.01.2022
5833 Clouds 16 1016 53 10000 2.92 93 21:29 17.01.2022
5834 Clouds 17 1016 49 10000 2.37 85 19:42 17.01.2022
5835 Clear 18 1015 41 10000 3.25 85 18:27 17.01.2022
5836 Clear 18 1015 37 10000 3.25 95 17:22 17.01.2022
5837 Clear 19 1014 35 10000 3.1 106 16:22 17.01.2022
5838 Clear 21 1014 31 10000 3.31 102 14:58 17.01.2022
5839 Clear 21 1014 31 10000 3.36 102 14:32 17.01.2022
5840 Clear 22 1013 18 10000 1.49 169 13:19 17.01.2022
5841 Clear 22 1013 18 10000 1.75 187 12:27 17.01.2022
5842 Clear 21 1013 18 10000 1.75 187 11:33 17.01.2022
5843 Clear 20 1015 20 10000 2.75 175 09:53 17.01.2022
5844 Clear 17 1016 21 10000 2.92 158 08:44 17.01.2022
5845 Clear 15 1017 27 10000 1.94 142 07:20 17.01.2022
5846 Clear 12 1014 34 10000 1.94 354 00:59 17.01.2022
5847 Clear 12 1014 30 10000 2.28 327 23:44 16.01.2022
5848 Clear 14 1015 26 10000 2.9 315 21:21 16.01.2022
5849 Clear 15 1015 25 10000 3.6 314 20:18 16.01.2022
5850 Clear 17 1014 25 10000 3.47 320 18:46 16.01.2022
5851 Clear 18 1014 23 10000 3.93 320 17:47 16.01.2022
5852 Clear 19 1013 22 10000 4.18 316 16:53 16.01.2022
5853 Clear 20 1012 20 10000 4.19 301 15:40 16.01.2022
5854 Clear 21 1010 17 10000 7.33 281 14:29 16.01.2022
5855 Clear 21 1010 17 10000 7.18 276 13:23 16.01.2022
5856 Clear 20 1010 18 10000 7.36 275 11:58 16.01.2022
5857 Clear 20 1011 20 10000 6.89 278 11:27 16.01.2022
5858 Clear 20 1012 23 10000 5.86 281 10:27 16.01.2022
5859 Clear 18 1012 23 10000 5.86 281 09:57 16.01.2022
5860 Clear 18 1013 34 10000 3.83 284 09:23 16.01.2022
5861 Clear 17 1013 34 10000 3.82 284 08:53 16.01.2022
5862 Clear 14 1013 65 10000 1.12 26 05:52 16.01.2022
5863 Clouds 14 1010 60 10000 1.71 41 00:19 16.01.2022
5864 Clouds 15 1010 58 10000 1.96 43 22:49 15.01.2022
5865 Clouds 16 1011 59 10000 2.81 74 21:21 15.01.2022
5866 Clouds 16 1011 59 10000 2.81 74 20:44 15.01.2022
5867 Clouds 16 1010 58 10000 3.44 68 20:18 15.01.2022
5868 Clouds 16 1010 51 10000 3.34 46 19:25 15.01.2022
5869 Clouds 16 1010 33 10000 3.92 343 17:52 15.01.2022
5870 Clouds 16 1009 31 10000 4.67 326 16:43 15.01.2022
5871 Clouds 16 1007 30 10000 6.12 272 14:32 15.01.2022
5872 Clouds 16 1008 30 10000 5.38 293 14:32 15.01.2022
5873 Clouds 17 1007 32 10000 6.74 265 12:38 15.01.2022
5874 Clouds 19 1008 39 10000 7.5 255 11:19 15.01.2022
5875 Clouds 19 1009 42 10000 7.68 254 09:35 15.01.2022
5876 Clouds 15 1011 85 10000 3.21 238 01:25 15.01.2022
5877 Clouds 16 1011 71 10000 1.77 163 21:57 14.01.2022
5878 Clouds 15 1012 73 10000 1.05 59 20:52 14.01.2022
5879 Clouds 15 1012 75 10000 3.38 37 20:23 14.01.2022
5880 Clouds 15 1012 75 10000 3.38 37 19:49 14.01.2022
5881 Clouds 15 1013 64 10000 7.21 327 18:33 14.01.2022
5882 Clouds 18 1010 33 10000 4.36 313 16:51 14.01.2022
5883 Clouds 18 1010 33 10000 4.36 313 16:33 14.01.2022
5884 Clouds 27 1008 21 10000 4.33 222 14:49 14.01.2022
5885 Clouds 27 1008 19 10000 5.42 217 13:48 14.01.2022
5886 Clouds 27 1008 20 10000 5.2 203 12:34 14.01.2022
5887 Clouds 26 1010 21 10000 8.63 236 11:29 14.01.2022
5888 Clouds 23 1012 22 10000 6.25 230 09:51 14.01.2022
5889 Clouds 22 1013 27 10000 4.43 205 08:52 14.01.2022
5890 Clouds 20 1014 30 10000 5.01 180 07:27 14.01.2022
5891 Clouds 19 1013 38 10000 5.78 165 01:43 14.01.2022
5892 Clouds 20 1014 36 10000 6.25 172 23:36 13.01.2022
5893 Clouds 21 1014 35 10000 6.02 169 21:42 13.01.2022
5894 Clouds 21 1015 34 10000 5.57 169 21:23 13.01.2022
5895 Clouds 23 1015 33 10000 5.6 164 19:41 13.01.2022
5896 Clouds 23 1015 33 10000 5.32 165 19:22 13.01.2022
5897 Clouds 23 1015 31 10000 4.83 169 17:56 13.01.2022
5898 Clouds 25 1014 28 10000 4.82 150 16:22 13.01.2022
5899 Clouds 26 1014 28 10000 4.82 150 15:38 13.01.2022
5900 Clear 28 1013 25 10000 5.62 145 14:49 13.01.2022
5901 Clear 27 1013 21 10000 6.1 152 12:46 13.01.2022
5902 Clear 26 1016 22 10000 5.24 166 10:25 13.01.2022
5903 Clear 24 1017 24 10000 5.15 170 09:20 13.01.2022
5904 Clear 22 1018 26 10000 4.7 166 08:27 13.01.2022
5905 Clear 19 1019 30 10000 4.41 162 07:24 13.01.2022
5906 Clear 15 1019 31 10000 5.04 157 06:38 13.01.2022
5907 Clear 13 1019 38 10000 3.9 139 05:20 13.01.2022
5908 Clear 14 1018 37 10000 3.28 140 02:33 13.01.2022
5909 Clear 15 1018 35 10000 3.37 148 00:56 13.01.2022
5910 Clear 17 1018 35 10000 3.49 140 23:50 12.01.2022
5911 Clear 17 1018 34 10000 3.7 130 23:24 12.01.2022
5912 Clear 17 1018 35 10000 3.58 118 21:58 12.01.2022
5913 Clear 17 1019 34 10000 3.79 117 21:23 12.01.2022
5914 Clear 19 1019 34 10000 3.79 117 20:57 12.01.2022
5915 Clear 20 1019 33 10000 3.42 116 19:55 12.01.2022
5916 Clear 21 1018 32 10000 3.38 112 18:43 12.01.2022
5917 Clear 22 1018 31 10000 3.47 117 17:50 12.01.2022
5918 Clear 24 1018 30 10000 3.68 116 16:38 12.01.2022
5919 Clear 26 1017 28 10000 2.91 104 14:49 12.01.2022
5920 Clear 27 1016 26 10000 2.36 97 13:32 12.01.2022
5921 Clear 27 1016 26 10000 1.59 111 11:59 12.01.2022
5922 Clouds 20 1019 23 10000 1.07 157 08:45 12.01.2022
5923 Clouds 17 1020 25 10000 1.2 135 07:52 12.01.2022
5924 Clouds 17 1020 27 10000 1.72 157 07:32 12.01.2022
5925 Clear 16 1019 29 10000 2.3 145 23:53 11.01.2022
5926 Clear 16 1019 28 10000 2.68 131 22:57 11.01.2022
5927 Clear 16 1019 27 10000 2.43 144 22:23 11.01.2022
5928 Clear 16 1019 26 10000 2.27 157 21:25 11.01.2022
5929 Clear 19 1019 26 10000 2.29 159 20:21 11.01.2022
5930 Clouds 20 1019 28 10000 2.58 147 18:43 11.01.2022
5931 Clouds 21 1018 29 10000 3.01 134 17:35 11.01.2022
5932 Clouds 22 1018 31 10000 2.94 127 16:38 11.01.2022
5933 Clouds 24 1017 33 10000 1.78 133 15:56 11.01.2022
5934 Clouds 25 1016 33 10000 0.33 215 14:43 11.01.2022
5935 Clouds 25 1016 29 10000 1.42 264 13:56 11.01.2022
5936 Clouds 25 1016 29 10000 1.41 265 13:36 11.01.2022
5937 Clouds 25 1016 24 10000 1.9 189 12:51 11.01.2022
5938 Clouds 25 1017 24 10000 1.68 201 12:20 11.01.2022
5939 Clouds 21 1018 23 10000 1.7 176 09:58 11.01.2022
5940 Clouds 16 1020 25 10000 2.68 183 07:18 11.01.2022
5941 Clouds 16 1019 30 10000 4.47 157 00:43 11.01.2022
5942 Clouds 16 1019 31 10000 3.85 159 00:21 11.01.2022
5943 Clouds 17 1019 30 10000 4.11 157 23:28 10.01.2022
5944 Clouds 17 1019 31 10000 4.19 155 22:19 10.01.2022
5945 Clouds 17 1019 31 10000 4.19 155 21:54 10.01.2022
5946 Clouds 17 1019 31 10000 4.19 149 21:21 10.01.2022
5947 Clouds 17 1019 31 10000 4.19 149 20:57 10.01.2022
5948 Clouds 17 1019 30 10000 4.27 144 20:28 10.01.2022
5949 Clouds 18 1019 30 10000 4.27 144 19:44 10.01.2022
5950 Clouds 18 1018 29 10000 4.65 139 19:21 10.01.2022
5951 Clouds 19 1018 29 10000 4.63 137 18:50 10.01.2022
5952 Clouds 20 1018 28 10000 4.42 130 17:56 10.01.2022
5953 Clouds 21 1017 26 10000 4.35 130 16:42 10.01.2022
5954 Clouds 23 1016 25 10000 4.55 135 15:49 10.01.2022
5955 Clouds 24 1016 24 10000 5.21 138 14:34 10.01.2022
5956 Clear 25 1015 22 10000 5.93 156 12:22 10.01.2022
5957 Clear 24 1016 22 10000 5.6 153 11:25 10.01.2022
5958 Clear 20 1017 22 10000 5.75 154 09:53 10.01.2022
5959 Clear 18 1019 23 10000 5.36 157 08:22 10.01.2022
5960 Clear 10 1019 30 10000 3.45 148 05:50 10.01.2022
5961 Clear 12 1018 32 10000 3.74 150 01:33 10.01.2022
5962 Clear 13 1018 32 10000 3.88 148 00:33 10.01.2022
5963 Clear 13 1018 32 10000 3.66 144 23:43 09.01.2022
5964 Clear 14 1019 33 10000 3.98 146 22:42 09.01.2022
5965 Clear 15 1019 32 10000 4.07 144 21:47 09.01.2022
5966 Clear 15 1020 31 10000 3.91 141 21:24 09.01.2022
5967 Clear 15 1020 31 10000 3.91 142 20:54 09.01.2022
5968 Clear 15 1020 31 10000 3.91 142 20:36 09.01.2022
5969 Clear 15 1020 30 10000 3.95 134 20:18 09.01.2022
5970 Clear 16 1019 29 10000 3.76 123 19:36 09.01.2022
5971 Clear 16 1019 28 10000 3.71 120 19:18 09.01.2022
5972 Clear 17 1019 26 10000 3.68 116 18:37 09.01.2022
5973 Clear 18 1019 26 10000 3.68 116 17:48 09.01.2022
5974 Clear 18 1019 25 10000 3.69 114 17:25 09.01.2022
5975 Clear 19 1019 25 10000 3.69 114 16:34 09.01.2022
5976 Clear 21 1018 24 10000 3.53 115 15:37 09.01.2022
5977 Clear 23 1017 22 10000 3.41 124 14:41 09.01.2022
5978 Clear 23 1017 20 10000 3.42 132 13:56 09.01.2022
5979 Clear 23 1017 20 10000 3.42 132 13:36 09.01.2022
5980 Clear 22 1017 19 10000 3.23 143 11:56 09.01.2022
5981 Clear 22 1018 19 10000 3.3 149 11:19 09.01.2022
5982 Clear 19 1019 19 10000 3.43 149 09:51 09.01.2022
5983 Clear 16 1020 19 10000 3.38 152 08:54 09.01.2022
5984 Clouds 8 1021 27 10000 2.7 143 05:54 09.01.2022
5985 Clouds 10 1019 29 10000 2.46 141 01:25 09.01.2022
5986 Clouds 10 1019 29 10000 2.48 145 00:37 09.01.2022
5987 Clouds 10 1019 28 10000 3.46 143 23:27 08.01.2022
5988 Clouds 10 1019 28 10000 3.46 143 22:35 08.01.2022
5989 Clouds 11 1020 26 10000 3.16 142 21:26 08.01.2022
5990 Clouds 13 1020 26 10000 3.16 142 20:43 08.01.2022
5991 Clouds 13 1021 26 10000 2.7 136 20:21 08.01.2022
5992 Clear 15 1020 23 10000 3.43 129 18:45 08.01.2022
5993 Clear 16 1020 23 10000 3.2 111 17:24 08.01.2022
5994 Clear 18 1020 23 10000 3.2 111 16:40 08.01.2022
5995 Clear 21 1018 21 10000 2.96 106 14:50 08.01.2022
5996 Clear 21 1018 19 10000 2.54 103 13:41 08.01.2022
5997 Clouds 20 1018 19 10000 1.87 130 11:30 08.01.2022
5998 Clouds 19 1020 21 10000 1.67 153 10:31 08.01.2022
5999 Clouds 17 1020 21 10000 1.69 152 09:57 08.01.2022
6000 Clouds 17 1020 21 10000 1.69 152 09:30 08.01.2022
6001 Clouds 5 1021 31 10000 2.22 149 04:25 08.01.2022
6002 Clouds 7 1020 30 10000 1.92 150 00:58 08.01.2022
6003 Clouds 9 1020 28 10000 2.42 134 22:54 07.01.2022
6004 Clouds 9 1020 28 10000 2.38 117 21:46 07.01.2022
6005 Clouds 11 1021 27 10000 2.65 111 20:23 07.01.2022
6006 Clouds 10 1021 26 10000 2.81 96 19:26 07.01.2022
6007 Clouds 12 1021 26 10000 3.38 100 18:45 07.01.2022
6008 Clouds 11 1021 25 10000 3 97 17:58 07.01.2022
6009 Clouds 11 1020 24 10000 3.16 89 17:22 07.01.2022
6010 Clouds 19 1019 22 10000 2.09 75 14:50 07.01.2022
6011 Clouds 18 1019 20 10000 1.24 44 13:50 07.01.2022
6012 Clouds 18 1019 21 10000 1.53 71 12:50 07.01.2022
6013 Clouds 13 1021 28 10000 0.6 33 09:48 07.01.2022
6014 Clouds 6 1023 56 10000 2.25 324 02:58 07.01.2022
6015 Clouds 6 1022 56 10000 2.02 330 02:21 07.01.2022
6016 Clouds 8 1022 56 10000 2.03 330 01:45 07.01.2022
6017 Clouds 8 1022 55 10000 2.04 327 01:23 07.01.2022
6018 Clouds 8 1022 52 10000 2.51 331 00:28 07.01.2022
6019 Clouds 10 1022 49 10000 2.58 353 21:40 06.01.2022
6020 Clouds 10 1023 48 10000 3.02 357 20:36 06.01.2022
6021 Clouds 11 1023 46 10000 3.11 1 19:54 06.01.2022
6022 Clear 11 1023 43 10000 3.45 9 19:29 06.01.2022
6023 Clouds 14 1022 38 10000 3.62 18 17:51 06.01.2022
6024 Clouds 14 1022 38 10000 3.62 18 17:51 06.01.2022
6025 Clear 14 1022 34 10000 3.98 19 17:19 06.01.2022
6026 Clear 15 1021 31 10000 3.7 5 16:22 06.01.2022
6027 Clear 17 1021 31 10000 3.7 5 15:41 06.01.2022
6028 Clear 17 1020 28 10000 3.86 358 15:20 06.01.2022
6029 Clear 18 1020 25 10000 4.8 354 14:19 06.01.2022
6030 Clear 19 1020 25 10000 5.11 353 12:59 06.01.2022
6031 Clear 17 1020 26 10000 4.62 342 11:58 06.01.2022
6032 Clear 17 1021 29 10000 4.77 343 11:29 06.01.2022
6033 Clear 16 1023 38 10000 5.14 347 09:33 06.01.2022
6034 Clear 7 1024 61 10000 4.51 327 05:55 06.01.2022
6035 Clear 9 1022 52 10000 4.44 324 23:56 05.01.2022
6036 Clear 9 1023 49 10000 4.32 325 23:21 05.01.2022
6037 Clear 10 1023 50 10000 4.32 325 22:41 05.01.2022
6038 Clear 10 1023 46 10000 4.3 326 21:59 05.01.2022
6039 Clear 10 1024 43 10000 4.25 325 21:22 05.01.2022
6040 Clear 11 1024 43 10000 4.25 325 20:30 05.01.2022
6041 Clear 12 1023 37 10000 4.01 323 19:28 05.01.2022
6042 Clear 14 1022 32 10000 4.05 333 17:56 05.01.2022
6043 Clear 15 1022 30 10000 4.16 339 16:56 05.01.2022
6044 Clear 17 1021 27 10000 4.55 342 15:46 05.01.2022
6045 Clear 18 1020 23 10000 5.07 337 14:50 05.01.2022
6046 Clear 18 1020 20 10000 6.13 334 13:33 05.01.2022
6047 Clear 17 1020 18 10000 6.62 330 11:59 05.01.2022
6048 Clear 13 1024 22 10000 5.63 319 08:21 05.01.2022
6049 Clear 7 1024 30 10000 5 316 06:37 05.01.2022
6050 Clear 7 1022 53 10000 3.67 321 01:20 05.01.2022
6051 Clear 9 1022 55 10000 3.23 323 23:41 04.01.2022
6052 Clear 9 1022 55 10000 3.17 326 23:19 04.01.2022
6053 Clear 10 1022 55 10000 3.29 336 21:32 04.01.2022
6054 Clear 11 1023 51 10000 3.33 347 20:27 04.01.2022
6055 Clear 13 1022 47 10000 3.86 357 18:35 04.01.2022
6056 Clear 13 1021 41 10000 4.73 354 17:18 04.01.2022
6057 Clear 14 1021 41 10000 4.73 354 16:31 04.01.2022
6058 Clear 17 1019 37 10000 5.8 341 14:58 04.01.2022
6059 Clear 17 1019 37 10000 5.8 341 14:37 04.01.2022
6060 Clear 17 1019 35 10000 6.73 332 13:55 04.01.2022
6061 Clear 17 1018 35 10000 6.59 328 11:44 04.01.2022
6062 Clear 16 1020 38 10000 6.06 329 10:21 04.01.2022
6063 Clear 14 1021 40 10000 5.93 331 08:49 04.01.2022
6064 Clear 9 1021 57 10000 2.67 307 06:28 04.01.2022
6065 Clear 9 1019 60 10000 2.89 314 00:42 04.01.2022
6066 Clear 10 1019 61 10000 2.86 337 23:54 03.01.2022
6067 Clear 11 1019 59 10000 4.24 339 22:22 03.01.2022
6068 Clear 11 1019 59 10000 4.24 339 21:38 03.01.2022
6069 Clear 11 1019 57 10000 5.27 338 20:41 03.01.2022
6070 Clear 13 1018 49 10000 5.33 339 18:55 03.01.2022
6071 Clear 13 1018 49 10000 5.33 339 18:30 03.01.2022
6072 Clear 13 1017 44 10000 4.28 327 17:21 03.01.2022
6073 Clear 14 1017 44 10000 4.28 327 16:53 03.01.2022
6074 Clear 16 1014 39 10000 5.37 316 14:31 03.01.2022
6075 Clear 16 1013 33 10000 4.63 314 12:52 03.01.2022
6076 Clear 16 1013 35 10000 4.65 314 11:50 03.01.2022
6077 Clear 14 1013 39 10000 4.42 314 10:52 03.01.2022
6078 Clear 13 1015 50 10000 4.06 329 09:28 03.01.2022
6079 Clear 13 1015 50 10000 4.06 329 09:28 03.01.2022
6080 Clear 10 1016 57 10000 4.22 337 07:54 03.01.2022
6081 Clear 11 1013 48 10000 3.34 305 03:22 03.01.2022
6082 Clear 14 1012 43 10000 3.82 320 23:24 02.01.2022
6083 Clear 15 1012 43 10000 3.82 320 22:56 02.01.2022
6084 Clear 15 1012 38 10000 4.34 315 21:58 02.01.2022
6085 Clear 16 1012 33 10000 4.62 310 20:50 02.01.2022
6086 Clear 16 1012 33 10000 4.62 310 20:30 02.01.2022
6087 Clouds 17 1011 33 10000 4.84 307 19:31 02.01.2022
6088 Clouds 18 1011 33 10000 4.84 307 18:56 02.01.2022
6089 Clouds 19 1011 33 10000 6.69 304 17:57 02.01.2022
6090 Clouds 19 1011 33 10000 6.69 304 17:39 02.01.2022
6091 Clouds 19 1010 32 10000 7.87 290 17:20 02.01.2022
6092 Clouds 20 1009 37 10000 7.05 278 16:28 02.01.2022
6093 Clouds 21 1008 38 10000 9.86 280 14:44 02.01.2022
6094 Clouds 18 1008 40 10000 8.7 294 13:37 02.01.2022
6095 Clouds 23 1007 42 10000 5.57 280 12:32 02.01.2022
6096 Clear 23 1007 37 10000 6.97 248 11:49 02.01.2022
6097 Clear 23 1008 42 10000 7.3 253 10:54 02.01.2022
6098 Clear 20 1009 45 10000 8.07 250 09:57 02.01.2022
6099 Clear 18 1011 50 10000 9.43 235 07:34 02.01.2022
6100 Clouds 17 1011 93 10000 4.57 154 02:56 02.01.2022
6101 Clouds 16 1012 96 4079 5.17 144 23:42 01.01.2022
6102 Clouds 16 1013 95 10000 4.96 143 23:24 01.01.2022
6103 Clouds 16 1013 93 5960 5.27 134 22:25 01.01.2022
6104 Clouds 16 1013 93 5960 5.27 134 21:45 01.01.2022
6105 Clouds 16 1014 92 10000 4.87 122 21:21 01.01.2022
6106 Clouds 16 1015 91 10000 4.35 135 20:20 01.01.2022
6107 Clouds 16 1015 91 10000 4.35 135 19:34 01.01.2022
6108 Clouds 15 1016 89 10000 4.88 133 18:51 01.01.2022
6109 Clouds 15 1016 86 10000 5.39 121 17:38 01.01.2022
6110 Clouds 15 1016 86 10000 5.7 120 16:34 01.01.2022
6111 Clouds 15 1016 86 10000 5.7 120 16:34 01.01.2022
6112 Clouds 15 1016 86 10000 5.59 119 15:33 01.01.2022
6113 Clouds 15 1015 81 10000 5.65 119 14:22 01.01.2022
6114 Clouds 15 1015 81 10000 5.65 119 13:35 01.01.2022
6115 Clouds 15 1015 83 10000 5.59 127 12:18 01.01.2022
6116 Clouds 15 1016 82 10000 6.18 125 11:25 01.01.2022
6117 Clouds 14 1016 82 10000 6.18 125 10:52 01.01.2022
6118 Clouds 14 1017 84 10000 6.73 119 09:47 01.01.2022
6119 Clouds 14 1020 91 10000 5.61 117 08:27 01.01.2022
6120 Clouds 13 1020 91 10000 5.61 117 07:56 01.01.2022
6121 Clouds 13 1020 91 10000 5.61 117 07:37 01.01.2022
6122 Clouds 13 1020 87 10000 5.48 119 06:43 01.01.2022
6123 Clouds 13 1019 95 10000 3.37 123 04:39 01.01.2022
6124 Clouds 13 1019 93 10000 3.14 129 03:50 01.01.2022
6125 Clouds 13 1018 82 10000 4.13 117 23:53 31.12.2021
6126 Clouds 14 1019 81 10000 3.88 104 21:57 31.12.2021
6127 Clouds 14 1019 81 10000 3.88 104 21:39 31.12.2021
6128 Clear 14 1020 78 10000 4.61 99 19:43 31.12.2021
6129 Clouds 14 1019 69 10000 6.54 86 18:50 31.12.2021
6130 Clouds 15 1019 68 10000 6.41 81 17:49 31.12.2021
6131 Clouds 15 1018 64 10000 7.27 81 17:24 31.12.2021
6132 Clouds 15 1018 64 10000 7.27 81 16:52 31.12.2021
6133 Clouds 15 1018 62 10000 5.46 81 16:18 31.12.2021
6134 Clouds 15 1018 62 10000 5.46 81 15:45 31.12.2021
6135 Clouds 15 1017 56 10000 5.85 92 15:26 31.12.2021
6136 Clouds 15 1017 56 10000 5.84 93 14:38 31.12.2021
6137 Clouds 16 1016 53 10000 6.14 102 13:45 31.12.2021
6138 Clouds 16 1016 50 10000 5.16 117 12:50 31.12.2021
6139 Clouds 16 1016 54 10000 5.21 121 12:20 31.12.2021
6140 Clouds 16 1016 54 10000 5.21 121 11:41 31.12.2021
6141 Clouds 15 1017 56 10000 4.41 122 10:50 31.12.2021
6142 Clouds 15 1017 56 10000 5.48 111 10:28 31.12.2021
6143 Clouds 14 1017 56 10000 5.48 111 09:34 31.12.2021
6144 Clouds 14 1019 56 10000 4.19 98 08:50 31.12.2021
6145 Clouds 14 1019 60 10000 4.44 72 07:53 31.12.2021
6146 Clouds 11 1018 62 10000 3.52 29 04:54 31.12.2021
6147 Clouds 14 1016 61 10000 1.48 349 23:18 30.12.2021
6148 Clouds 14 1016 61 10000 1.48 349 22:31 30.12.2021
6149 Clouds 14 1016 63 10000 1.09 316 21:39 30.12.2021
6150 Clouds 14 1016 62 10000 2.01 255 21:18 30.12.2021
6151 Clouds 17 1016 62 10000 2.01 255 20:39 30.12.2021
6152 Clouds 17 1016 62 10000 2.4 186 19:55 30.12.2021
6153 Clouds 17 1015 59 10000 3.56 173 19:31 30.12.2021
6154 Clouds 17 1015 51 10000 2.81 232 18:26 30.12.2021
6155 Clouds 19 1015 53 10000 2.79 236 16:53 30.12.2021
6156 Clouds 20 1014 50 10000 3.68 258 15:53 30.12.2021
6157 Clouds 21 1013 44 10000 6.22 243 14:55 30.12.2021
6158 Clouds 21 1012 39 10000 4.5 226 14:36 30.12.2021
6159 Clouds 20 1012 38 10000 7.66 227 13:25 30.12.2021
6160 Clouds 20 1012 38 10000 7.66 227 13:25 30.12.2021
6161 Clouds 22 1012 40 10000 8.5 228 11:57 30.12.2021
6162 Clouds 21 1012 40 10000 9.52 233 10:35 30.12.2021
6163 Clear 19 1013 38 10000 9.31 230 09:47 30.12.2021
6164 Clouds 14 1016 57 10000 5.39 206 06:58 30.12.2021
6165 Clear 14 1016 77 10000 3.8 167 05:27 30.12.2021
6166 Clear 12 1015 69 10000 3.67 161 03:41 30.12.2021
6167 Clear 11 1015 61 10000 4.57 149 02:28 30.12.2021
6168 Clouds 12 1015 47 10000 4.58 145 23:37 29.12.2021
6169 Clouds 12 1015 45 10000 5.31 149 22:55 29.12.2021
6170 Clouds 13 1015 44 10000 5.84 146 21:56 29.12.2021
6171 Clouds 14 1016 44 10000 4.74 152 20:58 29.12.2021
6172 Clouds 14 1017 41 10000 5.34 150 20:29 29.12.2021
6173 Clouds 14 1017 35 10000 4.88 148 19:31 29.12.2021
6174 Clouds 14 1017 35 10000 4.88 148 18:42 29.12.2021
6175 Clouds 15 1017 35 10000 4.81 135 17:49 29.12.2021
6176 Clouds 15 1016 34 10000 4.95 125 17:26 29.12.2021
6177 Clouds 15 1016 36 10000 3.97 131 16:22 29.12.2021
6178 Clouds 16 1015 33 10000 4.04 132 15:21 29.12.2021
6179 Clouds 15 1015 31 10000 5.63 153 13:31 29.12.2021
6180 Clouds 15 1014 36 10000 5.48 159 12:35 29.12.2021
6181 Clouds 15 1016 47 10000 5.59 178 11:23 29.12.2021
6182 Clouds 17 1017 46 10000 5.37 169 09:35 29.12.2021
6183 Clouds 14 1020 45 10000 5.16 169 07:47 29.12.2021
6184 Clouds 12 1020 33 10000 5.26 152 06:36 29.12.2021
6185 Clouds 12 1019 34 10000 4.29 122 05:57 29.12.2021
6186 Clouds 12 1020 39 10000 3.04 50 05:27 29.12.2021
6187 Clouds 12 1018 34 10000 1.85 159 01:27 29.12.2021
6188 Clouds 14 1017 33 10000 2.97 160 23:59 28.12.2021
6189 Clouds 14 1017 34 10000 4.49 138 22:57 28.12.2021
6190 Clouds 14 1017 34 10000 4.49 138 22:57 28.12.2021
6191 Clouds 14 1017 34 10000 5.01 127 22:25 28.12.2021
6192 Clouds 14 1017 34 10000 5.02 127 21:55 28.12.2021
6193 Clouds 14 1017 34 10000 5.01 127 21:35 28.12.2021
6194 Clouds 15 1018 35 10000 5.01 123 20:32 28.12.2021
6195 Clouds 17 1018 34 10000 4.24 119 18:56 28.12.2021
6196 Clouds 17 1018 33 10000 4.12 117 18:28 28.12.2021
6197 Clouds 18 1018 33 10000 4.12 117 17:42 28.12.2021
6198 Clouds 19 1017 33 10000 3.91 118 16:25 28.12.2021
6199 Clouds 20 1017 33 10000 3.91 118 15:41 28.12.2021
6200 Clouds 20 1017 32 10000 3.89 131 14:57 28.12.2021
6201 Clouds 20 1017 32 10000 3.89 132 14:57 28.12.2021
6202 Clouds 20 1017 32 10000 3.89 132 14:38 28.12.2021
6203 Clouds 20 1017 30 10000 4.19 143 14:20 28.12.2021
6204 Clouds 21 1017 30 10000 4.19 143 13:38 28.12.2021
6205 Clouds 20 1016 30 10000 4.54 150 12:56 28.12.2021
6206 Clouds 20 1016 28 10000 5.02 149 12:29 28.12.2021
6207 Clouds 19 1017 28 10000 4.75 144 10:51 28.12.2021
6208 Clouds 13 1022 29 10000 4.06 130 07:39 28.12.2021
6209 Clouds 10 1021 35 10000 2.54 127 03:37 28.12.2021
6210 Clouds 11 1020 37 10000 3.03 123 23:42 27.12.2021
6211 Clouds 11 1021 38 10000 2.94 121 22:31 27.12.2021
6212 Clouds 11 1021 38 10000 2.65 108 21:32 27.12.2021
6213 Clouds 12 1021 38 10000 2.65 108 20:40 27.12.2021
6214 Clouds 12 1022 38 10000 2.85 90 19:55 27.12.2021
6215 Clouds 12 1022 38 10000 2.85 90 19:37 27.12.2021
6216 Clouds 14 1022 41 10000 3.27 79 17:55 27.12.2021
6217 Clouds 14 1022 41 10000 3.28 78 17:55 27.12.2021
6218 Clouds 14 1021 42 10000 3.27 82 17:29 27.12.2021
6219 Clouds 15 1020 42 10000 2.89 90 16:27 27.12.2021
6220 Clouds 15 1020 42 10000 2.89 90 15:49 27.12.2021
6221 Clouds 16 1019 38 10000 2.38 110 14:26 27.12.2021
6222 Clouds 16 1019 38 10000 2.38 110 13:31 27.12.2021
6223 Clouds 15 1019 39 10000 1.79 117 11:34 27.12.2021
6224 Clouds 14 1021 43 10000 1.79 81 10:27 27.12.2021
6225 Clouds 13 1021 43 10000 1.79 81 09:38 27.12.2021
6226 Clouds 11 1023 48 10000 2.31 54 07:35 27.12.2021
6227 Clouds 10 1024 52 10000 2.56 57 06:30 27.12.2021
6228 Clouds 10 1022 56 10000 1.39 37 01:59 27.12.2021
6229 Clear 9 1023 61 10000 1.89 64 23:50 26.12.2021
6230 Clear 9 1023 61 10000 1.89 64 23:32 26.12.2021
6231 Clear 9 1024 60 10000 1.75 41 21:48 26.12.2021
6232 Clear 10 1024 58 10000 2.26 45 20:31 26.12.2021
6233 Clouds 10 1025 56 10000 4.07 23 19:27 26.12.2021
6234 Clouds 10 1024 57 10000 4.45 36 18:23 26.12.2021
6235 Clouds 11 1022 52 10000 4.69 43 15:55 26.12.2021
6236 Clouds 13 1021 47 10000 4.6 38 13:52 26.12.2021
6237 Clouds 13 1021 46 10000 4.39 40 13:32 26.12.2021
6238 Clouds 13 1021 46 10000 4.39 40 12:38 26.12.2021
6239 Clouds 13 1021 43 10000 4.08 37 11:57 26.12.2021
6240 Clouds 13 1022 43 10000 4 46 09:52 26.12.2021
6241 Clouds 13 1023 42 10000 4.85 47 09:18 26.12.2021
6242 Clouds 11 1023 42 10000 4.85 47 08:39 26.12.2021
6243 Clouds 9 1024 45 10000 5.95 46 06:47 26.12.2021
6244 Clouds 12 1021 61 10000 5.02 51 00:58 26.12.2021
6245 Clouds 13 1020 58 10000 4.7 38 23:50 25.12.2021
6246 Clouds 13 1021 57 10000 4.52 34 23:26 25.12.2021
6247 Clouds 13 1021 56 10000 5.41 33 22:22 25.12.2021
6248 Clouds 13 1021 57 10000 4.97 30 20:48 25.12.2021
6249 Clouds 13 1022 59 10000 5.66 23 19:22 25.12.2021
6250 Clouds 13 1022 59 10000 5.66 23 18:54 25.12.2021
6251 Clouds 16 1020 46 10000 6.14 26 17:28 25.12.2021
6252 Clouds 16 1019 44 10000 7.58 20 16:18 25.12.2021
6253 Clouds 18 1018 41 10000 7.44 29 14:38 25.12.2021
6254 Clouds 19 1017 44 10000 6.68 36 12:48 25.12.2021
6255 Clouds 18 1017 42 10000 6.2 31 11:37 25.12.2021
6256 Clouds 16 1018 41 10000 5.45 27 09:49 25.12.2021
6257 Clouds 14 1018 37 10000 4.95 23 07:54 25.12.2021
6258 Clouds 16 1015 47 10000 0.9 11 02:18 25.12.2021
6259 Clouds 17 1014 45 10000 1.1 74 00:30 25.12.2021
6260 Clouds 17 1014 44 10000 1.34 94 23:38 24.12.2021
6261 Clouds 21 1014 38 10000 4.56 146 19:39 24.12.2021
6262 Clouds 21 1014 35 10000 5.38 148 19:20 24.12.2021
6263 Clouds 22 1013 30 10000 3.97 124 16:50 24.12.2021
6264 Clear 22 1012 29 10000 2.49 150 16:19 24.12.2021
6265 Clear 25 1012 29 10000 2.49 150 15:45 24.12.2021
6266 Clear 25 1012 27 10000 2.63 206 14:46 24.12.2021
6267 Clear 25 1011 24 10000 4.73 230 14:22 24.12.2021
6268 Clear 26 1011 24 10000 4.73 230 13:37 24.12.2021
6269 Clear 25 1011 23 10000 5.92 230 12:48 24.12.2021
6270 Clear 23 1011 22 10000 4.52 215 11:52 24.12.2021
6271 Clear 23 1012 23 10000 3.84 205 11:26 24.12.2021
6272 Clear 22 1012 23 10000 3.84 205 10:46 24.12.2021
6273 Clear 22 1014 23 10000 3.94 192 10:18 24.12.2021
6274 Clear 19 1017 23 10000 4.57 168 08:24 24.12.2021
6275 Clear 17 1017 23 10000 4.57 168 07:48 24.12.2021
6276 Clear 13 1015 31 10000 3.83 152 02:52 24.12.2021
6277 Clouds 14 1015 29 10000 5.05 145 23:56 23.12.2021
6278 Clouds 14 1015 28 10000 5.33 142 22:58 23.12.2021
6279 Clouds 14 1015 28 10000 5.33 142 22:37 23.12.2021
6280 Clouds 14 1015 28 10000 5.15 135 22:18 23.12.2021
6281 Clouds 16 1016 27 10000 5.5 135 20:56 23.12.2021
6282 Clouds 16 1016 26 10000 5.03 130 20:18 23.12.2021
6283 Clouds 16 1016 26 10000 5.03 130 20:18 23.12.2021
6284 Clouds 17 1016 25 10000 4.74 127 18:36 23.12.2021
6285 Clouds 18 1016 24 10000 4.36 122 17:57 23.12.2021
6286 Clouds 19 1016 23 10000 3.87 123 16:44 23.12.2021
6287 Clouds 19 1016 22 10000 3.88 118 16:24 23.12.2021
6288 Clear 20 1015 20 10000 3.83 116 15:31 23.12.2021
6289 Clear 21 1015 20 10000 3.82 116 14:52 23.12.2021
6290 Clear 21 1014 18 10000 4.14 119 14:30 23.12.2021
6291 Clouds 21 1014 17 10000 3.99 135 12:54 23.12.2021
6292 Clouds 18 1016 17 10000 3.97 162 10:44 23.12.2021
6293 Clouds 18 1017 18 10000 4.42 155 09:42 23.12.2021
6294 Clouds 17 1019 19 10000 3.5 143 08:59 23.12.2021
6295 Clouds 14 1020 22 10000 2.63 120 06:55 23.12.2021
6296 Clouds 13 1020 27 10000 2.15 120 04:30 23.12.2021
6297 Clouds 11 1019 22 10000 2.39 108 23:20 22.12.2021
6298 Clouds 12 1019 22 10000 2.39 108 22:42 22.12.2021
6299 Clouds 14 1020 22 10000 2.3 89 21:56 22.12.2021
6300 Clouds 14 1020 22 10000 2.53 74 21:29 22.12.2021
6301 Clouds 14 1020 22 10000 2.53 74 20:47 22.12.2021
6302 Clouds 14 1021 21 10000 2.51 62 20:26 22.12.2021
6303 Clear 15 1021 21 10000 2.81 49 19:21 22.12.2021
6304 Clear 16 1021 19 10000 3.56 35 17:42 22.12.2021
6305 Clear 17 1021 19 10000 3.5 36 16:39 22.12.2021
6306 Clouds 18 1020 18 10000 3.23 35 15:40 22.12.2021
6307 Clouds 19 1019 16 10000 4.24 18 13:33 22.12.2021
6308 Clouds 19 1019 17 10000 4.5 8 12:40 22.12.2021
6309 Clouds 17 1021 20 10000 3.63 7 10:19 22.12.2021
6310 Clouds 16 1021 20 10000 3.63 7 09:38 22.12.2021
6311 Clear 13 1024 28 10000 4.5 3 07:25 22.12.2021
6312 Clear 11 1024 31 10000 4.69 0 05:43 22.12.2021
6313 Clear 11 1023 33 10000 3.72 1 05:24 22.12.2021
6314 Clear 11 1023 33 10000 3.74 1 04:49 22.12.2021
6315 Clear 11 1023 33 10000 4.07 359 04:26 22.12.2021
6316 Clear 11 1023 33 10000 4.07 359 03:32 22.12.2021
6317 Clear 12 1021 36 10000 4.63 7 00:47 22.12.2021
6318 Clear 14 1021 37 10000 4.63 13 22:52 21.12.2021
6319 Clear 14 1021 37 10000 5.41 13 22:28 21.12.2021
6320 Clear 15 1021 37 10000 5.41 13 21:44 21.12.2021
6321 Clear 16 1021 35 10000 5.65 9 20:55 21.12.2021
6322 Clear 16 1021 33 10000 5.77 8 20:21 21.12.2021
6323 Clear 17 1021 33 10000 5.77 8 19:41 21.12.2021
6324 Clear 17 1021 30 10000 6.25 9 18:45 21.12.2021
6325 Clear 17 1021 29 10000 6.92 17 18:21 21.12.2021
6326 Clear 18 1021 29 10000 6.92 17 17:41 21.12.2021
6327 Clear 20 1019 32 10000 6.25 14 15:59 21.12.2021
6328 Clear 21 1017 33 10000 5.58 5 15:20 21.12.2021
6329 Clear 24 1016 34 10000 5.5 2 13:50 21.12.2021
6330 Clear 24 1016 34 10000 5.5 2 13:30 21.12.2021
6331 Clouds 24 1016 44 10000 5.2 348 11:36 21.12.2021
6332 Clouds 23 1017 49 10000 4.86 345 10:24 21.12.2021
6333 Clear 22 1018 51 10000 5.14 339 09:23 21.12.2021
6334 Clear 19 1019 50 10000 5.01 322 07:58 21.12.2021
6335 Clouds 19 1019 45 10000 4.88 301 07:27 21.12.2021
6336 Clouds 19 1019 46 10000 3.31 300 05:31 21.12.2021
6337 Clouds 18 1017 43 10000 2.74 289 02:40 21.12.2021
6338 Clouds 21 1015 40 10000 3.56 184 23:58 20.12.2021
6339 Clouds 21 1016 39 10000 4.23 180 23:27 20.12.2021
6340 Clouds 22 1016 39 10000 5.16 176 22:28 20.12.2021
6341 Clouds 22 1016 39 10000 5.16 176 22:28 20.12.2021
6342 Clouds 23 1016 39 10000 5.16 176 21:47 20.12.2021
6343 Clouds 23 1016 39 10000 5.69 172 21:23 20.12.2021
6344 Clouds 23 1016 39 10000 5.69 172 20:44 20.12.2021
6345 Clouds 23 1016 39 10000 5.3 174 19:52 20.12.2021
6346 Clouds 23 1016 39 10000 5.3 174 19:31 20.12.2021
6347 Clouds 23 1017 37 10000 5.1 179 18:54 20.12.2021
6348 Clouds 23 1017 33 10000 4.64 183 17:52 20.12.2021
6349 Clouds 23 1016 31 10000 5.76 169 17:25 20.12.2021
6350 Clouds 24 1016 31 10000 5.76 169 16:40 20.12.2021
6351 Clouds 25 1015 30 10000 6.95 154 15:50 20.12.2021
6352 Clouds 26 1014 29 10000 6.45 145 14:43 20.12.2021
6353 Clouds 26 1013 23 10000 5.76 158 12:51 20.12.2021
6354 Clouds 26 1014 25 10000 5.26 169 11:19 20.12.2021
6355 Clouds 24 1016 28 10000 4.86 174 09:47 20.12.2021
6356 Clouds 24 1018 32 10000 5.19 177 09:28 20.12.2021
6357 Clouds 22 1018 32 10000 5.19 177 08:41 20.12.2021
6358 Clouds 20 1019 36 10000 5.94 171 07:49 20.12.2021
6359 Clouds 20 1019 41 10000 5.85 167 07:25 20.12.2021
6360 Clouds 17 1017 47 10000 5.06 156 03:43 20.12.2021
6361 Clouds 19 1017 44 10000 4.84 152 23:51 19.12.2021
6362 Clouds 19 1017 42 10000 4.97 151 22:45 19.12.2021
6363 Clouds 20 1017 42 10000 5.07 153 21:50 19.12.2021
6364 Clouds 20 1017 40 10000 4.99 151 21:29 19.12.2021
6365 Clouds 20 1018 39 10000 4.51 150 20:30 19.12.2021
6366 Clouds 21 1018 39 10000 4.52 150 19:46 19.12.2021
6367 Clouds 21 1018 35 10000 4.42 149 18:58 19.12.2021
6368 Clouds 21 1017 34 10000 4.19 152 18:27 19.12.2021
6369 Clouds 23 1017 34 10000 4.19 152 17:49 19.12.2021
6370 Clouds 23 1017 32 10000 4.13 150 17:18 19.12.2021
6371 Clouds 24 1016 32 10000 4.67 140 16:25 19.12.2021
6372 Clouds 25 1015 28 10000 5.15 128 15:28 19.12.2021
6373 Clouds 27 1015 28 10000 5.15 128 14:57 19.12.2021
6374 Clouds 27 1015 28 10000 5.15 128 14:36 19.12.2021
6375 Clouds 27 1014 20 10000 2.35 160 13:22 19.12.2021
6376 Clouds 27 1014 20 10000 2.35 160 12:33 19.12.2021
6377 Clouds 26 1014 20 10000 2.65 188 11:42 19.12.2021
6378 Clouds 26 1015 21 10000 3.21 197 10:53 19.12.2021
6379 Clouds 26 1016 22 10000 3.62 194 10:23 19.12.2021
6380 Clouds 26 1016 22 10000 3.62 194 10:23 19.12.2021
6381 Clouds 25 1017 24 10000 3.81 191 09:26 19.12.2021
6382 Clouds 20 1018 28 10000 4.21 184 07:50 19.12.2021
6383 Clouds 16 1018 40 10000 3.66 176 04:44 19.12.2021
6384 Clouds 17 1016 38 10000 5.09 161 00:55 19.12.2021
6385 Clouds 17 1016 37 10000 5.27 161 23:52 18.12.2021
6386 Clouds 18 1016 35 10000 5.62 159 22:31 18.12.2021
6387 Clouds 18 1016 35 10000 5.63 159 21:54 18.12.2021
6388 Clouds 18 1016 35 10000 5.63 159 21:34 18.12.2021
6389 Clouds 18 1016 34 10000 5.19 158 20:44 18.12.2021
6390 Clouds 20 1017 34 10000 4.86 157 19:51 18.12.2021
6391 Clouds 20 1017 33 10000 4.59 160 19:19 18.12.2021
6392 Clouds 21 1016 29 10000 4.76 168 18:19 18.12.2021
6393 Clouds 22 1016 29 10000 4.76 168 17:47 18.12.2021
6394 Clouds 23 1015 29 10000 4.68 149 16:25 18.12.2021
6395 Clouds 25 1014 27 10000 5.32 140 15:26 18.12.2021
6396 Clouds 27 1013 22 10000 3.87 150 14:22 18.12.2021
6397 Clouds 27 1013 21 10000 2.96 180 12:39 18.12.2021
6398 Clouds 25 1014 23 10000 3.92 195 10:52 18.12.2021
6399 Clouds 23 1015 25 10000 4.65 188 09:33 18.12.2021
6400 Clouds 22 1016 28 10000 5.44 184 08:41 18.12.2021
6401 Clouds 22 1017 32 10000 5.87 183 08:18 18.12.2021
6402 Clouds 18 1016 41 10000 6.2 167 01:48 18.12.2021
6403 Clouds 18 1016 36 10000 7.35 166 00:27 18.12.2021
6404 Clouds 18 1016 36 10000 7.35 166 23:37 17.12.2021
6405 Clouds 18 1016 34 10000 6.17 164 21:55 17.12.2021
6406 Clouds 19 1017 34 10000 5.26 166 20:50 17.12.2021
6407 Clouds 19 1016 33 10000 6.03 160 20:28 17.12.2021
6408 Clouds 21 1016 33 10000 5.75 160 18:54 17.12.2021
6409 Clouds 21 1016 30 10000 5.32 162 18:21 17.12.2021
6410 Clouds 21 1015 28 10000 5.99 160 17:25 17.12.2021
6411 Clouds 22 1015 28 10000 5.66 158 16:29 17.12.2021
6412 Clouds 23 1015 28 10000 5.66 158 15:51 17.12.2021
6413 Clouds 23 1015 26 10000 6.25 155 15:18 17.12.2021
6414 Clouds 24 1014 22 10000 7.11 160 14:34 17.12.2021
6415 Clouds 25 1014 19 10000 6.18 174 12:38 17.12.2021
6416 Clouds 24 1015 21 10000 6.65 175 11:18 17.12.2021
6417 Clouds 22 1016 23 10000 7 176 09:52 17.12.2021
6418 Clouds 21 1017 27 10000 7.68 173 08:58 17.12.2021
6419 Clouds 21 1019 31 10000 7.81 173 08:19 17.12.2021
6420 Clouds 14 1019 45 10000 4.59 160 05:21 17.12.2021
6421 Clouds 15 1018 42 10000 4.48 169 02:51 17.12.2021
6422 Clouds 19 1018 39 10000 4.28 177 22:50 16.12.2021
6423 Clouds 19 1018 39 10000 4.82 175 22:22 16.12.2021
6424 Clouds 20 1018 39 10000 4.82 175 21:44 16.12.2021
6425 Clouds 19 1018 37 10000 4.46 170 20:48 16.12.2021
6426 Clouds 19 1018 35 10000 4.39 167 20:22 16.12.2021
6427 Clouds 18 1018 33 10000 4.56 163 19:31 16.12.2021
6428 Clouds 20 1018 32 10000 4.53 160 18:33 16.12.2021
6429 Clouds 21 1018 31 10000 4.19 169 17:47 16.12.2021
6430 Clouds 22 1017 26 10000 4.5 139 16:26 16.12.2021
6431 Clouds 24 1017 26 10000 4.5 139 15:50 16.12.2021
6432 Clouds 25 1015 12 10000 2.93 130 13:47 16.12.2021
6433 Clouds 24 1016 9 10000 2.66 177 12:30 16.12.2021
6434 Clouds 25 1016 9 10000 3.26 182 11:19 16.12.2021
6435 Clouds 24 1016 9 10000 3.26 182 10:41 16.12.2021
6436 Clouds 22 1017 9 10000 3.25 188 09:43 16.12.2021
6437 Clouds 17 1020 14 10000 3.11 171 07:18 16.12.2021
6438 Clouds 13 1020 17 10000 2.65 166 06:18 16.12.2021
6439 Clouds 16 1017 32 10000 3.13 174 23:59 15.12.2021
6440 Clouds 16 1017 31 10000 4.78 167 23:18 15.12.2021
6441 Clouds 17 1018 32 10000 4.56 166 22:21 15.12.2021
6442 Clouds 17 1018 32 10000 4.56 166 21:44 15.12.2021
6443 Clouds 17 1018 32 10000 4.37 162 21:24 15.12.2021
6444 Clouds 16 1018 31 10000 4.13 166 19:54 15.12.2021
6445 Clouds 16 1018 32 10000 4.13 157 19:18 15.12.2021
6446 Clouds 17 1018 30 10000 4.33 159 18:20 15.12.2021
6447 Clouds 18 1018 30 10000 4.33 159 17:45 15.12.2021
6448 Clouds 18 1018 30 10000 4.53 152 17:21 15.12.2021
6449 Clouds 21 1017 29 10000 4.45 140 15:49 15.12.2021
6450 Clouds 21 1017 29 10000 4.45 140 15:30 15.12.2021
6451 Clouds 21 1017 25 10000 4.92 134 14:48 15.12.2021
6452 Clouds 21 1016 21 10000 5.68 140 13:45 15.12.2021
6453 Clouds 22 1016 18 10000 5.65 154 11:52 15.12.2021
6454 Clouds 20 1018 19 10000 5.56 161 10:20 15.12.2021
6455 Clouds 18 1020 23 10000 5.19 158 08:26 15.12.2021
6456 Clouds 11 1020 29 10000 3.66 151 05:53 15.12.2021
6457 Clouds 12 1018 28 10000 3.48 156 00:37 15.12.2021
6458 Clouds 11 1018 25 10000 3.67 156 23:27 14.12.2021
6459 Clouds 12 1018 25 10000 3.67 156 22:44 14.12.2021
6460 Clouds 12 1018 22 10000 3.91 151 21:43 14.12.2021
6461 Clouds 13 1019 17 10000 3.56 139 20:22 14.12.2021
6462 Clouds 15 1019 17 10000 3.56 139 19:34 14.12.2021
6463 Clouds 15 1019 15 10000 3.66 132 18:38 14.12.2021
6464 Clouds 16 1019 14 10000 3.3 129 17:55 14.12.2021
6465 Clouds 18 1018 13 10000 3.25 131 16:44 14.12.2021
6466 Clouds 18 1018 12 10000 3.18 134 16:21 14.12.2021
6467 Clouds 23 1017 10 10000 3.34 133 13:59 14.12.2021
6468 Clouds 23 1016 9 10000 3.26 136 12:50 14.12.2021
6469 Clouds 21 1017 10 10000 2.93 146 11:25 14.12.2021
6470 Clouds 21 1017 10 10000 2.93 146 10:59 14.12.2021
6471 Clouds 19 1018 11 10000 2.85 148 09:54 14.12.2021
6472 Clouds 16 1020 12 10000 2.59 144 08:49 14.12.2021
6473 Clouds 16 1020 13 10000 2.58 146 08:21 14.12.2021
6474 Clouds 15 1021 15 10000 2.49 155 07:23 14.12.2021
6475 Clouds 9 1019 18 10000 1.58 96 23:52 13.12.2021
6476 Clouds 10 1021 18 10000 1.22 44 22:26 13.12.2021
6477 Clouds 10 1021 18 10000 1.21 44 21:39 13.12.2021
6478 Clouds 12 1021 17 10000 1.37 40 20:54 13.12.2021
6479 Clouds 12 1021 16 10000 2.19 43 20:22 13.12.2021
6480 Clouds 13 1021 16 10000 2.19 43 19:49 13.12.2021
6481 Clouds 13 1021 16 10000 2.19 43 19:49 13.12.2021
6482 Clouds 16 1021 12 10000 3.34 56 17:28 13.12.2021
6483 Clouds 17 1021 12 10000 3.34 57 16:43 13.12.2021
6484 Clouds 20 1020 11 10000 3.05 45 15:43 13.12.2021
6485 Clouds 22 1019 11 10000 2.56 32 14:42 13.12.2021
6486 Clouds 21 1019 10 10000 2.4 27 13:37 13.12.2021
6487 Clouds 22 1019 11 10000 2.49 17 12:40 13.12.2021
6488 Clouds 21 1019 12 10000 2.3 12 11:52 13.12.2021
6489 Clouds 21 1020 14 10000 1.92 358 11:29 13.12.2021
6490 Clouds 18 1020 14 10000 1.92 358 10:37 13.12.2021
6491 Clouds 15 1022 19 10000 1.53 339 08:44 13.12.2021
6492 Clear 14 1024 28 10000 0 0 06:55 13.12.2021
6493 Clouds 8 1023 32 10000 2.3 337 05:19 13.12.2021
6494 Clouds 10 1022 30 10000 2.69 342 00:27 13.12.2021
6495 Clouds 13 1022 28 10000 2.93 352 21:59 12.12.2021
6496 Clouds 13 1023 27 10000 2.98 358 21:24 12.12.2021
6497 Clouds 14 1023 25 10000 3.35 8 19:35 12.12.2021
6498 Clouds 16 1023 20 10000 3.77 24 18:22 12.12.2021
6499 Clouds 19 1021 21 10000 3.68 4 16:32 12.12.2021
6500 Clouds 20 1021 21 10000 3.68 4 15:55 12.12.2021
6501 Clouds 20 1021 21 10000 3.17 356 15:28 12.12.2021
6502 Clouds 21 1021 21 10000 3.17 356 14:46 12.12.2021
6503 Clouds 21 1020 20 10000 3.84 355 14:18 12.12.2021
6504 Clouds 23 1020 20 10000 3.67 356 12:48 12.12.2021
6505 Clear 21 1023 24 10000 4.12 350 11:45 12.12.2021
6506 Clear 21 1023 24 10000 4.12 350 11:27 12.12.2021
6507 Clear 20 1024 26 10000 0 0 10:44 12.12.2021
6508 Clear 19 1026 27 10000 4.12 350 09:58 12.12.2021
6509 Clear 17 1027 31 10000 2.06 360 08:46 12.12.2021
6510 Clear 17 1027 31 10000 2.57 350 07:25 12.12.2021
6511 Clear 12 1026 40 10000 0 0 05:29 12.12.2021
6512 Clouds 9 1024 43 10000 2.13 353 04:19 12.12.2021
6513 Clouds 10 1023 41 10000 1.72 354 00:54 12.12.2021
6514 Clouds 13 1023 40 10000 1.71 10 22:56 11.12.2021
6515 Clouds 13 1024 39 10000 2.08 27 22:20 11.12.2021
6516 Clouds 14 1024 38 10000 2.35 33 21:26 11.12.2021
6517 Clouds 13 1024 36 10000 2.6 49 20:18 11.12.2021
6518 Clouds 14 1024 35 10000 2.7 61 19:21 11.12.2021
6519 Clouds 15 1024 33 10000 2.82 60 18:42 11.12.2021
6520 Clouds 18 1023 32 10000 2.83 71 17:53 11.12.2021
6521 Clouds 20 1022 28 10000 1.66 50 15:59 11.12.2021
6522 Clouds 20 1022 28 10000 1.66 50 15:40 11.12.2021
6523 Clouds 22 1021 27 10000 1.47 54 14:35 11.12.2021
6524 Clear 21 1021 24 10000 1.17 69 12:29 11.12.2021
6525 Clear 16 1026 41 10000 0 0 10:49 11.12.2021
6526 Clear 15 1027 41 10000 0 0 09:40 11.12.2021
6527 Clouds 9 1024 43 10000 2.15 11 03:57 11.12.2021
6528 Clouds 11 1023 41 10000 2.19 11 00:47 11.12.2021
6529 Clouds 12 1023 39 10000 2.36 14 23:42 10.12.2021
6530 Clouds 11 1023 38 10000 2.24 40 22:39 10.12.2021
6531 Clouds 12 1023 37 10000 2.58 40 21:40 10.12.2021
6532 Clouds 13 1024 34 10000 3.2 37 20:26 10.12.2021
6533 Clouds 15 1024 33 10000 3.36 44 19:18 10.12.2021
6534 Clouds 17 1023 30 10000 4.09 48 17:46 10.12.2021
6535 Clouds 19 1022 27 10000 4.28 50 16:35 10.12.2021
6536 Clouds 20 1022 27 10000 4.28 50 15:43 10.12.2021
6537 Clouds 20 1022 25 10000 3.95 51 15:25 10.12.2021
6538 Clouds 22 1022 25 10000 3.95 51 14:35 10.12.2021
6539 Clouds 22 1021 22 10000 4.1 50 13:49 10.12.2021
6540 Clouds 22 1021 22 10000 3.65 50 12:56 10.12.2021
6541 Clouds 22 1021 22 10000 3.63 47 11:41 10.12.2021
6542 Clouds 20 1022 23 10000 3.59 43 10:57 10.12.2021
6543 Clouds 18 1023 24 10000 3.98 36 09:46 10.12.2021
6544 Clouds 15 1025 31 10000 4.82 4 07:28 10.12.2021
6545 Clouds 11 1024 46 10000 3.64 350 04:57 10.12.2021
6546 Clouds 13 1022 43 10000 3.54 350 02:42 10.12.2021
6547 Clouds 15 1021 31 10000 2.49 353 23:42 09.12.2021
6548 Clouds 16 1021 30 10000 1.83 1 22:41 09.12.2021
6549 Clouds 16 1021 30 10000 0.91 58 22:22 09.12.2021
6550 Clouds 17 1021 30 10000 0.91 58 21:40 09.12.2021
6551 Clouds 18 1021 29 10000 1.11 109 20:35 09.12.2021
6552 Clouds 18 1021 28 10000 1.65 127 19:43 09.12.2021
6553 Clouds 18 1021 27 10000 2.2 137 19:20 09.12.2021
6554 Clouds 20 1020 24 10000 2.86 143 18:19 09.12.2021
6555 Clouds 22 1020 24 10000 2.89 143 17:48 09.12.2021
6556 Clouds 22 1020 23 10000 3.26 144 17:24 09.12.2021
6557 Clouds 22 1020 23 10000 3.24 144 16:36 09.12.2021
6558 Clouds 25 1019 20 10000 3.06 125 15:18 09.12.2021
6559 Clouds 27 1018 17 10000 2.55 83 14:30 09.12.2021
6560 Clouds 29 1018 16 10000 2.06 53 12:48 09.12.2021
6561 Clear 26 1021 21 10000 0 0 11:51 09.12.2021
6562 Clouds 25 1019 19 10000 0.59 221 10:28 09.12.2021
6563 Clear 19 1023 27 10000 1.54 160 07:34 09.12.2021
6564 Clouds 13 1020 36 10000 3.24 161 03:56 09.12.2021
6565 Clouds 14 1020 31 10000 3.16 154 00:25 09.12.2021
6566 Clouds 15 1020 31 10000 3.16 154 23:37 08.12.2021
6567 Clouds 16 1020 30 10000 3.69 154 22:57 08.12.2021
6568 Clouds 16 1020 28 10000 3.92 152 22:25 08.12.2021
6569 Clouds 17 1020 28 10000 3.92 152 21:33 08.12.2021
6570 Clouds 17 1021 27 10000 4.06 151 20:50 08.12.2021
6571 Clouds 18 1021 27 10000 4.13 151 19:57 08.12.2021
6572 Clouds 18 1021 27 10000 3.45 145 19:20 08.12.2021
6573 Clouds 18 1020 28 10000 3.37 129 18:22 08.12.2021
6574 Clouds 21 1020 28 10000 3.34 120 16:55 08.12.2021
6575 Clouds 24 1019 27 10000 3.56 117 15:42 08.12.2021
6576 Clouds 24 1018 25 10000 3.54 113 15:22 08.12.2021
6577 Clouds 26 1018 21 10000 2.35 132 13:26 08.12.2021
6578 Clear 23 1021 18 10000 3.6 170 10:45 08.12.2021
6579 Clear 22 1022 20 10000 5.14 150 09:58 08.12.2021
6580 Clear 20 1023 22 10000 4.63 170 08:34 08.12.2021
6581 Clear 18 1023 27 10000 0 0 06:22 08.12.2021
6582 Clouds 11 1021 26 10000 1.18 125 01:20 08.12.2021
6583 Clouds 13 1021 25 10000 1.19 68 23:23 07.12.2021
6584 Clouds 14 1021 23 10000 1.93 39 21:26 07.12.2021
6585 Clouds 15 1022 22 10000 2.49 38 20:25 07.12.2021
6586 Clear 16 1021 22 10000 3.16 52 19:21 07.12.2021
6587 Clear 18 1021 23 10000 3.59 47 18:23 07.12.2021
6588 Clear 19 1020 24 10000 3.3 27 17:27 07.12.2021
6589 Clear 19 1020 24 10000 3.31 27 16:56 07.12.2021
6590 Clear 19 1020 24 10000 2.67 15 16:26 07.12.2021
6591 Clear 24 1019 24 10000 2.51 8 14:38 07.12.2021
6592 Clear 25 1019 22 10000 2.85 2 13:41 07.12.2021
6593 Clear 24 1021 19 10000 0 0 12:22 07.12.2021
6594 Clear 23 1021 18 10000 4.12 30 11:23 07.12.2021
6595 Clear 21 1023 21 10000 1.54 30 09:40 07.12.2021
6596 Clear 18 1024 25 10000 3.09 30 07:50 07.12.2021
6597 Clear 14 1023 33 10000 0 0 05:52 07.12.2021
6598 Clear 14 1023 33 10000 0 0 05:26 07.12.2021
6599 Clouds 16 1020 33 10000 3.89 358 23:38 06.12.2021
6600 Clouds 16 1020 33 10000 4.24 360 22:41 06.12.2021
6601 Clear 17 1020 32 10000 4.34 0 21:59 06.12.2021
6602 Clear 17 1020 32 10000 4.34 0 21:36 06.12.2021
6603 Clear 18 1020 31 10000 4.47 0 20:33 06.12.2021
6604 Clear 18 1020 31 10000 4.57 4 19:25 06.12.2021
6605 Clear 20 1020 31 10000 4.57 4 18:55 06.12.2021
6606 Clear 21 1019 31 10000 4.76 11 17:55 06.12.2021
6607 Clear 21 1019 31 10000 4.76 11 17:33 06.12.2021
6608 Clouds 25 1017 24 10000 3.68 352 15:52 06.12.2021
6609 Clouds 27 1016 21 10000 3.12 347 14:46 06.12.2021
6610 Clouds 28 1015 18 10000 3.23 301 13:35 06.12.2021
6611 Clouds 28 1015 18 10000 3.23 301 12:38 06.12.2021
6612 Clear 26 1020 19 10000 3.09 220 10:28 06.12.2021
6613 Clear 20 1020 26 10000 3.6 170 07:41 06.12.2021
6614 Clear 12 1018 33 10000 2.71 199 03:52 06.12.2021
6615 Clear 15 1018 33 10000 2.74 159 22:28 05.12.2021
6616 Clear 15 1018 33 10000 2.75 158 22:28 05.12.2021
6617 Clear 16 1018 32 10000 3.73 157 21:26 05.12.2021
6618 Clear 17 1018 32 10000 3.73 157 20:54 05.12.2021
6619 Clear 17 1018 31 10000 3.9 160 20:18 05.12.2021
6620 Clear 18 1018 30 10000 3.91 167 19:26 05.12.2021
6621 Clear 19 1018 28 10000 3.69 164 18:31 05.12.2021
6622 Clear 20 1018 28 10000 3.67 164 17:53 05.12.2021
6623 Clear 20 1018 28 10000 3.67 164 17:34 05.12.2021
6624 Clear 22 1017 27 10000 3.86 147 16:38 05.12.2021
6625 Clear 22 1017 26 10000 4.25 130 16:19 05.12.2021
6626 Clouds 26 1016 25 10000 4.41 122 14:48 05.12.2021
6627 Clouds 26 1016 25 10000 4.4 122 14:30 05.12.2021
6628 Clouds 26 1016 21 10000 4.08 133 13:36 05.12.2021
6629 Clear 25 1019 18 10000 3.09 170 12:47 05.12.2021
6630 Clear 25 1019 18 10000 3.09 170 12:27 05.12.2021
6631 Clear 25 1019 19 10000 3.09 210 11:46 05.12.2021
6632 Clear 24 1020 19 10000 2.57 190 10:43 05.12.2021
6633 Clear 22 1021 21 10000 2.57 150 09:47 05.12.2021
6634 Clear 17 1022 27 10000 0 0 06:31 05.12.2021
6635 Clear 11 1019 30 10000 1.82 160 01:38 05.12.2021
6636 Clear 13 1020 28 10000 1.79 153 23:22 04.12.2021
6637 Clear 14 1020 28 10000 1.68 131 21:52 04.12.2021
6638 Clear 15 1021 28 10000 1.88 87 20:47 04.12.2021
6639 Clear 16 1021 28 10000 2.36 68 19:54 04.12.2021
6640 Clear 16 1021 28 10000 2.36 68 19:30 04.12.2021
6641 Clear 19 1021 28 10000 2.48 67 17:58 04.12.2021
6642 Clear 19 1021 28 10000 2.48 67 17:36 04.12.2021
6643 Clear 20 1020 27 10000 2.28 63 16:47 04.12.2021
6644 Clear 20 1020 27 10000 2.31 62 16:47 04.12.2021
6645 Clear 20 1020 27 10000 2.12 57 16:28 04.12.2021
6646 Clear 22 1019 23 10000 2.03 16 13:39 04.12.2021
6647 Clear 22 1022 28 10000 0.51 290 11:44 04.12.2021
6648 Clear 22 1022 28 10000 0.51 290 11:20 04.12.2021
6649 Clear 21 1023 21 10000 1.03 360 10:24 04.12.2021
6650 Clear 19 1025 26